<?xml version="1.0" encoding="UTF-8" standalone="no" ?>
<gpx xmlns="http://www.topografix.com/GPX/1/1" xmlns:xsi="http://www.w3.org/2001/XMLSchema-instance" xsi:schemaLocation="http://www.topografix.com/GPX/1/1 http://www.topografix.com/GPX/1/1/gpx.xsd" version="1.1" creator="VisuGPX - https://www.visugpx.com">
  <metadata>
    <name>Ornans les belvédères</name>
  </metadata>
  <trk>
    <name><![CDATA[Ornans les belvédères_3]]></name>
    <extensions>
      <line xmlns="http://www.topografix.com/GPX/gpx_style/0/2">
        <color>0000FF</color>
        <width>4</width>
      </line>
    </extensions>
    <trkseg>
      <trkpt lat="47.10403" lon="6.1632">
        <ele>333.4</ele>
        <time>2021-08-23T12:25:54Z</time>
      </trkpt>
      <trkpt lat="47.10402" lon="6.1632">
        <ele>340.6</ele>
        <time>2021-08-23T12:25:55Z</time>
      </trkpt>
      <trkpt lat="47.10401" lon="6.1632">
        <ele>341.6</ele>
        <time>2021-08-23T12:25:56Z</time>
      </trkpt>
      <trkpt lat="47.104" lon="6.16321">
        <ele>343.2</ele>
        <time>2021-08-23T12:25:57Z</time>
      </trkpt>
      <trkpt lat="47.10396" lon="6.1632">
        <ele>342.6</ele>
        <time>2021-08-23T12:26:04Z</time>
      </trkpt>
      <trkpt lat="47.10396" lon="6.16323">
        <ele>343.2</ele>
        <time>2021-08-23T12:26:16Z</time>
      </trkpt>
      <trkpt lat="47.10396" lon="6.16322">
        <ele>343.2</ele>
        <time>2021-08-23T12:26:17Z</time>
      </trkpt>
      <trkpt lat="47.10396" lon="6.1632">
        <ele>343</ele>
        <time>2021-08-23T12:26:18Z</time>
      </trkpt>
      <trkpt lat="47.10397" lon="6.16318">
        <ele>343</ele>
        <time>2021-08-23T12:26:19Z</time>
      </trkpt>
      <trkpt lat="47.10399" lon="6.16316">
        <ele>343</ele>
        <time>2021-08-23T12:26:20Z</time>
      </trkpt>
      <trkpt lat="47.104" lon="6.16313">
        <ele>343</ele>
        <time>2021-08-23T12:26:21Z</time>
      </trkpt>
      <trkpt lat="47.10401" lon="6.1631">
        <ele>343</ele>
        <time>2021-08-23T12:26:22Z</time>
      </trkpt>
      <trkpt lat="47.10403" lon="6.16306">
        <ele>343</ele>
        <time>2021-08-23T12:26:23Z</time>
      </trkpt>
      <trkpt lat="47.10404" lon="6.16303">
        <ele>343</ele>
        <time>2021-08-23T12:26:24Z</time>
      </trkpt>
      <trkpt lat="47.1041" lon="6.16292">
        <ele>342.8</ele>
        <time>2021-08-23T12:26:27Z</time>
      </trkpt>
      <trkpt lat="47.10412" lon="6.16289">
        <ele>342.8</ele>
        <time>2021-08-23T12:26:28Z</time>
      </trkpt>
      <trkpt lat="47.10413" lon="6.16286">
        <ele>342.8</ele>
        <time>2021-08-23T12:26:29Z</time>
      </trkpt>
      <trkpt lat="47.10414" lon="6.16283">
        <ele>342.8</ele>
        <time>2021-08-23T12:26:30Z</time>
      </trkpt>
      <trkpt lat="47.10419" lon="6.16275">
        <ele>343</ele>
        <time>2021-08-23T12:26:33Z</time>
      </trkpt>
      <trkpt lat="47.10421" lon="6.16274">
        <ele>343</ele>
        <time>2021-08-23T12:26:34Z</time>
      </trkpt>
      <trkpt lat="47.10423" lon="6.16273">
        <ele>343.2</ele>
        <time>2021-08-23T12:26:35Z</time>
      </trkpt>
      <trkpt lat="47.10425" lon="6.16272">
        <ele>343.2</ele>
        <time>2021-08-23T12:26:36Z</time>
      </trkpt>
      <trkpt lat="47.10427" lon="6.16271">
        <ele>343.2</ele>
        <time>2021-08-23T12:26:37Z</time>
      </trkpt>
      <trkpt lat="47.10429" lon="6.1627">
        <ele>343.2</ele>
        <time>2021-08-23T12:26:38Z</time>
      </trkpt>
      <trkpt lat="47.10431" lon="6.16268">
        <ele>343.2</ele>
        <time>2021-08-23T12:26:39Z</time>
      </trkpt>
      <trkpt lat="47.10432" lon="6.16265">
        <ele>343.2</ele>
        <time>2021-08-23T12:26:40Z</time>
      </trkpt>
      <trkpt lat="47.10433" lon="6.16262">
        <ele>343.2</ele>
        <time>2021-08-23T12:26:41Z</time>
      </trkpt>
      <trkpt lat="47.10434" lon="6.16258">
        <ele>343.2</ele>
        <time>2021-08-23T12:26:42Z</time>
      </trkpt>
      <trkpt lat="47.10435" lon="6.16254">
        <ele>343</ele>
        <time>2021-08-23T12:26:43Z</time>
      </trkpt>
      <trkpt lat="47.10435" lon="6.1625">
        <ele>343</ele>
        <time>2021-08-23T12:26:44Z</time>
      </trkpt>
      <trkpt lat="47.10437" lon="6.16242">
        <ele>343</ele>
        <time>2021-08-23T12:26:46Z</time>
      </trkpt>
      <trkpt lat="47.10439" lon="6.16232">
        <ele>343</ele>
        <time>2021-08-23T12:26:48Z</time>
      </trkpt>
      <trkpt lat="47.1044" lon="6.16227">
        <ele>343</ele>
        <time>2021-08-23T12:26:49Z</time>
      </trkpt>
      <trkpt lat="47.10441" lon="6.16219">
        <ele>343</ele>
        <time>2021-08-23T12:26:51Z</time>
      </trkpt>
      <trkpt lat="47.10447" lon="6.16183">
        <ele>343</ele>
        <time>2021-08-23T12:26:58Z</time>
      </trkpt>
      <trkpt lat="47.1045" lon="6.16168">
        <ele>342.8</ele>
        <time>2021-08-23T12:27:01Z</time>
      </trkpt>
      <trkpt lat="47.10451" lon="6.16162">
        <ele>342.8</ele>
        <time>2021-08-23T12:27:02Z</time>
      </trkpt>
      <trkpt lat="47.10452" lon="6.16157">
        <ele>342.8</ele>
        <time>2021-08-23T12:27:03Z</time>
      </trkpt>
      <trkpt lat="47.10462" lon="6.16114">
        <ele>342.6</ele>
        <time>2021-08-23T12:27:10Z</time>
      </trkpt>
      <trkpt lat="47.1047" lon="6.16073">
        <ele>342.6</ele>
        <time>2021-08-23T12:27:16Z</time>
      </trkpt>
      <trkpt lat="47.10472" lon="6.16067">
        <ele>342.6</ele>
        <time>2021-08-23T12:27:17Z</time>
      </trkpt>
      <trkpt lat="47.10484" lon="6.16016">
        <ele>342.4</ele>
        <time>2021-08-23T12:27:25Z</time>
      </trkpt>
      <trkpt lat="47.10495" lon="6.15947">
        <ele>342.6</ele>
        <time>2021-08-23T12:27:36Z</time>
      </trkpt>
      <trkpt lat="47.10498" lon="6.15893">
        <ele>342.4</ele>
        <time>2021-08-23T12:27:44Z</time>
      </trkpt>
      <trkpt lat="47.10497" lon="6.15887">
        <ele>342.2</ele>
        <time>2021-08-23T12:27:45Z</time>
      </trkpt>
      <trkpt lat="47.10497" lon="6.15867">
        <ele>342.2</ele>
        <time>2021-08-23T12:27:48Z</time>
      </trkpt>
      <trkpt lat="47.10494" lon="6.1584">
        <ele>342.2</ele>
        <time>2021-08-23T12:27:52Z</time>
      </trkpt>
      <trkpt lat="47.10487" lon="6.15813">
        <ele>342.4</ele>
        <time>2021-08-23T12:27:56Z</time>
      </trkpt>
      <trkpt lat="47.10482" lon="6.15801">
        <ele>342.4</ele>
        <time>2021-08-23T12:27:58Z</time>
      </trkpt>
      <trkpt lat="47.1047" lon="6.15778">
        <ele>342.2</ele>
        <time>2021-08-23T12:28:02Z</time>
      </trkpt>
      <trkpt lat="47.10463" lon="6.1576">
        <ele>342.2</ele>
        <time>2021-08-23T12:28:05Z</time>
      </trkpt>
      <trkpt lat="47.10462" lon="6.15755">
        <ele>342.2</ele>
        <time>2021-08-23T12:28:06Z</time>
      </trkpt>
      <trkpt lat="47.1046" lon="6.15749">
        <ele>342.2</ele>
        <time>2021-08-23T12:28:07Z</time>
      </trkpt>
      <trkpt lat="47.10459" lon="6.15744">
        <ele>342.2</ele>
        <time>2021-08-23T12:28:08Z</time>
      </trkpt>
      <trkpt lat="47.10458" lon="6.15739">
        <ele>342.2</ele>
        <time>2021-08-23T12:28:09Z</time>
      </trkpt>
      <trkpt lat="47.10457" lon="6.15734">
        <ele>342.2</ele>
        <time>2021-08-23T12:28:10Z</time>
      </trkpt>
      <trkpt lat="47.10456" lon="6.15729">
        <ele>342.6</ele>
        <time>2021-08-23T12:28:11Z</time>
      </trkpt>
      <trkpt lat="47.10456" lon="6.15725">
        <ele>342.6</ele>
        <time>2021-08-23T12:28:12Z</time>
      </trkpt>
      <trkpt lat="47.10456" lon="6.1572">
        <ele>342.8</ele>
        <time>2021-08-23T12:28:13Z</time>
      </trkpt>
      <trkpt lat="47.10455" lon="6.15716">
        <ele>343</ele>
        <time>2021-08-23T12:28:14Z</time>
      </trkpt>
      <trkpt lat="47.10455" lon="6.15713">
        <ele>343.4</ele>
        <time>2021-08-23T12:28:15Z</time>
      </trkpt>
      <trkpt lat="47.10455" lon="6.15709">
        <ele>343.6</ele>
        <time>2021-08-23T12:28:16Z</time>
      </trkpt>
      <trkpt lat="47.10455" lon="6.15706">
        <ele>343.8</ele>
        <time>2021-08-23T12:28:17Z</time>
      </trkpt>
      <trkpt lat="47.10454" lon="6.15703">
        <ele>344.2</ele>
        <time>2021-08-23T12:28:18Z</time>
      </trkpt>
      <trkpt lat="47.10454" lon="6.15697">
        <ele>344.4</ele>
        <time>2021-08-23T12:28:20Z</time>
      </trkpt>
      <trkpt lat="47.10454" lon="6.15694">
        <ele>344.6</ele>
        <time>2021-08-23T12:28:21Z</time>
      </trkpt>
      <trkpt lat="47.10453" lon="6.15691">
        <ele>344.6</ele>
        <time>2021-08-23T12:28:22Z</time>
      </trkpt>
      <trkpt lat="47.10453" lon="6.15687">
        <ele>345</ele>
        <time>2021-08-23T12:28:23Z</time>
      </trkpt>
      <trkpt lat="47.10452" lon="6.15684">
        <ele>345</ele>
        <time>2021-08-23T12:28:24Z</time>
      </trkpt>
      <trkpt lat="47.10452" lon="6.15681">
        <ele>345.4</ele>
        <time>2021-08-23T12:28:25Z</time>
      </trkpt>
      <trkpt lat="47.10451" lon="6.15678">
        <ele>345.4</ele>
        <time>2021-08-23T12:28:26Z</time>
      </trkpt>
      <trkpt lat="47.10451" lon="6.15674">
        <ele>345.6</ele>
        <time>2021-08-23T12:28:27Z</time>
      </trkpt>
      <trkpt lat="47.1045" lon="6.15671">
        <ele>345.8</ele>
        <time>2021-08-23T12:28:28Z</time>
      </trkpt>
      <trkpt lat="47.10449" lon="6.15669">
        <ele>346.2</ele>
        <time>2021-08-23T12:28:29Z</time>
      </trkpt>
      <trkpt lat="47.10449" lon="6.15666">
        <ele>346.6</ele>
        <time>2021-08-23T12:28:30Z</time>
      </trkpt>
      <trkpt lat="47.10448" lon="6.15663">
        <ele>346.8</ele>
        <time>2021-08-23T12:28:31Z</time>
      </trkpt>
      <trkpt lat="47.10447" lon="6.15661">
        <ele>347</ele>
        <time>2021-08-23T12:28:32Z</time>
      </trkpt>
      <trkpt lat="47.10445" lon="6.15658">
        <ele>347.2</ele>
        <time>2021-08-23T12:28:33Z</time>
      </trkpt>
      <trkpt lat="47.10444" lon="6.15655">
        <ele>347.4</ele>
        <time>2021-08-23T12:28:34Z</time>
      </trkpt>
      <trkpt lat="47.10444" lon="6.15652">
        <ele>347.6</ele>
        <time>2021-08-23T12:28:35Z</time>
      </trkpt>
      <trkpt lat="47.10443" lon="6.15649">
        <ele>347.8</ele>
        <time>2021-08-23T12:28:36Z</time>
      </trkpt>
      <trkpt lat="47.10442" lon="6.15646">
        <ele>348.2</ele>
        <time>2021-08-23T12:28:37Z</time>
      </trkpt>
      <trkpt lat="47.10441" lon="6.15644">
        <ele>348.4</ele>
        <time>2021-08-23T12:28:38Z</time>
      </trkpt>
      <trkpt lat="47.1044" lon="6.15641">
        <ele>348.6</ele>
        <time>2021-08-23T12:28:39Z</time>
      </trkpt>
      <trkpt lat="47.10439" lon="6.15638">
        <ele>348.8</ele>
        <time>2021-08-23T12:28:40Z</time>
      </trkpt>
      <trkpt lat="47.10438" lon="6.15635">
        <ele>349</ele>
        <time>2021-08-23T12:28:41Z</time>
      </trkpt>
      <trkpt lat="47.10437" lon="6.15632">
        <ele>349</ele>
        <time>2021-08-23T12:28:42Z</time>
      </trkpt>
      <trkpt lat="47.10436" lon="6.15628">
        <ele>349.2</ele>
        <time>2021-08-23T12:28:43Z</time>
      </trkpt>
      <trkpt lat="47.10435" lon="6.15625">
        <ele>349.2</ele>
        <time>2021-08-23T12:28:44Z</time>
      </trkpt>
      <trkpt lat="47.10435" lon="6.15621">
        <ele>349.4</ele>
        <time>2021-08-23T12:28:45Z</time>
      </trkpt>
      <trkpt lat="47.10434" lon="6.15617">
        <ele>349.6</ele>
        <time>2021-08-23T12:28:46Z</time>
      </trkpt>
      <trkpt lat="47.10434" lon="6.15613">
        <ele>349.6</ele>
        <time>2021-08-23T12:28:47Z</time>
      </trkpt>
      <trkpt lat="47.10434" lon="6.15609">
        <ele>349.8</ele>
        <time>2021-08-23T12:28:48Z</time>
      </trkpt>
      <trkpt lat="47.10433" lon="6.15604">
        <ele>349.8</ele>
        <time>2021-08-23T12:28:49Z</time>
      </trkpt>
      <trkpt lat="47.10433" lon="6.15599">
        <ele>349.8</ele>
        <time>2021-08-23T12:28:50Z</time>
      </trkpt>
      <trkpt lat="47.10434" lon="6.15595">
        <ele>349.8</ele>
        <time>2021-08-23T12:28:51Z</time>
      </trkpt>
      <trkpt lat="47.10434" lon="6.1559">
        <ele>349.8</ele>
        <time>2021-08-23T12:28:52Z</time>
      </trkpt>
      <trkpt lat="47.10435" lon="6.15585">
        <ele>349.8</ele>
        <time>2021-08-23T12:28:53Z</time>
      </trkpt>
      <trkpt lat="47.10435" lon="6.1558">
        <ele>349.8</ele>
        <time>2021-08-23T12:28:54Z</time>
      </trkpt>
      <trkpt lat="47.10436" lon="6.15576">
        <ele>349.8</ele>
        <time>2021-08-23T12:28:55Z</time>
      </trkpt>
      <trkpt lat="47.10436" lon="6.15571">
        <ele>349.8</ele>
        <time>2021-08-23T12:28:56Z</time>
      </trkpt>
      <trkpt lat="47.10437" lon="6.15566">
        <ele>349.6</ele>
        <time>2021-08-23T12:28:57Z</time>
      </trkpt>
      <trkpt lat="47.10437" lon="6.15561">
        <ele>349.6</ele>
        <time>2021-08-23T12:28:58Z</time>
      </trkpt>
      <trkpt lat="47.10438" lon="6.15556">
        <ele>349.4</ele>
        <time>2021-08-23T12:28:59Z</time>
      </trkpt>
      <trkpt lat="47.10438" lon="6.15552">
        <ele>349.4</ele>
        <time>2021-08-23T12:29:00Z</time>
      </trkpt>
      <trkpt lat="47.10438" lon="6.15548">
        <ele>349.4</ele>
        <time>2021-08-23T12:29:01Z</time>
      </trkpt>
      <trkpt lat="47.10438" lon="6.15544">
        <ele>349.4</ele>
        <time>2021-08-23T12:29:02Z</time>
      </trkpt>
      <trkpt lat="47.10439" lon="6.1554">
        <ele>349.4</ele>
        <time>2021-08-23T12:29:03Z</time>
      </trkpt>
      <trkpt lat="47.1044" lon="6.15536">
        <ele>349.4</ele>
        <time>2021-08-23T12:29:04Z</time>
      </trkpt>
      <trkpt lat="47.1044" lon="6.15532">
        <ele>349.4</ele>
        <time>2021-08-23T12:29:05Z</time>
      </trkpt>
      <trkpt lat="47.10441" lon="6.15528">
        <ele>349.4</ele>
        <time>2021-08-23T12:29:06Z</time>
      </trkpt>
      <trkpt lat="47.10441" lon="6.15524">
        <ele>349.4</ele>
        <time>2021-08-23T12:29:07Z</time>
      </trkpt>
      <trkpt lat="47.10442" lon="6.1552">
        <ele>349.4</ele>
        <time>2021-08-23T12:29:08Z</time>
      </trkpt>
      <trkpt lat="47.10442" lon="6.15516">
        <ele>349.6</ele>
        <time>2021-08-23T12:29:09Z</time>
      </trkpt>
      <trkpt lat="47.10443" lon="6.15513">
        <ele>349.6</ele>
        <time>2021-08-23T12:29:10Z</time>
      </trkpt>
      <trkpt lat="47.10443" lon="6.15509">
        <ele>349.6</ele>
        <time>2021-08-23T12:29:11Z</time>
      </trkpt>
      <trkpt lat="47.10443" lon="6.15504">
        <ele>349.6</ele>
        <time>2021-08-23T12:29:12Z</time>
      </trkpt>
      <trkpt lat="47.10445" lon="6.15492">
        <ele>349.8</ele>
        <time>2021-08-23T12:29:15Z</time>
      </trkpt>
      <trkpt lat="47.10447" lon="6.15472">
        <ele>350</ele>
        <time>2021-08-23T12:29:20Z</time>
      </trkpt>
      <trkpt lat="47.10448" lon="6.15464">
        <ele>350.2</ele>
        <time>2021-08-23T12:29:22Z</time>
      </trkpt>
      <trkpt lat="47.10449" lon="6.1546">
        <ele>350.2</ele>
        <time>2021-08-23T12:29:23Z</time>
      </trkpt>
      <trkpt lat="47.10449" lon="6.15456">
        <ele>350.2</ele>
        <time>2021-08-23T12:29:24Z</time>
      </trkpt>
      <trkpt lat="47.1045" lon="6.15452">
        <ele>350.4</ele>
        <time>2021-08-23T12:29:25Z</time>
      </trkpt>
      <trkpt lat="47.10452" lon="6.15444">
        <ele>350.4</ele>
        <time>2021-08-23T12:29:27Z</time>
      </trkpt>
      <trkpt lat="47.10458" lon="6.15431">
        <ele>350.8</ele>
        <time>2021-08-23T12:29:31Z</time>
      </trkpt>
      <trkpt lat="47.10461" lon="6.15429">
        <ele>350.8</ele>
        <time>2021-08-23T12:29:32Z</time>
      </trkpt>
      <trkpt lat="47.10464" lon="6.15428">
        <ele>351</ele>
        <time>2021-08-23T12:29:33Z</time>
      </trkpt>
      <trkpt lat="47.10467" lon="6.15427">
        <ele>351</ele>
        <time>2021-08-23T12:29:34Z</time>
      </trkpt>
      <trkpt lat="47.10469" lon="6.15427">
        <ele>351</ele>
        <time>2021-08-23T12:29:35Z</time>
      </trkpt>
      <trkpt lat="47.10472" lon="6.15426">
        <ele>351.2</ele>
        <time>2021-08-23T12:29:36Z</time>
      </trkpt>
      <trkpt lat="47.10477" lon="6.15427">
        <ele>351.2</ele>
        <time>2021-08-23T12:29:38Z</time>
      </trkpt>
      <trkpt lat="47.10479" lon="6.15428">
        <ele>351.4</ele>
        <time>2021-08-23T12:29:39Z</time>
      </trkpt>
      <trkpt lat="47.10482" lon="6.15429">
        <ele>351.4</ele>
        <time>2021-08-23T12:29:40Z</time>
      </trkpt>
      <trkpt lat="47.10484" lon="6.1543">
        <ele>351.6</ele>
        <time>2021-08-23T12:29:41Z</time>
      </trkpt>
      <trkpt lat="47.10487" lon="6.15431">
        <ele>351.6</ele>
        <time>2021-08-23T12:29:42Z</time>
      </trkpt>
      <trkpt lat="47.10494" lon="6.15435">
        <ele>352.2</ele>
        <time>2021-08-23T12:29:45Z</time>
      </trkpt>
      <trkpt lat="47.10496" lon="6.15436">
        <ele>352.2</ele>
        <time>2021-08-23T12:29:46Z</time>
      </trkpt>
      <trkpt lat="47.10513" lon="6.15446">
        <ele>353.2</ele>
        <time>2021-08-23T12:29:53Z</time>
      </trkpt>
      <trkpt lat="47.10518" lon="6.15448">
        <ele>353.4</ele>
        <time>2021-08-23T12:29:55Z</time>
      </trkpt>
      <trkpt lat="47.10523" lon="6.1545">
        <ele>353.6</ele>
        <time>2021-08-23T12:29:57Z</time>
      </trkpt>
      <trkpt lat="47.10525" lon="6.15452">
        <ele>353.8</ele>
        <time>2021-08-23T12:29:58Z</time>
      </trkpt>
      <trkpt lat="47.10528" lon="6.15453">
        <ele>353.8</ele>
        <time>2021-08-23T12:29:59Z</time>
      </trkpt>
      <trkpt lat="47.1053" lon="6.15454">
        <ele>354</ele>
        <time>2021-08-23T12:30:00Z</time>
      </trkpt>
      <trkpt lat="47.10532" lon="6.15455">
        <ele>354</ele>
        <time>2021-08-23T12:30:01Z</time>
      </trkpt>
      <trkpt lat="47.10535" lon="6.15457">
        <ele>354</ele>
        <time>2021-08-23T12:30:02Z</time>
      </trkpt>
      <trkpt lat="47.10537" lon="6.15458">
        <ele>354.2</ele>
        <time>2021-08-23T12:30:03Z</time>
      </trkpt>
      <trkpt lat="47.10539" lon="6.15459">
        <ele>354.4</ele>
        <time>2021-08-23T12:30:04Z</time>
      </trkpt>
      <trkpt lat="47.10541" lon="6.15461">
        <ele>354.4</ele>
        <time>2021-08-23T12:30:05Z</time>
      </trkpt>
      <trkpt lat="47.10543" lon="6.15462">
        <ele>354.6</ele>
        <time>2021-08-23T12:30:06Z</time>
      </trkpt>
      <trkpt lat="47.10545" lon="6.15463">
        <ele>354.6</ele>
        <time>2021-08-23T12:30:07Z</time>
      </trkpt>
      <trkpt lat="47.10547" lon="6.15465">
        <ele>354.8</ele>
        <time>2021-08-23T12:30:08Z</time>
      </trkpt>
      <trkpt lat="47.10549" lon="6.15467">
        <ele>354.8</ele>
        <time>2021-08-23T12:30:09Z</time>
      </trkpt>
      <trkpt lat="47.10551" lon="6.15468">
        <ele>354.8</ele>
        <time>2021-08-23T12:30:10Z</time>
      </trkpt>
      <trkpt lat="47.10553" lon="6.15469">
        <ele>355</ele>
        <time>2021-08-23T12:30:11Z</time>
      </trkpt>
      <trkpt lat="47.10554" lon="6.1547">
        <ele>355.2</ele>
        <time>2021-08-23T12:30:12Z</time>
      </trkpt>
      <trkpt lat="47.10556" lon="6.15471">
        <ele>355.2</ele>
        <time>2021-08-23T12:30:13Z</time>
      </trkpt>
      <trkpt lat="47.10558" lon="6.15472">
        <ele>355.4</ele>
        <time>2021-08-23T12:30:14Z</time>
      </trkpt>
      <trkpt lat="47.1056" lon="6.15473">
        <ele>355.4</ele>
        <time>2021-08-23T12:30:15Z</time>
      </trkpt>
      <trkpt lat="47.10561" lon="6.15474">
        <ele>355.8</ele>
        <time>2021-08-23T12:30:16Z</time>
      </trkpt>
      <trkpt lat="47.10563" lon="6.15476">
        <ele>355.8</ele>
        <time>2021-08-23T12:30:17Z</time>
      </trkpt>
      <trkpt lat="47.10565" lon="6.15478">
        <ele>355.8</ele>
        <time>2021-08-23T12:30:18Z</time>
      </trkpt>
      <trkpt lat="47.10567" lon="6.15479">
        <ele>355.8</ele>
        <time>2021-08-23T12:30:19Z</time>
      </trkpt>
      <trkpt lat="47.10569" lon="6.1548">
        <ele>356</ele>
        <time>2021-08-23T12:30:20Z</time>
      </trkpt>
      <trkpt lat="47.10571" lon="6.15481">
        <ele>356</ele>
        <time>2021-08-23T12:30:21Z</time>
      </trkpt>
      <trkpt lat="47.10573" lon="6.15483">
        <ele>356.2</ele>
        <time>2021-08-23T12:30:22Z</time>
      </trkpt>
      <trkpt lat="47.10574" lon="6.15485">
        <ele>356.2</ele>
        <time>2021-08-23T12:30:23Z</time>
      </trkpt>
      <trkpt lat="47.10576" lon="6.15486">
        <ele>356.4</ele>
        <time>2021-08-23T12:30:24Z</time>
      </trkpt>
      <trkpt lat="47.10578" lon="6.15488">
        <ele>356.6</ele>
        <time>2021-08-23T12:30:25Z</time>
      </trkpt>
      <trkpt lat="47.10581" lon="6.1549">
        <ele>356.6</ele>
        <time>2021-08-23T12:30:26Z</time>
      </trkpt>
      <trkpt lat="47.10583" lon="6.15491">
        <ele>356.8</ele>
        <time>2021-08-23T12:30:27Z</time>
      </trkpt>
      <trkpt lat="47.10585" lon="6.15493">
        <ele>356.8</ele>
        <time>2021-08-23T12:30:28Z</time>
      </trkpt>
      <trkpt lat="47.10587" lon="6.15495">
        <ele>356.8</ele>
        <time>2021-08-23T12:30:29Z</time>
      </trkpt>
      <trkpt lat="47.10589" lon="6.15497">
        <ele>356.8</ele>
        <time>2021-08-23T12:30:30Z</time>
      </trkpt>
      <trkpt lat="47.10591" lon="6.15499">
        <ele>357.2</ele>
        <time>2021-08-23T12:30:31Z</time>
      </trkpt>
      <trkpt lat="47.10593" lon="6.15501">
        <ele>357.4</ele>
        <time>2021-08-23T12:30:32Z</time>
      </trkpt>
      <trkpt lat="47.10595" lon="6.15503">
        <ele>357.4</ele>
        <time>2021-08-23T12:30:33Z</time>
      </trkpt>
      <trkpt lat="47.10598" lon="6.15505">
        <ele>357.6</ele>
        <time>2021-08-23T12:30:34Z</time>
      </trkpt>
      <trkpt lat="47.106" lon="6.15507">
        <ele>357.8</ele>
        <time>2021-08-23T12:30:35Z</time>
      </trkpt>
      <trkpt lat="47.10602" lon="6.15509">
        <ele>358</ele>
        <time>2021-08-23T12:30:36Z</time>
      </trkpt>
      <trkpt lat="47.10604" lon="6.15511">
        <ele>358</ele>
        <time>2021-08-23T12:30:37Z</time>
      </trkpt>
      <trkpt lat="47.10606" lon="6.15512">
        <ele>358.2</ele>
        <time>2021-08-23T12:30:38Z</time>
      </trkpt>
      <trkpt lat="47.10608" lon="6.15514">
        <ele>358.4</ele>
        <time>2021-08-23T12:30:39Z</time>
      </trkpt>
      <trkpt lat="47.1061" lon="6.15516">
        <ele>358.6</ele>
        <time>2021-08-23T12:30:40Z</time>
      </trkpt>
      <trkpt lat="47.10612" lon="6.15518">
        <ele>358.8</ele>
        <time>2021-08-23T12:30:41Z</time>
      </trkpt>
      <trkpt lat="47.10614" lon="6.1552">
        <ele>358.8</ele>
        <time>2021-08-23T12:30:42Z</time>
      </trkpt>
      <trkpt lat="47.10616" lon="6.15522">
        <ele>359</ele>
        <time>2021-08-23T12:30:43Z</time>
      </trkpt>
      <trkpt lat="47.10618" lon="6.15523">
        <ele>359</ele>
        <time>2021-08-23T12:30:44Z</time>
      </trkpt>
      <trkpt lat="47.1062" lon="6.15525">
        <ele>359.4</ele>
        <time>2021-08-23T12:30:45Z</time>
      </trkpt>
      <trkpt lat="47.10622" lon="6.15527">
        <ele>359.4</ele>
        <time>2021-08-23T12:30:46Z</time>
      </trkpt>
      <trkpt lat="47.10624" lon="6.15529">
        <ele>359.6</ele>
        <time>2021-08-23T12:30:47Z</time>
      </trkpt>
      <trkpt lat="47.10625" lon="6.1553">
        <ele>359.8</ele>
        <time>2021-08-23T12:30:48Z</time>
      </trkpt>
      <trkpt lat="47.10628" lon="6.15532">
        <ele>359.8</ele>
        <time>2021-08-23T12:30:49Z</time>
      </trkpt>
      <trkpt lat="47.10629" lon="6.15534">
        <ele>360</ele>
        <time>2021-08-23T12:30:50Z</time>
      </trkpt>
      <trkpt lat="47.10631" lon="6.15535">
        <ele>360.2</ele>
        <time>2021-08-23T12:30:51Z</time>
      </trkpt>
      <trkpt lat="47.10633" lon="6.15537">
        <ele>360.4</ele>
        <time>2021-08-23T12:30:52Z</time>
      </trkpt>
      <trkpt lat="47.10635" lon="6.15539">
        <ele>360.4</ele>
        <time>2021-08-23T12:30:53Z</time>
      </trkpt>
      <trkpt lat="47.10636" lon="6.15541">
        <ele>360.6</ele>
        <time>2021-08-23T12:30:54Z</time>
      </trkpt>
      <trkpt lat="47.10639" lon="6.15543">
        <ele>360.8</ele>
        <time>2021-08-23T12:30:55Z</time>
      </trkpt>
      <trkpt lat="47.1064" lon="6.15544">
        <ele>361</ele>
        <time>2021-08-23T12:30:56Z</time>
      </trkpt>
      <trkpt lat="47.10642" lon="6.15546">
        <ele>361.2</ele>
        <time>2021-08-23T12:30:57Z</time>
      </trkpt>
      <trkpt lat="47.10644" lon="6.15548">
        <ele>361.4</ele>
        <time>2021-08-23T12:30:58Z</time>
      </trkpt>
      <trkpt lat="47.10646" lon="6.15549">
        <ele>361.6</ele>
        <time>2021-08-23T12:30:59Z</time>
      </trkpt>
      <trkpt lat="47.10648" lon="6.15551">
        <ele>361.8</ele>
        <time>2021-08-23T12:31:00Z</time>
      </trkpt>
      <trkpt lat="47.10649" lon="6.15552">
        <ele>361.8</ele>
        <time>2021-08-23T12:31:01Z</time>
      </trkpt>
      <trkpt lat="47.10651" lon="6.15553">
        <ele>362.2</ele>
        <time>2021-08-23T12:31:02Z</time>
      </trkpt>
      <trkpt lat="47.10653" lon="6.15555">
        <ele>362.2</ele>
        <time>2021-08-23T12:31:03Z</time>
      </trkpt>
      <trkpt lat="47.10655" lon="6.15557">
        <ele>362.4</ele>
        <time>2021-08-23T12:31:04Z</time>
      </trkpt>
      <trkpt lat="47.10657" lon="6.15558">
        <ele>362.6</ele>
        <time>2021-08-23T12:31:05Z</time>
      </trkpt>
      <trkpt lat="47.10659" lon="6.15559">
        <ele>362.8</ele>
        <time>2021-08-23T12:31:06Z</time>
      </trkpt>
      <trkpt lat="47.1066" lon="6.1556">
        <ele>362.8</ele>
        <time>2021-08-23T12:31:07Z</time>
      </trkpt>
      <trkpt lat="47.10663" lon="6.15562">
        <ele>363.2</ele>
        <time>2021-08-23T12:31:08Z</time>
      </trkpt>
      <trkpt lat="47.10665" lon="6.15563">
        <ele>363.2</ele>
        <time>2021-08-23T12:31:09Z</time>
      </trkpt>
      <trkpt lat="47.10666" lon="6.15565">
        <ele>363.4</ele>
        <time>2021-08-23T12:31:10Z</time>
      </trkpt>
      <trkpt lat="47.10668" lon="6.15566">
        <ele>363.6</ele>
        <time>2021-08-23T12:31:11Z</time>
      </trkpt>
      <trkpt lat="47.1067" lon="6.15567">
        <ele>363.8</ele>
        <time>2021-08-23T12:31:12Z</time>
      </trkpt>
      <trkpt lat="47.10672" lon="6.15569">
        <ele>364</ele>
        <time>2021-08-23T12:31:13Z</time>
      </trkpt>
      <trkpt lat="47.10673" lon="6.1557">
        <ele>364</ele>
        <time>2021-08-23T12:31:14Z</time>
      </trkpt>
      <trkpt lat="47.10675" lon="6.15571">
        <ele>364.2</ele>
        <time>2021-08-23T12:31:15Z</time>
      </trkpt>
      <trkpt lat="47.10676" lon="6.15572">
        <ele>364.4</ele>
        <time>2021-08-23T12:31:16Z</time>
      </trkpt>
      <trkpt lat="47.10678" lon="6.15574">
        <ele>364.4</ele>
        <time>2021-08-23T12:31:17Z</time>
      </trkpt>
      <trkpt lat="47.1068" lon="6.15575">
        <ele>364.6</ele>
        <time>2021-08-23T12:31:18Z</time>
      </trkpt>
      <trkpt lat="47.10681" lon="6.15576">
        <ele>364.8</ele>
        <time>2021-08-23T12:31:19Z</time>
      </trkpt>
      <trkpt lat="47.10683" lon="6.15577">
        <ele>365</ele>
        <time>2021-08-23T12:31:20Z</time>
      </trkpt>
      <trkpt lat="47.10685" lon="6.15578">
        <ele>365</ele>
        <time>2021-08-23T12:31:21Z</time>
      </trkpt>
      <trkpt lat="47.10687" lon="6.1558">
        <ele>365.2</ele>
        <time>2021-08-23T12:31:22Z</time>
      </trkpt>
      <trkpt lat="47.10689" lon="6.15581">
        <ele>365.4</ele>
        <time>2021-08-23T12:31:23Z</time>
      </trkpt>
      <trkpt lat="47.1069" lon="6.15582">
        <ele>365.6</ele>
        <time>2021-08-23T12:31:24Z</time>
      </trkpt>
      <trkpt lat="47.10692" lon="6.15583">
        <ele>365.6</ele>
        <time>2021-08-23T12:31:25Z</time>
      </trkpt>
      <trkpt lat="47.10693" lon="6.15584">
        <ele>366</ele>
        <time>2021-08-23T12:31:26Z</time>
      </trkpt>
      <trkpt lat="47.10695" lon="6.15586">
        <ele>366.2</ele>
        <time>2021-08-23T12:31:27Z</time>
      </trkpt>
      <trkpt lat="47.10697" lon="6.15587">
        <ele>366.2</ele>
        <time>2021-08-23T12:31:28Z</time>
      </trkpt>
      <trkpt lat="47.10699" lon="6.15588">
        <ele>366.4</ele>
        <time>2021-08-23T12:31:29Z</time>
      </trkpt>
      <trkpt lat="47.107" lon="6.15589">
        <ele>366.4</ele>
        <time>2021-08-23T12:31:30Z</time>
      </trkpt>
      <trkpt lat="47.10701" lon="6.1559">
        <ele>366.6</ele>
        <time>2021-08-23T12:31:31Z</time>
      </trkpt>
      <trkpt lat="47.10704" lon="6.15592">
        <ele>366.8</ele>
        <time>2021-08-23T12:31:32Z</time>
      </trkpt>
      <trkpt lat="47.10706" lon="6.15593">
        <ele>367</ele>
        <time>2021-08-23T12:31:33Z</time>
      </trkpt>
      <trkpt lat="47.10707" lon="6.15594">
        <ele>367.2</ele>
        <time>2021-08-23T12:31:34Z</time>
      </trkpt>
      <trkpt lat="47.10708" lon="6.15595">
        <ele>367.2</ele>
        <time>2021-08-23T12:31:35Z</time>
      </trkpt>
      <trkpt lat="47.1071" lon="6.15597">
        <ele>367.4</ele>
        <time>2021-08-23T12:31:36Z</time>
      </trkpt>
      <trkpt lat="47.10712" lon="6.15599">
        <ele>367.4</ele>
        <time>2021-08-23T12:31:37Z</time>
      </trkpt>
      <trkpt lat="47.10713" lon="6.156">
        <ele>367.8</ele>
        <time>2021-08-23T12:31:38Z</time>
      </trkpt>
      <trkpt lat="47.10715" lon="6.15601">
        <ele>368</ele>
        <time>2021-08-23T12:31:39Z</time>
      </trkpt>
      <trkpt lat="47.10717" lon="6.15602">
        <ele>368.2</ele>
        <time>2021-08-23T12:31:40Z</time>
      </trkpt>
      <trkpt lat="47.10718" lon="6.15604">
        <ele>368.4</ele>
        <time>2021-08-23T12:31:41Z</time>
      </trkpt>
      <trkpt lat="47.1072" lon="6.15606">
        <ele>368.6</ele>
        <time>2021-08-23T12:31:42Z</time>
      </trkpt>
      <trkpt lat="47.10721" lon="6.15608">
        <ele>368.8</ele>
        <time>2021-08-23T12:31:43Z</time>
      </trkpt>
      <trkpt lat="47.10723" lon="6.15609">
        <ele>368.8</ele>
        <time>2021-08-23T12:31:44Z</time>
      </trkpt>
      <trkpt lat="47.10724" lon="6.15611">
        <ele>369.2</ele>
        <time>2021-08-23T12:31:45Z</time>
      </trkpt>
      <trkpt lat="47.10726" lon="6.15613">
        <ele>369</ele>
        <time>2021-08-23T12:31:46Z</time>
      </trkpt>
      <trkpt lat="47.10727" lon="6.15614">
        <ele>369.2</ele>
        <time>2021-08-23T12:31:47Z</time>
      </trkpt>
      <trkpt lat="47.10729" lon="6.15616">
        <ele>369.4</ele>
        <time>2021-08-23T12:31:48Z</time>
      </trkpt>
      <trkpt lat="47.10731" lon="6.15618">
        <ele>369.6</ele>
        <time>2021-08-23T12:31:49Z</time>
      </trkpt>
      <trkpt lat="47.10732" lon="6.15619">
        <ele>369.8</ele>
        <time>2021-08-23T12:31:50Z</time>
      </trkpt>
      <trkpt lat="47.10734" lon="6.15621">
        <ele>369.8</ele>
        <time>2021-08-23T12:31:51Z</time>
      </trkpt>
      <trkpt lat="47.10736" lon="6.15623">
        <ele>370</ele>
        <time>2021-08-23T12:31:52Z</time>
      </trkpt>
      <trkpt lat="47.10737" lon="6.15624">
        <ele>370</ele>
        <time>2021-08-23T12:31:53Z</time>
      </trkpt>
      <trkpt lat="47.10739" lon="6.15625">
        <ele>370.2</ele>
        <time>2021-08-23T12:31:54Z</time>
      </trkpt>
      <trkpt lat="47.10741" lon="6.15627">
        <ele>370.2</ele>
        <time>2021-08-23T12:31:55Z</time>
      </trkpt>
      <trkpt lat="47.10743" lon="6.15628">
        <ele>370.2</ele>
        <time>2021-08-23T12:31:56Z</time>
      </trkpt>
      <trkpt lat="47.10745" lon="6.15629">
        <ele>370.4</ele>
        <time>2021-08-23T12:31:57Z</time>
      </trkpt>
      <trkpt lat="47.10747" lon="6.1563">
        <ele>370.6</ele>
        <time>2021-08-23T12:31:58Z</time>
      </trkpt>
      <trkpt lat="47.10749" lon="6.15631">
        <ele>370.6</ele>
        <time>2021-08-23T12:31:59Z</time>
      </trkpt>
      <trkpt lat="47.10751" lon="6.15632">
        <ele>370.8</ele>
        <time>2021-08-23T12:32:00Z</time>
      </trkpt>
      <trkpt lat="47.10753" lon="6.15633">
        <ele>370.8</ele>
        <time>2021-08-23T12:32:01Z</time>
      </trkpt>
      <trkpt lat="47.10755" lon="6.15634">
        <ele>371</ele>
        <time>2021-08-23T12:32:02Z</time>
      </trkpt>
      <trkpt lat="47.10757" lon="6.15635">
        <ele>371.2</ele>
        <time>2021-08-23T12:32:03Z</time>
      </trkpt>
      <trkpt lat="47.10759" lon="6.15637">
        <ele>371.2</ele>
        <time>2021-08-23T12:32:04Z</time>
      </trkpt>
      <trkpt lat="47.10761" lon="6.15638">
        <ele>371.2</ele>
        <time>2021-08-23T12:32:05Z</time>
      </trkpt>
      <trkpt lat="47.10762" lon="6.15639">
        <ele>371.4</ele>
        <time>2021-08-23T12:32:06Z</time>
      </trkpt>
      <trkpt lat="47.10764" lon="6.1564">
        <ele>371.6</ele>
        <time>2021-08-23T12:32:07Z</time>
      </trkpt>
      <trkpt lat="47.10766" lon="6.15642">
        <ele>371.8</ele>
        <time>2021-08-23T12:32:08Z</time>
      </trkpt>
      <trkpt lat="47.10768" lon="6.15643">
        <ele>372</ele>
        <time>2021-08-23T12:32:09Z</time>
      </trkpt>
      <trkpt lat="47.1077" lon="6.15644">
        <ele>372.2</ele>
        <time>2021-08-23T12:32:10Z</time>
      </trkpt>
      <trkpt lat="47.10772" lon="6.15645">
        <ele>372.2</ele>
        <time>2021-08-23T12:32:11Z</time>
      </trkpt>
      <trkpt lat="47.10773" lon="6.15647">
        <ele>372.4</ele>
        <time>2021-08-23T12:32:12Z</time>
      </trkpt>
      <trkpt lat="47.10775" lon="6.15648">
        <ele>372.6</ele>
        <time>2021-08-23T12:32:13Z</time>
      </trkpt>
      <trkpt lat="47.10777" lon="6.15649">
        <ele>372.6</ele>
        <time>2021-08-23T12:32:14Z</time>
      </trkpt>
      <trkpt lat="47.10779" lon="6.1565">
        <ele>372.8</ele>
        <time>2021-08-23T12:32:15Z</time>
      </trkpt>
      <trkpt lat="47.10781" lon="6.15651">
        <ele>373</ele>
        <time>2021-08-23T12:32:16Z</time>
      </trkpt>
      <trkpt lat="47.10782" lon="6.15652">
        <ele>373.2</ele>
        <time>2021-08-23T12:32:17Z</time>
      </trkpt>
      <trkpt lat="47.10784" lon="6.15653">
        <ele>373.2</ele>
        <time>2021-08-23T12:32:18Z</time>
      </trkpt>
      <trkpt lat="47.10786" lon="6.15654">
        <ele>373.4</ele>
        <time>2021-08-23T12:32:19Z</time>
      </trkpt>
      <trkpt lat="47.10788" lon="6.15656">
        <ele>373.4</ele>
        <time>2021-08-23T12:32:20Z</time>
      </trkpt>
      <trkpt lat="47.10789" lon="6.15657">
        <ele>373.6</ele>
        <time>2021-08-23T12:32:21Z</time>
      </trkpt>
      <trkpt lat="47.10791" lon="6.15658">
        <ele>373.8</ele>
        <time>2021-08-23T12:32:22Z</time>
      </trkpt>
      <trkpt lat="47.10793" lon="6.15659">
        <ele>373.8</ele>
        <time>2021-08-23T12:32:23Z</time>
      </trkpt>
      <trkpt lat="47.10795" lon="6.1566">
        <ele>374</ele>
        <time>2021-08-23T12:32:24Z</time>
      </trkpt>
      <trkpt lat="47.10796" lon="6.15662">
        <ele>374</ele>
        <time>2021-08-23T12:32:25Z</time>
      </trkpt>
      <trkpt lat="47.10798" lon="6.15663">
        <ele>374.2</ele>
        <time>2021-08-23T12:32:26Z</time>
      </trkpt>
      <trkpt lat="47.108" lon="6.15665">
        <ele>374.2</ele>
        <time>2021-08-23T12:32:27Z</time>
      </trkpt>
      <trkpt lat="47.10802" lon="6.15666">
        <ele>374.4</ele>
        <time>2021-08-23T12:32:28Z</time>
      </trkpt>
      <trkpt lat="47.10804" lon="6.15667">
        <ele>374.6</ele>
        <time>2021-08-23T12:32:29Z</time>
      </trkpt>
      <trkpt lat="47.10806" lon="6.15668">
        <ele>374.6</ele>
        <time>2021-08-23T12:32:30Z</time>
      </trkpt>
      <trkpt lat="47.10808" lon="6.1567">
        <ele>374.8</ele>
        <time>2021-08-23T12:32:31Z</time>
      </trkpt>
      <trkpt lat="47.1081" lon="6.15672">
        <ele>374.8</ele>
        <time>2021-08-23T12:32:32Z</time>
      </trkpt>
      <trkpt lat="47.10812" lon="6.15674">
        <ele>375</ele>
        <time>2021-08-23T12:32:33Z</time>
      </trkpt>
      <trkpt lat="47.10814" lon="6.15675">
        <ele>375.2</ele>
        <time>2021-08-23T12:32:34Z</time>
      </trkpt>
      <trkpt lat="47.10816" lon="6.15677">
        <ele>375.2</ele>
        <time>2021-08-23T12:32:35Z</time>
      </trkpt>
      <trkpt lat="47.10818" lon="6.15678">
        <ele>375.4</ele>
        <time>2021-08-23T12:32:36Z</time>
      </trkpt>
      <trkpt lat="47.1082" lon="6.15679">
        <ele>375.4</ele>
        <time>2021-08-23T12:32:37Z</time>
      </trkpt>
      <trkpt lat="47.10821" lon="6.1568">
        <ele>375.6</ele>
        <time>2021-08-23T12:32:38Z</time>
      </trkpt>
      <trkpt lat="47.10823" lon="6.15681">
        <ele>375.6</ele>
        <time>2021-08-23T12:32:39Z</time>
      </trkpt>
      <trkpt lat="47.10825" lon="6.15682">
        <ele>375.6</ele>
        <time>2021-08-23T12:32:40Z</time>
      </trkpt>
      <trkpt lat="47.10827" lon="6.15683">
        <ele>375.8</ele>
        <time>2021-08-23T12:32:41Z</time>
      </trkpt>
      <trkpt lat="47.10829" lon="6.15685">
        <ele>376</ele>
        <time>2021-08-23T12:32:42Z</time>
      </trkpt>
      <trkpt lat="47.1083" lon="6.15686">
        <ele>376</ele>
        <time>2021-08-23T12:32:43Z</time>
      </trkpt>
      <trkpt lat="47.10832" lon="6.15688">
        <ele>376.2</ele>
        <time>2021-08-23T12:32:44Z</time>
      </trkpt>
      <trkpt lat="47.10834" lon="6.15689">
        <ele>376.4</ele>
        <time>2021-08-23T12:32:45Z</time>
      </trkpt>
      <trkpt lat="47.10836" lon="6.1569">
        <ele>376.4</ele>
        <time>2021-08-23T12:32:46Z</time>
      </trkpt>
      <trkpt lat="47.10838" lon="6.15691">
        <ele>376.6</ele>
        <time>2021-08-23T12:32:47Z</time>
      </trkpt>
      <trkpt lat="47.1084" lon="6.15693">
        <ele>376.8</ele>
        <time>2021-08-23T12:32:48Z</time>
      </trkpt>
      <trkpt lat="47.10842" lon="6.15695">
        <ele>377</ele>
        <time>2021-08-23T12:32:49Z</time>
      </trkpt>
      <trkpt lat="47.10843" lon="6.15696">
        <ele>377.2</ele>
        <time>2021-08-23T12:32:50Z</time>
      </trkpt>
      <trkpt lat="47.10846" lon="6.15698">
        <ele>377.2</ele>
        <time>2021-08-23T12:32:51Z</time>
      </trkpt>
      <trkpt lat="47.10847" lon="6.15699">
        <ele>377.4</ele>
        <time>2021-08-23T12:32:52Z</time>
      </trkpt>
      <trkpt lat="47.10849" lon="6.157">
        <ele>377.4</ele>
        <time>2021-08-23T12:32:53Z</time>
      </trkpt>
      <trkpt lat="47.10851" lon="6.15701">
        <ele>377.6</ele>
        <time>2021-08-23T12:32:54Z</time>
      </trkpt>
      <trkpt lat="47.10852" lon="6.15703">
        <ele>377.6</ele>
        <time>2021-08-23T12:32:55Z</time>
      </trkpt>
      <trkpt lat="47.10854" lon="6.15704">
        <ele>378</ele>
        <time>2021-08-23T12:32:56Z</time>
      </trkpt>
      <trkpt lat="47.10856" lon="6.15706">
        <ele>378</ele>
        <time>2021-08-23T12:32:57Z</time>
      </trkpt>
      <trkpt lat="47.10858" lon="6.15707">
        <ele>378.4</ele>
        <time>2021-08-23T12:32:58Z</time>
      </trkpt>
      <trkpt lat="47.1086" lon="6.15708">
        <ele>378.6</ele>
        <time>2021-08-23T12:32:59Z</time>
      </trkpt>
      <trkpt lat="47.10862" lon="6.1571">
        <ele>378.6</ele>
        <time>2021-08-23T12:33:00Z</time>
      </trkpt>
      <trkpt lat="47.10863" lon="6.15711">
        <ele>378.8</ele>
        <time>2021-08-23T12:33:01Z</time>
      </trkpt>
      <trkpt lat="47.10865" lon="6.15712">
        <ele>379</ele>
        <time>2021-08-23T12:33:02Z</time>
      </trkpt>
      <trkpt lat="47.10868" lon="6.15713">
        <ele>379.2</ele>
        <time>2021-08-23T12:33:03Z</time>
      </trkpt>
      <trkpt lat="47.10869" lon="6.15714">
        <ele>379.4</ele>
        <time>2021-08-23T12:33:04Z</time>
      </trkpt>
      <trkpt lat="47.10871" lon="6.15716">
        <ele>379.6</ele>
        <time>2021-08-23T12:33:05Z</time>
      </trkpt>
      <trkpt lat="47.10873" lon="6.15717">
        <ele>379.6</ele>
        <time>2021-08-23T12:33:06Z</time>
      </trkpt>
      <trkpt lat="47.10875" lon="6.15718">
        <ele>379.8</ele>
        <time>2021-08-23T12:33:07Z</time>
      </trkpt>
      <trkpt lat="47.10877" lon="6.1572">
        <ele>380</ele>
        <time>2021-08-23T12:33:08Z</time>
      </trkpt>
      <trkpt lat="47.10879" lon="6.15721">
        <ele>380.2</ele>
        <time>2021-08-23T12:33:09Z</time>
      </trkpt>
      <trkpt lat="47.10881" lon="6.15722">
        <ele>380.4</ele>
        <time>2021-08-23T12:33:10Z</time>
      </trkpt>
      <trkpt lat="47.10882" lon="6.15723">
        <ele>380.4</ele>
        <time>2021-08-23T12:33:11Z</time>
      </trkpt>
      <trkpt lat="47.10884" lon="6.15725">
        <ele>380.8</ele>
        <time>2021-08-23T12:33:12Z</time>
      </trkpt>
      <trkpt lat="47.10886" lon="6.15727">
        <ele>381</ele>
        <time>2021-08-23T12:33:13Z</time>
      </trkpt>
      <trkpt lat="47.10887" lon="6.15728">
        <ele>381.2</ele>
        <time>2021-08-23T12:33:14Z</time>
      </trkpt>
      <trkpt lat="47.10889" lon="6.1573">
        <ele>381.2</ele>
        <time>2021-08-23T12:33:15Z</time>
      </trkpt>
      <trkpt lat="47.10891" lon="6.15731">
        <ele>381.4</ele>
        <time>2021-08-23T12:33:16Z</time>
      </trkpt>
      <trkpt lat="47.10893" lon="6.15732">
        <ele>381.8</ele>
        <time>2021-08-23T12:33:17Z</time>
      </trkpt>
      <trkpt lat="47.10895" lon="6.15734">
        <ele>381.8</ele>
        <time>2021-08-23T12:33:18Z</time>
      </trkpt>
      <trkpt lat="47.10896" lon="6.15735">
        <ele>382.2</ele>
        <time>2021-08-23T12:33:19Z</time>
      </trkpt>
      <trkpt lat="47.10898" lon="6.15737">
        <ele>382.2</ele>
        <time>2021-08-23T12:33:20Z</time>
      </trkpt>
      <trkpt lat="47.109" lon="6.15738">
        <ele>382.4</ele>
        <time>2021-08-23T12:33:21Z</time>
      </trkpt>
      <trkpt lat="47.10902" lon="6.1574">
        <ele>382.6</ele>
        <time>2021-08-23T12:33:22Z</time>
      </trkpt>
      <trkpt lat="47.10904" lon="6.15741">
        <ele>382.8</ele>
        <time>2021-08-23T12:33:23Z</time>
      </trkpt>
      <trkpt lat="47.10905" lon="6.15742">
        <ele>383</ele>
        <time>2021-08-23T12:33:24Z</time>
      </trkpt>
      <trkpt lat="47.10907" lon="6.15744">
        <ele>383.2</ele>
        <time>2021-08-23T12:33:25Z</time>
      </trkpt>
      <trkpt lat="47.10909" lon="6.15745">
        <ele>383.4</ele>
        <time>2021-08-23T12:33:26Z</time>
      </trkpt>
      <trkpt lat="47.10911" lon="6.15747">
        <ele>383.4</ele>
        <time>2021-08-23T12:33:27Z</time>
      </trkpt>
      <trkpt lat="47.10913" lon="6.15749">
        <ele>383.6</ele>
        <time>2021-08-23T12:33:28Z</time>
      </trkpt>
      <trkpt lat="47.10915" lon="6.15751">
        <ele>383.6</ele>
        <time>2021-08-23T12:33:29Z</time>
      </trkpt>
      <trkpt lat="47.10917" lon="6.15752">
        <ele>384</ele>
        <time>2021-08-23T12:33:30Z</time>
      </trkpt>
      <trkpt lat="47.10919" lon="6.15754">
        <ele>384.2</ele>
        <time>2021-08-23T12:33:31Z</time>
      </trkpt>
      <trkpt lat="47.10921" lon="6.15755">
        <ele>384.4</ele>
        <time>2021-08-23T12:33:32Z</time>
      </trkpt>
      <trkpt lat="47.10923" lon="6.15757">
        <ele>384.6</ele>
        <time>2021-08-23T12:33:33Z</time>
      </trkpt>
      <trkpt lat="47.10925" lon="6.15758">
        <ele>384.8</ele>
        <time>2021-08-23T12:33:34Z</time>
      </trkpt>
      <trkpt lat="47.10927" lon="6.1576">
        <ele>385</ele>
        <time>2021-08-23T12:33:35Z</time>
      </trkpt>
      <trkpt lat="47.10929" lon="6.15762">
        <ele>385</ele>
        <time>2021-08-23T12:33:36Z</time>
      </trkpt>
      <trkpt lat="47.10931" lon="6.15763">
        <ele>385.2</ele>
        <time>2021-08-23T12:33:37Z</time>
      </trkpt>
      <trkpt lat="47.10933" lon="6.15765">
        <ele>385.4</ele>
        <time>2021-08-23T12:33:38Z</time>
      </trkpt>
      <trkpt lat="47.10934" lon="6.15766">
        <ele>385.6</ele>
        <time>2021-08-23T12:33:39Z</time>
      </trkpt>
      <trkpt lat="47.10936" lon="6.15768">
        <ele>385.8</ele>
        <time>2021-08-23T12:33:40Z</time>
      </trkpt>
      <trkpt lat="47.10937" lon="6.15769">
        <ele>385.8</ele>
        <time>2021-08-23T12:33:41Z</time>
      </trkpt>
      <trkpt lat="47.10939" lon="6.15771">
        <ele>386.2</ele>
        <time>2021-08-23T12:33:42Z</time>
      </trkpt>
      <trkpt lat="47.10941" lon="6.15772">
        <ele>386.2</ele>
        <time>2021-08-23T12:33:43Z</time>
      </trkpt>
      <trkpt lat="47.10942" lon="6.15773">
        <ele>386.6</ele>
        <time>2021-08-23T12:33:44Z</time>
      </trkpt>
      <trkpt lat="47.10944" lon="6.15775">
        <ele>386.6</ele>
        <time>2021-08-23T12:33:45Z</time>
      </trkpt>
      <trkpt lat="47.10946" lon="6.15776">
        <ele>386.8</ele>
        <time>2021-08-23T12:33:46Z</time>
      </trkpt>
      <trkpt lat="47.10947" lon="6.15778">
        <ele>386.8</ele>
        <time>2021-08-23T12:33:47Z</time>
      </trkpt>
      <trkpt lat="47.10949" lon="6.15779">
        <ele>387.2</ele>
        <time>2021-08-23T12:33:48Z</time>
      </trkpt>
      <trkpt lat="47.10951" lon="6.15781">
        <ele>387.4</ele>
        <time>2021-08-23T12:33:49Z</time>
      </trkpt>
      <trkpt lat="47.10953" lon="6.15782">
        <ele>387.6</ele>
        <time>2021-08-23T12:33:50Z</time>
      </trkpt>
      <trkpt lat="47.10954" lon="6.15784">
        <ele>388</ele>
        <time>2021-08-23T12:33:51Z</time>
      </trkpt>
      <trkpt lat="47.10956" lon="6.15785">
        <ele>388.2</ele>
        <time>2021-08-23T12:33:52Z</time>
      </trkpt>
      <trkpt lat="47.10958" lon="6.15787">
        <ele>388.4</ele>
        <time>2021-08-23T12:33:53Z</time>
      </trkpt>
      <trkpt lat="47.10959" lon="6.15788">
        <ele>388.6</ele>
        <time>2021-08-23T12:33:54Z</time>
      </trkpt>
      <trkpt lat="47.10961" lon="6.1579">
        <ele>388.8</ele>
        <time>2021-08-23T12:33:55Z</time>
      </trkpt>
      <trkpt lat="47.10963" lon="6.15791">
        <ele>389.2</ele>
        <time>2021-08-23T12:33:56Z</time>
      </trkpt>
      <trkpt lat="47.10965" lon="6.15793">
        <ele>389.4</ele>
        <time>2021-08-23T12:33:57Z</time>
      </trkpt>
      <trkpt lat="47.10967" lon="6.15794">
        <ele>389.6</ele>
        <time>2021-08-23T12:33:58Z</time>
      </trkpt>
      <trkpt lat="47.10969" lon="6.15797">
        <ele>389.8</ele>
        <time>2021-08-23T12:33:59Z</time>
      </trkpt>
      <trkpt lat="47.1097" lon="6.15798">
        <ele>389.8</ele>
        <time>2021-08-23T12:34:00Z</time>
      </trkpt>
      <trkpt lat="47.10971" lon="6.158">
        <ele>389.8</ele>
        <time>2021-08-23T12:34:01Z</time>
      </trkpt>
      <trkpt lat="47.10973" lon="6.15801">
        <ele>390</ele>
        <time>2021-08-23T12:34:02Z</time>
      </trkpt>
      <trkpt lat="47.10975" lon="6.15802">
        <ele>390</ele>
        <time>2021-08-23T12:34:03Z</time>
      </trkpt>
      <trkpt lat="47.10976" lon="6.15804">
        <ele>390.2</ele>
        <time>2021-08-23T12:34:04Z</time>
      </trkpt>
      <trkpt lat="47.10978" lon="6.15806">
        <ele>390.4</ele>
        <time>2021-08-23T12:34:05Z</time>
      </trkpt>
      <trkpt lat="47.1098" lon="6.15808">
        <ele>390.6</ele>
        <time>2021-08-23T12:34:06Z</time>
      </trkpt>
      <trkpt lat="47.10982" lon="6.15811">
        <ele>390.6</ele>
        <time>2021-08-23T12:34:07Z</time>
      </trkpt>
      <trkpt lat="47.10984" lon="6.15813">
        <ele>390.8</ele>
        <time>2021-08-23T12:34:08Z</time>
      </trkpt>
      <trkpt lat="47.10986" lon="6.15815">
        <ele>390.8</ele>
        <time>2021-08-23T12:34:09Z</time>
      </trkpt>
      <trkpt lat="47.10988" lon="6.15817">
        <ele>390.8</ele>
        <time>2021-08-23T12:34:10Z</time>
      </trkpt>
      <trkpt lat="47.1099" lon="6.1582">
        <ele>390.8</ele>
        <time>2021-08-23T12:34:11Z</time>
      </trkpt>
      <trkpt lat="47.10992" lon="6.15822">
        <ele>391</ele>
        <time>2021-08-23T12:34:12Z</time>
      </trkpt>
      <trkpt lat="47.10994" lon="6.15824">
        <ele>391</ele>
        <time>2021-08-23T12:34:13Z</time>
      </trkpt>
      <trkpt lat="47.10996" lon="6.15826">
        <ele>391</ele>
        <time>2021-08-23T12:34:14Z</time>
      </trkpt>
      <trkpt lat="47.10998" lon="6.15828">
        <ele>391</ele>
        <time>2021-08-23T12:34:15Z</time>
      </trkpt>
      <trkpt lat="47.11" lon="6.1583">
        <ele>391.2</ele>
        <time>2021-08-23T12:34:16Z</time>
      </trkpt>
      <trkpt lat="47.11002" lon="6.15833">
        <ele>391.2</ele>
        <time>2021-08-23T12:34:17Z</time>
      </trkpt>
      <trkpt lat="47.11004" lon="6.15834">
        <ele>391.4</ele>
        <time>2021-08-23T12:34:18Z</time>
      </trkpt>
      <trkpt lat="47.11006" lon="6.15836">
        <ele>391.4</ele>
        <time>2021-08-23T12:34:19Z</time>
      </trkpt>
      <trkpt lat="47.11008" lon="6.15838">
        <ele>391.4</ele>
        <time>2021-08-23T12:34:20Z</time>
      </trkpt>
      <trkpt lat="47.1101" lon="6.15839">
        <ele>391.4</ele>
        <time>2021-08-23T12:34:21Z</time>
      </trkpt>
      <trkpt lat="47.11012" lon="6.1584">
        <ele>391.4</ele>
        <time>2021-08-23T12:34:22Z</time>
      </trkpt>
      <trkpt lat="47.11014" lon="6.15842">
        <ele>391.8</ele>
        <time>2021-08-23T12:34:23Z</time>
      </trkpt>
      <trkpt lat="47.11016" lon="6.15843">
        <ele>392</ele>
        <time>2021-08-23T12:34:24Z</time>
      </trkpt>
      <trkpt lat="47.11019" lon="6.15845">
        <ele>392</ele>
        <time>2021-08-23T12:34:25Z</time>
      </trkpt>
      <trkpt lat="47.1102" lon="6.15848">
        <ele>392.2</ele>
        <time>2021-08-23T12:34:26Z</time>
      </trkpt>
      <trkpt lat="47.11022" lon="6.1585">
        <ele>392.2</ele>
        <time>2021-08-23T12:34:27Z</time>
      </trkpt>
      <trkpt lat="47.11024" lon="6.15852">
        <ele>392.2</ele>
        <time>2021-08-23T12:34:28Z</time>
      </trkpt>
      <trkpt lat="47.11026" lon="6.15853">
        <ele>392.4</ele>
        <time>2021-08-23T12:34:29Z</time>
      </trkpt>
      <trkpt lat="47.11029" lon="6.15855">
        <ele>392.4</ele>
        <time>2021-08-23T12:34:30Z</time>
      </trkpt>
      <trkpt lat="47.11032" lon="6.15857">
        <ele>392.6</ele>
        <time>2021-08-23T12:34:31Z</time>
      </trkpt>
      <trkpt lat="47.11034" lon="6.15859">
        <ele>392.6</ele>
        <time>2021-08-23T12:34:32Z</time>
      </trkpt>
      <trkpt lat="47.11036" lon="6.15862">
        <ele>392.6</ele>
        <time>2021-08-23T12:34:33Z</time>
      </trkpt>
      <trkpt lat="47.11043" lon="6.1587">
        <ele>393.2</ele>
        <time>2021-08-23T12:34:36Z</time>
      </trkpt>
      <trkpt lat="47.11049" lon="6.15876">
        <ele>393.6</ele>
        <time>2021-08-23T12:34:39Z</time>
      </trkpt>
      <trkpt lat="47.11053" lon="6.15881">
        <ele>394</ele>
        <time>2021-08-23T12:34:41Z</time>
      </trkpt>
      <trkpt lat="47.11054" lon="6.15883">
        <ele>394</ele>
        <time>2021-08-23T12:34:42Z</time>
      </trkpt>
      <trkpt lat="47.11057" lon="6.15885">
        <ele>394.2</ele>
        <time>2021-08-23T12:34:43Z</time>
      </trkpt>
      <trkpt lat="47.11059" lon="6.15888">
        <ele>394.4</ele>
        <time>2021-08-23T12:34:44Z</time>
      </trkpt>
      <trkpt lat="47.11061" lon="6.1589">
        <ele>394.4</ele>
        <time>2021-08-23T12:34:45Z</time>
      </trkpt>
      <trkpt lat="47.11063" lon="6.15893">
        <ele>394.6</ele>
        <time>2021-08-23T12:34:46Z</time>
      </trkpt>
      <trkpt lat="47.11066" lon="6.15895">
        <ele>394.6</ele>
        <time>2021-08-23T12:34:47Z</time>
      </trkpt>
      <trkpt lat="47.11069" lon="6.15898">
        <ele>395</ele>
        <time>2021-08-23T12:34:48Z</time>
      </trkpt>
      <trkpt lat="47.11071" lon="6.159">
        <ele>395</ele>
        <time>2021-08-23T12:34:49Z</time>
      </trkpt>
      <trkpt lat="47.11073" lon="6.15902">
        <ele>395.2</ele>
        <time>2021-08-23T12:34:50Z</time>
      </trkpt>
      <trkpt lat="47.11074" lon="6.15904">
        <ele>395.2</ele>
        <time>2021-08-23T12:34:51Z</time>
      </trkpt>
      <trkpt lat="47.11076" lon="6.15905">
        <ele>395.6</ele>
        <time>2021-08-23T12:34:52Z</time>
      </trkpt>
      <trkpt lat="47.11079" lon="6.15908">
        <ele>395.8</ele>
        <time>2021-08-23T12:34:53Z</time>
      </trkpt>
      <trkpt lat="47.1108" lon="6.1591">
        <ele>395.8</ele>
        <time>2021-08-23T12:34:54Z</time>
      </trkpt>
      <trkpt lat="47.11083" lon="6.15913">
        <ele>396</ele>
        <time>2021-08-23T12:34:56Z</time>
      </trkpt>
      <trkpt lat="47.11084" lon="6.15915">
        <ele>396.2</ele>
        <time>2021-08-23T12:34:57Z</time>
      </trkpt>
      <trkpt lat="47.11087" lon="6.15918">
        <ele>396.4</ele>
        <time>2021-08-23T12:34:58Z</time>
      </trkpt>
      <trkpt lat="47.11088" lon="6.15919">
        <ele>396.4</ele>
        <time>2021-08-23T12:34:59Z</time>
      </trkpt>
      <trkpt lat="47.11092" lon="6.15923">
        <ele>396.4</ele>
        <time>2021-08-23T12:35:00Z</time>
      </trkpt>
      <trkpt lat="47.11095" lon="6.15926">
        <ele>396.6</ele>
        <time>2021-08-23T12:35:01Z</time>
      </trkpt>
      <trkpt lat="47.11097" lon="6.15927">
        <ele>396.6</ele>
        <time>2021-08-23T12:35:02Z</time>
      </trkpt>
      <trkpt lat="47.111" lon="6.15929">
        <ele>396.8</ele>
        <time>2021-08-23T12:35:03Z</time>
      </trkpt>
      <trkpt lat="47.11102" lon="6.15931">
        <ele>396.8</ele>
        <time>2021-08-23T12:35:04Z</time>
      </trkpt>
      <trkpt lat="47.11104" lon="6.15933">
        <ele>396.8</ele>
        <time>2021-08-23T12:35:05Z</time>
      </trkpt>
      <trkpt lat="47.11105" lon="6.15935">
        <ele>397</ele>
        <time>2021-08-23T12:35:06Z</time>
      </trkpt>
      <trkpt lat="47.11107" lon="6.15936">
        <ele>397</ele>
        <time>2021-08-23T12:35:07Z</time>
      </trkpt>
      <trkpt lat="47.11108" lon="6.15937">
        <ele>397.2</ele>
        <time>2021-08-23T12:35:08Z</time>
      </trkpt>
      <trkpt lat="47.1111" lon="6.15939">
        <ele>397.2</ele>
        <time>2021-08-23T12:35:09Z</time>
      </trkpt>
      <trkpt lat="47.11111" lon="6.15941">
        <ele>397.4</ele>
        <time>2021-08-23T12:35:10Z</time>
      </trkpt>
      <trkpt lat="47.11113" lon="6.15942">
        <ele>397.4</ele>
        <time>2021-08-23T12:35:11Z</time>
      </trkpt>
      <trkpt lat="47.11114" lon="6.15945">
        <ele>397.6</ele>
        <time>2021-08-23T12:35:12Z</time>
      </trkpt>
      <trkpt lat="47.11116" lon="6.15947">
        <ele>397.8</ele>
        <time>2021-08-23T12:35:13Z</time>
      </trkpt>
      <trkpt lat="47.11117" lon="6.15948">
        <ele>397.8</ele>
        <time>2021-08-23T12:35:14Z</time>
      </trkpt>
      <trkpt lat="47.11119" lon="6.1595">
        <ele>398</ele>
        <time>2021-08-23T12:35:15Z</time>
      </trkpt>
      <trkpt lat="47.11121" lon="6.15953">
        <ele>398</ele>
        <time>2021-08-23T12:35:16Z</time>
      </trkpt>
      <trkpt lat="47.11123" lon="6.15956">
        <ele>398.2</ele>
        <time>2021-08-23T12:35:17Z</time>
      </trkpt>
      <trkpt lat="47.11124" lon="6.15958">
        <ele>398.2</ele>
        <time>2021-08-23T12:35:18Z</time>
      </trkpt>
      <trkpt lat="47.11126" lon="6.1596">
        <ele>398.6</ele>
        <time>2021-08-23T12:35:19Z</time>
      </trkpt>
      <trkpt lat="47.11127" lon="6.15962">
        <ele>398.8</ele>
        <time>2021-08-23T12:35:20Z</time>
      </trkpt>
      <trkpt lat="47.11129" lon="6.15965">
        <ele>399</ele>
        <time>2021-08-23T12:35:21Z</time>
      </trkpt>
      <trkpt lat="47.11131" lon="6.15967">
        <ele>399</ele>
        <time>2021-08-23T12:35:22Z</time>
      </trkpt>
      <trkpt lat="47.11133" lon="6.15969">
        <ele>399.4</ele>
        <time>2021-08-23T12:35:23Z</time>
      </trkpt>
      <trkpt lat="47.11134" lon="6.15972">
        <ele>399.8</ele>
        <time>2021-08-23T12:35:24Z</time>
      </trkpt>
      <trkpt lat="47.11136" lon="6.15974">
        <ele>400</ele>
        <time>2021-08-23T12:35:25Z</time>
      </trkpt>
      <trkpt lat="47.11137" lon="6.15975">
        <ele>400.4</ele>
        <time>2021-08-23T12:35:26Z</time>
      </trkpt>
      <trkpt lat="47.11139" lon="6.15976">
        <ele>400.4</ele>
        <time>2021-08-23T12:35:27Z</time>
      </trkpt>
      <trkpt lat="47.11141" lon="6.15978">
        <ele>400.6</ele>
        <time>2021-08-23T12:35:28Z</time>
      </trkpt>
      <trkpt lat="47.11142" lon="6.1598">
        <ele>400.8</ele>
        <time>2021-08-23T12:35:29Z</time>
      </trkpt>
      <trkpt lat="47.11143" lon="6.15981">
        <ele>401</ele>
        <time>2021-08-23T12:35:30Z</time>
      </trkpt>
      <trkpt lat="47.11145" lon="6.15984">
        <ele>401</ele>
        <time>2021-08-23T12:35:31Z</time>
      </trkpt>
      <trkpt lat="47.11146" lon="6.15985">
        <ele>401.4</ele>
        <time>2021-08-23T12:35:32Z</time>
      </trkpt>
      <trkpt lat="47.11149" lon="6.15987">
        <ele>401.4</ele>
        <time>2021-08-23T12:35:33Z</time>
      </trkpt>
      <trkpt lat="47.1115" lon="6.15988">
        <ele>401.6</ele>
        <time>2021-08-23T12:35:34Z</time>
      </trkpt>
      <trkpt lat="47.11152" lon="6.1599">
        <ele>401.8</ele>
        <time>2021-08-23T12:35:35Z</time>
      </trkpt>
      <trkpt lat="47.11154" lon="6.15991">
        <ele>401.8</ele>
        <time>2021-08-23T12:35:36Z</time>
      </trkpt>
      <trkpt lat="47.11156" lon="6.15993">
        <ele>402.2</ele>
        <time>2021-08-23T12:35:37Z</time>
      </trkpt>
      <trkpt lat="47.11158" lon="6.15995">
        <ele>402.2</ele>
        <time>2021-08-23T12:35:38Z</time>
      </trkpt>
      <trkpt lat="47.1116" lon="6.15997">
        <ele>402.4</ele>
        <time>2021-08-23T12:35:39Z</time>
      </trkpt>
      <trkpt lat="47.11161" lon="6.15997">
        <ele>402.6</ele>
        <time>2021-08-23T12:35:40Z</time>
      </trkpt>
      <trkpt lat="47.11163" lon="6.15998">
        <ele>402.8</ele>
        <time>2021-08-23T12:35:41Z</time>
      </trkpt>
      <trkpt lat="47.11163" lon="6.16">
        <ele>403</ele>
        <time>2021-08-23T12:35:42Z</time>
      </trkpt>
      <trkpt lat="47.11163" lon="6.16">
        <ele>403.2</ele>
        <time>2021-08-23T12:35:43Z</time>
      </trkpt>
      <trkpt lat="47.11165" lon="6.16001">
        <ele>403.4</ele>
        <time>2021-08-23T12:35:44Z</time>
      </trkpt>
      <trkpt lat="47.11167" lon="6.16002">
        <ele>403.6</ele>
        <time>2021-08-23T12:35:45Z</time>
      </trkpt>
      <trkpt lat="47.11168" lon="6.16003">
        <ele>404</ele>
        <time>2021-08-23T12:35:46Z</time>
      </trkpt>
      <trkpt lat="47.11169" lon="6.16004">
        <ele>404.2</ele>
        <time>2021-08-23T12:35:47Z</time>
      </trkpt>
      <trkpt lat="47.1117" lon="6.16005">
        <ele>404.4</ele>
        <time>2021-08-23T12:35:48Z</time>
      </trkpt>
      <trkpt lat="47.11171" lon="6.16006">
        <ele>404.6</ele>
        <time>2021-08-23T12:35:49Z</time>
      </trkpt>
      <trkpt lat="47.11173" lon="6.16007">
        <ele>404.8</ele>
        <time>2021-08-23T12:35:50Z</time>
      </trkpt>
      <trkpt lat="47.11174" lon="6.16008">
        <ele>405.2</ele>
        <time>2021-08-23T12:35:51Z</time>
      </trkpt>
      <trkpt lat="47.11175" lon="6.16008">
        <ele>405.2</ele>
        <time>2021-08-23T12:35:52Z</time>
      </trkpt>
      <trkpt lat="47.11177" lon="6.16009">
        <ele>405.6</ele>
        <time>2021-08-23T12:35:53Z</time>
      </trkpt>
      <trkpt lat="47.11179" lon="6.1601">
        <ele>405.6</ele>
        <time>2021-08-23T12:35:54Z</time>
      </trkpt>
      <trkpt lat="47.11181" lon="6.16012">
        <ele>405.8</ele>
        <time>2021-08-23T12:35:55Z</time>
      </trkpt>
      <trkpt lat="47.11182" lon="6.16013">
        <ele>406</ele>
        <time>2021-08-23T12:35:56Z</time>
      </trkpt>
      <trkpt lat="47.11184" lon="6.16014">
        <ele>406.2</ele>
        <time>2021-08-23T12:35:57Z</time>
      </trkpt>
      <trkpt lat="47.11185" lon="6.16015">
        <ele>406.4</ele>
        <time>2021-08-23T12:35:58Z</time>
      </trkpt>
      <trkpt lat="47.11186" lon="6.16017">
        <ele>406.6</ele>
        <time>2021-08-23T12:35:59Z</time>
      </trkpt>
      <trkpt lat="47.11187" lon="6.16019">
        <ele>407</ele>
        <time>2021-08-23T12:36:00Z</time>
      </trkpt>
      <trkpt lat="47.11188" lon="6.1602">
        <ele>407</ele>
        <time>2021-08-23T12:36:01Z</time>
      </trkpt>
      <trkpt lat="47.11189" lon="6.16021">
        <ele>407.2</ele>
        <time>2021-08-23T12:36:02Z</time>
      </trkpt>
      <trkpt lat="47.11189" lon="6.16023">
        <ele>407.4</ele>
        <time>2021-08-23T12:36:03Z</time>
      </trkpt>
      <trkpt lat="47.11191" lon="6.16026">
        <ele>407.6</ele>
        <time>2021-08-23T12:36:04Z</time>
      </trkpt>
      <trkpt lat="47.11193" lon="6.16028">
        <ele>407.8</ele>
        <time>2021-08-23T12:36:05Z</time>
      </trkpt>
      <trkpt lat="47.11194" lon="6.1603">
        <ele>408.2</ele>
        <time>2021-08-23T12:36:06Z</time>
      </trkpt>
      <trkpt lat="47.11196" lon="6.16032">
        <ele>408.6</ele>
        <time>2021-08-23T12:36:07Z</time>
      </trkpt>
      <trkpt lat="47.11198" lon="6.16035">
        <ele>408.6</ele>
        <time>2021-08-23T12:36:08Z</time>
      </trkpt>
      <trkpt lat="47.11199" lon="6.16036">
        <ele>409</ele>
        <time>2021-08-23T12:36:09Z</time>
      </trkpt>
      <trkpt lat="47.112" lon="6.16038">
        <ele>409</ele>
        <time>2021-08-23T12:36:10Z</time>
      </trkpt>
      <trkpt lat="47.11201" lon="6.1604">
        <ele>409.2</ele>
        <time>2021-08-23T12:36:11Z</time>
      </trkpt>
      <trkpt lat="47.11203" lon="6.16042">
        <ele>409.4</ele>
        <time>2021-08-23T12:36:12Z</time>
      </trkpt>
      <trkpt lat="47.11204" lon="6.16044">
        <ele>409.6</ele>
        <time>2021-08-23T12:36:13Z</time>
      </trkpt>
      <trkpt lat="47.11206" lon="6.16046">
        <ele>409.6</ele>
        <time>2021-08-23T12:36:14Z</time>
      </trkpt>
      <trkpt lat="47.11208" lon="6.16048">
        <ele>410</ele>
        <time>2021-08-23T12:36:15Z</time>
      </trkpt>
      <trkpt lat="47.11209" lon="6.1605">
        <ele>410.2</ele>
        <time>2021-08-23T12:36:16Z</time>
      </trkpt>
      <trkpt lat="47.11211" lon="6.16052">
        <ele>410.4</ele>
        <time>2021-08-23T12:36:17Z</time>
      </trkpt>
      <trkpt lat="47.11212" lon="6.16054">
        <ele>410.4</ele>
        <time>2021-08-23T12:36:18Z</time>
      </trkpt>
      <trkpt lat="47.11213" lon="6.16056">
        <ele>410.4</ele>
        <time>2021-08-23T12:36:19Z</time>
      </trkpt>
      <trkpt lat="47.11214" lon="6.16058">
        <ele>410.6</ele>
        <time>2021-08-23T12:36:20Z</time>
      </trkpt>
      <trkpt lat="47.11216" lon="6.1606">
        <ele>410.8</ele>
        <time>2021-08-23T12:36:21Z</time>
      </trkpt>
      <trkpt lat="47.11217" lon="6.16062">
        <ele>410.8</ele>
        <time>2021-08-23T12:36:22Z</time>
      </trkpt>
      <trkpt lat="47.11219" lon="6.16064">
        <ele>411</ele>
        <time>2021-08-23T12:36:23Z</time>
      </trkpt>
      <trkpt lat="47.11221" lon="6.16066">
        <ele>411</ele>
        <time>2021-08-23T12:36:24Z</time>
      </trkpt>
      <trkpt lat="47.11222" lon="6.16068">
        <ele>411.2</ele>
        <time>2021-08-23T12:36:25Z</time>
      </trkpt>
      <trkpt lat="47.11223" lon="6.16069">
        <ele>411.2</ele>
        <time>2021-08-23T12:36:26Z</time>
      </trkpt>
      <trkpt lat="47.11224" lon="6.16071">
        <ele>411.6</ele>
        <time>2021-08-23T12:36:27Z</time>
      </trkpt>
      <trkpt lat="47.11225" lon="6.16073">
        <ele>411.8</ele>
        <time>2021-08-23T12:36:28Z</time>
      </trkpt>
      <trkpt lat="47.11227" lon="6.16075">
        <ele>412</ele>
        <time>2021-08-23T12:36:29Z</time>
      </trkpt>
      <trkpt lat="47.11228" lon="6.16077">
        <ele>412</ele>
        <time>2021-08-23T12:36:30Z</time>
      </trkpt>
      <trkpt lat="47.1123" lon="6.16078">
        <ele>412</ele>
        <time>2021-08-23T12:36:31Z</time>
      </trkpt>
      <trkpt lat="47.11231" lon="6.1608">
        <ele>412.4</ele>
        <time>2021-08-23T12:36:32Z</time>
      </trkpt>
      <trkpt lat="47.11233" lon="6.16082">
        <ele>412.4</ele>
        <time>2021-08-23T12:36:33Z</time>
      </trkpt>
      <trkpt lat="47.11234" lon="6.16084">
        <ele>412.4</ele>
        <time>2021-08-23T12:36:34Z</time>
      </trkpt>
      <trkpt lat="47.11235" lon="6.16085">
        <ele>412.6</ele>
        <time>2021-08-23T12:36:35Z</time>
      </trkpt>
      <trkpt lat="47.11237" lon="6.16087">
        <ele>412.8</ele>
        <time>2021-08-23T12:36:36Z</time>
      </trkpt>
      <trkpt lat="47.11238" lon="6.16089">
        <ele>412.8</ele>
        <time>2021-08-23T12:36:37Z</time>
      </trkpt>
      <trkpt lat="47.11239" lon="6.16091">
        <ele>413</ele>
        <time>2021-08-23T12:36:38Z</time>
      </trkpt>
      <trkpt lat="47.1124" lon="6.16093">
        <ele>413</ele>
        <time>2021-08-23T12:36:39Z</time>
      </trkpt>
      <trkpt lat="47.11241" lon="6.16095">
        <ele>413.2</ele>
        <time>2021-08-23T12:36:40Z</time>
      </trkpt>
      <trkpt lat="47.11242" lon="6.16097">
        <ele>413.4</ele>
        <time>2021-08-23T12:36:41Z</time>
      </trkpt>
      <trkpt lat="47.11243" lon="6.16098">
        <ele>413.6</ele>
        <time>2021-08-23T12:36:42Z</time>
      </trkpt>
      <trkpt lat="47.11244" lon="6.161">
        <ele>413.6</ele>
        <time>2021-08-23T12:36:43Z</time>
      </trkpt>
      <trkpt lat="47.11245" lon="6.16102">
        <ele>413.8</ele>
        <time>2021-08-23T12:36:44Z</time>
      </trkpt>
      <trkpt lat="47.11246" lon="6.16104">
        <ele>414</ele>
        <time>2021-08-23T12:36:45Z</time>
      </trkpt>
      <trkpt lat="47.11247" lon="6.16106">
        <ele>414.2</ele>
        <time>2021-08-23T12:36:46Z</time>
      </trkpt>
      <trkpt lat="47.11248" lon="6.16108">
        <ele>414.4</ele>
        <time>2021-08-23T12:36:47Z</time>
      </trkpt>
      <trkpt lat="47.1125" lon="6.16109">
        <ele>414.4</ele>
        <time>2021-08-23T12:36:48Z</time>
      </trkpt>
      <trkpt lat="47.11251" lon="6.16111">
        <ele>414.6</ele>
        <time>2021-08-23T12:36:49Z</time>
      </trkpt>
      <trkpt lat="47.11252" lon="6.16113">
        <ele>414.8</ele>
        <time>2021-08-23T12:36:50Z</time>
      </trkpt>
      <trkpt lat="47.11253" lon="6.16115">
        <ele>415</ele>
        <time>2021-08-23T12:36:51Z</time>
      </trkpt>
      <trkpt lat="47.11255" lon="6.16117">
        <ele>415.2</ele>
        <time>2021-08-23T12:36:52Z</time>
      </trkpt>
      <trkpt lat="47.11256" lon="6.16119">
        <ele>415.4</ele>
        <time>2021-08-23T12:36:53Z</time>
      </trkpt>
      <trkpt lat="47.11257" lon="6.16122">
        <ele>415.8</ele>
        <time>2021-08-23T12:36:54Z</time>
      </trkpt>
      <trkpt lat="47.11259" lon="6.16123">
        <ele>415.8</ele>
        <time>2021-08-23T12:36:55Z</time>
      </trkpt>
      <trkpt lat="47.1126" lon="6.16125">
        <ele>416</ele>
        <time>2021-08-23T12:36:56Z</time>
      </trkpt>
      <trkpt lat="47.11262" lon="6.16127">
        <ele>416.4</ele>
        <time>2021-08-23T12:36:57Z</time>
      </trkpt>
      <trkpt lat="47.11263" lon="6.16128">
        <ele>416.4</ele>
        <time>2021-08-23T12:36:58Z</time>
      </trkpt>
      <trkpt lat="47.11264" lon="6.16129">
        <ele>416.8</ele>
        <time>2021-08-23T12:36:59Z</time>
      </trkpt>
      <trkpt lat="47.11265" lon="6.1613">
        <ele>417</ele>
        <time>2021-08-23T12:37:00Z</time>
      </trkpt>
      <trkpt lat="47.11267" lon="6.16131">
        <ele>417.2</ele>
        <time>2021-08-23T12:37:01Z</time>
      </trkpt>
      <trkpt lat="47.11268" lon="6.16133">
        <ele>417.6</ele>
        <time>2021-08-23T12:37:02Z</time>
      </trkpt>
      <trkpt lat="47.1127" lon="6.16135">
        <ele>417.8</ele>
        <time>2021-08-23T12:37:03Z</time>
      </trkpt>
      <trkpt lat="47.11271" lon="6.16136">
        <ele>417.8</ele>
        <time>2021-08-23T12:37:04Z</time>
      </trkpt>
      <trkpt lat="47.11273" lon="6.16138">
        <ele>418.4</ele>
        <time>2021-08-23T12:37:05Z</time>
      </trkpt>
      <trkpt lat="47.11274" lon="6.16139">
        <ele>418.8</ele>
        <time>2021-08-23T12:37:06Z</time>
      </trkpt>
      <trkpt lat="47.11275" lon="6.16141">
        <ele>419</ele>
        <time>2021-08-23T12:37:07Z</time>
      </trkpt>
      <trkpt lat="47.11276" lon="6.16142">
        <ele>419.2</ele>
        <time>2021-08-23T12:37:08Z</time>
      </trkpt>
      <trkpt lat="47.11278" lon="6.16144">
        <ele>419.4</ele>
        <time>2021-08-23T12:37:09Z</time>
      </trkpt>
      <trkpt lat="47.11279" lon="6.16146">
        <ele>419.8</ele>
        <time>2021-08-23T12:37:10Z</time>
      </trkpt>
      <trkpt lat="47.1128" lon="6.16147">
        <ele>420</ele>
        <time>2021-08-23T12:37:11Z</time>
      </trkpt>
      <trkpt lat="47.11281" lon="6.16149">
        <ele>420.2</ele>
        <time>2021-08-23T12:37:12Z</time>
      </trkpt>
      <trkpt lat="47.11282" lon="6.1615">
        <ele>420.4</ele>
        <time>2021-08-23T12:37:13Z</time>
      </trkpt>
      <trkpt lat="47.11283" lon="6.16152">
        <ele>420.6</ele>
        <time>2021-08-23T12:37:14Z</time>
      </trkpt>
      <trkpt lat="47.11285" lon="6.16153">
        <ele>420.8</ele>
        <time>2021-08-23T12:37:15Z</time>
      </trkpt>
      <trkpt lat="47.11286" lon="6.16155">
        <ele>420.8</ele>
        <time>2021-08-23T12:37:16Z</time>
      </trkpt>
      <trkpt lat="47.11287" lon="6.16157">
        <ele>421</ele>
        <time>2021-08-23T12:37:17Z</time>
      </trkpt>
      <trkpt lat="47.11288" lon="6.16159">
        <ele>421</ele>
        <time>2021-08-23T12:37:18Z</time>
      </trkpt>
      <trkpt lat="47.11289" lon="6.1616">
        <ele>421.2</ele>
        <time>2021-08-23T12:37:19Z</time>
      </trkpt>
      <trkpt lat="47.1129" lon="6.16162">
        <ele>421.4</ele>
        <time>2021-08-23T12:37:20Z</time>
      </trkpt>
      <trkpt lat="47.11291" lon="6.16164">
        <ele>421.6</ele>
        <time>2021-08-23T12:37:21Z</time>
      </trkpt>
      <trkpt lat="47.11293" lon="6.16165">
        <ele>421.6</ele>
        <time>2021-08-23T12:37:22Z</time>
      </trkpt>
      <trkpt lat="47.11294" lon="6.16167">
        <ele>421.8</ele>
        <time>2021-08-23T12:37:23Z</time>
      </trkpt>
      <trkpt lat="47.11295" lon="6.16168">
        <ele>422</ele>
        <time>2021-08-23T12:37:24Z</time>
      </trkpt>
      <trkpt lat="47.11297" lon="6.1617">
        <ele>422.2</ele>
        <time>2021-08-23T12:37:25Z</time>
      </trkpt>
      <trkpt lat="47.11298" lon="6.16171">
        <ele>422.4</ele>
        <time>2021-08-23T12:37:26Z</time>
      </trkpt>
      <trkpt lat="47.11299" lon="6.16173">
        <ele>422.4</ele>
        <time>2021-08-23T12:37:27Z</time>
      </trkpt>
      <trkpt lat="47.113" lon="6.16174">
        <ele>422.4</ele>
        <time>2021-08-23T12:37:28Z</time>
      </trkpt>
      <trkpt lat="47.11302" lon="6.16176">
        <ele>422.6</ele>
        <time>2021-08-23T12:37:29Z</time>
      </trkpt>
      <trkpt lat="47.11303" lon="6.16177">
        <ele>422.8</ele>
        <time>2021-08-23T12:37:30Z</time>
      </trkpt>
      <trkpt lat="47.11304" lon="6.16179">
        <ele>423</ele>
        <time>2021-08-23T12:37:31Z</time>
      </trkpt>
      <trkpt lat="47.11305" lon="6.1618">
        <ele>423</ele>
        <time>2021-08-23T12:37:32Z</time>
      </trkpt>
      <trkpt lat="47.11307" lon="6.16181">
        <ele>423.4</ele>
        <time>2021-08-23T12:37:33Z</time>
      </trkpt>
      <trkpt lat="47.11308" lon="6.16182">
        <ele>423.4</ele>
        <time>2021-08-23T12:37:34Z</time>
      </trkpt>
      <trkpt lat="47.11309" lon="6.16184">
        <ele>423.6</ele>
        <time>2021-08-23T12:37:35Z</time>
      </trkpt>
      <trkpt lat="47.1131" lon="6.16185">
        <ele>423.8</ele>
        <time>2021-08-23T12:37:36Z</time>
      </trkpt>
      <trkpt lat="47.11311" lon="6.16187">
        <ele>424</ele>
        <time>2021-08-23T12:37:37Z</time>
      </trkpt>
      <trkpt lat="47.11313" lon="6.16188">
        <ele>424.2</ele>
        <time>2021-08-23T12:37:38Z</time>
      </trkpt>
      <trkpt lat="47.11314" lon="6.16189">
        <ele>424.2</ele>
        <time>2021-08-23T12:37:39Z</time>
      </trkpt>
      <trkpt lat="47.11316" lon="6.1619">
        <ele>424.4</ele>
        <time>2021-08-23T12:37:40Z</time>
      </trkpt>
      <trkpt lat="47.11317" lon="6.16192">
        <ele>424.6</ele>
        <time>2021-08-23T12:37:41Z</time>
      </trkpt>
      <trkpt lat="47.11318" lon="6.16193">
        <ele>424.8</ele>
        <time>2021-08-23T12:37:42Z</time>
      </trkpt>
      <trkpt lat="47.1132" lon="6.16195">
        <ele>424.8</ele>
        <time>2021-08-23T12:37:43Z</time>
      </trkpt>
      <trkpt lat="47.11321" lon="6.16197">
        <ele>425</ele>
        <time>2021-08-23T12:37:44Z</time>
      </trkpt>
      <trkpt lat="47.11322" lon="6.16198">
        <ele>425.2</ele>
        <time>2021-08-23T12:37:45Z</time>
      </trkpt>
      <trkpt lat="47.11323" lon="6.162">
        <ele>425.4</ele>
        <time>2021-08-23T12:37:46Z</time>
      </trkpt>
      <trkpt lat="47.11324" lon="6.16201">
        <ele>425.4</ele>
        <time>2021-08-23T12:37:47Z</time>
      </trkpt>
      <trkpt lat="47.11326" lon="6.16202">
        <ele>425.6</ele>
        <time>2021-08-23T12:37:48Z</time>
      </trkpt>
      <trkpt lat="47.11328" lon="6.16204">
        <ele>425.8</ele>
        <time>2021-08-23T12:37:49Z</time>
      </trkpt>
      <trkpt lat="47.11329" lon="6.16205">
        <ele>426</ele>
        <time>2021-08-23T12:37:50Z</time>
      </trkpt>
      <trkpt lat="47.11331" lon="6.16206">
        <ele>426.2</ele>
        <time>2021-08-23T12:37:51Z</time>
      </trkpt>
      <trkpt lat="47.11332" lon="6.16208">
        <ele>426.2</ele>
        <time>2021-08-23T12:37:52Z</time>
      </trkpt>
      <trkpt lat="47.11334" lon="6.16209">
        <ele>426.4</ele>
        <time>2021-08-23T12:37:53Z</time>
      </trkpt>
      <trkpt lat="47.11335" lon="6.16211">
        <ele>426.6</ele>
        <time>2021-08-23T12:37:54Z</time>
      </trkpt>
      <trkpt lat="47.11337" lon="6.16212">
        <ele>426.8</ele>
        <time>2021-08-23T12:37:55Z</time>
      </trkpt>
      <trkpt lat="47.11338" lon="6.16214">
        <ele>427.2</ele>
        <time>2021-08-23T12:37:56Z</time>
      </trkpt>
      <trkpt lat="47.1134" lon="6.16215">
        <ele>427.2</ele>
        <time>2021-08-23T12:37:57Z</time>
      </trkpt>
      <trkpt lat="47.11341" lon="6.16217">
        <ele>427.4</ele>
        <time>2021-08-23T12:37:58Z</time>
      </trkpt>
      <trkpt lat="47.11343" lon="6.16218">
        <ele>427.6</ele>
        <time>2021-08-23T12:37:59Z</time>
      </trkpt>
      <trkpt lat="47.11344" lon="6.16219">
        <ele>427.8</ele>
        <time>2021-08-23T12:38:00Z</time>
      </trkpt>
      <trkpt lat="47.11346" lon="6.1622">
        <ele>428</ele>
        <time>2021-08-23T12:38:01Z</time>
      </trkpt>
      <trkpt lat="47.11347" lon="6.16221">
        <ele>428.2</ele>
        <time>2021-08-23T12:38:02Z</time>
      </trkpt>
      <trkpt lat="47.11349" lon="6.16222">
        <ele>428.4</ele>
        <time>2021-08-23T12:38:03Z</time>
      </trkpt>
      <trkpt lat="47.1135" lon="6.16223">
        <ele>428.6</ele>
        <time>2021-08-23T12:38:04Z</time>
      </trkpt>
      <trkpt lat="47.11351" lon="6.16225">
        <ele>429</ele>
        <time>2021-08-23T12:38:05Z</time>
      </trkpt>
      <trkpt lat="47.11353" lon="6.16226">
        <ele>429.2</ele>
        <time>2021-08-23T12:38:06Z</time>
      </trkpt>
      <trkpt lat="47.11354" lon="6.16227">
        <ele>429.4</ele>
        <time>2021-08-23T12:38:07Z</time>
      </trkpt>
      <trkpt lat="47.11356" lon="6.16228">
        <ele>429.6</ele>
        <time>2021-08-23T12:38:08Z</time>
      </trkpt>
      <trkpt lat="47.11357" lon="6.16229">
        <ele>429.8</ele>
        <time>2021-08-23T12:38:09Z</time>
      </trkpt>
      <trkpt lat="47.11359" lon="6.1623">
        <ele>430</ele>
        <time>2021-08-23T12:38:10Z</time>
      </trkpt>
      <trkpt lat="47.1136" lon="6.16231">
        <ele>430.2</ele>
        <time>2021-08-23T12:38:11Z</time>
      </trkpt>
      <trkpt lat="47.11362" lon="6.16232">
        <ele>430.6</ele>
        <time>2021-08-23T12:38:12Z</time>
      </trkpt>
      <trkpt lat="47.11363" lon="6.16233">
        <ele>430.6</ele>
        <time>2021-08-23T12:38:13Z</time>
      </trkpt>
      <trkpt lat="47.11364" lon="6.16233">
        <ele>430.8</ele>
        <time>2021-08-23T12:38:14Z</time>
      </trkpt>
      <trkpt lat="47.11366" lon="6.16234">
        <ele>431</ele>
        <time>2021-08-23T12:38:15Z</time>
      </trkpt>
      <trkpt lat="47.11367" lon="6.16235">
        <ele>431.2</ele>
        <time>2021-08-23T12:38:16Z</time>
      </trkpt>
      <trkpt lat="47.11368" lon="6.16236">
        <ele>431.4</ele>
        <time>2021-08-23T12:38:17Z</time>
      </trkpt>
      <trkpt lat="47.1137" lon="6.16237">
        <ele>431.8</ele>
        <time>2021-08-23T12:38:18Z</time>
      </trkpt>
      <trkpt lat="47.11371" lon="6.16238">
        <ele>431.8</ele>
        <time>2021-08-23T12:38:19Z</time>
      </trkpt>
      <trkpt lat="47.11373" lon="6.16238">
        <ele>432.2</ele>
        <time>2021-08-23T12:38:20Z</time>
      </trkpt>
      <trkpt lat="47.11374" lon="6.16239">
        <ele>432.4</ele>
        <time>2021-08-23T12:38:21Z</time>
      </trkpt>
      <trkpt lat="47.11376" lon="6.1624">
        <ele>432.6</ele>
        <time>2021-08-23T12:38:22Z</time>
      </trkpt>
      <trkpt lat="47.11377" lon="6.16241">
        <ele>433.2</ele>
        <time>2021-08-23T12:38:23Z</time>
      </trkpt>
      <trkpt lat="47.11379" lon="6.16242">
        <ele>433.4</ele>
        <time>2021-08-23T12:38:24Z</time>
      </trkpt>
      <trkpt lat="47.1138" lon="6.16243">
        <ele>433.6</ele>
        <time>2021-08-23T12:38:25Z</time>
      </trkpt>
      <trkpt lat="47.11382" lon="6.16245">
        <ele>433.6</ele>
        <time>2021-08-23T12:38:26Z</time>
      </trkpt>
      <trkpt lat="47.11384" lon="6.16247">
        <ele>434</ele>
        <time>2021-08-23T12:38:27Z</time>
      </trkpt>
      <trkpt lat="47.11386" lon="6.16248">
        <ele>434.2</ele>
        <time>2021-08-23T12:38:28Z</time>
      </trkpt>
      <trkpt lat="47.11387" lon="6.16249">
        <ele>434.6</ele>
        <time>2021-08-23T12:38:29Z</time>
      </trkpt>
      <trkpt lat="47.11389" lon="6.16249">
        <ele>434.8</ele>
        <time>2021-08-23T12:38:30Z</time>
      </trkpt>
      <trkpt lat="47.11391" lon="6.1625">
        <ele>435</ele>
        <time>2021-08-23T12:38:31Z</time>
      </trkpt>
      <trkpt lat="47.11392" lon="6.16251">
        <ele>435.2</ele>
        <time>2021-08-23T12:38:32Z</time>
      </trkpt>
      <trkpt lat="47.11394" lon="6.16253">
        <ele>435.4</ele>
        <time>2021-08-23T12:38:33Z</time>
      </trkpt>
      <trkpt lat="47.11395" lon="6.16254">
        <ele>435.8</ele>
        <time>2021-08-23T12:38:34Z</time>
      </trkpt>
      <trkpt lat="47.11397" lon="6.16255">
        <ele>435.8</ele>
        <time>2021-08-23T12:38:35Z</time>
      </trkpt>
      <trkpt lat="47.11399" lon="6.16256">
        <ele>436.2</ele>
        <time>2021-08-23T12:38:36Z</time>
      </trkpt>
      <trkpt lat="47.114" lon="6.16257">
        <ele>436.4</ele>
        <time>2021-08-23T12:38:37Z</time>
      </trkpt>
      <trkpt lat="47.11402" lon="6.16258">
        <ele>436.6</ele>
        <time>2021-08-23T12:38:38Z</time>
      </trkpt>
      <trkpt lat="47.11403" lon="6.16258">
        <ele>436.8</ele>
        <time>2021-08-23T12:38:39Z</time>
      </trkpt>
      <trkpt lat="47.11404" lon="6.1626">
        <ele>436.8</ele>
        <time>2021-08-23T12:38:40Z</time>
      </trkpt>
      <trkpt lat="47.11406" lon="6.16261">
        <ele>437.2</ele>
        <time>2021-08-23T12:38:41Z</time>
      </trkpt>
      <trkpt lat="47.11407" lon="6.16262">
        <ele>437.4</ele>
        <time>2021-08-23T12:38:42Z</time>
      </trkpt>
      <trkpt lat="47.1141" lon="6.16264">
        <ele>437.6</ele>
        <time>2021-08-23T12:38:43Z</time>
      </trkpt>
      <trkpt lat="47.11411" lon="6.16264">
        <ele>437.6</ele>
        <time>2021-08-23T12:38:44Z</time>
      </trkpt>
      <trkpt lat="47.11413" lon="6.16264">
        <ele>438</ele>
        <time>2021-08-23T12:38:45Z</time>
      </trkpt>
      <trkpt lat="47.11414" lon="6.16263">
        <ele>438.2</ele>
        <time>2021-08-23T12:38:46Z</time>
      </trkpt>
      <trkpt lat="47.11416" lon="6.16261">
        <ele>438.4</ele>
        <time>2021-08-23T12:38:47Z</time>
      </trkpt>
      <trkpt lat="47.11417" lon="6.16259">
        <ele>438.6</ele>
        <time>2021-08-23T12:38:48Z</time>
      </trkpt>
      <trkpt lat="47.11418" lon="6.16257">
        <ele>438.8</ele>
        <time>2021-08-23T12:38:49Z</time>
      </trkpt>
      <trkpt lat="47.11418" lon="6.16255">
        <ele>439</ele>
        <time>2021-08-23T12:38:50Z</time>
      </trkpt>
      <trkpt lat="47.11419" lon="6.16253">
        <ele>439</ele>
        <time>2021-08-23T12:38:51Z</time>
      </trkpt>
      <trkpt lat="47.11419" lon="6.1625">
        <ele>439.2</ele>
        <time>2021-08-23T12:38:52Z</time>
      </trkpt>
      <trkpt lat="47.1142" lon="6.16247">
        <ele>439.4</ele>
        <time>2021-08-23T12:38:53Z</time>
      </trkpt>
      <trkpt lat="47.1142" lon="6.16244">
        <ele>439.6</ele>
        <time>2021-08-23T12:38:54Z</time>
      </trkpt>
      <trkpt lat="47.1142" lon="6.16241">
        <ele>439.8</ele>
        <time>2021-08-23T12:38:55Z</time>
      </trkpt>
      <trkpt lat="47.1142" lon="6.16239">
        <ele>440.2</ele>
        <time>2021-08-23T12:38:56Z</time>
      </trkpt>
      <trkpt lat="47.11419" lon="6.16236">
        <ele>440.4</ele>
        <time>2021-08-23T12:38:57Z</time>
      </trkpt>
      <trkpt lat="47.11418" lon="6.16233">
        <ele>440.6</ele>
        <time>2021-08-23T12:38:58Z</time>
      </trkpt>
      <trkpt lat="47.11417" lon="6.16231">
        <ele>440.8</ele>
        <time>2021-08-23T12:38:59Z</time>
      </trkpt>
      <trkpt lat="47.11416" lon="6.16228">
        <ele>440.8</ele>
        <time>2021-08-23T12:39:00Z</time>
      </trkpt>
      <trkpt lat="47.11414" lon="6.16226">
        <ele>441.2</ele>
        <time>2021-08-23T12:39:01Z</time>
      </trkpt>
      <trkpt lat="47.11412" lon="6.16225">
        <ele>441.2</ele>
        <time>2021-08-23T12:39:02Z</time>
      </trkpt>
      <trkpt lat="47.11411" lon="6.16223">
        <ele>441.4</ele>
        <time>2021-08-23T12:39:03Z</time>
      </trkpt>
      <trkpt lat="47.11409" lon="6.16222">
        <ele>441.6</ele>
        <time>2021-08-23T12:39:04Z</time>
      </trkpt>
      <trkpt lat="47.11407" lon="6.16222">
        <ele>441.6</ele>
        <time>2021-08-23T12:39:05Z</time>
      </trkpt>
      <trkpt lat="47.11405" lon="6.16222">
        <ele>441.8</ele>
        <time>2021-08-23T12:39:06Z</time>
      </trkpt>
      <trkpt lat="47.11404" lon="6.16222">
        <ele>441.8</ele>
        <time>2021-08-23T12:39:07Z</time>
      </trkpt>
      <trkpt lat="47.11401" lon="6.16221">
        <ele>442</ele>
        <time>2021-08-23T12:39:08Z</time>
      </trkpt>
      <trkpt lat="47.11399" lon="6.16221">
        <ele>442</ele>
        <time>2021-08-23T12:39:09Z</time>
      </trkpt>
      <trkpt lat="47.11397" lon="6.1622">
        <ele>442.2</ele>
        <time>2021-08-23T12:39:10Z</time>
      </trkpt>
      <trkpt lat="47.11395" lon="6.1622">
        <ele>442.4</ele>
        <time>2021-08-23T12:39:11Z</time>
      </trkpt>
      <trkpt lat="47.11394" lon="6.1622">
        <ele>442.8</ele>
        <time>2021-08-23T12:39:12Z</time>
      </trkpt>
      <trkpt lat="47.11392" lon="6.16219">
        <ele>443.2</ele>
        <time>2021-08-23T12:39:13Z</time>
      </trkpt>
      <trkpt lat="47.1139" lon="6.16218">
        <ele>443.4</ele>
        <time>2021-08-23T12:39:14Z</time>
      </trkpt>
      <trkpt lat="47.11388" lon="6.16217">
        <ele>443.6</ele>
        <time>2021-08-23T12:39:15Z</time>
      </trkpt>
      <trkpt lat="47.11386" lon="6.16216">
        <ele>443.6</ele>
        <time>2021-08-23T12:39:16Z</time>
      </trkpt>
      <trkpt lat="47.11384" lon="6.16214">
        <ele>443.8</ele>
        <time>2021-08-23T12:39:17Z</time>
      </trkpt>
      <trkpt lat="47.11382" lon="6.16212">
        <ele>444</ele>
        <time>2021-08-23T12:39:18Z</time>
      </trkpt>
      <trkpt lat="47.1138" lon="6.1621">
        <ele>444.2</ele>
        <time>2021-08-23T12:39:19Z</time>
      </trkpt>
      <trkpt lat="47.11377" lon="6.16208">
        <ele>444.2</ele>
        <time>2021-08-23T12:39:20Z</time>
      </trkpt>
      <trkpt lat="47.11375" lon="6.16206">
        <ele>444.2</ele>
        <time>2021-08-23T12:39:21Z</time>
      </trkpt>
      <trkpt lat="47.11373" lon="6.16204">
        <ele>444.4</ele>
        <time>2021-08-23T12:39:22Z</time>
      </trkpt>
      <trkpt lat="47.11371" lon="6.16202">
        <ele>444.4</ele>
        <time>2021-08-23T12:39:23Z</time>
      </trkpt>
      <trkpt lat="47.11368" lon="6.16199">
        <ele>444.4</ele>
        <time>2021-08-23T12:39:24Z</time>
      </trkpt>
      <trkpt lat="47.11366" lon="6.16196">
        <ele>444.4</ele>
        <time>2021-08-23T12:39:25Z</time>
      </trkpt>
      <trkpt lat="47.11365" lon="6.16194">
        <ele>444.4</ele>
        <time>2021-08-23T12:39:26Z</time>
      </trkpt>
      <trkpt lat="47.11362" lon="6.16191">
        <ele>444.4</ele>
        <time>2021-08-23T12:39:27Z</time>
      </trkpt>
      <trkpt lat="47.11361" lon="6.16189">
        <ele>444.6</ele>
        <time>2021-08-23T12:39:28Z</time>
      </trkpt>
      <trkpt lat="47.11358" lon="6.16185">
        <ele>444.6</ele>
        <time>2021-08-23T12:39:29Z</time>
      </trkpt>
      <trkpt lat="47.11356" lon="6.16182">
        <ele>444.8</ele>
        <time>2021-08-23T12:39:30Z</time>
      </trkpt>
      <trkpt lat="47.11353" lon="6.16179">
        <ele>444.8</ele>
        <time>2021-08-23T12:39:31Z</time>
      </trkpt>
      <trkpt lat="47.11351" lon="6.16175">
        <ele>444.8</ele>
        <time>2021-08-23T12:39:32Z</time>
      </trkpt>
      <trkpt lat="47.11348" lon="6.16172">
        <ele>444.8</ele>
        <time>2021-08-23T12:39:33Z</time>
      </trkpt>
      <trkpt lat="47.11345" lon="6.16166">
        <ele>444.8</ele>
        <time>2021-08-23T12:39:34Z</time>
      </trkpt>
      <trkpt lat="47.11341" lon="6.16162">
        <ele>444.8</ele>
        <time>2021-08-23T12:39:35Z</time>
      </trkpt>
      <trkpt lat="47.11337" lon="6.16157">
        <ele>444.6</ele>
        <time>2021-08-23T12:39:36Z</time>
      </trkpt>
      <trkpt lat="47.11331" lon="6.16151">
        <ele>444.6</ele>
        <time>2021-08-23T12:39:37Z</time>
      </trkpt>
      <trkpt lat="47.11327" lon="6.16146">
        <ele>444.4</ele>
        <time>2021-08-23T12:39:38Z</time>
      </trkpt>
      <trkpt lat="47.11302" lon="6.16112">
        <ele>443.2</ele>
        <time>2021-08-23T12:39:42Z</time>
      </trkpt>
      <trkpt lat="47.11292" lon="6.16099">
        <ele>442.2</ele>
        <time>2021-08-23T12:39:44Z</time>
      </trkpt>
      <trkpt lat="47.11287" lon="6.16092">
        <ele>441.4</ele>
        <time>2021-08-23T12:39:45Z</time>
      </trkpt>
      <trkpt lat="47.11284" lon="6.16086">
        <ele>441.2</ele>
        <time>2021-08-23T12:39:46Z</time>
      </trkpt>
      <trkpt lat="47.1128" lon="6.1608">
        <ele>441</ele>
        <time>2021-08-23T12:39:47Z</time>
      </trkpt>
      <trkpt lat="47.11276" lon="6.16074">
        <ele>441</ele>
        <time>2021-08-23T12:39:48Z</time>
      </trkpt>
      <trkpt lat="47.11272" lon="6.16068">
        <ele>440.8</ele>
        <time>2021-08-23T12:39:49Z</time>
      </trkpt>
      <trkpt lat="47.11268" lon="6.16061">
        <ele>440.8</ele>
        <time>2021-08-23T12:39:50Z</time>
      </trkpt>
      <trkpt lat="47.11255" lon="6.16036">
        <ele>441</ele>
        <time>2021-08-23T12:39:54Z</time>
      </trkpt>
      <trkpt lat="47.11252" lon="6.1603">
        <ele>441</ele>
        <time>2021-08-23T12:39:55Z</time>
      </trkpt>
      <trkpt lat="47.1125" lon="6.16025">
        <ele>441</ele>
        <time>2021-08-23T12:39:56Z</time>
      </trkpt>
      <trkpt lat="47.11247" lon="6.16019">
        <ele>441</ele>
        <time>2021-08-23T12:39:57Z</time>
      </trkpt>
      <trkpt lat="47.11244" lon="6.16014">
        <ele>441.2</ele>
        <time>2021-08-23T12:39:58Z</time>
      </trkpt>
      <trkpt lat="47.11241" lon="6.1601">
        <ele>441.2</ele>
        <time>2021-08-23T12:39:59Z</time>
      </trkpt>
      <trkpt lat="47.11238" lon="6.16005">
        <ele>441.4</ele>
        <time>2021-08-23T12:40:00Z</time>
      </trkpt>
      <trkpt lat="47.11235" lon="6.16002">
        <ele>441.6</ele>
        <time>2021-08-23T12:40:01Z</time>
      </trkpt>
      <trkpt lat="47.11227" lon="6.1599">
        <ele>442</ele>
        <time>2021-08-23T12:40:04Z</time>
      </trkpt>
      <trkpt lat="47.11225" lon="6.15986">
        <ele>442.2</ele>
        <time>2021-08-23T12:40:05Z</time>
      </trkpt>
      <trkpt lat="47.11223" lon="6.15982">
        <ele>442.4</ele>
        <time>2021-08-23T12:40:06Z</time>
      </trkpt>
      <trkpt lat="47.11221" lon="6.15978">
        <ele>442.6</ele>
        <time>2021-08-23T12:40:07Z</time>
      </trkpt>
      <trkpt lat="47.11219" lon="6.15975">
        <ele>442.8</ele>
        <time>2021-08-23T12:40:08Z</time>
      </trkpt>
      <trkpt lat="47.11217" lon="6.15971">
        <ele>442.8</ele>
        <time>2021-08-23T12:40:09Z</time>
      </trkpt>
      <trkpt lat="47.11207" lon="6.15955">
        <ele>443.4</ele>
        <time>2021-08-23T12:40:13Z</time>
      </trkpt>
      <trkpt lat="47.11204" lon="6.15952">
        <ele>443.8</ele>
        <time>2021-08-23T12:40:14Z</time>
      </trkpt>
      <trkpt lat="47.11202" lon="6.15949">
        <ele>444</ele>
        <time>2021-08-23T12:40:15Z</time>
      </trkpt>
      <trkpt lat="47.112" lon="6.15945">
        <ele>444.2</ele>
        <time>2021-08-23T12:40:16Z</time>
      </trkpt>
      <trkpt lat="47.11198" lon="6.15942">
        <ele>444.4</ele>
        <time>2021-08-23T12:40:17Z</time>
      </trkpt>
      <trkpt lat="47.1119" lon="6.1593">
        <ele>444.8</ele>
        <time>2021-08-23T12:40:20Z</time>
      </trkpt>
      <trkpt lat="47.11188" lon="6.15926">
        <ele>445</ele>
        <time>2021-08-23T12:40:21Z</time>
      </trkpt>
      <trkpt lat="47.11185" lon="6.15923">
        <ele>445</ele>
        <time>2021-08-23T12:40:22Z</time>
      </trkpt>
      <trkpt lat="47.11182" lon="6.15918">
        <ele>445</ele>
        <time>2021-08-23T12:40:23Z</time>
      </trkpt>
      <trkpt lat="47.1118" lon="6.15914">
        <ele>445</ele>
        <time>2021-08-23T12:40:24Z</time>
      </trkpt>
      <trkpt lat="47.11177" lon="6.15909">
        <ele>445.2</ele>
        <time>2021-08-23T12:40:25Z</time>
      </trkpt>
      <trkpt lat="47.11174" lon="6.15905">
        <ele>445.2</ele>
        <time>2021-08-23T12:40:26Z</time>
      </trkpt>
      <trkpt lat="47.11171" lon="6.159">
        <ele>445.2</ele>
        <time>2021-08-23T12:40:27Z</time>
      </trkpt>
      <trkpt lat="47.11167" lon="6.15895">
        <ele>445.4</ele>
        <time>2021-08-23T12:40:28Z</time>
      </trkpt>
      <trkpt lat="47.11164" lon="6.15891">
        <ele>445.4</ele>
        <time>2021-08-23T12:40:29Z</time>
      </trkpt>
      <trkpt lat="47.11161" lon="6.15887">
        <ele>445.4</ele>
        <time>2021-08-23T12:40:30Z</time>
      </trkpt>
      <trkpt lat="47.11159" lon="6.15884">
        <ele>445.4</ele>
        <time>2021-08-23T12:40:31Z</time>
      </trkpt>
      <trkpt lat="47.11155" lon="6.1588">
        <ele>445.4</ele>
        <time>2021-08-23T12:40:32Z</time>
      </trkpt>
      <trkpt lat="47.11153" lon="6.15876">
        <ele>445.4</ele>
        <time>2021-08-23T12:40:33Z</time>
      </trkpt>
      <trkpt lat="47.1115" lon="6.15873">
        <ele>445.4</ele>
        <time>2021-08-23T12:40:34Z</time>
      </trkpt>
      <trkpt lat="47.11148" lon="6.1587">
        <ele>445.6</ele>
        <time>2021-08-23T12:40:35Z</time>
      </trkpt>
      <trkpt lat="47.11146" lon="6.15867">
        <ele>445.6</ele>
        <time>2021-08-23T12:40:36Z</time>
      </trkpt>
      <trkpt lat="47.11144" lon="6.15864">
        <ele>445.8</ele>
        <time>2021-08-23T12:40:37Z</time>
      </trkpt>
      <trkpt lat="47.11141" lon="6.15861">
        <ele>445.8</ele>
        <time>2021-08-23T12:40:38Z</time>
      </trkpt>
      <trkpt lat="47.11139" lon="6.15858">
        <ele>446</ele>
        <time>2021-08-23T12:40:39Z</time>
      </trkpt>
      <trkpt lat="47.11137" lon="6.15856">
        <ele>446</ele>
        <time>2021-08-23T12:40:40Z</time>
      </trkpt>
      <trkpt lat="47.11128" lon="6.15843">
        <ele>447</ele>
        <time>2021-08-23T12:40:44Z</time>
      </trkpt>
      <trkpt lat="47.11118" lon="6.15829">
        <ele>447.8</ele>
        <time>2021-08-23T12:40:48Z</time>
      </trkpt>
      <trkpt lat="47.11116" lon="6.15826">
        <ele>447.8</ele>
        <time>2021-08-23T12:40:49Z</time>
      </trkpt>
      <trkpt lat="47.11114" lon="6.15823">
        <ele>448</ele>
        <time>2021-08-23T12:40:50Z</time>
      </trkpt>
      <trkpt lat="47.11111" lon="6.15819">
        <ele>448</ele>
        <time>2021-08-23T12:40:51Z</time>
      </trkpt>
      <trkpt lat="47.11108" lon="6.15815">
        <ele>448.2</ele>
        <time>2021-08-23T12:40:52Z</time>
      </trkpt>
      <trkpt lat="47.11106" lon="6.15812">
        <ele>448.4</ele>
        <time>2021-08-23T12:40:53Z</time>
      </trkpt>
      <trkpt lat="47.11103" lon="6.15809">
        <ele>448.4</ele>
        <time>2021-08-23T12:40:54Z</time>
      </trkpt>
      <trkpt lat="47.11101" lon="6.15806">
        <ele>448.6</ele>
        <time>2021-08-23T12:40:55Z</time>
      </trkpt>
      <trkpt lat="47.11098" lon="6.15802">
        <ele>448.8</ele>
        <time>2021-08-23T12:40:56Z</time>
      </trkpt>
      <trkpt lat="47.11096" lon="6.15798">
        <ele>449</ele>
        <time>2021-08-23T12:40:57Z</time>
      </trkpt>
      <trkpt lat="47.11094" lon="6.15795">
        <ele>449</ele>
        <time>2021-08-23T12:40:58Z</time>
      </trkpt>
      <trkpt lat="47.11092" lon="6.15793">
        <ele>449.2</ele>
        <time>2021-08-23T12:40:59Z</time>
      </trkpt>
      <trkpt lat="47.1109" lon="6.1579">
        <ele>449.2</ele>
        <time>2021-08-23T12:41:00Z</time>
      </trkpt>
      <trkpt lat="47.11088" lon="6.15786">
        <ele>449.4</ele>
        <time>2021-08-23T12:41:01Z</time>
      </trkpt>
      <trkpt lat="47.11085" lon="6.15782">
        <ele>449.4</ele>
        <time>2021-08-23T12:41:02Z</time>
      </trkpt>
      <trkpt lat="47.11083" lon="6.15779">
        <ele>449.4</ele>
        <time>2021-08-23T12:41:03Z</time>
      </trkpt>
      <trkpt lat="47.11081" lon="6.15776">
        <ele>449.6</ele>
        <time>2021-08-23T12:41:04Z</time>
      </trkpt>
      <trkpt lat="47.11079" lon="6.15773">
        <ele>449.8</ele>
        <time>2021-08-23T12:41:05Z</time>
      </trkpt>
      <trkpt lat="47.11076" lon="6.1577">
        <ele>450</ele>
        <time>2021-08-23T12:41:06Z</time>
      </trkpt>
      <trkpt lat="47.11074" lon="6.15767">
        <ele>450</ele>
        <time>2021-08-23T12:41:07Z</time>
      </trkpt>
      <trkpt lat="47.11072" lon="6.15763">
        <ele>450.2</ele>
        <time>2021-08-23T12:41:08Z</time>
      </trkpt>
      <trkpt lat="47.1107" lon="6.1576">
        <ele>450.2</ele>
        <time>2021-08-23T12:41:09Z</time>
      </trkpt>
      <trkpt lat="47.11067" lon="6.15757">
        <ele>450.4</ele>
        <time>2021-08-23T12:41:10Z</time>
      </trkpt>
      <trkpt lat="47.11065" lon="6.15754">
        <ele>450.4</ele>
        <time>2021-08-23T12:41:11Z</time>
      </trkpt>
      <trkpt lat="47.11064" lon="6.15752">
        <ele>450.6</ele>
        <time>2021-08-23T12:41:12Z</time>
      </trkpt>
      <trkpt lat="47.11062" lon="6.15749">
        <ele>450.8</ele>
        <time>2021-08-23T12:41:13Z</time>
      </trkpt>
      <trkpt lat="47.1106" lon="6.15746">
        <ele>451</ele>
        <time>2021-08-23T12:41:14Z</time>
      </trkpt>
      <trkpt lat="47.11058" lon="6.15742">
        <ele>451</ele>
        <time>2021-08-23T12:41:15Z</time>
      </trkpt>
      <trkpt lat="47.11056" lon="6.15739">
        <ele>451.2</ele>
        <time>2021-08-23T12:41:16Z</time>
      </trkpt>
      <trkpt lat="47.11054" lon="6.15736">
        <ele>451.6</ele>
        <time>2021-08-23T12:41:17Z</time>
      </trkpt>
      <trkpt lat="47.11052" lon="6.15733">
        <ele>451.8</ele>
        <time>2021-08-23T12:41:18Z</time>
      </trkpt>
      <trkpt lat="47.1105" lon="6.15729">
        <ele>452</ele>
        <time>2021-08-23T12:41:19Z</time>
      </trkpt>
      <trkpt lat="47.11048" lon="6.15725">
        <ele>452.4</ele>
        <time>2021-08-23T12:41:20Z</time>
      </trkpt>
      <trkpt lat="47.11046" lon="6.15721">
        <ele>452.4</ele>
        <time>2021-08-23T12:41:21Z</time>
      </trkpt>
      <trkpt lat="47.11044" lon="6.15718">
        <ele>452.6</ele>
        <time>2021-08-23T12:41:22Z</time>
      </trkpt>
      <trkpt lat="47.11043" lon="6.15714">
        <ele>452.8</ele>
        <time>2021-08-23T12:41:23Z</time>
      </trkpt>
      <trkpt lat="47.11041" lon="6.15711">
        <ele>453</ele>
        <time>2021-08-23T12:41:24Z</time>
      </trkpt>
      <trkpt lat="47.1104" lon="6.15707">
        <ele>453</ele>
        <time>2021-08-23T12:41:25Z</time>
      </trkpt>
      <trkpt lat="47.11039" lon="6.15703">
        <ele>453.2</ele>
        <time>2021-08-23T12:41:26Z</time>
      </trkpt>
      <trkpt lat="47.11037" lon="6.157">
        <ele>453.2</ele>
        <time>2021-08-23T12:41:27Z</time>
      </trkpt>
      <trkpt lat="47.11036" lon="6.15697">
        <ele>453.4</ele>
        <time>2021-08-23T12:41:28Z</time>
      </trkpt>
      <trkpt lat="47.11035" lon="6.15695">
        <ele>453.6</ele>
        <time>2021-08-23T12:41:29Z</time>
      </trkpt>
      <trkpt lat="47.11034" lon="6.15691">
        <ele>453.8</ele>
        <time>2021-08-23T12:41:30Z</time>
      </trkpt>
      <trkpt lat="47.11033" lon="6.15688">
        <ele>454</ele>
        <time>2021-08-23T12:41:31Z</time>
      </trkpt>
      <trkpt lat="47.11031" lon="6.15685">
        <ele>454.2</ele>
        <time>2021-08-23T12:41:32Z</time>
      </trkpt>
      <trkpt lat="47.11029" lon="6.15681">
        <ele>454.4</ele>
        <time>2021-08-23T12:41:33Z</time>
      </trkpt>
      <trkpt lat="47.11027" lon="6.15677">
        <ele>454.6</ele>
        <time>2021-08-23T12:41:34Z</time>
      </trkpt>
      <trkpt lat="47.11025" lon="6.15673">
        <ele>454.8</ele>
        <time>2021-08-23T12:41:35Z</time>
      </trkpt>
      <trkpt lat="47.11024" lon="6.15669">
        <ele>455</ele>
        <time>2021-08-23T12:41:36Z</time>
      </trkpt>
      <trkpt lat="47.11022" lon="6.15665">
        <ele>455</ele>
        <time>2021-08-23T12:41:37Z</time>
      </trkpt>
      <trkpt lat="47.1102" lon="6.15661">
        <ele>455.2</ele>
        <time>2021-08-23T12:41:38Z</time>
      </trkpt>
      <trkpt lat="47.11018" lon="6.15657">
        <ele>455.2</ele>
        <time>2021-08-23T12:41:39Z</time>
      </trkpt>
      <trkpt lat="47.11015" lon="6.15652">
        <ele>455.2</ele>
        <time>2021-08-23T12:41:40Z</time>
      </trkpt>
      <trkpt lat="47.11013" lon="6.15648">
        <ele>455.4</ele>
        <time>2021-08-23T12:41:41Z</time>
      </trkpt>
      <trkpt lat="47.1101" lon="6.15644">
        <ele>455.4</ele>
        <time>2021-08-23T12:41:42Z</time>
      </trkpt>
      <trkpt lat="47.11008" lon="6.15641">
        <ele>455.4</ele>
        <time>2021-08-23T12:41:43Z</time>
      </trkpt>
      <trkpt lat="47.11007" lon="6.15638">
        <ele>455.4</ele>
        <time>2021-08-23T12:41:44Z</time>
      </trkpt>
      <trkpt lat="47.11005" lon="6.15635">
        <ele>455.4</ele>
        <time>2021-08-23T12:41:45Z</time>
      </trkpt>
      <trkpt lat="47.11001" lon="6.1563">
        <ele>455.6</ele>
        <time>2021-08-23T12:41:46Z</time>
      </trkpt>
      <trkpt lat="47.10998" lon="6.15625">
        <ele>455.8</ele>
        <time>2021-08-23T12:41:47Z</time>
      </trkpt>
      <trkpt lat="47.10996" lon="6.15622">
        <ele>455.8</ele>
        <time>2021-08-23T12:41:48Z</time>
      </trkpt>
      <trkpt lat="47.10994" lon="6.15618">
        <ele>455.8</ele>
        <time>2021-08-23T12:41:49Z</time>
      </trkpt>
      <trkpt lat="47.10992" lon="6.15615">
        <ele>455.8</ele>
        <time>2021-08-23T12:41:50Z</time>
      </trkpt>
      <trkpt lat="47.1099" lon="6.15612">
        <ele>455.8</ele>
        <time>2021-08-23T12:41:51Z</time>
      </trkpt>
      <trkpt lat="47.10987" lon="6.15608">
        <ele>456</ele>
        <time>2021-08-23T12:41:52Z</time>
      </trkpt>
      <trkpt lat="47.10984" lon="6.15604">
        <ele>456</ele>
        <time>2021-08-23T12:41:53Z</time>
      </trkpt>
      <trkpt lat="47.10981" lon="6.156">
        <ele>456.2</ele>
        <time>2021-08-23T12:41:54Z</time>
      </trkpt>
      <trkpt lat="47.10978" lon="6.15597">
        <ele>456.2</ele>
        <time>2021-08-23T12:41:55Z</time>
      </trkpt>
      <trkpt lat="47.10977" lon="6.15594">
        <ele>456.6</ele>
        <time>2021-08-23T12:41:56Z</time>
      </trkpt>
      <trkpt lat="47.10975" lon="6.15591">
        <ele>456.6</ele>
        <time>2021-08-23T12:41:57Z</time>
      </trkpt>
      <trkpt lat="47.10973" lon="6.15587">
        <ele>456.8</ele>
        <time>2021-08-23T12:41:58Z</time>
      </trkpt>
      <trkpt lat="47.10971" lon="6.15584">
        <ele>456.8</ele>
        <time>2021-08-23T12:41:59Z</time>
      </trkpt>
      <trkpt lat="47.10969" lon="6.1558">
        <ele>457</ele>
        <time>2021-08-23T12:42:00Z</time>
      </trkpt>
      <trkpt lat="47.10956" lon="6.15561">
        <ele>457.2</ele>
        <time>2021-08-23T12:42:05Z</time>
      </trkpt>
      <trkpt lat="47.10935" lon="6.15528">
        <ele>458</ele>
        <time>2021-08-23T12:42:13Z</time>
      </trkpt>
      <trkpt lat="47.10929" lon="6.15518">
        <ele>458</ele>
        <time>2021-08-23T12:42:15Z</time>
      </trkpt>
      <trkpt lat="47.10918" lon="6.15498">
        <ele>458.4</ele>
        <time>2021-08-23T12:42:20Z</time>
      </trkpt>
      <trkpt lat="47.10916" lon="6.15494">
        <ele>458.6</ele>
        <time>2021-08-23T12:42:21Z</time>
      </trkpt>
      <trkpt lat="47.10914" lon="6.1549">
        <ele>458.8</ele>
        <time>2021-08-23T12:42:22Z</time>
      </trkpt>
      <trkpt lat="47.10908" lon="6.15479">
        <ele>459</ele>
        <time>2021-08-23T12:42:25Z</time>
      </trkpt>
      <trkpt lat="47.10907" lon="6.15476">
        <ele>459</ele>
        <time>2021-08-23T12:42:26Z</time>
      </trkpt>
      <trkpt lat="47.10905" lon="6.15472">
        <ele>459.2</ele>
        <time>2021-08-23T12:42:27Z</time>
      </trkpt>
      <trkpt lat="47.10904" lon="6.15469">
        <ele>459.2</ele>
        <time>2021-08-23T12:42:28Z</time>
      </trkpt>
      <trkpt lat="47.10902" lon="6.15465">
        <ele>459.4</ele>
        <time>2021-08-23T12:42:29Z</time>
      </trkpt>
      <trkpt lat="47.10901" lon="6.15462">
        <ele>459.4</ele>
        <time>2021-08-23T12:42:30Z</time>
      </trkpt>
      <trkpt lat="47.109" lon="6.15459">
        <ele>459.6</ele>
        <time>2021-08-23T12:42:31Z</time>
      </trkpt>
      <trkpt lat="47.10898" lon="6.15456">
        <ele>459.6</ele>
        <time>2021-08-23T12:42:32Z</time>
      </trkpt>
      <trkpt lat="47.10897" lon="6.15452">
        <ele>459.6</ele>
        <time>2021-08-23T12:42:33Z</time>
      </trkpt>
      <trkpt lat="47.10896" lon="6.15449">
        <ele>460</ele>
        <time>2021-08-23T12:42:34Z</time>
      </trkpt>
      <trkpt lat="47.10895" lon="6.15446">
        <ele>460</ele>
        <time>2021-08-23T12:42:35Z</time>
      </trkpt>
      <trkpt lat="47.10893" lon="6.15443">
        <ele>460.4</ele>
        <time>2021-08-23T12:42:36Z</time>
      </trkpt>
      <trkpt lat="47.10892" lon="6.1544">
        <ele>460.4</ele>
        <time>2021-08-23T12:42:37Z</time>
      </trkpt>
      <trkpt lat="47.10891" lon="6.15436">
        <ele>460.6</ele>
        <time>2021-08-23T12:42:38Z</time>
      </trkpt>
      <trkpt lat="47.1089" lon="6.15434">
        <ele>460.8</ele>
        <time>2021-08-23T12:42:39Z</time>
      </trkpt>
      <trkpt lat="47.10888" lon="6.1543">
        <ele>460.8</ele>
        <time>2021-08-23T12:42:40Z</time>
      </trkpt>
      <trkpt lat="47.10887" lon="6.15427">
        <ele>461</ele>
        <time>2021-08-23T12:42:41Z</time>
      </trkpt>
      <trkpt lat="47.10886" lon="6.15423">
        <ele>461.2</ele>
        <time>2021-08-23T12:42:42Z</time>
      </trkpt>
      <trkpt lat="47.10884" lon="6.15419">
        <ele>461.2</ele>
        <time>2021-08-23T12:42:43Z</time>
      </trkpt>
      <trkpt lat="47.10883" lon="6.15415">
        <ele>461.4</ele>
        <time>2021-08-23T12:42:44Z</time>
      </trkpt>
      <trkpt lat="47.10882" lon="6.15413">
        <ele>461.6</ele>
        <time>2021-08-23T12:42:45Z</time>
      </trkpt>
      <trkpt lat="47.1088" lon="6.15409">
        <ele>461.6</ele>
        <time>2021-08-23T12:42:46Z</time>
      </trkpt>
      <trkpt lat="47.10879" lon="6.15406">
        <ele>461.8</ele>
        <time>2021-08-23T12:42:47Z</time>
      </trkpt>
      <trkpt lat="47.10878" lon="6.15402">
        <ele>461.8</ele>
        <time>2021-08-23T12:42:48Z</time>
      </trkpt>
      <trkpt lat="47.10876" lon="6.15398">
        <ele>461.8</ele>
        <time>2021-08-23T12:42:49Z</time>
      </trkpt>
      <trkpt lat="47.10875" lon="6.15395">
        <ele>462</ele>
        <time>2021-08-23T12:42:50Z</time>
      </trkpt>
      <trkpt lat="47.10874" lon="6.15392">
        <ele>462.2</ele>
        <time>2021-08-23T12:42:51Z</time>
      </trkpt>
      <trkpt lat="47.10873" lon="6.15389">
        <ele>462.6</ele>
        <time>2021-08-23T12:42:52Z</time>
      </trkpt>
      <trkpt lat="47.10871" lon="6.15385">
        <ele>462.8</ele>
        <time>2021-08-23T12:42:53Z</time>
      </trkpt>
      <trkpt lat="47.1087" lon="6.15381">
        <ele>463</ele>
        <time>2021-08-23T12:42:54Z</time>
      </trkpt>
      <trkpt lat="47.10868" lon="6.15378">
        <ele>463.2</ele>
        <time>2021-08-23T12:42:55Z</time>
      </trkpt>
      <trkpt lat="47.10867" lon="6.15375">
        <ele>463.2</ele>
        <time>2021-08-23T12:42:56Z</time>
      </trkpt>
      <trkpt lat="47.10865" lon="6.15371">
        <ele>463.4</ele>
        <time>2021-08-23T12:42:57Z</time>
      </trkpt>
      <trkpt lat="47.10863" lon="6.15368">
        <ele>463.6</ele>
        <time>2021-08-23T12:42:58Z</time>
      </trkpt>
      <trkpt lat="47.10861" lon="6.15364">
        <ele>463.6</ele>
        <time>2021-08-23T12:42:59Z</time>
      </trkpt>
      <trkpt lat="47.10859" lon="6.1536">
        <ele>463.8</ele>
        <time>2021-08-23T12:43:00Z</time>
      </trkpt>
      <trkpt lat="47.10858" lon="6.15357">
        <ele>463.8</ele>
        <time>2021-08-23T12:43:01Z</time>
      </trkpt>
      <trkpt lat="47.10856" lon="6.15353">
        <ele>463.8</ele>
        <time>2021-08-23T12:43:02Z</time>
      </trkpt>
      <trkpt lat="47.10855" lon="6.1535">
        <ele>464</ele>
        <time>2021-08-23T12:43:03Z</time>
      </trkpt>
      <trkpt lat="47.10854" lon="6.15347">
        <ele>464</ele>
        <time>2021-08-23T12:43:04Z</time>
      </trkpt>
      <trkpt lat="47.10853" lon="6.15343">
        <ele>464</ele>
        <time>2021-08-23T12:43:05Z</time>
      </trkpt>
      <trkpt lat="47.10852" lon="6.1534">
        <ele>464.2</ele>
        <time>2021-08-23T12:43:06Z</time>
      </trkpt>
      <trkpt lat="47.10851" lon="6.15337">
        <ele>464.2</ele>
        <time>2021-08-23T12:43:07Z</time>
      </trkpt>
      <trkpt lat="47.1085" lon="6.15333">
        <ele>464.4</ele>
        <time>2021-08-23T12:43:08Z</time>
      </trkpt>
      <trkpt lat="47.1085" lon="6.1533">
        <ele>464.4</ele>
        <time>2021-08-23T12:43:09Z</time>
      </trkpt>
      <trkpt lat="47.10849" lon="6.15326">
        <ele>464.6</ele>
        <time>2021-08-23T12:43:10Z</time>
      </trkpt>
      <trkpt lat="47.10849" lon="6.15322">
        <ele>464.6</ele>
        <time>2021-08-23T12:43:11Z</time>
      </trkpt>
      <trkpt lat="47.10848" lon="6.15318">
        <ele>465</ele>
        <time>2021-08-23T12:43:12Z</time>
      </trkpt>
      <trkpt lat="47.10848" lon="6.15314">
        <ele>465</ele>
        <time>2021-08-23T12:43:13Z</time>
      </trkpt>
      <trkpt lat="47.10847" lon="6.1531">
        <ele>465.2</ele>
        <time>2021-08-23T12:43:14Z</time>
      </trkpt>
      <trkpt lat="47.10846" lon="6.15306">
        <ele>465.4</ele>
        <time>2021-08-23T12:43:15Z</time>
      </trkpt>
      <trkpt lat="47.10846" lon="6.15302">
        <ele>465.4</ele>
        <time>2021-08-23T12:43:16Z</time>
      </trkpt>
      <trkpt lat="47.10845" lon="6.15298">
        <ele>465.4</ele>
        <time>2021-08-23T12:43:17Z</time>
      </trkpt>
      <trkpt lat="47.10844" lon="6.15294">
        <ele>465.6</ele>
        <time>2021-08-23T12:43:18Z</time>
      </trkpt>
      <trkpt lat="47.10843" lon="6.15291">
        <ele>465.6</ele>
        <time>2021-08-23T12:43:19Z</time>
      </trkpt>
      <trkpt lat="47.10842" lon="6.15286">
        <ele>465.8</ele>
        <time>2021-08-23T12:43:20Z</time>
      </trkpt>
      <trkpt lat="47.10841" lon="6.15282">
        <ele>465.8</ele>
        <time>2021-08-23T12:43:21Z</time>
      </trkpt>
      <trkpt lat="47.1084" lon="6.15278">
        <ele>466</ele>
        <time>2021-08-23T12:43:22Z</time>
      </trkpt>
      <trkpt lat="47.10838" lon="6.15274">
        <ele>466</ele>
        <time>2021-08-23T12:43:23Z</time>
      </trkpt>
      <trkpt lat="47.10837" lon="6.1527">
        <ele>466.2</ele>
        <time>2021-08-23T12:43:24Z</time>
      </trkpt>
      <trkpt lat="47.10835" lon="6.15266">
        <ele>466.2</ele>
        <time>2021-08-23T12:43:25Z</time>
      </trkpt>
      <trkpt lat="47.10833" lon="6.15262">
        <ele>466.2</ele>
        <time>2021-08-23T12:43:26Z</time>
      </trkpt>
      <trkpt lat="47.10832" lon="6.15258">
        <ele>466.2</ele>
        <time>2021-08-23T12:43:27Z</time>
      </trkpt>
      <trkpt lat="47.10831" lon="6.15253">
        <ele>466.4</ele>
        <time>2021-08-23T12:43:28Z</time>
      </trkpt>
      <trkpt lat="47.10829" lon="6.15249">
        <ele>466.4</ele>
        <time>2021-08-23T12:43:29Z</time>
      </trkpt>
      <trkpt lat="47.10828" lon="6.15245">
        <ele>466.4</ele>
        <time>2021-08-23T12:43:30Z</time>
      </trkpt>
      <trkpt lat="47.10827" lon="6.15241">
        <ele>466.4</ele>
        <time>2021-08-23T12:43:31Z</time>
      </trkpt>
      <trkpt lat="47.10826" lon="6.15236">
        <ele>466.4</ele>
        <time>2021-08-23T12:43:32Z</time>
      </trkpt>
      <trkpt lat="47.10822" lon="6.15213">
        <ele>466.4</ele>
        <time>2021-08-23T12:43:37Z</time>
      </trkpt>
      <trkpt lat="47.10821" lon="6.15208">
        <ele>466.4</ele>
        <time>2021-08-23T12:43:38Z</time>
      </trkpt>
      <trkpt lat="47.10817" lon="6.15184">
        <ele>467</ele>
        <time>2021-08-23T12:43:43Z</time>
      </trkpt>
      <trkpt lat="47.10817" lon="6.15179">
        <ele>467</ele>
        <time>2021-08-23T12:43:44Z</time>
      </trkpt>
      <trkpt lat="47.10815" lon="6.15167">
        <ele>467.4</ele>
        <time>2021-08-23T12:43:47Z</time>
      </trkpt>
      <trkpt lat="47.10814" lon="6.15164">
        <ele>467.4</ele>
        <time>2021-08-23T12:43:48Z</time>
      </trkpt>
      <trkpt lat="47.10814" lon="6.1516">
        <ele>467.6</ele>
        <time>2021-08-23T12:43:49Z</time>
      </trkpt>
      <trkpt lat="47.10813" lon="6.15156">
        <ele>467.6</ele>
        <time>2021-08-23T12:43:50Z</time>
      </trkpt>
      <trkpt lat="47.10813" lon="6.15151">
        <ele>467.6</ele>
        <time>2021-08-23T12:43:51Z</time>
      </trkpt>
      <trkpt lat="47.10813" lon="6.15148">
        <ele>467.6</ele>
        <time>2021-08-23T12:43:52Z</time>
      </trkpt>
      <trkpt lat="47.10812" lon="6.15144">
        <ele>467.6</ele>
        <time>2021-08-23T12:43:53Z</time>
      </trkpt>
      <trkpt lat="47.10812" lon="6.15139">
        <ele>467.8</ele>
        <time>2021-08-23T12:43:54Z</time>
      </trkpt>
      <trkpt lat="47.1081" lon="6.15125">
        <ele>467.8</ele>
        <time>2021-08-23T12:43:57Z</time>
      </trkpt>
      <trkpt lat="47.10808" lon="6.15114">
        <ele>467.8</ele>
        <time>2021-08-23T12:44:00Z</time>
      </trkpt>
      <trkpt lat="47.10807" lon="6.15112">
        <ele>467.8</ele>
        <time>2021-08-23T12:44:01Z</time>
      </trkpt>
      <trkpt lat="47.10805" lon="6.15111">
        <ele>467.8</ele>
        <time>2021-08-23T12:44:02Z</time>
      </trkpt>
      <trkpt lat="47.10804" lon="6.15109">
        <ele>468</ele>
        <time>2021-08-23T12:44:03Z</time>
      </trkpt>
      <trkpt lat="47.10802" lon="6.15107">
        <ele>468</ele>
        <time>2021-08-23T12:44:04Z</time>
      </trkpt>
      <trkpt lat="47.10799" lon="6.15103">
        <ele>467.6</ele>
        <time>2021-08-23T12:44:06Z</time>
      </trkpt>
      <trkpt lat="47.10798" lon="6.15101">
        <ele>467.6</ele>
        <time>2021-08-23T12:44:07Z</time>
      </trkpt>
      <trkpt lat="47.10798" lon="6.15099">
        <ele>467.8</ele>
        <time>2021-08-23T12:44:08Z</time>
      </trkpt>
      <trkpt lat="47.10798" lon="6.15099">
        <ele>467.6</ele>
        <time>2021-08-23T12:44:09Z</time>
      </trkpt>
      <trkpt lat="47.10798" lon="6.15099">
        <ele>467.4</ele>
        <time>2021-08-23T12:44:10Z</time>
      </trkpt>
      <trkpt lat="47.10798" lon="6.15099">
        <ele>466.6</ele>
        <time>2021-08-23T12:44:18Z</time>
      </trkpt>
      <trkpt lat="47.10798" lon="6.15099">
        <ele>466.4</ele>
        <time>2021-08-23T12:44:21Z</time>
      </trkpt>
      <trkpt lat="47.10798" lon="6.15099">
        <ele>466.4</ele>
        <time>2021-08-23T12:44:51Z</time>
      </trkpt>
      <trkpt lat="47.10798" lon="6.15099">
        <ele>466.4</ele>
        <time>2021-08-23T12:45:25Z</time>
      </trkpt>
      <trkpt lat="47.10798" lon="6.15099">
        <ele>466.2</ele>
        <time>2021-08-23T12:45:47Z</time>
      </trkpt>
      <trkpt lat="47.10798" lon="6.15099">
        <ele>466.2</ele>
        <time>2021-08-23T12:46:41Z</time>
      </trkpt>
      <trkpt lat="47.10798" lon="6.15099">
        <ele>466.6</ele>
        <time>2021-08-23T12:47:33Z</time>
      </trkpt>
      <trkpt lat="47.10798" lon="6.15099">
        <ele>466.2</ele>
        <time>2021-08-23T12:47:59Z</time>
      </trkpt>
      <trkpt lat="47.10798" lon="6.15099">
        <ele>466.6</ele>
        <time>2021-08-23T12:48:33Z</time>
      </trkpt>
      <trkpt lat="47.108" lon="6.15099">
        <ele>467</ele>
        <time>2021-08-23T12:48:47Z</time>
      </trkpt>
      <trkpt lat="47.10803" lon="6.15095">
        <ele>466.8</ele>
        <time>2021-08-23T12:48:49Z</time>
      </trkpt>
      <trkpt lat="47.10805" lon="6.15092">
        <ele>466.8</ele>
        <time>2021-08-23T12:48:50Z</time>
      </trkpt>
      <trkpt lat="47.10806" lon="6.1509">
        <ele>466.8</ele>
        <time>2021-08-23T12:48:51Z</time>
      </trkpt>
      <trkpt lat="47.10808" lon="6.15089">
        <ele>466.8</ele>
        <time>2021-08-23T12:48:52Z</time>
      </trkpt>
      <trkpt lat="47.10814" lon="6.15082">
        <ele>467.2</ele>
        <time>2021-08-23T12:48:56Z</time>
      </trkpt>
      <trkpt lat="47.10816" lon="6.1508">
        <ele>467.4</ele>
        <time>2021-08-23T12:48:58Z</time>
      </trkpt>
      <trkpt lat="47.10816" lon="6.1508">
        <ele>467.6</ele>
        <time>2021-08-23T12:49:01Z</time>
      </trkpt>
      <trkpt lat="47.1082" lon="6.15073">
        <ele>468</ele>
        <time>2021-08-23T12:49:28Z</time>
      </trkpt>
      <trkpt lat="47.10827" lon="6.15066">
        <ele>468</ele>
        <time>2021-08-23T12:49:31Z</time>
      </trkpt>
      <trkpt lat="47.10839" lon="6.15056">
        <ele>468.4</ele>
        <time>2021-08-23T12:49:36Z</time>
      </trkpt>
      <trkpt lat="47.10858" lon="6.1504">
        <ele>468.8</ele>
        <time>2021-08-23T12:49:44Z</time>
      </trkpt>
      <trkpt lat="47.10861" lon="6.15039">
        <ele>469</ele>
        <time>2021-08-23T12:49:45Z</time>
      </trkpt>
      <trkpt lat="47.10879" lon="6.15026">
        <ele>470</ele>
        <time>2021-08-23T12:49:51Z</time>
      </trkpt>
      <trkpt lat="47.10885" lon="6.15019">
        <ele>470.2</ele>
        <time>2021-08-23T12:49:53Z</time>
      </trkpt>
      <trkpt lat="47.109" lon="6.15004">
        <ele>470.2</ele>
        <time>2021-08-23T12:49:57Z</time>
      </trkpt>
      <trkpt lat="47.10904" lon="6.14999">
        <ele>470</ele>
        <time>2021-08-23T12:49:58Z</time>
      </trkpt>
      <trkpt lat="47.10916" lon="6.14985">
        <ele>469.6</ele>
        <time>2021-08-23T12:50:01Z</time>
      </trkpt>
      <trkpt lat="47.10921" lon="6.1498">
        <ele>469.4</ele>
        <time>2021-08-23T12:50:02Z</time>
      </trkpt>
      <trkpt lat="47.1093" lon="6.14972">
        <ele>469</ele>
        <time>2021-08-23T12:50:04Z</time>
      </trkpt>
      <trkpt lat="47.1094" lon="6.14965">
        <ele>468.4</ele>
        <time>2021-08-23T12:50:06Z</time>
      </trkpt>
      <trkpt lat="47.1096" lon="6.14958">
        <ele>468.4</ele>
        <time>2021-08-23T12:50:10Z</time>
      </trkpt>
      <trkpt lat="47.10965" lon="6.14957">
        <ele>468.4</ele>
        <time>2021-08-23T12:50:11Z</time>
      </trkpt>
      <trkpt lat="47.1097" lon="6.14956">
        <ele>468.4</ele>
        <time>2021-08-23T12:50:12Z</time>
      </trkpt>
      <trkpt lat="47.10975" lon="6.14955">
        <ele>468.6</ele>
        <time>2021-08-23T12:50:13Z</time>
      </trkpt>
      <trkpt lat="47.1098" lon="6.14955">
        <ele>468.6</ele>
        <time>2021-08-23T12:50:14Z</time>
      </trkpt>
      <trkpt lat="47.10984" lon="6.14955">
        <ele>468.6</ele>
        <time>2021-08-23T12:50:15Z</time>
      </trkpt>
      <trkpt lat="47.10989" lon="6.14956">
        <ele>468.8</ele>
        <time>2021-08-23T12:50:16Z</time>
      </trkpt>
      <trkpt lat="47.10993" lon="6.14956">
        <ele>468.8</ele>
        <time>2021-08-23T12:50:17Z</time>
      </trkpt>
      <trkpt lat="47.11003" lon="6.14959">
        <ele>469</ele>
        <time>2021-08-23T12:50:19Z</time>
      </trkpt>
      <trkpt lat="47.11007" lon="6.14962">
        <ele>469</ele>
        <time>2021-08-23T12:50:20Z</time>
      </trkpt>
      <trkpt lat="47.11042" lon="6.14992">
        <ele>469.2</ele>
        <time>2021-08-23T12:50:28Z</time>
      </trkpt>
      <trkpt lat="47.11058" lon="6.1501">
        <ele>469.2</ele>
        <time>2021-08-23T12:50:32Z</time>
      </trkpt>
      <trkpt lat="47.11074" lon="6.15025">
        <ele>468.8</ele>
        <time>2021-08-23T12:50:35Z</time>
      </trkpt>
      <trkpt lat="47.11092" lon="6.15045">
        <ele>467.6</ele>
        <time>2021-08-23T12:50:38Z</time>
      </trkpt>
      <trkpt lat="47.11103" lon="6.15058">
        <ele>466.4</ele>
        <time>2021-08-23T12:50:40Z</time>
      </trkpt>
      <trkpt lat="47.11107" lon="6.15065">
        <ele>466.4</ele>
        <time>2021-08-23T12:50:41Z</time>
      </trkpt>
      <trkpt lat="47.11113" lon="6.15072">
        <ele>465.8</ele>
        <time>2021-08-23T12:50:42Z</time>
      </trkpt>
      <trkpt lat="47.11125" lon="6.15084">
        <ele>465</ele>
        <time>2021-08-23T12:50:44Z</time>
      </trkpt>
      <trkpt lat="47.11131" lon="6.15089">
        <ele>465</ele>
        <time>2021-08-23T12:50:45Z</time>
      </trkpt>
      <trkpt lat="47.11136" lon="6.15094">
        <ele>464.8</ele>
        <time>2021-08-23T12:50:46Z</time>
      </trkpt>
      <trkpt lat="47.1114" lon="6.15099">
        <ele>464.6</ele>
        <time>2021-08-23T12:50:47Z</time>
      </trkpt>
      <trkpt lat="47.11145" lon="6.15104">
        <ele>464.6</ele>
        <time>2021-08-23T12:50:48Z</time>
      </trkpt>
      <trkpt lat="47.11148" lon="6.15107">
        <ele>464.4</ele>
        <time>2021-08-23T12:50:49Z</time>
      </trkpt>
      <trkpt lat="47.11152" lon="6.15111">
        <ele>464.4</ele>
        <time>2021-08-23T12:50:50Z</time>
      </trkpt>
      <trkpt lat="47.11161" lon="6.15121">
        <ele>464.4</ele>
        <time>2021-08-23T12:50:52Z</time>
      </trkpt>
      <trkpt lat="47.11167" lon="6.15124">
        <ele>464.2</ele>
        <time>2021-08-23T12:50:53Z</time>
      </trkpt>
      <trkpt lat="47.11176" lon="6.15128">
        <ele>464</ele>
        <time>2021-08-23T12:50:55Z</time>
      </trkpt>
      <trkpt lat="47.11182" lon="6.15129">
        <ele>464</ele>
        <time>2021-08-23T12:50:56Z</time>
      </trkpt>
      <trkpt lat="47.11187" lon="6.1513">
        <ele>464</ele>
        <time>2021-08-23T12:50:57Z</time>
      </trkpt>
      <trkpt lat="47.11193" lon="6.15133">
        <ele>463.4</ele>
        <time>2021-08-23T12:50:58Z</time>
      </trkpt>
      <trkpt lat="47.11199" lon="6.15137">
        <ele>463</ele>
        <time>2021-08-23T12:50:59Z</time>
      </trkpt>
      <trkpt lat="47.11205" lon="6.15141">
        <ele>462.6</ele>
        <time>2021-08-23T12:51:00Z</time>
      </trkpt>
      <trkpt lat="47.11211" lon="6.15142">
        <ele>462.6</ele>
        <time>2021-08-23T12:51:01Z</time>
      </trkpt>
      <trkpt lat="47.11217" lon="6.15142">
        <ele>462</ele>
        <time>2021-08-23T12:51:02Z</time>
      </trkpt>
      <trkpt lat="47.11224" lon="6.15142">
        <ele>461.6</ele>
        <time>2021-08-23T12:51:03Z</time>
      </trkpt>
      <trkpt lat="47.11238" lon="6.15145">
        <ele>460.6</ele>
        <time>2021-08-23T12:51:05Z</time>
      </trkpt>
      <trkpt lat="47.1125" lon="6.15147">
        <ele>459.6</ele>
        <time>2021-08-23T12:51:07Z</time>
      </trkpt>
      <trkpt lat="47.11257" lon="6.15146">
        <ele>459.4</ele>
        <time>2021-08-23T12:51:08Z</time>
      </trkpt>
      <trkpt lat="47.11262" lon="6.15144">
        <ele>459</ele>
        <time>2021-08-23T12:51:09Z</time>
      </trkpt>
      <trkpt lat="47.11267" lon="6.15142">
        <ele>459</ele>
        <time>2021-08-23T12:51:10Z</time>
      </trkpt>
      <trkpt lat="47.11275" lon="6.15144">
        <ele>458.6</ele>
        <time>2021-08-23T12:51:11Z</time>
      </trkpt>
      <trkpt lat="47.11281" lon="6.15147">
        <ele>458.4</ele>
        <time>2021-08-23T12:51:12Z</time>
      </trkpt>
      <trkpt lat="47.11285" lon="6.15145">
        <ele>458.4</ele>
        <time>2021-08-23T12:51:13Z</time>
      </trkpt>
      <trkpt lat="47.11288" lon="6.15142">
        <ele>458.4</ele>
        <time>2021-08-23T12:51:14Z</time>
      </trkpt>
      <trkpt lat="47.11295" lon="6.15134">
        <ele>458.4</ele>
        <time>2021-08-23T12:51:16Z</time>
      </trkpt>
      <trkpt lat="47.11299" lon="6.15128">
        <ele>458.4</ele>
        <time>2021-08-23T12:51:17Z</time>
      </trkpt>
      <trkpt lat="47.11302" lon="6.15122">
        <ele>458.6</ele>
        <time>2021-08-23T12:51:18Z</time>
      </trkpt>
      <trkpt lat="47.11308" lon="6.15113">
        <ele>458.8</ele>
        <time>2021-08-23T12:51:20Z</time>
      </trkpt>
      <trkpt lat="47.11312" lon="6.15112">
        <ele>458.8</ele>
        <time>2021-08-23T12:51:21Z</time>
      </trkpt>
      <trkpt lat="47.11313" lon="6.15108">
        <ele>458.8</ele>
        <time>2021-08-23T12:51:22Z</time>
      </trkpt>
      <trkpt lat="47.11314" lon="6.15103">
        <ele>458.8</ele>
        <time>2021-08-23T12:51:23Z</time>
      </trkpt>
      <trkpt lat="47.11319" lon="6.15093">
        <ele>458.8</ele>
        <time>2021-08-23T12:51:25Z</time>
      </trkpt>
      <trkpt lat="47.11323" lon="6.15088">
        <ele>458.6</ele>
        <time>2021-08-23T12:51:26Z</time>
      </trkpt>
      <trkpt lat="47.11328" lon="6.15083">
        <ele>458.6</ele>
        <time>2021-08-23T12:51:27Z</time>
      </trkpt>
      <trkpt lat="47.11331" lon="6.15078">
        <ele>458.6</ele>
        <time>2021-08-23T12:51:28Z</time>
      </trkpt>
      <trkpt lat="47.11335" lon="6.15075">
        <ele>458.2</ele>
        <time>2021-08-23T12:51:29Z</time>
      </trkpt>
      <trkpt lat="47.11338" lon="6.15072">
        <ele>457.8</ele>
        <time>2021-08-23T12:51:30Z</time>
      </trkpt>
      <trkpt lat="47.11341" lon="6.15069">
        <ele>457.4</ele>
        <time>2021-08-23T12:51:31Z</time>
      </trkpt>
      <trkpt lat="47.11344" lon="6.15065">
        <ele>457</ele>
        <time>2021-08-23T12:51:32Z</time>
      </trkpt>
      <trkpt lat="47.11346" lon="6.15062">
        <ele>456.8</ele>
        <time>2021-08-23T12:51:33Z</time>
      </trkpt>
      <trkpt lat="47.11348" lon="6.15059">
        <ele>456.6</ele>
        <time>2021-08-23T12:51:34Z</time>
      </trkpt>
      <trkpt lat="47.11347" lon="6.15056">
        <ele>456.6</ele>
        <time>2021-08-23T12:51:35Z</time>
      </trkpt>
      <trkpt lat="47.11347" lon="6.15055">
        <ele>456.4</ele>
        <time>2021-08-23T12:51:36Z</time>
      </trkpt>
      <trkpt lat="47.11347" lon="6.15055">
        <ele>456.4</ele>
        <time>2021-08-23T12:51:37Z</time>
      </trkpt>
      <trkpt lat="47.11346" lon="6.15054">
        <ele>457.6</ele>
        <time>2021-08-23T12:51:44Z</time>
      </trkpt>
      <trkpt lat="47.11346" lon="6.15054">
        <ele>457.8</ele>
        <time>2021-08-23T12:51:45Z</time>
      </trkpt>
      <trkpt lat="47.11346" lon="6.15054">
        <ele>458.2</ele>
        <time>2021-08-23T12:51:51Z</time>
      </trkpt>
      <trkpt lat="47.11346" lon="6.15054">
        <ele>458.2</ele>
        <time>2021-08-23T12:51:52Z</time>
      </trkpt>
      <trkpt lat="47.11346" lon="6.15054">
        <ele>458.2</ele>
        <time>2021-08-23T12:51:56Z</time>
      </trkpt>
      <trkpt lat="47.1133" lon="6.15045">
        <ele>457.8</ele>
        <time>2021-08-23T12:52:02Z</time>
      </trkpt>
      <trkpt lat="47.11323" lon="6.15042">
        <ele>458</ele>
        <time>2021-08-23T12:52:04Z</time>
      </trkpt>
      <trkpt lat="47.1132" lon="6.15041">
        <ele>458</ele>
        <time>2021-08-23T12:52:05Z</time>
      </trkpt>
      <trkpt lat="47.11318" lon="6.15041">
        <ele>458</ele>
        <time>2021-08-23T12:52:06Z</time>
      </trkpt>
      <trkpt lat="47.11309" lon="6.15036">
        <ele>458.4</ele>
        <time>2021-08-23T12:52:09Z</time>
      </trkpt>
      <trkpt lat="47.11307" lon="6.15034">
        <ele>458.6</ele>
        <time>2021-08-23T12:52:10Z</time>
      </trkpt>
      <trkpt lat="47.11305" lon="6.15032">
        <ele>458.6</ele>
        <time>2021-08-23T12:52:11Z</time>
      </trkpt>
      <trkpt lat="47.11302" lon="6.15031">
        <ele>458.8</ele>
        <time>2021-08-23T12:52:12Z</time>
      </trkpt>
      <trkpt lat="47.11293" lon="6.15028">
        <ele>459.2</ele>
        <time>2021-08-23T12:52:14Z</time>
      </trkpt>
      <trkpt lat="47.1129" lon="6.15026">
        <ele>459.2</ele>
        <time>2021-08-23T12:52:15Z</time>
      </trkpt>
      <trkpt lat="47.11278" lon="6.15012">
        <ele>459.2</ele>
        <time>2021-08-23T12:52:18Z</time>
      </trkpt>
      <trkpt lat="47.11274" lon="6.15007">
        <ele>459.2</ele>
        <time>2021-08-23T12:52:19Z</time>
      </trkpt>
      <trkpt lat="47.11272" lon="6.15002">
        <ele>459.2</ele>
        <time>2021-08-23T12:52:20Z</time>
      </trkpt>
      <trkpt lat="47.1127" lon="6.14995">
        <ele>459.2</ele>
        <time>2021-08-23T12:52:21Z</time>
      </trkpt>
      <trkpt lat="47.11268" lon="6.1499">
        <ele>459.2</ele>
        <time>2021-08-23T12:52:22Z</time>
      </trkpt>
      <trkpt lat="47.11267" lon="6.14984">
        <ele>459.2</ele>
        <time>2021-08-23T12:52:23Z</time>
      </trkpt>
      <trkpt lat="47.11266" lon="6.1498">
        <ele>459.2</ele>
        <time>2021-08-23T12:52:24Z</time>
      </trkpt>
      <trkpt lat="47.11266" lon="6.14975">
        <ele>459.2</ele>
        <time>2021-08-23T12:52:25Z</time>
      </trkpt>
      <trkpt lat="47.11265" lon="6.14965">
        <ele>459.2</ele>
        <time>2021-08-23T12:52:27Z</time>
      </trkpt>
      <trkpt lat="47.11267" lon="6.1496">
        <ele>459.4</ele>
        <time>2021-08-23T12:52:28Z</time>
      </trkpt>
      <trkpt lat="47.11267" lon="6.14956">
        <ele>459.6</ele>
        <time>2021-08-23T12:52:29Z</time>
      </trkpt>
      <trkpt lat="47.11268" lon="6.14951">
        <ele>459.6</ele>
        <time>2021-08-23T12:52:30Z</time>
      </trkpt>
      <trkpt lat="47.11268" lon="6.14947">
        <ele>459.8</ele>
        <time>2021-08-23T12:52:31Z</time>
      </trkpt>
      <trkpt lat="47.11269" lon="6.14943">
        <ele>460</ele>
        <time>2021-08-23T12:52:32Z</time>
      </trkpt>
      <trkpt lat="47.1127" lon="6.1494">
        <ele>460.2</ele>
        <time>2021-08-23T12:52:33Z</time>
      </trkpt>
      <trkpt lat="47.11271" lon="6.14936">
        <ele>460.2</ele>
        <time>2021-08-23T12:52:34Z</time>
      </trkpt>
      <trkpt lat="47.11272" lon="6.14932">
        <ele>460.4</ele>
        <time>2021-08-23T12:52:35Z</time>
      </trkpt>
      <trkpt lat="47.11274" lon="6.14927">
        <ele>460.4</ele>
        <time>2021-08-23T12:52:36Z</time>
      </trkpt>
      <trkpt lat="47.11276" lon="6.14921">
        <ele>460.6</ele>
        <time>2021-08-23T12:52:37Z</time>
      </trkpt>
      <trkpt lat="47.11282" lon="6.14913">
        <ele>460.6</ele>
        <time>2021-08-23T12:52:39Z</time>
      </trkpt>
      <trkpt lat="47.11285" lon="6.14909">
        <ele>460.6</ele>
        <time>2021-08-23T12:52:40Z</time>
      </trkpt>
      <trkpt lat="47.11287" lon="6.14906">
        <ele>460.6</ele>
        <time>2021-08-23T12:52:41Z</time>
      </trkpt>
      <trkpt lat="47.11289" lon="6.14904">
        <ele>460.6</ele>
        <time>2021-08-23T12:52:42Z</time>
      </trkpt>
      <trkpt lat="47.11292" lon="6.149">
        <ele>460.6</ele>
        <time>2021-08-23T12:52:43Z</time>
      </trkpt>
      <trkpt lat="47.11296" lon="6.14898">
        <ele>460.6</ele>
        <time>2021-08-23T12:52:44Z</time>
      </trkpt>
      <trkpt lat="47.11303" lon="6.14895">
        <ele>460.4</ele>
        <time>2021-08-23T12:52:46Z</time>
      </trkpt>
      <trkpt lat="47.11306" lon="6.14894">
        <ele>460.4</ele>
        <time>2021-08-23T12:52:47Z</time>
      </trkpt>
      <trkpt lat="47.1131" lon="6.14892">
        <ele>460.2</ele>
        <time>2021-08-23T12:52:48Z</time>
      </trkpt>
      <trkpt lat="47.11324" lon="6.1488">
        <ele>460.2</ele>
        <time>2021-08-23T12:52:51Z</time>
      </trkpt>
      <trkpt lat="47.11328" lon="6.14878">
        <ele>460.2</ele>
        <time>2021-08-23T12:52:52Z</time>
      </trkpt>
      <trkpt lat="47.11333" lon="6.14876">
        <ele>460.2</ele>
        <time>2021-08-23T12:52:53Z</time>
      </trkpt>
      <trkpt lat="47.11336" lon="6.14876">
        <ele>460.2</ele>
        <time>2021-08-23T12:52:54Z</time>
      </trkpt>
      <trkpt lat="47.1134" lon="6.14876">
        <ele>460</ele>
        <time>2021-08-23T12:52:55Z</time>
      </trkpt>
      <trkpt lat="47.11343" lon="6.14874">
        <ele>460</ele>
        <time>2021-08-23T12:52:56Z</time>
      </trkpt>
      <trkpt lat="47.11345" lon="6.14873">
        <ele>460</ele>
        <time>2021-08-23T12:52:57Z</time>
      </trkpt>
      <trkpt lat="47.11348" lon="6.14872">
        <ele>460.2</ele>
        <time>2021-08-23T12:52:58Z</time>
      </trkpt>
      <trkpt lat="47.11352" lon="6.14871">
        <ele>460.2</ele>
        <time>2021-08-23T12:52:59Z</time>
      </trkpt>
      <trkpt lat="47.11355" lon="6.1487">
        <ele>460.4</ele>
        <time>2021-08-23T12:53:00Z</time>
      </trkpt>
      <trkpt lat="47.11359" lon="6.14865">
        <ele>460.4</ele>
        <time>2021-08-23T12:53:01Z</time>
      </trkpt>
      <trkpt lat="47.11369" lon="6.14854">
        <ele>460.4</ele>
        <time>2021-08-23T12:53:03Z</time>
      </trkpt>
      <trkpt lat="47.11373" lon="6.1485">
        <ele>460.4</ele>
        <time>2021-08-23T12:53:04Z</time>
      </trkpt>
      <trkpt lat="47.11382" lon="6.14843">
        <ele>460.2</ele>
        <time>2021-08-23T12:53:06Z</time>
      </trkpt>
      <trkpt lat="47.11387" lon="6.14842">
        <ele>460</ele>
        <time>2021-08-23T12:53:07Z</time>
      </trkpt>
      <trkpt lat="47.11393" lon="6.14838">
        <ele>460</ele>
        <time>2021-08-23T12:53:08Z</time>
      </trkpt>
      <trkpt lat="47.11397" lon="6.14836">
        <ele>459.8</ele>
        <time>2021-08-23T12:53:09Z</time>
      </trkpt>
      <trkpt lat="47.11403" lon="6.14834">
        <ele>459.6</ele>
        <time>2021-08-23T12:53:10Z</time>
      </trkpt>
      <trkpt lat="47.11407" lon="6.14834">
        <ele>459.4</ele>
        <time>2021-08-23T12:53:11Z</time>
      </trkpt>
      <trkpt lat="47.11412" lon="6.14833">
        <ele>459.2</ele>
        <time>2021-08-23T12:53:12Z</time>
      </trkpt>
      <trkpt lat="47.11421" lon="6.14826">
        <ele>459.2</ele>
        <time>2021-08-23T12:53:14Z</time>
      </trkpt>
      <trkpt lat="47.11426" lon="6.14822">
        <ele>459</ele>
        <time>2021-08-23T12:53:15Z</time>
      </trkpt>
      <trkpt lat="47.11431" lon="6.1482">
        <ele>459</ele>
        <time>2021-08-23T12:53:16Z</time>
      </trkpt>
      <trkpt lat="47.11435" lon="6.1482">
        <ele>459</ele>
        <time>2021-08-23T12:53:17Z</time>
      </trkpt>
      <trkpt lat="47.11439" lon="6.14821">
        <ele>458.8</ele>
        <time>2021-08-23T12:53:18Z</time>
      </trkpt>
      <trkpt lat="47.11443" lon="6.14822">
        <ele>458.8</ele>
        <time>2021-08-23T12:53:19Z</time>
      </trkpt>
      <trkpt lat="47.11447" lon="6.14824">
        <ele>458.8</ele>
        <time>2021-08-23T12:53:20Z</time>
      </trkpt>
      <trkpt lat="47.11451" lon="6.14826">
        <ele>458.6</ele>
        <time>2021-08-23T12:53:21Z</time>
      </trkpt>
      <trkpt lat="47.11456" lon="6.14827">
        <ele>458.6</ele>
        <time>2021-08-23T12:53:22Z</time>
      </trkpt>
      <trkpt lat="47.11469" lon="6.14838">
        <ele>458.6</ele>
        <time>2021-08-23T12:53:25Z</time>
      </trkpt>
      <trkpt lat="47.11478" lon="6.14845">
        <ele>458.4</ele>
        <time>2021-08-23T12:53:27Z</time>
      </trkpt>
      <trkpt lat="47.11485" lon="6.14855">
        <ele>458.2</ele>
        <time>2021-08-23T12:53:29Z</time>
      </trkpt>
      <trkpt lat="47.11489" lon="6.14859">
        <ele>458.2</ele>
        <time>2021-08-23T12:53:30Z</time>
      </trkpt>
      <trkpt lat="47.11494" lon="6.14864">
        <ele>458.2</ele>
        <time>2021-08-23T12:53:31Z</time>
      </trkpt>
      <trkpt lat="47.11504" lon="6.14873">
        <ele>457.6</ele>
        <time>2021-08-23T12:53:33Z</time>
      </trkpt>
      <trkpt lat="47.11508" lon="6.14877">
        <ele>457.6</ele>
        <time>2021-08-23T12:53:34Z</time>
      </trkpt>
      <trkpt lat="47.11511" lon="6.14882">
        <ele>457.2</ele>
        <time>2021-08-23T12:53:35Z</time>
      </trkpt>
      <trkpt lat="47.11515" lon="6.14885">
        <ele>457</ele>
        <time>2021-08-23T12:53:36Z</time>
      </trkpt>
      <trkpt lat="47.11519" lon="6.14888">
        <ele>457</ele>
        <time>2021-08-23T12:53:37Z</time>
      </trkpt>
      <trkpt lat="47.11522" lon="6.14888">
        <ele>457</ele>
        <time>2021-08-23T12:53:38Z</time>
      </trkpt>
      <trkpt lat="47.11525" lon="6.14887">
        <ele>457</ele>
        <time>2021-08-23T12:53:39Z</time>
      </trkpt>
      <trkpt lat="47.11528" lon="6.14884">
        <ele>457</ele>
        <time>2021-08-23T12:53:40Z</time>
      </trkpt>
      <trkpt lat="47.11532" lon="6.14874">
        <ele>457.2</ele>
        <time>2021-08-23T12:53:42Z</time>
      </trkpt>
      <trkpt lat="47.11533" lon="6.14856">
        <ele>457.8</ele>
        <time>2021-08-23T12:53:45Z</time>
      </trkpt>
      <trkpt lat="47.11534" lon="6.14851">
        <ele>458</ele>
        <time>2021-08-23T12:53:46Z</time>
      </trkpt>
      <trkpt lat="47.11535" lon="6.14846">
        <ele>458.2</ele>
        <time>2021-08-23T12:53:47Z</time>
      </trkpt>
      <trkpt lat="47.11539" lon="6.14828">
        <ele>458.6</ele>
        <time>2021-08-23T12:53:50Z</time>
      </trkpt>
      <trkpt lat="47.1154" lon="6.14816">
        <ele>458.6</ele>
        <time>2021-08-23T12:53:52Z</time>
      </trkpt>
      <trkpt lat="47.11543" lon="6.14783">
        <ele>459</ele>
        <time>2021-08-23T12:53:56Z</time>
      </trkpt>
      <trkpt lat="47.11545" lon="6.14772">
        <ele>459.2</ele>
        <time>2021-08-23T12:53:58Z</time>
      </trkpt>
      <trkpt lat="47.11546" lon="6.14766">
        <ele>459.2</ele>
        <time>2021-08-23T12:53:59Z</time>
      </trkpt>
      <trkpt lat="47.11548" lon="6.14761">
        <ele>459.2</ele>
        <time>2021-08-23T12:54:00Z</time>
      </trkpt>
      <trkpt lat="47.11551" lon="6.14753">
        <ele>459.2</ele>
        <time>2021-08-23T12:54:01Z</time>
      </trkpt>
      <trkpt lat="47.11554" lon="6.14737">
        <ele>459.4</ele>
        <time>2021-08-23T12:54:03Z</time>
      </trkpt>
      <trkpt lat="47.11558" lon="6.1472">
        <ele>459.8</ele>
        <time>2021-08-23T12:54:06Z</time>
      </trkpt>
      <trkpt lat="47.1156" lon="6.14716">
        <ele>459.8</ele>
        <time>2021-08-23T12:54:07Z</time>
      </trkpt>
      <trkpt lat="47.11561" lon="6.14711">
        <ele>460</ele>
        <time>2021-08-23T12:54:08Z</time>
      </trkpt>
      <trkpt lat="47.11564" lon="6.14702">
        <ele>460.4</ele>
        <time>2021-08-23T12:54:10Z</time>
      </trkpt>
      <trkpt lat="47.11566" lon="6.14697">
        <ele>460.6</ele>
        <time>2021-08-23T12:54:11Z</time>
      </trkpt>
      <trkpt lat="47.11576" lon="6.14669">
        <ele>461.4</ele>
        <time>2021-08-23T12:54:16Z</time>
      </trkpt>
      <trkpt lat="47.1158" lon="6.14665">
        <ele>461.6</ele>
        <time>2021-08-23T12:54:17Z</time>
      </trkpt>
      <trkpt lat="47.11583" lon="6.1466">
        <ele>461.6</ele>
        <time>2021-08-23T12:54:18Z</time>
      </trkpt>
      <trkpt lat="47.11586" lon="6.14656">
        <ele>461.6</ele>
        <time>2021-08-23T12:54:19Z</time>
      </trkpt>
      <trkpt lat="47.11589" lon="6.1465">
        <ele>461.6</ele>
        <time>2021-08-23T12:54:20Z</time>
      </trkpt>
      <trkpt lat="47.11592" lon="6.14645">
        <ele>461.6</ele>
        <time>2021-08-23T12:54:21Z</time>
      </trkpt>
      <trkpt lat="47.11595" lon="6.1464">
        <ele>461.6</ele>
        <time>2021-08-23T12:54:22Z</time>
      </trkpt>
      <trkpt lat="47.11598" lon="6.14635">
        <ele>461.8</ele>
        <time>2021-08-23T12:54:23Z</time>
      </trkpt>
      <trkpt lat="47.116" lon="6.14631">
        <ele>461.8</ele>
        <time>2021-08-23T12:54:24Z</time>
      </trkpt>
      <trkpt lat="47.11603" lon="6.14628">
        <ele>461.8</ele>
        <time>2021-08-23T12:54:25Z</time>
      </trkpt>
      <trkpt lat="47.11605" lon="6.14624">
        <ele>461.8</ele>
        <time>2021-08-23T12:54:26Z</time>
      </trkpt>
      <trkpt lat="47.11606" lon="6.1462">
        <ele>461.8</ele>
        <time>2021-08-23T12:54:27Z</time>
      </trkpt>
      <trkpt lat="47.11608" lon="6.14615">
        <ele>462</ele>
        <time>2021-08-23T12:54:28Z</time>
      </trkpt>
      <trkpt lat="47.1161" lon="6.14611">
        <ele>462</ele>
        <time>2021-08-23T12:54:29Z</time>
      </trkpt>
      <trkpt lat="47.11617" lon="6.14598">
        <ele>462.2</ele>
        <time>2021-08-23T12:54:32Z</time>
      </trkpt>
      <trkpt lat="47.11627" lon="6.14585">
        <ele>462.4</ele>
        <time>2021-08-23T12:54:35Z</time>
      </trkpt>
      <trkpt lat="47.11629" lon="6.1458">
        <ele>462.4</ele>
        <time>2021-08-23T12:54:36Z</time>
      </trkpt>
      <trkpt lat="47.11632" lon="6.14575">
        <ele>462.4</ele>
        <time>2021-08-23T12:54:37Z</time>
      </trkpt>
      <trkpt lat="47.11639" lon="6.14564">
        <ele>462.2</ele>
        <time>2021-08-23T12:54:39Z</time>
      </trkpt>
      <trkpt lat="47.11642" lon="6.1456">
        <ele>462.2</ele>
        <time>2021-08-23T12:54:40Z</time>
      </trkpt>
      <trkpt lat="47.11646" lon="6.14557">
        <ele>462.2</ele>
        <time>2021-08-23T12:54:41Z</time>
      </trkpt>
      <trkpt lat="47.11651" lon="6.14554">
        <ele>462</ele>
        <time>2021-08-23T12:54:42Z</time>
      </trkpt>
      <trkpt lat="47.11656" lon="6.14553">
        <ele>461.8</ele>
        <time>2021-08-23T12:54:43Z</time>
      </trkpt>
      <trkpt lat="47.1166" lon="6.14552">
        <ele>461.8</ele>
        <time>2021-08-23T12:54:44Z</time>
      </trkpt>
      <trkpt lat="47.11664" lon="6.1455">
        <ele>461.6</ele>
        <time>2021-08-23T12:54:45Z</time>
      </trkpt>
      <trkpt lat="47.11668" lon="6.14549">
        <ele>461.6</ele>
        <time>2021-08-23T12:54:46Z</time>
      </trkpt>
      <trkpt lat="47.11671" lon="6.14547">
        <ele>461.6</ele>
        <time>2021-08-23T12:54:47Z</time>
      </trkpt>
      <trkpt lat="47.11675" lon="6.14546">
        <ele>461.6</ele>
        <time>2021-08-23T12:54:48Z</time>
      </trkpt>
      <trkpt lat="47.1168" lon="6.14545">
        <ele>461.6</ele>
        <time>2021-08-23T12:54:49Z</time>
      </trkpt>
      <trkpt lat="47.11685" lon="6.14545">
        <ele>461.6</ele>
        <time>2021-08-23T12:54:50Z</time>
      </trkpt>
      <trkpt lat="47.1169" lon="6.14543">
        <ele>461.6</ele>
        <time>2021-08-23T12:54:51Z</time>
      </trkpt>
      <trkpt lat="47.11712" lon="6.14538">
        <ele>461.4</ele>
        <time>2021-08-23T12:54:56Z</time>
      </trkpt>
      <trkpt lat="47.11716" lon="6.1454">
        <ele>461.2</ele>
        <time>2021-08-23T12:54:57Z</time>
      </trkpt>
      <trkpt lat="47.11722" lon="6.14542">
        <ele>461.2</ele>
        <time>2021-08-23T12:54:58Z</time>
      </trkpt>
      <trkpt lat="47.11726" lon="6.14545">
        <ele>460.8</ele>
        <time>2021-08-23T12:54:59Z</time>
      </trkpt>
      <trkpt lat="47.11729" lon="6.14548">
        <ele>460.6</ele>
        <time>2021-08-23T12:55:00Z</time>
      </trkpt>
      <trkpt lat="47.11735" lon="6.14552">
        <ele>460.4</ele>
        <time>2021-08-23T12:55:01Z</time>
      </trkpt>
      <trkpt lat="47.11739" lon="6.14553">
        <ele>460.2</ele>
        <time>2021-08-23T12:55:02Z</time>
      </trkpt>
      <trkpt lat="47.11752" lon="6.14555">
        <ele>460.2</ele>
        <time>2021-08-23T12:55:05Z</time>
      </trkpt>
      <trkpt lat="47.11758" lon="6.14559">
        <ele>460</ele>
        <time>2021-08-23T12:55:07Z</time>
      </trkpt>
      <trkpt lat="47.11768" lon="6.1457">
        <ele>460</ele>
        <time>2021-08-23T12:55:10Z</time>
      </trkpt>
      <trkpt lat="47.11771" lon="6.14575">
        <ele>460</ele>
        <time>2021-08-23T12:55:11Z</time>
      </trkpt>
      <trkpt lat="47.11783" lon="6.14589">
        <ele>460</ele>
        <time>2021-08-23T12:55:14Z</time>
      </trkpt>
      <trkpt lat="47.1179" lon="6.14595">
        <ele>460</ele>
        <time>2021-08-23T12:55:16Z</time>
      </trkpt>
      <trkpt lat="47.11805" lon="6.14612">
        <ele>460</ele>
        <time>2021-08-23T12:55:21Z</time>
      </trkpt>
      <trkpt lat="47.1181" lon="6.14618">
        <ele>460.2</ele>
        <time>2021-08-23T12:55:22Z</time>
      </trkpt>
      <trkpt lat="47.11814" lon="6.14623">
        <ele>460.4</ele>
        <time>2021-08-23T12:55:23Z</time>
      </trkpt>
      <trkpt lat="47.11817" lon="6.14627">
        <ele>460.6</ele>
        <time>2021-08-23T12:55:24Z</time>
      </trkpt>
      <trkpt lat="47.11819" lon="6.1463">
        <ele>460.6</ele>
        <time>2021-08-23T12:55:25Z</time>
      </trkpt>
      <trkpt lat="47.11821" lon="6.14633">
        <ele>461</ele>
        <time>2021-08-23T12:55:26Z</time>
      </trkpt>
      <trkpt lat="47.11823" lon="6.14635">
        <ele>461</ele>
        <time>2021-08-23T12:55:27Z</time>
      </trkpt>
      <trkpt lat="47.11826" lon="6.14638">
        <ele>461</ele>
        <time>2021-08-23T12:55:28Z</time>
      </trkpt>
      <trkpt lat="47.11829" lon="6.1464">
        <ele>461</ele>
        <time>2021-08-23T12:55:29Z</time>
      </trkpt>
      <trkpt lat="47.11842" lon="6.14649">
        <ele>461</ele>
        <time>2021-08-23T12:55:33Z</time>
      </trkpt>
      <trkpt lat="47.11854" lon="6.14658">
        <ele>460.6</ele>
        <time>2021-08-23T12:55:36Z</time>
      </trkpt>
      <trkpt lat="47.11857" lon="6.14663">
        <ele>460.4</ele>
        <time>2021-08-23T12:55:37Z</time>
      </trkpt>
      <trkpt lat="47.11859" lon="6.14667">
        <ele>460.2</ele>
        <time>2021-08-23T12:55:38Z</time>
      </trkpt>
      <trkpt lat="47.11861" lon="6.14672">
        <ele>460</ele>
        <time>2021-08-23T12:55:39Z</time>
      </trkpt>
      <trkpt lat="47.11862" lon="6.14676">
        <ele>460</ele>
        <time>2021-08-23T12:55:40Z</time>
      </trkpt>
      <trkpt lat="47.11863" lon="6.1468">
        <ele>460</ele>
        <time>2021-08-23T12:55:41Z</time>
      </trkpt>
      <trkpt lat="47.11865" lon="6.14684">
        <ele>459.6</ele>
        <time>2021-08-23T12:55:42Z</time>
      </trkpt>
      <trkpt lat="47.11867" lon="6.14687">
        <ele>459.8</ele>
        <time>2021-08-23T12:55:43Z</time>
      </trkpt>
      <trkpt lat="47.1187" lon="6.14692">
        <ele>460</ele>
        <time>2021-08-23T12:55:44Z</time>
      </trkpt>
      <trkpt lat="47.11873" lon="6.14702">
        <ele>459.8</ele>
        <time>2021-08-23T12:55:46Z</time>
      </trkpt>
      <trkpt lat="47.11873" lon="6.14708">
        <ele>459.8</ele>
        <time>2021-08-23T12:55:47Z</time>
      </trkpt>
      <trkpt lat="47.11873" lon="6.14714">
        <ele>459.6</ele>
        <time>2021-08-23T12:55:48Z</time>
      </trkpt>
      <trkpt lat="47.11872" lon="6.1472">
        <ele>459.6</ele>
        <time>2021-08-23T12:55:49Z</time>
      </trkpt>
      <trkpt lat="47.1187" lon="6.14724">
        <ele>459.6</ele>
        <time>2021-08-23T12:55:50Z</time>
      </trkpt>
      <trkpt lat="47.11869" lon="6.14728">
        <ele>459.8</ele>
        <time>2021-08-23T12:55:51Z</time>
      </trkpt>
      <trkpt lat="47.11863" lon="6.14746">
        <ele>459.4</ele>
        <time>2021-08-23T12:55:54Z</time>
      </trkpt>
      <trkpt lat="47.11861" lon="6.14753">
        <ele>459</ele>
        <time>2021-08-23T12:55:55Z</time>
      </trkpt>
      <trkpt lat="47.11856" lon="6.14766">
        <ele>458.4</ele>
        <time>2021-08-23T12:55:57Z</time>
      </trkpt>
      <trkpt lat="47.11856" lon="6.14772">
        <ele>458.2</ele>
        <time>2021-08-23T12:55:58Z</time>
      </trkpt>
      <trkpt lat="47.11855" lon="6.1478">
        <ele>458.2</ele>
        <time>2021-08-23T12:55:59Z</time>
      </trkpt>
      <trkpt lat="47.11854" lon="6.14788">
        <ele>458</ele>
        <time>2021-08-23T12:56:00Z</time>
      </trkpt>
      <trkpt lat="47.11852" lon="6.14793">
        <ele>458</ele>
        <time>2021-08-23T12:56:01Z</time>
      </trkpt>
      <trkpt lat="47.1185" lon="6.14812">
        <ele>457.2</ele>
        <time>2021-08-23T12:56:04Z</time>
      </trkpt>
      <trkpt lat="47.11844" lon="6.14828">
        <ele>457</ele>
        <time>2021-08-23T12:56:06Z</time>
      </trkpt>
      <trkpt lat="47.11841" lon="6.14834">
        <ele>457</ele>
        <time>2021-08-23T12:56:07Z</time>
      </trkpt>
      <trkpt lat="47.11839" lon="6.14854">
        <ele>456.6</ele>
        <time>2021-08-23T12:56:10Z</time>
      </trkpt>
      <trkpt lat="47.11839" lon="6.14862">
        <ele>456.4</ele>
        <time>2021-08-23T12:56:11Z</time>
      </trkpt>
      <trkpt lat="47.11839" lon="6.14869">
        <ele>456.4</ele>
        <time>2021-08-23T12:56:12Z</time>
      </trkpt>
      <trkpt lat="47.1184" lon="6.14876">
        <ele>456.4</ele>
        <time>2021-08-23T12:56:13Z</time>
      </trkpt>
      <trkpt lat="47.11839" lon="6.1488">
        <ele>456.4</ele>
        <time>2021-08-23T12:56:14Z</time>
      </trkpt>
      <trkpt lat="47.11839" lon="6.14882">
        <ele>456.6</ele>
        <time>2021-08-23T12:56:15Z</time>
      </trkpt>
      <trkpt lat="47.11838" lon="6.14884">
        <ele>456.6</ele>
        <time>2021-08-23T12:56:16Z</time>
      </trkpt>
      <trkpt lat="47.11838" lon="6.14887">
        <ele>456.6</ele>
        <time>2021-08-23T12:56:17Z</time>
      </trkpt>
      <trkpt lat="47.11838" lon="6.1489">
        <ele>456.6</ele>
        <time>2021-08-23T12:56:18Z</time>
      </trkpt>
      <trkpt lat="47.11837" lon="6.14896">
        <ele>456.6</ele>
        <time>2021-08-23T12:56:20Z</time>
      </trkpt>
      <trkpt lat="47.11837" lon="6.14898">
        <ele>456.6</ele>
        <time>2021-08-23T12:56:21Z</time>
      </trkpt>
      <trkpt lat="47.11837" lon="6.149">
        <ele>456.6</ele>
        <time>2021-08-23T12:56:22Z</time>
      </trkpt>
      <trkpt lat="47.11838" lon="6.14906">
        <ele>456.6</ele>
        <time>2021-08-23T12:56:25Z</time>
      </trkpt>
      <trkpt lat="47.11844" lon="6.14902">
        <ele>456.6</ele>
        <time>2021-08-23T12:56:28Z</time>
      </trkpt>
      <trkpt lat="47.11846" lon="6.149">
        <ele>456.4</ele>
        <time>2021-08-23T12:56:29Z</time>
      </trkpt>
      <trkpt lat="47.11848" lon="6.14896">
        <ele>456.2</ele>
        <time>2021-08-23T12:56:30Z</time>
      </trkpt>
      <trkpt lat="47.11852" lon="6.14884">
        <ele>456</ele>
        <time>2021-08-23T12:56:33Z</time>
      </trkpt>
      <trkpt lat="47.11854" lon="6.14879">
        <ele>456</ele>
        <time>2021-08-23T12:56:34Z</time>
      </trkpt>
      <trkpt lat="47.11864" lon="6.14859">
        <ele>456.2</ele>
        <time>2021-08-23T12:56:38Z</time>
      </trkpt>
      <trkpt lat="47.11866" lon="6.14855">
        <ele>456.2</ele>
        <time>2021-08-23T12:56:39Z</time>
      </trkpt>
      <trkpt lat="47.11867" lon="6.14849">
        <ele>456.2</ele>
        <time>2021-08-23T12:56:40Z</time>
      </trkpt>
      <trkpt lat="47.11868" lon="6.14844">
        <ele>456.2</ele>
        <time>2021-08-23T12:56:41Z</time>
      </trkpt>
      <trkpt lat="47.11871" lon="6.1483">
        <ele>456.4</ele>
        <time>2021-08-23T12:56:44Z</time>
      </trkpt>
      <trkpt lat="47.11873" lon="6.14825">
        <ele>456.6</ele>
        <time>2021-08-23T12:56:45Z</time>
      </trkpt>
      <trkpt lat="47.11877" lon="6.14816">
        <ele>456.8</ele>
        <time>2021-08-23T12:56:47Z</time>
      </trkpt>
      <trkpt lat="47.1188" lon="6.14812">
        <ele>456.8</ele>
        <time>2021-08-23T12:56:48Z</time>
      </trkpt>
      <trkpt lat="47.11883" lon="6.14807">
        <ele>456.8</ele>
        <time>2021-08-23T12:56:49Z</time>
      </trkpt>
      <trkpt lat="47.11892" lon="6.14794">
        <ele>457</ele>
        <time>2021-08-23T12:56:52Z</time>
      </trkpt>
      <trkpt lat="47.11904" lon="6.14779">
        <ele>457.4</ele>
        <time>2021-08-23T12:56:56Z</time>
      </trkpt>
      <trkpt lat="47.11907" lon="6.14775">
        <ele>457.4</ele>
        <time>2021-08-23T12:56:57Z</time>
      </trkpt>
      <trkpt lat="47.1191" lon="6.14772">
        <ele>457.6</ele>
        <time>2021-08-23T12:56:58Z</time>
      </trkpt>
      <trkpt lat="47.11913" lon="6.1477">
        <ele>457.6</ele>
        <time>2021-08-23T12:56:59Z</time>
      </trkpt>
      <trkpt lat="47.11916" lon="6.14768">
        <ele>457.8</ele>
        <time>2021-08-23T12:57:00Z</time>
      </trkpt>
      <trkpt lat="47.11919" lon="6.14766">
        <ele>457.8</ele>
        <time>2021-08-23T12:57:01Z</time>
      </trkpt>
      <trkpt lat="47.11921" lon="6.14763">
        <ele>458.2</ele>
        <time>2021-08-23T12:57:02Z</time>
      </trkpt>
      <trkpt lat="47.11923" lon="6.1476">
        <ele>458.4</ele>
        <time>2021-08-23T12:57:03Z</time>
      </trkpt>
      <trkpt lat="47.11925" lon="6.14758">
        <ele>458.8</ele>
        <time>2021-08-23T12:57:04Z</time>
      </trkpt>
      <trkpt lat="47.11928" lon="6.14756">
        <ele>459.2</ele>
        <time>2021-08-23T12:57:05Z</time>
      </trkpt>
      <trkpt lat="47.1193" lon="6.14754">
        <ele>459.4</ele>
        <time>2021-08-23T12:57:06Z</time>
      </trkpt>
      <trkpt lat="47.11935" lon="6.14751">
        <ele>460.4</ele>
        <time>2021-08-23T12:57:08Z</time>
      </trkpt>
      <trkpt lat="47.11937" lon="6.14748">
        <ele>460.8</ele>
        <time>2021-08-23T12:57:09Z</time>
      </trkpt>
      <trkpt lat="47.11939" lon="6.14746">
        <ele>461.2</ele>
        <time>2021-08-23T12:57:10Z</time>
      </trkpt>
      <trkpt lat="47.11941" lon="6.14743">
        <ele>461.6</ele>
        <time>2021-08-23T12:57:11Z</time>
      </trkpt>
      <trkpt lat="47.11944" lon="6.1474">
        <ele>461.6</ele>
        <time>2021-08-23T12:57:12Z</time>
      </trkpt>
      <trkpt lat="47.11945" lon="6.14738">
        <ele>462</ele>
        <time>2021-08-23T12:57:13Z</time>
      </trkpt>
      <trkpt lat="47.11947" lon="6.14734">
        <ele>462</ele>
        <time>2021-08-23T12:57:14Z</time>
      </trkpt>
      <trkpt lat="47.11951" lon="6.14732">
        <ele>462</ele>
        <time>2021-08-23T12:57:15Z</time>
      </trkpt>
      <trkpt lat="47.11953" lon="6.1473">
        <ele>462</ele>
        <time>2021-08-23T12:57:16Z</time>
      </trkpt>
      <trkpt lat="47.11955" lon="6.14729">
        <ele>462</ele>
        <time>2021-08-23T12:57:17Z</time>
      </trkpt>
      <trkpt lat="47.11958" lon="6.14729">
        <ele>462</ele>
        <time>2021-08-23T12:57:18Z</time>
      </trkpt>
      <trkpt lat="47.11961" lon="6.14728">
        <ele>462</ele>
        <time>2021-08-23T12:57:19Z</time>
      </trkpt>
      <trkpt lat="47.11963" lon="6.14726">
        <ele>461.8</ele>
        <time>2021-08-23T12:57:20Z</time>
      </trkpt>
      <trkpt lat="47.11965" lon="6.14725">
        <ele>461.8</ele>
        <time>2021-08-23T12:57:21Z</time>
      </trkpt>
      <trkpt lat="47.11966" lon="6.14725">
        <ele>461.8</ele>
        <time>2021-08-23T12:57:22Z</time>
      </trkpt>
      <trkpt lat="47.11967" lon="6.14726">
        <ele>461.8</ele>
        <time>2021-08-23T12:57:23Z</time>
      </trkpt>
      <trkpt lat="47.11967" lon="6.14726">
        <ele>461.8</ele>
        <time>2021-08-23T12:57:24Z</time>
      </trkpt>
      <trkpt lat="47.11967" lon="6.14726">
        <ele>461.4</ele>
        <time>2021-08-23T12:57:30Z</time>
      </trkpt>
      <trkpt lat="47.11974" lon="6.14723">
        <ele>461.2</ele>
        <time>2021-08-23T12:57:57Z</time>
      </trkpt>
      <trkpt lat="47.11981" lon="6.14716">
        <ele>461.4</ele>
        <time>2021-08-23T12:58:01Z</time>
      </trkpt>
      <trkpt lat="47.11984" lon="6.14714">
        <ele>461.6</ele>
        <time>2021-08-23T12:58:02Z</time>
      </trkpt>
      <trkpt lat="47.11986" lon="6.14712">
        <ele>461.6</ele>
        <time>2021-08-23T12:58:03Z</time>
      </trkpt>
      <trkpt lat="47.11991" lon="6.1471">
        <ele>461.8</ele>
        <time>2021-08-23T12:58:05Z</time>
      </trkpt>
      <trkpt lat="47.11994" lon="6.14709">
        <ele>461.8</ele>
        <time>2021-08-23T12:58:07Z</time>
      </trkpt>
      <trkpt lat="47.11997" lon="6.14706">
        <ele>462</ele>
        <time>2021-08-23T12:58:09Z</time>
      </trkpt>
      <trkpt lat="47.11999" lon="6.14706">
        <ele>462.2</ele>
        <time>2021-08-23T12:58:10Z</time>
      </trkpt>
      <trkpt lat="47.12006" lon="6.14701">
        <ele>462.6</ele>
        <time>2021-08-23T12:58:13Z</time>
      </trkpt>
      <trkpt lat="47.12009" lon="6.14696">
        <ele>462.6</ele>
        <time>2021-08-23T12:58:14Z</time>
      </trkpt>
      <trkpt lat="47.12011" lon="6.14691">
        <ele>462.6</ele>
        <time>2021-08-23T12:58:15Z</time>
      </trkpt>
      <trkpt lat="47.12012" lon="6.14681">
        <ele>462.6</ele>
        <time>2021-08-23T12:58:17Z</time>
      </trkpt>
      <trkpt lat="47.1201" lon="6.14679">
        <ele>462.6</ele>
        <time>2021-08-23T12:58:18Z</time>
      </trkpt>
      <trkpt lat="47.12009" lon="6.14676">
        <ele>462.6</ele>
        <time>2021-08-23T12:58:19Z</time>
      </trkpt>
      <trkpt lat="47.12001" lon="6.14671">
        <ele>462.4</ele>
        <time>2021-08-23T12:58:22Z</time>
      </trkpt>
      <trkpt lat="47.11997" lon="6.1467">
        <ele>462.6</ele>
        <time>2021-08-23T12:58:23Z</time>
      </trkpt>
      <trkpt lat="47.11993" lon="6.14667">
        <ele>462.4</ele>
        <time>2021-08-23T12:58:24Z</time>
      </trkpt>
      <trkpt lat="47.11981" lon="6.14661">
        <ele>462.2</ele>
        <time>2021-08-23T12:58:27Z</time>
      </trkpt>
      <trkpt lat="47.11979" lon="6.1466">
        <ele>462.2</ele>
        <time>2021-08-23T12:58:28Z</time>
      </trkpt>
      <trkpt lat="47.11975" lon="6.14658">
        <ele>462.2</ele>
        <time>2021-08-23T12:58:29Z</time>
      </trkpt>
      <trkpt lat="47.11963" lon="6.14649">
        <ele>462.2</ele>
        <time>2021-08-23T12:58:32Z</time>
      </trkpt>
      <trkpt lat="47.11958" lon="6.1464">
        <ele>462.2</ele>
        <time>2021-08-23T12:58:33Z</time>
      </trkpt>
      <trkpt lat="47.11954" lon="6.14634">
        <ele>462</ele>
        <time>2021-08-23T12:58:34Z</time>
      </trkpt>
      <trkpt lat="47.11944" lon="6.14615">
        <ele>461.8</ele>
        <time>2021-08-23T12:58:37Z</time>
      </trkpt>
      <trkpt lat="47.11943" lon="6.14607">
        <ele>461.8</ele>
        <time>2021-08-23T12:58:38Z</time>
      </trkpt>
      <trkpt lat="47.11943" lon="6.14599">
        <ele>461.8</ele>
        <time>2021-08-23T12:58:39Z</time>
      </trkpt>
      <trkpt lat="47.11942" lon="6.1459">
        <ele>461.8</ele>
        <time>2021-08-23T12:58:40Z</time>
      </trkpt>
      <trkpt lat="47.11941" lon="6.14583">
        <ele>461.8</ele>
        <time>2021-08-23T12:58:41Z</time>
      </trkpt>
      <trkpt lat="47.11941" lon="6.14576">
        <ele>461.8</ele>
        <time>2021-08-23T12:58:42Z</time>
      </trkpt>
      <trkpt lat="47.1194" lon="6.14569">
        <ele>461.8</ele>
        <time>2021-08-23T12:58:43Z</time>
      </trkpt>
      <trkpt lat="47.11938" lon="6.14554">
        <ele>461.6</ele>
        <time>2021-08-23T12:58:45Z</time>
      </trkpt>
      <trkpt lat="47.11939" lon="6.1455">
        <ele>461.6</ele>
        <time>2021-08-23T12:58:46Z</time>
      </trkpt>
      <trkpt lat="47.11939" lon="6.14546">
        <ele>461.8</ele>
        <time>2021-08-23T12:58:47Z</time>
      </trkpt>
      <trkpt lat="47.11938" lon="6.14542">
        <ele>462</ele>
        <time>2021-08-23T12:58:48Z</time>
      </trkpt>
      <trkpt lat="47.11936" lon="6.14537">
        <ele>462</ele>
        <time>2021-08-23T12:58:49Z</time>
      </trkpt>
      <trkpt lat="47.11935" lon="6.14533">
        <ele>462</ele>
        <time>2021-08-23T12:58:50Z</time>
      </trkpt>
      <trkpt lat="47.11934" lon="6.14529">
        <ele>462.2</ele>
        <time>2021-08-23T12:58:51Z</time>
      </trkpt>
      <trkpt lat="47.11931" lon="6.14513">
        <ele>463</ele>
        <time>2021-08-23T12:58:55Z</time>
      </trkpt>
      <trkpt lat="47.11929" lon="6.14508">
        <ele>463.2</ele>
        <time>2021-08-23T12:58:56Z</time>
      </trkpt>
      <trkpt lat="47.11926" lon="6.14491">
        <ele>463.8</ele>
        <time>2021-08-23T12:59:00Z</time>
      </trkpt>
      <trkpt lat="47.11925" lon="6.14487">
        <ele>464</ele>
        <time>2021-08-23T12:59:01Z</time>
      </trkpt>
      <trkpt lat="47.11924" lon="6.14482">
        <ele>464</ele>
        <time>2021-08-23T12:59:02Z</time>
      </trkpt>
      <trkpt lat="47.11922" lon="6.14473">
        <ele>464.4</ele>
        <time>2021-08-23T12:59:04Z</time>
      </trkpt>
      <trkpt lat="47.1192" lon="6.14468">
        <ele>464.6</ele>
        <time>2021-08-23T12:59:05Z</time>
      </trkpt>
      <trkpt lat="47.11919" lon="6.1446">
        <ele>465</ele>
        <time>2021-08-23T12:59:07Z</time>
      </trkpt>
      <trkpt lat="47.11918" lon="6.14456">
        <ele>465.2</ele>
        <time>2021-08-23T12:59:08Z</time>
      </trkpt>
      <trkpt lat="47.11916" lon="6.14453">
        <ele>465.4</ele>
        <time>2021-08-23T12:59:09Z</time>
      </trkpt>
      <trkpt lat="47.11915" lon="6.1445">
        <ele>465.8</ele>
        <time>2021-08-23T12:59:10Z</time>
      </trkpt>
      <trkpt lat="47.11915" lon="6.14447">
        <ele>466</ele>
        <time>2021-08-23T12:59:11Z</time>
      </trkpt>
      <trkpt lat="47.11914" lon="6.14445">
        <ele>466.4</ele>
        <time>2021-08-23T12:59:12Z</time>
      </trkpt>
      <trkpt lat="47.11914" lon="6.14441">
        <ele>466.6</ele>
        <time>2021-08-23T12:59:13Z</time>
      </trkpt>
      <trkpt lat="47.11913" lon="6.14439">
        <ele>466.8</ele>
        <time>2021-08-23T12:59:14Z</time>
      </trkpt>
      <trkpt lat="47.11913" lon="6.14436">
        <ele>467.2</ele>
        <time>2021-08-23T12:59:15Z</time>
      </trkpt>
      <trkpt lat="47.11912" lon="6.14433">
        <ele>467.2</ele>
        <time>2021-08-23T12:59:16Z</time>
      </trkpt>
      <trkpt lat="47.11911" lon="6.14431">
        <ele>467.6</ele>
        <time>2021-08-23T12:59:17Z</time>
      </trkpt>
      <trkpt lat="47.11909" lon="6.14428">
        <ele>467.8</ele>
        <time>2021-08-23T12:59:18Z</time>
      </trkpt>
      <trkpt lat="47.11908" lon="6.14424">
        <ele>468.2</ele>
        <time>2021-08-23T12:59:19Z</time>
      </trkpt>
      <trkpt lat="47.11906" lon="6.14421">
        <ele>468.6</ele>
        <time>2021-08-23T12:59:20Z</time>
      </trkpt>
      <trkpt lat="47.11905" lon="6.1442">
        <ele>468.8</ele>
        <time>2021-08-23T12:59:21Z</time>
      </trkpt>
      <trkpt lat="47.11905" lon="6.14417">
        <ele>469</ele>
        <time>2021-08-23T12:59:22Z</time>
      </trkpt>
      <trkpt lat="47.11903" lon="6.14414">
        <ele>469.2</ele>
        <time>2021-08-23T12:59:23Z</time>
      </trkpt>
      <trkpt lat="47.11902" lon="6.1441">
        <ele>469.2</ele>
        <time>2021-08-23T12:59:24Z</time>
      </trkpt>
      <trkpt lat="47.11902" lon="6.14409">
        <ele>469.2</ele>
        <time>2021-08-23T12:59:25Z</time>
      </trkpt>
      <trkpt lat="47.11902" lon="6.14407">
        <ele>469.4</ele>
        <time>2021-08-23T12:59:26Z</time>
      </trkpt>
      <trkpt lat="47.11901" lon="6.14405">
        <ele>469.4</ele>
        <time>2021-08-23T12:59:27Z</time>
      </trkpt>
      <trkpt lat="47.11901" lon="6.14402">
        <ele>469.8</ele>
        <time>2021-08-23T12:59:28Z</time>
      </trkpt>
      <trkpt lat="47.119" lon="6.144">
        <ele>470</ele>
        <time>2021-08-23T12:59:29Z</time>
      </trkpt>
      <trkpt lat="47.11899" lon="6.14397">
        <ele>470</ele>
        <time>2021-08-23T12:59:30Z</time>
      </trkpt>
      <trkpt lat="47.11899" lon="6.14395">
        <ele>470.2</ele>
        <time>2021-08-23T12:59:31Z</time>
      </trkpt>
      <trkpt lat="47.11898" lon="6.14392">
        <ele>470.4</ele>
        <time>2021-08-23T12:59:32Z</time>
      </trkpt>
      <trkpt lat="47.11897" lon="6.1439">
        <ele>470.4</ele>
        <time>2021-08-23T12:59:33Z</time>
      </trkpt>
      <trkpt lat="47.11897" lon="6.14388">
        <ele>470.8</ele>
        <time>2021-08-23T12:59:34Z</time>
      </trkpt>
      <trkpt lat="47.11897" lon="6.14386">
        <ele>470.8</ele>
        <time>2021-08-23T12:59:35Z</time>
      </trkpt>
      <trkpt lat="47.11896" lon="6.14383">
        <ele>471</ele>
        <time>2021-08-23T12:59:36Z</time>
      </trkpt>
      <trkpt lat="47.11896" lon="6.14381">
        <ele>471</ele>
        <time>2021-08-23T12:59:37Z</time>
      </trkpt>
      <trkpt lat="47.11895" lon="6.14378">
        <ele>471</ele>
        <time>2021-08-23T12:59:38Z</time>
      </trkpt>
      <trkpt lat="47.11894" lon="6.14374">
        <ele>471.2</ele>
        <time>2021-08-23T12:59:39Z</time>
      </trkpt>
      <trkpt lat="47.11894" lon="6.14371">
        <ele>471.2</ele>
        <time>2021-08-23T12:59:40Z</time>
      </trkpt>
      <trkpt lat="47.11893" lon="6.14367">
        <ele>471.4</ele>
        <time>2021-08-23T12:59:41Z</time>
      </trkpt>
      <trkpt lat="47.11893" lon="6.14363">
        <ele>471.4</ele>
        <time>2021-08-23T12:59:42Z</time>
      </trkpt>
      <trkpt lat="47.11892" lon="6.14357">
        <ele>471.4</ele>
        <time>2021-08-23T12:59:43Z</time>
      </trkpt>
      <trkpt lat="47.11892" lon="6.14353">
        <ele>471.4</ele>
        <time>2021-08-23T12:59:44Z</time>
      </trkpt>
      <trkpt lat="47.11891" lon="6.14347">
        <ele>471.4</ele>
        <time>2021-08-23T12:59:45Z</time>
      </trkpt>
      <trkpt lat="47.1189" lon="6.14341">
        <ele>471.4</ele>
        <time>2021-08-23T12:59:46Z</time>
      </trkpt>
      <trkpt lat="47.11888" lon="6.14335">
        <ele>471.4</ele>
        <time>2021-08-23T12:59:47Z</time>
      </trkpt>
      <trkpt lat="47.11887" lon="6.14328">
        <ele>471.4</ele>
        <time>2021-08-23T12:59:48Z</time>
      </trkpt>
      <trkpt lat="47.11885" lon="6.14321">
        <ele>471.4</ele>
        <time>2021-08-23T12:59:49Z</time>
      </trkpt>
      <trkpt lat="47.11885" lon="6.14311">
        <ele>471.4</ele>
        <time>2021-08-23T12:59:50Z</time>
      </trkpt>
      <trkpt lat="47.11883" lon="6.14304">
        <ele>471.2</ele>
        <time>2021-08-23T12:59:51Z</time>
      </trkpt>
      <trkpt lat="47.11882" lon="6.14296">
        <ele>471</ele>
        <time>2021-08-23T12:59:52Z</time>
      </trkpt>
      <trkpt lat="47.1188" lon="6.14285">
        <ele>470.8</ele>
        <time>2021-08-23T12:59:53Z</time>
      </trkpt>
      <trkpt lat="47.11878" lon="6.14277">
        <ele>470.6</ele>
        <time>2021-08-23T12:59:54Z</time>
      </trkpt>
      <trkpt lat="47.11867" lon="6.14232">
        <ele>469.6</ele>
        <time>2021-08-23T12:59:59Z</time>
      </trkpt>
      <trkpt lat="47.11865" lon="6.14224">
        <ele>469.4</ele>
        <time>2021-08-23T13:00:00Z</time>
      </trkpt>
      <trkpt lat="47.11863" lon="6.14215">
        <ele>469</ele>
        <time>2021-08-23T13:00:01Z</time>
      </trkpt>
      <trkpt lat="47.11861" lon="6.14206">
        <ele>468.4</ele>
        <time>2021-08-23T13:00:02Z</time>
      </trkpt>
      <trkpt lat="47.11858" lon="6.14199">
        <ele>468.2</ele>
        <time>2021-08-23T13:00:03Z</time>
      </trkpt>
      <trkpt lat="47.11854" lon="6.14194">
        <ele>468</ele>
        <time>2021-08-23T13:00:04Z</time>
      </trkpt>
      <trkpt lat="47.11851" lon="6.14187">
        <ele>467.8</ele>
        <time>2021-08-23T13:00:05Z</time>
      </trkpt>
      <trkpt lat="47.11848" lon="6.14181">
        <ele>467.8</ele>
        <time>2021-08-23T13:00:06Z</time>
      </trkpt>
      <trkpt lat="47.11846" lon="6.14175">
        <ele>467.8</ele>
        <time>2021-08-23T13:00:07Z</time>
      </trkpt>
      <trkpt lat="47.11841" lon="6.14168">
        <ele>467.8</ele>
        <time>2021-08-23T13:00:08Z</time>
      </trkpt>
      <trkpt lat="47.11838" lon="6.14162">
        <ele>467.8</ele>
        <time>2021-08-23T13:00:09Z</time>
      </trkpt>
      <trkpt lat="47.11833" lon="6.14159">
        <ele>467.8</ele>
        <time>2021-08-23T13:00:10Z</time>
      </trkpt>
      <trkpt lat="47.11829" lon="6.14157">
        <ele>467.6</ele>
        <time>2021-08-23T13:00:11Z</time>
      </trkpt>
      <trkpt lat="47.11824" lon="6.14155">
        <ele>467.6</ele>
        <time>2021-08-23T13:00:12Z</time>
      </trkpt>
      <trkpt lat="47.1182" lon="6.14155">
        <ele>467.6</ele>
        <time>2021-08-23T13:00:13Z</time>
      </trkpt>
      <trkpt lat="47.11815" lon="6.14154">
        <ele>467.6</ele>
        <time>2021-08-23T13:00:14Z</time>
      </trkpt>
      <trkpt lat="47.11811" lon="6.14154">
        <ele>467.6</ele>
        <time>2021-08-23T13:00:15Z</time>
      </trkpt>
      <trkpt lat="47.11798" lon="6.14151">
        <ele>467.4</ele>
        <time>2021-08-23T13:00:18Z</time>
      </trkpt>
      <trkpt lat="47.11794" lon="6.14152">
        <ele>467.4</ele>
        <time>2021-08-23T13:00:19Z</time>
      </trkpt>
      <trkpt lat="47.1179" lon="6.14154">
        <ele>467.4</ele>
        <time>2021-08-23T13:00:20Z</time>
      </trkpt>
      <trkpt lat="47.11786" lon="6.14155">
        <ele>467.2</ele>
        <time>2021-08-23T13:00:21Z</time>
      </trkpt>
      <trkpt lat="47.11782" lon="6.14157">
        <ele>467.2</ele>
        <time>2021-08-23T13:00:22Z</time>
      </trkpt>
      <trkpt lat="47.11771" lon="6.14158">
        <ele>467</ele>
        <time>2021-08-23T13:00:25Z</time>
      </trkpt>
      <trkpt lat="47.11749" lon="6.14154">
        <ele>466.8</ele>
        <time>2021-08-23T13:00:30Z</time>
      </trkpt>
      <trkpt lat="47.11736" lon="6.14149">
        <ele>466.8</ele>
        <time>2021-08-23T13:00:33Z</time>
      </trkpt>
      <trkpt lat="47.11733" lon="6.14148">
        <ele>467</ele>
        <time>2021-08-23T13:00:34Z</time>
      </trkpt>
      <trkpt lat="47.11729" lon="6.14148">
        <ele>467</ele>
        <time>2021-08-23T13:00:35Z</time>
      </trkpt>
      <trkpt lat="47.11718" lon="6.14146">
        <ele>467</ele>
        <time>2021-08-23T13:00:37Z</time>
      </trkpt>
      <trkpt lat="47.11704" lon="6.14146">
        <ele>467.2</ele>
        <time>2021-08-23T13:00:40Z</time>
      </trkpt>
      <trkpt lat="47.117" lon="6.14146">
        <ele>467.2</ele>
        <time>2021-08-23T13:00:41Z</time>
      </trkpt>
      <trkpt lat="47.11694" lon="6.14146">
        <ele>467.4</ele>
        <time>2021-08-23T13:00:42Z</time>
      </trkpt>
      <trkpt lat="47.11691" lon="6.14146">
        <ele>467.4</ele>
        <time>2021-08-23T13:00:43Z</time>
      </trkpt>
      <trkpt lat="47.11687" lon="6.14145">
        <ele>467.6</ele>
        <time>2021-08-23T13:00:44Z</time>
      </trkpt>
      <trkpt lat="47.11684" lon="6.14145">
        <ele>467.6</ele>
        <time>2021-08-23T13:00:45Z</time>
      </trkpt>
      <trkpt lat="47.11681" lon="6.14147">
        <ele>468</ele>
        <time>2021-08-23T13:00:46Z</time>
      </trkpt>
      <trkpt lat="47.11677" lon="6.14145">
        <ele>468</ele>
        <time>2021-08-23T13:00:47Z</time>
      </trkpt>
      <trkpt lat="47.11675" lon="6.14146">
        <ele>468.4</ele>
        <time>2021-08-23T13:00:48Z</time>
      </trkpt>
      <trkpt lat="47.11664" lon="6.14146">
        <ele>469.2</ele>
        <time>2021-08-23T13:00:51Z</time>
      </trkpt>
      <trkpt lat="47.11661" lon="6.14146">
        <ele>469.2</ele>
        <time>2021-08-23T13:00:52Z</time>
      </trkpt>
      <trkpt lat="47.11659" lon="6.14146">
        <ele>469.4</ele>
        <time>2021-08-23T13:00:53Z</time>
      </trkpt>
      <trkpt lat="47.11656" lon="6.14143">
        <ele>469.6</ele>
        <time>2021-08-23T13:00:54Z</time>
      </trkpt>
      <trkpt lat="47.11653" lon="6.14143">
        <ele>469.8</ele>
        <time>2021-08-23T13:00:55Z</time>
      </trkpt>
      <trkpt lat="47.1165" lon="6.14142">
        <ele>469.8</ele>
        <time>2021-08-23T13:00:56Z</time>
      </trkpt>
      <trkpt lat="47.11648" lon="6.14143">
        <ele>470.2</ele>
        <time>2021-08-23T13:00:57Z</time>
      </trkpt>
      <trkpt lat="47.11646" lon="6.14143">
        <ele>470.4</ele>
        <time>2021-08-23T13:00:58Z</time>
      </trkpt>
      <trkpt lat="47.11644" lon="6.14143">
        <ele>470.6</ele>
        <time>2021-08-23T13:00:59Z</time>
      </trkpt>
      <trkpt lat="47.11642" lon="6.14142">
        <ele>471</ele>
        <time>2021-08-23T13:01:00Z</time>
      </trkpt>
      <trkpt lat="47.11641" lon="6.14142">
        <ele>471.2</ele>
        <time>2021-08-23T13:01:01Z</time>
      </trkpt>
      <trkpt lat="47.11639" lon="6.14142">
        <ele>471.4</ele>
        <time>2021-08-23T13:01:02Z</time>
      </trkpt>
      <trkpt lat="47.11636" lon="6.14142">
        <ele>471.6</ele>
        <time>2021-08-23T13:01:03Z</time>
      </trkpt>
      <trkpt lat="47.11634" lon="6.14142">
        <ele>471.8</ele>
        <time>2021-08-23T13:01:04Z</time>
      </trkpt>
      <trkpt lat="47.11632" lon="6.14142">
        <ele>472</ele>
        <time>2021-08-23T13:01:05Z</time>
      </trkpt>
      <trkpt lat="47.11631" lon="6.14142">
        <ele>472.2</ele>
        <time>2021-08-23T13:01:06Z</time>
      </trkpt>
      <trkpt lat="47.11628" lon="6.14142">
        <ele>472.4</ele>
        <time>2021-08-23T13:01:07Z</time>
      </trkpt>
      <trkpt lat="47.11626" lon="6.14143">
        <ele>472.6</ele>
        <time>2021-08-23T13:01:08Z</time>
      </trkpt>
      <trkpt lat="47.11624" lon="6.14143">
        <ele>472.8</ele>
        <time>2021-08-23T13:01:09Z</time>
      </trkpt>
      <trkpt lat="47.11622" lon="6.14143">
        <ele>473</ele>
        <time>2021-08-23T13:01:10Z</time>
      </trkpt>
      <trkpt lat="47.1162" lon="6.14142">
        <ele>473</ele>
        <time>2021-08-23T13:01:11Z</time>
      </trkpt>
      <trkpt lat="47.11617" lon="6.14142">
        <ele>473.2</ele>
        <time>2021-08-23T13:01:12Z</time>
      </trkpt>
      <trkpt lat="47.11614" lon="6.14142">
        <ele>473.2</ele>
        <time>2021-08-23T13:01:13Z</time>
      </trkpt>
      <trkpt lat="47.11612" lon="6.14142">
        <ele>473.2</ele>
        <time>2021-08-23T13:01:14Z</time>
      </trkpt>
      <trkpt lat="47.1161" lon="6.14142">
        <ele>473.4</ele>
        <time>2021-08-23T13:01:15Z</time>
      </trkpt>
      <trkpt lat="47.11607" lon="6.14142">
        <ele>473.4</ele>
        <time>2021-08-23T13:01:16Z</time>
      </trkpt>
      <trkpt lat="47.11605" lon="6.14141">
        <ele>473.6</ele>
        <time>2021-08-23T13:01:17Z</time>
      </trkpt>
      <trkpt lat="47.11603" lon="6.14141">
        <ele>473.6</ele>
        <time>2021-08-23T13:01:18Z</time>
      </trkpt>
      <trkpt lat="47.11601" lon="6.1414">
        <ele>473.6</ele>
        <time>2021-08-23T13:01:19Z</time>
      </trkpt>
      <trkpt lat="47.11598" lon="6.1414">
        <ele>473.8</ele>
        <time>2021-08-23T13:01:20Z</time>
      </trkpt>
      <trkpt lat="47.11596" lon="6.1414">
        <ele>473.8</ele>
        <time>2021-08-23T13:01:21Z</time>
      </trkpt>
      <trkpt lat="47.11593" lon="6.1414">
        <ele>474</ele>
        <time>2021-08-23T13:01:22Z</time>
      </trkpt>
      <trkpt lat="47.11591" lon="6.14141">
        <ele>474.2</ele>
        <time>2021-08-23T13:01:23Z</time>
      </trkpt>
      <trkpt lat="47.11588" lon="6.14141">
        <ele>474.6</ele>
        <time>2021-08-23T13:01:24Z</time>
      </trkpt>
      <trkpt lat="47.11585" lon="6.14142">
        <ele>474.6</ele>
        <time>2021-08-23T13:01:25Z</time>
      </trkpt>
      <trkpt lat="47.11582" lon="6.14142">
        <ele>474.8</ele>
        <time>2021-08-23T13:01:26Z</time>
      </trkpt>
      <trkpt lat="47.11579" lon="6.14143">
        <ele>475.2</ele>
        <time>2021-08-23T13:01:27Z</time>
      </trkpt>
      <trkpt lat="47.11576" lon="6.14143">
        <ele>475.4</ele>
        <time>2021-08-23T13:01:28Z</time>
      </trkpt>
      <trkpt lat="47.11573" lon="6.14143">
        <ele>475.4</ele>
        <time>2021-08-23T13:01:29Z</time>
      </trkpt>
      <trkpt lat="47.11571" lon="6.14143">
        <ele>475.4</ele>
        <time>2021-08-23T13:01:30Z</time>
      </trkpt>
      <trkpt lat="47.11568" lon="6.14143">
        <ele>475.6</ele>
        <time>2021-08-23T13:01:31Z</time>
      </trkpt>
      <trkpt lat="47.11566" lon="6.14143">
        <ele>475.8</ele>
        <time>2021-08-23T13:01:32Z</time>
      </trkpt>
      <trkpt lat="47.11564" lon="6.14143">
        <ele>476</ele>
        <time>2021-08-23T13:01:33Z</time>
      </trkpt>
      <trkpt lat="47.11562" lon="6.14144">
        <ele>476</ele>
        <time>2021-08-23T13:01:34Z</time>
      </trkpt>
      <trkpt lat="47.1156" lon="6.14144">
        <ele>476</ele>
        <time>2021-08-23T13:01:35Z</time>
      </trkpt>
      <trkpt lat="47.11559" lon="6.14144">
        <ele>476.2</ele>
        <time>2021-08-23T13:01:36Z</time>
      </trkpt>
      <trkpt lat="47.11557" lon="6.14144">
        <ele>476.4</ele>
        <time>2021-08-23T13:01:37Z</time>
      </trkpt>
      <trkpt lat="47.11556" lon="6.14144">
        <ele>476.8</ele>
        <time>2021-08-23T13:01:38Z</time>
      </trkpt>
      <trkpt lat="47.11554" lon="6.14145">
        <ele>477</ele>
        <time>2021-08-23T13:01:39Z</time>
      </trkpt>
      <trkpt lat="47.11552" lon="6.14145">
        <ele>477.4</ele>
        <time>2021-08-23T13:01:40Z</time>
      </trkpt>
      <trkpt lat="47.1155" lon="6.14144">
        <ele>477.6</ele>
        <time>2021-08-23T13:01:41Z</time>
      </trkpt>
      <trkpt lat="47.11548" lon="6.14144">
        <ele>477.8</ele>
        <time>2021-08-23T13:01:42Z</time>
      </trkpt>
      <trkpt lat="47.11547" lon="6.14144">
        <ele>478</ele>
        <time>2021-08-23T13:01:43Z</time>
      </trkpt>
      <trkpt lat="47.11545" lon="6.14143">
        <ele>478.2</ele>
        <time>2021-08-23T13:01:44Z</time>
      </trkpt>
      <trkpt lat="47.11543" lon="6.14143">
        <ele>478.4</ele>
        <time>2021-08-23T13:01:45Z</time>
      </trkpt>
      <trkpt lat="47.11542" lon="6.14142">
        <ele>478.6</ele>
        <time>2021-08-23T13:01:46Z</time>
      </trkpt>
      <trkpt lat="47.1154" lon="6.14142">
        <ele>478.8</ele>
        <time>2021-08-23T13:01:47Z</time>
      </trkpt>
      <trkpt lat="47.11539" lon="6.14142">
        <ele>479</ele>
        <time>2021-08-23T13:01:48Z</time>
      </trkpt>
      <trkpt lat="47.11539" lon="6.14142">
        <ele>479.4</ele>
        <time>2021-08-23T13:01:49Z</time>
      </trkpt>
      <trkpt lat="47.11539" lon="6.14142">
        <ele>479.8</ele>
        <time>2021-08-23T13:01:53Z</time>
      </trkpt>
      <trkpt lat="47.11539" lon="6.14142">
        <ele>480</ele>
        <time>2021-08-23T13:02:16Z</time>
      </trkpt>
      <trkpt lat="47.11539" lon="6.1414">
        <ele>480</ele>
        <time>2021-08-23T13:02:50Z</time>
      </trkpt>
      <trkpt lat="47.11542" lon="6.14139">
        <ele>480.2</ele>
        <time>2021-08-23T13:02:52Z</time>
      </trkpt>
      <trkpt lat="47.11545" lon="6.14137">
        <ele>480.2</ele>
        <time>2021-08-23T13:02:54Z</time>
      </trkpt>
      <trkpt lat="47.11547" lon="6.14136">
        <ele>480.2</ele>
        <time>2021-08-23T13:02:55Z</time>
      </trkpt>
      <trkpt lat="47.11547" lon="6.14134">
        <ele>480.8</ele>
        <time>2021-08-23T13:02:56Z</time>
      </trkpt>
      <trkpt lat="47.11548" lon="6.14132">
        <ele>481</ele>
        <time>2021-08-23T13:02:57Z</time>
      </trkpt>
      <trkpt lat="47.11549" lon="6.14129">
        <ele>481.2</ele>
        <time>2021-08-23T13:02:58Z</time>
      </trkpt>
      <trkpt lat="47.1155" lon="6.14127">
        <ele>481.4</ele>
        <time>2021-08-23T13:02:59Z</time>
      </trkpt>
      <trkpt lat="47.1155" lon="6.14125">
        <ele>481.4</ele>
        <time>2021-08-23T13:03:00Z</time>
      </trkpt>
      <trkpt lat="47.11551" lon="6.14119">
        <ele>482</ele>
        <time>2021-08-23T13:03:02Z</time>
      </trkpt>
      <trkpt lat="47.1155" lon="6.14117">
        <ele>482.6</ele>
        <time>2021-08-23T13:03:03Z</time>
      </trkpt>
      <trkpt lat="47.1155" lon="6.14115">
        <ele>482.8</ele>
        <time>2021-08-23T13:03:04Z</time>
      </trkpt>
      <trkpt lat="47.1155" lon="6.14114">
        <ele>483.2</ele>
        <time>2021-08-23T13:03:05Z</time>
      </trkpt>
      <trkpt lat="47.1155" lon="6.14112">
        <ele>483.4</ele>
        <time>2021-08-23T13:03:06Z</time>
      </trkpt>
      <trkpt lat="47.1155" lon="6.14111">
        <ele>483.6</ele>
        <time>2021-08-23T13:03:07Z</time>
      </trkpt>
      <trkpt lat="47.11549" lon="6.14109">
        <ele>484</ele>
        <time>2021-08-23T13:03:08Z</time>
      </trkpt>
      <trkpt lat="47.11548" lon="6.14107">
        <ele>484.4</ele>
        <time>2021-08-23T13:03:09Z</time>
      </trkpt>
      <trkpt lat="47.11548" lon="6.14105">
        <ele>484.8</ele>
        <time>2021-08-23T13:03:10Z</time>
      </trkpt>
      <trkpt lat="47.11548" lon="6.14102">
        <ele>484.8</ele>
        <time>2021-08-23T13:03:11Z</time>
      </trkpt>
      <trkpt lat="47.11548" lon="6.141">
        <ele>485</ele>
        <time>2021-08-23T13:03:12Z</time>
      </trkpt>
      <trkpt lat="47.11547" lon="6.14098">
        <ele>485.2</ele>
        <time>2021-08-23T13:03:13Z</time>
      </trkpt>
      <trkpt lat="47.11547" lon="6.14095">
        <ele>485.6</ele>
        <time>2021-08-23T13:03:14Z</time>
      </trkpt>
      <trkpt lat="47.11546" lon="6.14092">
        <ele>485.6</ele>
        <time>2021-08-23T13:03:15Z</time>
      </trkpt>
      <trkpt lat="47.11546" lon="6.14091">
        <ele>486.2</ele>
        <time>2021-08-23T13:03:16Z</time>
      </trkpt>
      <trkpt lat="47.11547" lon="6.14089">
        <ele>486.4</ele>
        <time>2021-08-23T13:03:17Z</time>
      </trkpt>
      <trkpt lat="47.11547" lon="6.14087">
        <ele>486.6</ele>
        <time>2021-08-23T13:03:18Z</time>
      </trkpt>
      <trkpt lat="47.11547" lon="6.14084">
        <ele>487</ele>
        <time>2021-08-23T13:03:19Z</time>
      </trkpt>
      <trkpt lat="47.11547" lon="6.14082">
        <ele>487.2</ele>
        <time>2021-08-23T13:03:20Z</time>
      </trkpt>
      <trkpt lat="47.11548" lon="6.1408">
        <ele>487.6</ele>
        <time>2021-08-23T13:03:21Z</time>
      </trkpt>
      <trkpt lat="47.11548" lon="6.14077">
        <ele>487.6</ele>
        <time>2021-08-23T13:03:22Z</time>
      </trkpt>
      <trkpt lat="47.11548" lon="6.14075">
        <ele>487.8</ele>
        <time>2021-08-23T13:03:23Z</time>
      </trkpt>
      <trkpt lat="47.11549" lon="6.14073">
        <ele>487.8</ele>
        <time>2021-08-23T13:03:24Z</time>
      </trkpt>
      <trkpt lat="47.1155" lon="6.14071">
        <ele>488</ele>
        <time>2021-08-23T13:03:25Z</time>
      </trkpt>
      <trkpt lat="47.1155" lon="6.14069">
        <ele>488.2</ele>
        <time>2021-08-23T13:03:26Z</time>
      </trkpt>
      <trkpt lat="47.11551" lon="6.14067">
        <ele>488.2</ele>
        <time>2021-08-23T13:03:27Z</time>
      </trkpt>
      <trkpt lat="47.11551" lon="6.14065">
        <ele>488.4</ele>
        <time>2021-08-23T13:03:28Z</time>
      </trkpt>
      <trkpt lat="47.11552" lon="6.14063">
        <ele>488.6</ele>
        <time>2021-08-23T13:03:29Z</time>
      </trkpt>
      <trkpt lat="47.11552" lon="6.14061">
        <ele>488.8</ele>
        <time>2021-08-23T13:03:30Z</time>
      </trkpt>
      <trkpt lat="47.11553" lon="6.14058">
        <ele>489</ele>
        <time>2021-08-23T13:03:31Z</time>
      </trkpt>
      <trkpt lat="47.11554" lon="6.14056">
        <ele>489.2</ele>
        <time>2021-08-23T13:03:32Z</time>
      </trkpt>
      <trkpt lat="47.11555" lon="6.14054">
        <ele>489.4</ele>
        <time>2021-08-23T13:03:33Z</time>
      </trkpt>
      <trkpt lat="47.11556" lon="6.14052">
        <ele>489.6</ele>
        <time>2021-08-23T13:03:34Z</time>
      </trkpt>
      <trkpt lat="47.11557" lon="6.1405">
        <ele>489.8</ele>
        <time>2021-08-23T13:03:35Z</time>
      </trkpt>
      <trkpt lat="47.11557" lon="6.14048">
        <ele>490</ele>
        <time>2021-08-23T13:03:36Z</time>
      </trkpt>
      <trkpt lat="47.11558" lon="6.14046">
        <ele>490.2</ele>
        <time>2021-08-23T13:03:37Z</time>
      </trkpt>
      <trkpt lat="47.11559" lon="6.14044">
        <ele>490.4</ele>
        <time>2021-08-23T13:03:38Z</time>
      </trkpt>
      <trkpt lat="47.1156" lon="6.14042">
        <ele>490.8</ele>
        <time>2021-08-23T13:03:39Z</time>
      </trkpt>
      <trkpt lat="47.11561" lon="6.14041">
        <ele>491</ele>
        <time>2021-08-23T13:03:40Z</time>
      </trkpt>
      <trkpt lat="47.11562" lon="6.14039">
        <ele>491</ele>
        <time>2021-08-23T13:03:41Z</time>
      </trkpt>
      <trkpt lat="47.11563" lon="6.14037">
        <ele>491.2</ele>
        <time>2021-08-23T13:03:42Z</time>
      </trkpt>
      <trkpt lat="47.11564" lon="6.14035">
        <ele>491.6</ele>
        <time>2021-08-23T13:03:43Z</time>
      </trkpt>
      <trkpt lat="47.11565" lon="6.14033">
        <ele>491.6</ele>
        <time>2021-08-23T13:03:44Z</time>
      </trkpt>
      <trkpt lat="47.11566" lon="6.14031">
        <ele>492</ele>
        <time>2021-08-23T13:03:45Z</time>
      </trkpt>
      <trkpt lat="47.11567" lon="6.14029">
        <ele>492.2</ele>
        <time>2021-08-23T13:03:46Z</time>
      </trkpt>
      <trkpt lat="47.11568" lon="6.14028">
        <ele>492.2</ele>
        <time>2021-08-23T13:03:47Z</time>
      </trkpt>
      <trkpt lat="47.11569" lon="6.14026">
        <ele>492.8</ele>
        <time>2021-08-23T13:03:48Z</time>
      </trkpt>
      <trkpt lat="47.1157" lon="6.14024">
        <ele>493</ele>
        <time>2021-08-23T13:03:49Z</time>
      </trkpt>
      <trkpt lat="47.11571" lon="6.14023">
        <ele>493.2</ele>
        <time>2021-08-23T13:03:50Z</time>
      </trkpt>
      <trkpt lat="47.11572" lon="6.14021">
        <ele>493.2</ele>
        <time>2021-08-23T13:03:51Z</time>
      </trkpt>
      <trkpt lat="47.11574" lon="6.1402">
        <ele>493.4</ele>
        <time>2021-08-23T13:03:52Z</time>
      </trkpt>
      <trkpt lat="47.11575" lon="6.14018">
        <ele>493.6</ele>
        <time>2021-08-23T13:03:53Z</time>
      </trkpt>
      <trkpt lat="47.11576" lon="6.14017">
        <ele>493.6</ele>
        <time>2021-08-23T13:03:54Z</time>
      </trkpt>
      <trkpt lat="47.11577" lon="6.14016">
        <ele>494</ele>
        <time>2021-08-23T13:03:55Z</time>
      </trkpt>
      <trkpt lat="47.11579" lon="6.14015">
        <ele>494</ele>
        <time>2021-08-23T13:03:56Z</time>
      </trkpt>
      <trkpt lat="47.1158" lon="6.14013">
        <ele>494.2</ele>
        <time>2021-08-23T13:03:57Z</time>
      </trkpt>
      <trkpt lat="47.11581" lon="6.14012">
        <ele>494.2</ele>
        <time>2021-08-23T13:03:58Z</time>
      </trkpt>
      <trkpt lat="47.11582" lon="6.1401">
        <ele>494.6</ele>
        <time>2021-08-23T13:03:59Z</time>
      </trkpt>
      <trkpt lat="47.11583" lon="6.14009">
        <ele>494.6</ele>
        <time>2021-08-23T13:04:00Z</time>
      </trkpt>
      <trkpt lat="47.11584" lon="6.14008">
        <ele>494.8</ele>
        <time>2021-08-23T13:04:01Z</time>
      </trkpt>
      <trkpt lat="47.11585" lon="6.14007">
        <ele>495</ele>
        <time>2021-08-23T13:04:02Z</time>
      </trkpt>
      <trkpt lat="47.11587" lon="6.14006">
        <ele>495.2</ele>
        <time>2021-08-23T13:04:03Z</time>
      </trkpt>
      <trkpt lat="47.11588" lon="6.14005">
        <ele>495.4</ele>
        <time>2021-08-23T13:04:04Z</time>
      </trkpt>
      <trkpt lat="47.11589" lon="6.14004">
        <ele>495.6</ele>
        <time>2021-08-23T13:04:05Z</time>
      </trkpt>
      <trkpt lat="47.1159" lon="6.14003">
        <ele>495.8</ele>
        <time>2021-08-23T13:04:06Z</time>
      </trkpt>
      <trkpt lat="47.11591" lon="6.14002">
        <ele>496</ele>
        <time>2021-08-23T13:04:07Z</time>
      </trkpt>
      <trkpt lat="47.11592" lon="6.14001">
        <ele>496.2</ele>
        <time>2021-08-23T13:04:08Z</time>
      </trkpt>
      <trkpt lat="47.11594" lon="6.14">
        <ele>496.4</ele>
        <time>2021-08-23T13:04:09Z</time>
      </trkpt>
      <trkpt lat="47.11595" lon="6.14">
        <ele>496.6</ele>
        <time>2021-08-23T13:04:10Z</time>
      </trkpt>
      <trkpt lat="47.11596" lon="6.13999">
        <ele>496.8</ele>
        <time>2021-08-23T13:04:11Z</time>
      </trkpt>
      <trkpt lat="47.11598" lon="6.13999">
        <ele>497</ele>
        <time>2021-08-23T13:04:12Z</time>
      </trkpt>
      <trkpt lat="47.11599" lon="6.13998">
        <ele>497.2</ele>
        <time>2021-08-23T13:04:13Z</time>
      </trkpt>
      <trkpt lat="47.11601" lon="6.13998">
        <ele>497.2</ele>
        <time>2021-08-23T13:04:14Z</time>
      </trkpt>
      <trkpt lat="47.11602" lon="6.13998">
        <ele>497.6</ele>
        <time>2021-08-23T13:04:15Z</time>
      </trkpt>
      <trkpt lat="47.11604" lon="6.13998">
        <ele>497.8</ele>
        <time>2021-08-23T13:04:16Z</time>
      </trkpt>
      <trkpt lat="47.11605" lon="6.13997">
        <ele>498</ele>
        <time>2021-08-23T13:04:17Z</time>
      </trkpt>
      <trkpt lat="47.11607" lon="6.13996">
        <ele>498.2</ele>
        <time>2021-08-23T13:04:18Z</time>
      </trkpt>
      <trkpt lat="47.11608" lon="6.13996">
        <ele>498.6</ele>
        <time>2021-08-23T13:04:19Z</time>
      </trkpt>
      <trkpt lat="47.1161" lon="6.13997">
        <ele>498.6</ele>
        <time>2021-08-23T13:04:20Z</time>
      </trkpt>
      <trkpt lat="47.11612" lon="6.13997">
        <ele>499</ele>
        <time>2021-08-23T13:04:21Z</time>
      </trkpt>
      <trkpt lat="47.11613" lon="6.13997">
        <ele>499.6</ele>
        <time>2021-08-23T13:04:22Z</time>
      </trkpt>
      <trkpt lat="47.11615" lon="6.13998">
        <ele>499.8</ele>
        <time>2021-08-23T13:04:23Z</time>
      </trkpt>
      <trkpt lat="47.11616" lon="6.13999">
        <ele>500.2</ele>
        <time>2021-08-23T13:04:24Z</time>
      </trkpt>
      <trkpt lat="47.11618" lon="6.14">
        <ele>500.4</ele>
        <time>2021-08-23T13:04:25Z</time>
      </trkpt>
      <trkpt lat="47.11619" lon="6.14001">
        <ele>500.8</ele>
        <time>2021-08-23T13:04:26Z</time>
      </trkpt>
      <trkpt lat="47.11621" lon="6.14002">
        <ele>500.8</ele>
        <time>2021-08-23T13:04:27Z</time>
      </trkpt>
      <trkpt lat="47.11622" lon="6.14003">
        <ele>501.2</ele>
        <time>2021-08-23T13:04:28Z</time>
      </trkpt>
      <trkpt lat="47.11624" lon="6.14004">
        <ele>501.4</ele>
        <time>2021-08-23T13:04:29Z</time>
      </trkpt>
      <trkpt lat="47.11625" lon="6.14006">
        <ele>501.6</ele>
        <time>2021-08-23T13:04:30Z</time>
      </trkpt>
      <trkpt lat="47.11626" lon="6.14008">
        <ele>501.8</ele>
        <time>2021-08-23T13:04:31Z</time>
      </trkpt>
      <trkpt lat="47.11627" lon="6.14009">
        <ele>502</ele>
        <time>2021-08-23T13:04:32Z</time>
      </trkpt>
      <trkpt lat="47.11628" lon="6.1401">
        <ele>502.6</ele>
        <time>2021-08-23T13:04:33Z</time>
      </trkpt>
      <trkpt lat="47.11629" lon="6.14011">
        <ele>502.6</ele>
        <time>2021-08-23T13:04:34Z</time>
      </trkpt>
      <trkpt lat="47.11631" lon="6.14012">
        <ele>503</ele>
        <time>2021-08-23T13:04:35Z</time>
      </trkpt>
      <trkpt lat="47.11632" lon="6.14013">
        <ele>503.2</ele>
        <time>2021-08-23T13:04:36Z</time>
      </trkpt>
      <trkpt lat="47.11633" lon="6.14014">
        <ele>503.4</ele>
        <time>2021-08-23T13:04:37Z</time>
      </trkpt>
      <trkpt lat="47.11634" lon="6.14015">
        <ele>503.6</ele>
        <time>2021-08-23T13:04:38Z</time>
      </trkpt>
      <trkpt lat="47.11635" lon="6.14016">
        <ele>504</ele>
        <time>2021-08-23T13:04:39Z</time>
      </trkpt>
      <trkpt lat="47.11636" lon="6.14017">
        <ele>504.2</ele>
        <time>2021-08-23T13:04:40Z</time>
      </trkpt>
      <trkpt lat="47.11637" lon="6.14018">
        <ele>504.4</ele>
        <time>2021-08-23T13:04:41Z</time>
      </trkpt>
      <trkpt lat="47.11639" lon="6.1402">
        <ele>504.6</ele>
        <time>2021-08-23T13:04:42Z</time>
      </trkpt>
      <trkpt lat="47.1164" lon="6.14021">
        <ele>504.8</ele>
        <time>2021-08-23T13:04:43Z</time>
      </trkpt>
      <trkpt lat="47.11641" lon="6.14022">
        <ele>505</ele>
        <time>2021-08-23T13:04:44Z</time>
      </trkpt>
      <trkpt lat="47.11642" lon="6.14023">
        <ele>505.2</ele>
        <time>2021-08-23T13:04:45Z</time>
      </trkpt>
      <trkpt lat="47.11643" lon="6.14025">
        <ele>505.4</ele>
        <time>2021-08-23T13:04:46Z</time>
      </trkpt>
      <trkpt lat="47.11644" lon="6.14026">
        <ele>505.4</ele>
        <time>2021-08-23T13:04:47Z</time>
      </trkpt>
      <trkpt lat="47.11646" lon="6.14027">
        <ele>505.6</ele>
        <time>2021-08-23T13:04:48Z</time>
      </trkpt>
      <trkpt lat="47.11647" lon="6.14028">
        <ele>505.8</ele>
        <time>2021-08-23T13:04:49Z</time>
      </trkpt>
      <trkpt lat="47.11649" lon="6.14029">
        <ele>505.8</ele>
        <time>2021-08-23T13:04:50Z</time>
      </trkpt>
      <trkpt lat="47.1165" lon="6.1403">
        <ele>506</ele>
        <time>2021-08-23T13:04:51Z</time>
      </trkpt>
      <trkpt lat="47.11652" lon="6.1403">
        <ele>506.2</ele>
        <time>2021-08-23T13:04:52Z</time>
      </trkpt>
      <trkpt lat="47.11654" lon="6.1403">
        <ele>506.4</ele>
        <time>2021-08-23T13:04:53Z</time>
      </trkpt>
      <trkpt lat="47.11655" lon="6.14031">
        <ele>506.6</ele>
        <time>2021-08-23T13:04:54Z</time>
      </trkpt>
      <trkpt lat="47.11657" lon="6.14031">
        <ele>506.8</ele>
        <time>2021-08-23T13:04:55Z</time>
      </trkpt>
      <trkpt lat="47.11658" lon="6.1403">
        <ele>506.8</ele>
        <time>2021-08-23T13:04:56Z</time>
      </trkpt>
      <trkpt lat="47.1166" lon="6.1403">
        <ele>507.2</ele>
        <time>2021-08-23T13:04:57Z</time>
      </trkpt>
      <trkpt lat="47.11661" lon="6.14029">
        <ele>507.8</ele>
        <time>2021-08-23T13:04:58Z</time>
      </trkpt>
      <trkpt lat="47.11663" lon="6.14027">
        <ele>508</ele>
        <time>2021-08-23T13:04:59Z</time>
      </trkpt>
      <trkpt lat="47.11664" lon="6.14026">
        <ele>508.2</ele>
        <time>2021-08-23T13:05:00Z</time>
      </trkpt>
      <trkpt lat="47.11665" lon="6.14024">
        <ele>508.4</ele>
        <time>2021-08-23T13:05:01Z</time>
      </trkpt>
      <trkpt lat="47.11666" lon="6.14022">
        <ele>508.8</ele>
        <time>2021-08-23T13:05:02Z</time>
      </trkpt>
      <trkpt lat="47.11667" lon="6.14019">
        <ele>508.8</ele>
        <time>2021-08-23T13:05:03Z</time>
      </trkpt>
      <trkpt lat="47.11668" lon="6.14018">
        <ele>509.2</ele>
        <time>2021-08-23T13:05:04Z</time>
      </trkpt>
      <trkpt lat="47.11669" lon="6.14016">
        <ele>509.4</ele>
        <time>2021-08-23T13:05:05Z</time>
      </trkpt>
      <trkpt lat="47.1167" lon="6.14014">
        <ele>509.6</ele>
        <time>2021-08-23T13:05:06Z</time>
      </trkpt>
      <trkpt lat="47.1167" lon="6.14012">
        <ele>509.8</ele>
        <time>2021-08-23T13:05:07Z</time>
      </trkpt>
      <trkpt lat="47.11671" lon="6.1401">
        <ele>509.8</ele>
        <time>2021-08-23T13:05:08Z</time>
      </trkpt>
      <trkpt lat="47.11671" lon="6.14007">
        <ele>510</ele>
        <time>2021-08-23T13:05:09Z</time>
      </trkpt>
      <trkpt lat="47.11672" lon="6.14005">
        <ele>510</ele>
        <time>2021-08-23T13:05:10Z</time>
      </trkpt>
      <trkpt lat="47.11673" lon="6.14003">
        <ele>510.2</ele>
        <time>2021-08-23T13:05:11Z</time>
      </trkpt>
      <trkpt lat="47.11673" lon="6.14001">
        <ele>510.4</ele>
        <time>2021-08-23T13:05:12Z</time>
      </trkpt>
      <trkpt lat="47.11673" lon="6.13999">
        <ele>510.4</ele>
        <time>2021-08-23T13:05:13Z</time>
      </trkpt>
      <trkpt lat="47.11674" lon="6.13997">
        <ele>510.6</ele>
        <time>2021-08-23T13:05:14Z</time>
      </trkpt>
      <trkpt lat="47.11674" lon="6.13995">
        <ele>511</ele>
        <time>2021-08-23T13:05:15Z</time>
      </trkpt>
      <trkpt lat="47.11674" lon="6.13993">
        <ele>511.2</ele>
        <time>2021-08-23T13:05:16Z</time>
      </trkpt>
      <trkpt lat="47.11675" lon="6.13991">
        <ele>511.2</ele>
        <time>2021-08-23T13:05:17Z</time>
      </trkpt>
      <trkpt lat="47.11675" lon="6.13989">
        <ele>511.4</ele>
        <time>2021-08-23T13:05:18Z</time>
      </trkpt>
      <trkpt lat="47.11676" lon="6.13986">
        <ele>511.4</ele>
        <time>2021-08-23T13:05:19Z</time>
      </trkpt>
      <trkpt lat="47.11676" lon="6.13984">
        <ele>511.6</ele>
        <time>2021-08-23T13:05:20Z</time>
      </trkpt>
      <trkpt lat="47.11677" lon="6.13982">
        <ele>511.8</ele>
        <time>2021-08-23T13:05:21Z</time>
      </trkpt>
      <trkpt lat="47.11678" lon="6.1398">
        <ele>512</ele>
        <time>2021-08-23T13:05:22Z</time>
      </trkpt>
      <trkpt lat="47.11679" lon="6.13978">
        <ele>512.2</ele>
        <time>2021-08-23T13:05:23Z</time>
      </trkpt>
      <trkpt lat="47.11681" lon="6.13976">
        <ele>512.4</ele>
        <time>2021-08-23T13:05:24Z</time>
      </trkpt>
      <trkpt lat="47.11682" lon="6.13975">
        <ele>512.8</ele>
        <time>2021-08-23T13:05:25Z</time>
      </trkpt>
      <trkpt lat="47.11684" lon="6.13974">
        <ele>512.8</ele>
        <time>2021-08-23T13:05:26Z</time>
      </trkpt>
      <trkpt lat="47.11686" lon="6.13974">
        <ele>513</ele>
        <time>2021-08-23T13:05:27Z</time>
      </trkpt>
      <trkpt lat="47.11688" lon="6.13973">
        <ele>513.2</ele>
        <time>2021-08-23T13:05:28Z</time>
      </trkpt>
      <trkpt lat="47.11689" lon="6.13973">
        <ele>513.4</ele>
        <time>2021-08-23T13:05:29Z</time>
      </trkpt>
      <trkpt lat="47.11691" lon="6.13973">
        <ele>513.4</ele>
        <time>2021-08-23T13:05:30Z</time>
      </trkpt>
      <trkpt lat="47.11693" lon="6.13973">
        <ele>513.6</ele>
        <time>2021-08-23T13:05:31Z</time>
      </trkpt>
      <trkpt lat="47.11694" lon="6.13973">
        <ele>513.8</ele>
        <time>2021-08-23T13:05:32Z</time>
      </trkpt>
      <trkpt lat="47.11696" lon="6.13973">
        <ele>514</ele>
        <time>2021-08-23T13:05:33Z</time>
      </trkpt>
      <trkpt lat="47.11697" lon="6.13973">
        <ele>514</ele>
        <time>2021-08-23T13:05:34Z</time>
      </trkpt>
      <trkpt lat="47.11699" lon="6.13973">
        <ele>514.2</ele>
        <time>2021-08-23T13:05:35Z</time>
      </trkpt>
      <trkpt lat="47.11701" lon="6.13973">
        <ele>514.6</ele>
        <time>2021-08-23T13:05:36Z</time>
      </trkpt>
      <trkpt lat="47.11702" lon="6.13973">
        <ele>514.8</ele>
        <time>2021-08-23T13:05:37Z</time>
      </trkpt>
      <trkpt lat="47.11704" lon="6.13973">
        <ele>515.2</ele>
        <time>2021-08-23T13:05:38Z</time>
      </trkpt>
      <trkpt lat="47.11705" lon="6.13973">
        <ele>515.4</ele>
        <time>2021-08-23T13:05:39Z</time>
      </trkpt>
      <trkpt lat="47.11707" lon="6.13973">
        <ele>515.8</ele>
        <time>2021-08-23T13:05:40Z</time>
      </trkpt>
      <trkpt lat="47.11709" lon="6.13973">
        <ele>516.2</ele>
        <time>2021-08-23T13:05:41Z</time>
      </trkpt>
      <trkpt lat="47.1171" lon="6.13972">
        <ele>516.4</ele>
        <time>2021-08-23T13:05:42Z</time>
      </trkpt>
      <trkpt lat="47.11712" lon="6.13972">
        <ele>516.6</ele>
        <time>2021-08-23T13:05:43Z</time>
      </trkpt>
      <trkpt lat="47.11713" lon="6.13973">
        <ele>516.8</ele>
        <time>2021-08-23T13:05:44Z</time>
      </trkpt>
      <trkpt lat="47.11715" lon="6.13973">
        <ele>517.2</ele>
        <time>2021-08-23T13:05:45Z</time>
      </trkpt>
      <trkpt lat="47.11716" lon="6.13973">
        <ele>517.4</ele>
        <time>2021-08-23T13:05:46Z</time>
      </trkpt>
      <trkpt lat="47.11717" lon="6.13973">
        <ele>517.4</ele>
        <time>2021-08-23T13:05:47Z</time>
      </trkpt>
      <trkpt lat="47.11718" lon="6.13973">
        <ele>517.4</ele>
        <time>2021-08-23T13:05:48Z</time>
      </trkpt>
      <trkpt lat="47.11718" lon="6.13972">
        <ele>517.6</ele>
        <time>2021-08-23T13:05:49Z</time>
      </trkpt>
      <trkpt lat="47.11718" lon="6.13972">
        <ele>517.8</ele>
        <time>2021-08-23T13:05:50Z</time>
      </trkpt>
      <trkpt lat="47.11718" lon="6.13972">
        <ele>517.8</ele>
        <time>2021-08-23T13:05:51Z</time>
      </trkpt>
      <trkpt lat="47.11718" lon="6.13972">
        <ele>517.8</ele>
        <time>2021-08-23T13:05:52Z</time>
      </trkpt>
      <trkpt lat="47.11718" lon="6.13972">
        <ele>517.8</ele>
        <time>2021-08-23T13:05:59Z</time>
      </trkpt>
      <trkpt lat="47.11718" lon="6.13972">
        <ele>518</ele>
        <time>2021-08-23T13:06:57Z</time>
      </trkpt>
      <trkpt lat="47.11718" lon="6.13972">
        <ele>518</ele>
        <time>2021-08-23T13:07:38Z</time>
      </trkpt>
      <trkpt lat="47.11721" lon="6.13976">
        <ele>518</ele>
        <time>2021-08-23T13:07:40Z</time>
      </trkpt>
      <trkpt lat="47.11722" lon="6.13977">
        <ele>518</ele>
        <time>2021-08-23T13:07:41Z</time>
      </trkpt>
      <trkpt lat="47.11731" lon="6.13984">
        <ele>517.8</ele>
        <time>2021-08-23T13:07:45Z</time>
      </trkpt>
      <trkpt lat="47.11734" lon="6.13986">
        <ele>517.8</ele>
        <time>2021-08-23T13:07:46Z</time>
      </trkpt>
      <trkpt lat="47.11738" lon="6.13989">
        <ele>517.8</ele>
        <time>2021-08-23T13:07:48Z</time>
      </trkpt>
      <trkpt lat="47.11759" lon="6.13997">
        <ele>517.8</ele>
        <time>2021-08-23T13:07:55Z</time>
      </trkpt>
      <trkpt lat="47.11784" lon="6.14001">
        <ele>518</ele>
        <time>2021-08-23T13:08:02Z</time>
      </trkpt>
      <trkpt lat="47.11797" lon="6.14">
        <ele>518</ele>
        <time>2021-08-23T13:08:05Z</time>
      </trkpt>
      <trkpt lat="47.118" lon="6.13999">
        <ele>518</ele>
        <time>2021-08-23T13:08:06Z</time>
      </trkpt>
      <trkpt lat="47.11816" lon="6.13995">
        <ele>518</ele>
        <time>2021-08-23T13:08:10Z</time>
      </trkpt>
      <trkpt lat="47.11841" lon="6.13996">
        <ele>518.2</ele>
        <time>2021-08-23T13:08:16Z</time>
      </trkpt>
      <trkpt lat="47.11866" lon="6.14006">
        <ele>518.2</ele>
        <time>2021-08-23T13:08:23Z</time>
      </trkpt>
      <trkpt lat="47.11873" lon="6.14008">
        <ele>518.2</ele>
        <time>2021-08-23T13:08:25Z</time>
      </trkpt>
      <trkpt lat="47.11876" lon="6.14009">
        <ele>518.4</ele>
        <time>2021-08-23T13:08:26Z</time>
      </trkpt>
      <trkpt lat="47.11879" lon="6.1401">
        <ele>518.4</ele>
        <time>2021-08-23T13:08:27Z</time>
      </trkpt>
      <trkpt lat="47.11883" lon="6.14011">
        <ele>518.4</ele>
        <time>2021-08-23T13:08:28Z</time>
      </trkpt>
      <trkpt lat="47.11887" lon="6.14012">
        <ele>518.4</ele>
        <time>2021-08-23T13:08:29Z</time>
      </trkpt>
      <trkpt lat="47.11891" lon="6.14012">
        <ele>518.6</ele>
        <time>2021-08-23T13:08:30Z</time>
      </trkpt>
      <trkpt lat="47.11917" lon="6.14015">
        <ele>518.6</ele>
        <time>2021-08-23T13:08:37Z</time>
      </trkpt>
      <trkpt lat="47.11924" lon="6.14018">
        <ele>518.8</ele>
        <time>2021-08-23T13:08:39Z</time>
      </trkpt>
      <trkpt lat="47.11929" lon="6.1402">
        <ele>519</ele>
        <time>2021-08-23T13:08:41Z</time>
      </trkpt>
      <trkpt lat="47.11933" lon="6.14022">
        <ele>519</ele>
        <time>2021-08-23T13:08:42Z</time>
      </trkpt>
      <trkpt lat="47.11936" lon="6.14024">
        <ele>519.2</ele>
        <time>2021-08-23T13:08:43Z</time>
      </trkpt>
      <trkpt lat="47.1194" lon="6.14026">
        <ele>519.2</ele>
        <time>2021-08-23T13:08:44Z</time>
      </trkpt>
      <trkpt lat="47.11944" lon="6.14027">
        <ele>519.2</ele>
        <time>2021-08-23T13:08:45Z</time>
      </trkpt>
      <trkpt lat="47.11946" lon="6.14029">
        <ele>519.4</ele>
        <time>2021-08-23T13:08:46Z</time>
      </trkpt>
      <trkpt lat="47.11949" lon="6.14031">
        <ele>519.6</ele>
        <time>2021-08-23T13:08:47Z</time>
      </trkpt>
      <trkpt lat="47.11953" lon="6.14032">
        <ele>519.6</ele>
        <time>2021-08-23T13:08:48Z</time>
      </trkpt>
      <trkpt lat="47.11956" lon="6.14034">
        <ele>519.8</ele>
        <time>2021-08-23T13:08:49Z</time>
      </trkpt>
      <trkpt lat="47.11959" lon="6.14036">
        <ele>519.8</ele>
        <time>2021-08-23T13:08:50Z</time>
      </trkpt>
      <trkpt lat="47.11962" lon="6.14038">
        <ele>519.8</ele>
        <time>2021-08-23T13:08:51Z</time>
      </trkpt>
      <trkpt lat="47.11977" lon="6.14049">
        <ele>520.2</ele>
        <time>2021-08-23T13:08:56Z</time>
      </trkpt>
      <trkpt lat="47.11994" lon="6.14069">
        <ele>520.8</ele>
        <time>2021-08-23T13:09:02Z</time>
      </trkpt>
      <trkpt lat="47.12" lon="6.14077">
        <ele>520.8</ele>
        <time>2021-08-23T13:09:04Z</time>
      </trkpt>
      <trkpt lat="47.12013" lon="6.14108">
        <ele>521</ele>
        <time>2021-08-23T13:09:11Z</time>
      </trkpt>
      <trkpt lat="47.12015" lon="6.14113">
        <ele>521</ele>
        <time>2021-08-23T13:09:12Z</time>
      </trkpt>
      <trkpt lat="47.12017" lon="6.14118">
        <ele>521</ele>
        <time>2021-08-23T13:09:13Z</time>
      </trkpt>
      <trkpt lat="47.1202" lon="6.14126">
        <ele>521.2</ele>
        <time>2021-08-23T13:09:15Z</time>
      </trkpt>
      <trkpt lat="47.12025" lon="6.14141">
        <ele>521.6</ele>
        <time>2021-08-23T13:09:18Z</time>
      </trkpt>
      <trkpt lat="47.12026" lon="6.14145">
        <ele>521.8</ele>
        <time>2021-08-23T13:09:19Z</time>
      </trkpt>
      <trkpt lat="47.12031" lon="6.14164">
        <ele>522.2</ele>
        <time>2021-08-23T13:09:23Z</time>
      </trkpt>
      <trkpt lat="47.12033" lon="6.14169">
        <ele>522.4</ele>
        <time>2021-08-23T13:09:24Z</time>
      </trkpt>
      <trkpt lat="47.12035" lon="6.14179">
        <ele>522.6</ele>
        <time>2021-08-23T13:09:26Z</time>
      </trkpt>
      <trkpt lat="47.12036" lon="6.14182">
        <ele>523</ele>
        <time>2021-08-23T13:09:27Z</time>
      </trkpt>
      <trkpt lat="47.12038" lon="6.1419">
        <ele>523.4</ele>
        <time>2021-08-23T13:09:29Z</time>
      </trkpt>
      <trkpt lat="47.1204" lon="6.14194">
        <ele>523.6</ele>
        <time>2021-08-23T13:09:30Z</time>
      </trkpt>
      <trkpt lat="47.12041" lon="6.14198">
        <ele>523.8</ele>
        <time>2021-08-23T13:09:31Z</time>
      </trkpt>
      <trkpt lat="47.12042" lon="6.14202">
        <ele>524</ele>
        <time>2021-08-23T13:09:32Z</time>
      </trkpt>
      <trkpt lat="47.12043" lon="6.14205">
        <ele>524.2</ele>
        <time>2021-08-23T13:09:33Z</time>
      </trkpt>
      <trkpt lat="47.12044" lon="6.1421">
        <ele>524.4</ele>
        <time>2021-08-23T13:09:34Z</time>
      </trkpt>
      <trkpt lat="47.12045" lon="6.14214">
        <ele>524.6</ele>
        <time>2021-08-23T13:09:35Z</time>
      </trkpt>
      <trkpt lat="47.12046" lon="6.14217">
        <ele>524.8</ele>
        <time>2021-08-23T13:09:36Z</time>
      </trkpt>
      <trkpt lat="47.12047" lon="6.14221">
        <ele>524.8</ele>
        <time>2021-08-23T13:09:37Z</time>
      </trkpt>
      <trkpt lat="47.12049" lon="6.14225">
        <ele>525</ele>
        <time>2021-08-23T13:09:38Z</time>
      </trkpt>
      <trkpt lat="47.1205" lon="6.14229">
        <ele>525.2</ele>
        <time>2021-08-23T13:09:39Z</time>
      </trkpt>
      <trkpt lat="47.12051" lon="6.14232">
        <ele>525.2</ele>
        <time>2021-08-23T13:09:40Z</time>
      </trkpt>
      <trkpt lat="47.12052" lon="6.14235">
        <ele>525.4</ele>
        <time>2021-08-23T13:09:41Z</time>
      </trkpt>
      <trkpt lat="47.12053" lon="6.14239">
        <ele>525.6</ele>
        <time>2021-08-23T13:09:42Z</time>
      </trkpt>
      <trkpt lat="47.12054" lon="6.14243">
        <ele>525.6</ele>
        <time>2021-08-23T13:09:43Z</time>
      </trkpt>
      <trkpt lat="47.12056" lon="6.14246">
        <ele>525.8</ele>
        <time>2021-08-23T13:09:44Z</time>
      </trkpt>
      <trkpt lat="47.12057" lon="6.14249">
        <ele>526</ele>
        <time>2021-08-23T13:09:45Z</time>
      </trkpt>
      <trkpt lat="47.12058" lon="6.14253">
        <ele>526</ele>
        <time>2021-08-23T13:09:46Z</time>
      </trkpt>
      <trkpt lat="47.12059" lon="6.14258">
        <ele>526.2</ele>
        <time>2021-08-23T13:09:47Z</time>
      </trkpt>
      <trkpt lat="47.1206" lon="6.14261">
        <ele>526.4</ele>
        <time>2021-08-23T13:09:48Z</time>
      </trkpt>
      <trkpt lat="47.12061" lon="6.14265">
        <ele>526.6</ele>
        <time>2021-08-23T13:09:49Z</time>
      </trkpt>
      <trkpt lat="47.12062" lon="6.14268">
        <ele>526.6</ele>
        <time>2021-08-23T13:09:50Z</time>
      </trkpt>
      <trkpt lat="47.12064" lon="6.14272">
        <ele>526.8</ele>
        <time>2021-08-23T13:09:51Z</time>
      </trkpt>
      <trkpt lat="47.12065" lon="6.14276">
        <ele>526.8</ele>
        <time>2021-08-23T13:09:52Z</time>
      </trkpt>
      <trkpt lat="47.12066" lon="6.1428">
        <ele>527</ele>
        <time>2021-08-23T13:09:53Z</time>
      </trkpt>
      <trkpt lat="47.12067" lon="6.14283">
        <ele>527</ele>
        <time>2021-08-23T13:09:54Z</time>
      </trkpt>
      <trkpt lat="47.12068" lon="6.14286">
        <ele>527</ele>
        <time>2021-08-23T13:09:55Z</time>
      </trkpt>
      <trkpt lat="47.1207" lon="6.1429">
        <ele>527.2</ele>
        <time>2021-08-23T13:09:56Z</time>
      </trkpt>
      <trkpt lat="47.12072" lon="6.14294">
        <ele>527.2</ele>
        <time>2021-08-23T13:09:57Z</time>
      </trkpt>
      <trkpt lat="47.12073" lon="6.14297">
        <ele>527.2</ele>
        <time>2021-08-23T13:09:58Z</time>
      </trkpt>
      <trkpt lat="47.12075" lon="6.143">
        <ele>527.2</ele>
        <time>2021-08-23T13:09:59Z</time>
      </trkpt>
      <trkpt lat="47.12077" lon="6.14304">
        <ele>527.4</ele>
        <time>2021-08-23T13:10:00Z</time>
      </trkpt>
      <trkpt lat="47.12078" lon="6.14307">
        <ele>527.6</ele>
        <time>2021-08-23T13:10:01Z</time>
      </trkpt>
      <trkpt lat="47.12081" lon="6.14311">
        <ele>527.8</ele>
        <time>2021-08-23T13:10:02Z</time>
      </trkpt>
      <trkpt lat="47.12082" lon="6.14314">
        <ele>528</ele>
        <time>2021-08-23T13:10:03Z</time>
      </trkpt>
      <trkpt lat="47.12083" lon="6.14316">
        <ele>528</ele>
        <time>2021-08-23T13:10:04Z</time>
      </trkpt>
      <trkpt lat="47.12085" lon="6.1432">
        <ele>528.2</ele>
        <time>2021-08-23T13:10:05Z</time>
      </trkpt>
      <trkpt lat="47.12088" lon="6.14323">
        <ele>528.4</ele>
        <time>2021-08-23T13:10:06Z</time>
      </trkpt>
      <trkpt lat="47.1209" lon="6.14327">
        <ele>528.6</ele>
        <time>2021-08-23T13:10:07Z</time>
      </trkpt>
      <trkpt lat="47.12091" lon="6.14329">
        <ele>528.6</ele>
        <time>2021-08-23T13:10:08Z</time>
      </trkpt>
      <trkpt lat="47.12093" lon="6.14332">
        <ele>528.8</ele>
        <time>2021-08-23T13:10:09Z</time>
      </trkpt>
      <trkpt lat="47.12096" lon="6.14335">
        <ele>529</ele>
        <time>2021-08-23T13:10:10Z</time>
      </trkpt>
      <trkpt lat="47.12099" lon="6.14339">
        <ele>529.2</ele>
        <time>2021-08-23T13:10:11Z</time>
      </trkpt>
      <trkpt lat="47.12101" lon="6.14342">
        <ele>529.2</ele>
        <time>2021-08-23T13:10:12Z</time>
      </trkpt>
      <trkpt lat="47.12103" lon="6.14344">
        <ele>529.4</ele>
        <time>2021-08-23T13:10:13Z</time>
      </trkpt>
      <trkpt lat="47.12105" lon="6.14347">
        <ele>529.6</ele>
        <time>2021-08-23T13:10:14Z</time>
      </trkpt>
      <trkpt lat="47.12107" lon="6.1435">
        <ele>529.6</ele>
        <time>2021-08-23T13:10:15Z</time>
      </trkpt>
      <trkpt lat="47.1211" lon="6.14353">
        <ele>529.8</ele>
        <time>2021-08-23T13:10:16Z</time>
      </trkpt>
      <trkpt lat="47.12113" lon="6.14356">
        <ele>529.8</ele>
        <time>2021-08-23T13:10:17Z</time>
      </trkpt>
      <trkpt lat="47.12115" lon="6.14359">
        <ele>529.8</ele>
        <time>2021-08-23T13:10:18Z</time>
      </trkpt>
      <trkpt lat="47.12118" lon="6.14363">
        <ele>529.8</ele>
        <time>2021-08-23T13:10:19Z</time>
      </trkpt>
      <trkpt lat="47.1212" lon="6.14365">
        <ele>530</ele>
        <time>2021-08-23T13:10:20Z</time>
      </trkpt>
      <trkpt lat="47.12124" lon="6.14369">
        <ele>530</ele>
        <time>2021-08-23T13:10:21Z</time>
      </trkpt>
      <trkpt lat="47.12125" lon="6.14372">
        <ele>530</ele>
        <time>2021-08-23T13:10:22Z</time>
      </trkpt>
      <trkpt lat="47.12128" lon="6.14375">
        <ele>530</ele>
        <time>2021-08-23T13:10:23Z</time>
      </trkpt>
      <trkpt lat="47.12131" lon="6.14379">
        <ele>530</ele>
        <time>2021-08-23T13:10:24Z</time>
      </trkpt>
      <trkpt lat="47.12134" lon="6.14383">
        <ele>530</ele>
        <time>2021-08-23T13:10:25Z</time>
      </trkpt>
      <trkpt lat="47.12136" lon="6.14386">
        <ele>530</ele>
        <time>2021-08-23T13:10:26Z</time>
      </trkpt>
      <trkpt lat="47.12138" lon="6.14389">
        <ele>530</ele>
        <time>2021-08-23T13:10:27Z</time>
      </trkpt>
      <trkpt lat="47.12141" lon="6.14393">
        <ele>530</ele>
        <time>2021-08-23T13:10:28Z</time>
      </trkpt>
      <trkpt lat="47.12143" lon="6.14395">
        <ele>530</ele>
        <time>2021-08-23T13:10:29Z</time>
      </trkpt>
      <trkpt lat="47.12145" lon="6.14397">
        <ele>530</ele>
        <time>2021-08-23T13:10:30Z</time>
      </trkpt>
      <trkpt lat="47.12164" lon="6.14423">
        <ele>530</ele>
        <time>2021-08-23T13:10:37Z</time>
      </trkpt>
      <trkpt lat="47.12169" lon="6.14432">
        <ele>530</ele>
        <time>2021-08-23T13:10:39Z</time>
      </trkpt>
      <trkpt lat="47.12192" lon="6.14476">
        <ele>529.8</ele>
        <time>2021-08-23T13:10:48Z</time>
      </trkpt>
      <trkpt lat="47.12196" lon="6.14483">
        <ele>529.8</ele>
        <time>2021-08-23T13:10:50Z</time>
      </trkpt>
      <trkpt lat="47.12198" lon="6.14487">
        <ele>529.8</ele>
        <time>2021-08-23T13:10:51Z</time>
      </trkpt>
      <trkpt lat="47.122" lon="6.14491">
        <ele>530</ele>
        <time>2021-08-23T13:10:52Z</time>
      </trkpt>
      <trkpt lat="47.12203" lon="6.14495">
        <ele>529.8</ele>
        <time>2021-08-23T13:10:53Z</time>
      </trkpt>
      <trkpt lat="47.12205" lon="6.14499">
        <ele>530</ele>
        <time>2021-08-23T13:10:54Z</time>
      </trkpt>
      <trkpt lat="47.12207" lon="6.14504">
        <ele>530.2</ele>
        <time>2021-08-23T13:10:55Z</time>
      </trkpt>
      <trkpt lat="47.1221" lon="6.14509">
        <ele>530.2</ele>
        <time>2021-08-23T13:10:56Z</time>
      </trkpt>
      <trkpt lat="47.12212" lon="6.14513">
        <ele>530.2</ele>
        <time>2021-08-23T13:10:57Z</time>
      </trkpt>
      <trkpt lat="47.12233" lon="6.14554">
        <ele>530</ele>
        <time>2021-08-23T13:11:05Z</time>
      </trkpt>
      <trkpt lat="47.12252" lon="6.14589">
        <ele>530</ele>
        <time>2021-08-23T13:11:12Z</time>
      </trkpt>
      <trkpt lat="47.12254" lon="6.14594">
        <ele>530</ele>
        <time>2021-08-23T13:11:13Z</time>
      </trkpt>
      <trkpt lat="47.12257" lon="6.14599">
        <ele>530.2</ele>
        <time>2021-08-23T13:11:14Z</time>
      </trkpt>
      <trkpt lat="47.12259" lon="6.14604">
        <ele>530.4</ele>
        <time>2021-08-23T13:11:15Z</time>
      </trkpt>
      <trkpt lat="47.12262" lon="6.14608">
        <ele>530.4</ele>
        <time>2021-08-23T13:11:16Z</time>
      </trkpt>
      <trkpt lat="47.12264" lon="6.14613">
        <ele>530.6</ele>
        <time>2021-08-23T13:11:17Z</time>
      </trkpt>
      <trkpt lat="47.12267" lon="6.14617">
        <ele>530.6</ele>
        <time>2021-08-23T13:11:18Z</time>
      </trkpt>
      <trkpt lat="47.12269" lon="6.14621">
        <ele>530.8</ele>
        <time>2021-08-23T13:11:19Z</time>
      </trkpt>
      <trkpt lat="47.12271" lon="6.14625">
        <ele>531.2</ele>
        <time>2021-08-23T13:11:20Z</time>
      </trkpt>
      <trkpt lat="47.12273" lon="6.14629">
        <ele>531.4</ele>
        <time>2021-08-23T13:11:21Z</time>
      </trkpt>
      <trkpt lat="47.12275" lon="6.14633">
        <ele>531.6</ele>
        <time>2021-08-23T13:11:22Z</time>
      </trkpt>
      <trkpt lat="47.12278" lon="6.14637">
        <ele>531.8</ele>
        <time>2021-08-23T13:11:23Z</time>
      </trkpt>
      <trkpt lat="47.1228" lon="6.14641">
        <ele>532.2</ele>
        <time>2021-08-23T13:11:24Z</time>
      </trkpt>
      <trkpt lat="47.12282" lon="6.14646">
        <ele>532.2</ele>
        <time>2021-08-23T13:11:25Z</time>
      </trkpt>
      <trkpt lat="47.12284" lon="6.1465">
        <ele>532.4</ele>
        <time>2021-08-23T13:11:26Z</time>
      </trkpt>
      <trkpt lat="47.12291" lon="6.14663">
        <ele>533</ele>
        <time>2021-08-23T13:11:29Z</time>
      </trkpt>
      <trkpt lat="47.12295" lon="6.14671">
        <ele>533.4</ele>
        <time>2021-08-23T13:11:31Z</time>
      </trkpt>
      <trkpt lat="47.12297" lon="6.14675">
        <ele>533.6</ele>
        <time>2021-08-23T13:11:32Z</time>
      </trkpt>
      <trkpt lat="47.12299" lon="6.14679">
        <ele>533.8</ele>
        <time>2021-08-23T13:11:33Z</time>
      </trkpt>
      <trkpt lat="47.12301" lon="6.14682">
        <ele>534</ele>
        <time>2021-08-23T13:11:34Z</time>
      </trkpt>
      <trkpt lat="47.12303" lon="6.14686">
        <ele>534</ele>
        <time>2021-08-23T13:11:35Z</time>
      </trkpt>
      <trkpt lat="47.12305" lon="6.1469">
        <ele>534.4</ele>
        <time>2021-08-23T13:11:36Z</time>
      </trkpt>
      <trkpt lat="47.12307" lon="6.14693">
        <ele>534.6</ele>
        <time>2021-08-23T13:11:37Z</time>
      </trkpt>
      <trkpt lat="47.12309" lon="6.14696">
        <ele>535</ele>
        <time>2021-08-23T13:11:38Z</time>
      </trkpt>
      <trkpt lat="47.12311" lon="6.147">
        <ele>535.2</ele>
        <time>2021-08-23T13:11:39Z</time>
      </trkpt>
      <trkpt lat="47.12313" lon="6.14703">
        <ele>535.8</ele>
        <time>2021-08-23T13:11:40Z</time>
      </trkpt>
      <trkpt lat="47.12314" lon="6.14706">
        <ele>535.8</ele>
        <time>2021-08-23T13:11:41Z</time>
      </trkpt>
      <trkpt lat="47.12316" lon="6.14709">
        <ele>536.2</ele>
        <time>2021-08-23T13:11:42Z</time>
      </trkpt>
      <trkpt lat="47.12317" lon="6.14711">
        <ele>536.2</ele>
        <time>2021-08-23T13:11:43Z</time>
      </trkpt>
      <trkpt lat="47.12318" lon="6.14714">
        <ele>536.6</ele>
        <time>2021-08-23T13:11:44Z</time>
      </trkpt>
      <trkpt lat="47.12319" lon="6.14717">
        <ele>536.8</ele>
        <time>2021-08-23T13:11:45Z</time>
      </trkpt>
      <trkpt lat="47.12321" lon="6.1472">
        <ele>537</ele>
        <time>2021-08-23T13:11:46Z</time>
      </trkpt>
      <trkpt lat="47.12322" lon="6.14723">
        <ele>537.2</ele>
        <time>2021-08-23T13:11:47Z</time>
      </trkpt>
      <trkpt lat="47.12324" lon="6.14726">
        <ele>537.4</ele>
        <time>2021-08-23T13:11:48Z</time>
      </trkpt>
      <trkpt lat="47.12325" lon="6.1473">
        <ele>537.6</ele>
        <time>2021-08-23T13:11:49Z</time>
      </trkpt>
      <trkpt lat="47.12326" lon="6.14734">
        <ele>537.8</ele>
        <time>2021-08-23T13:11:50Z</time>
      </trkpt>
      <trkpt lat="47.12327" lon="6.14738">
        <ele>537.8</ele>
        <time>2021-08-23T13:11:51Z</time>
      </trkpt>
      <trkpt lat="47.12328" lon="6.14742">
        <ele>538</ele>
        <time>2021-08-23T13:11:52Z</time>
      </trkpt>
      <trkpt lat="47.12329" lon="6.14747">
        <ele>538.2</ele>
        <time>2021-08-23T13:11:53Z</time>
      </trkpt>
      <trkpt lat="47.1233" lon="6.14751">
        <ele>538.2</ele>
        <time>2021-08-23T13:11:54Z</time>
      </trkpt>
      <trkpt lat="47.1233" lon="6.14755">
        <ele>538.4</ele>
        <time>2021-08-23T13:11:55Z</time>
      </trkpt>
      <trkpt lat="47.12331" lon="6.1476">
        <ele>538.6</ele>
        <time>2021-08-23T13:11:56Z</time>
      </trkpt>
      <trkpt lat="47.12332" lon="6.14764">
        <ele>538.6</ele>
        <time>2021-08-23T13:11:57Z</time>
      </trkpt>
      <trkpt lat="47.12333" lon="6.14769">
        <ele>538.6</ele>
        <time>2021-08-23T13:11:58Z</time>
      </trkpt>
      <trkpt lat="47.12333" lon="6.14774">
        <ele>538.8</ele>
        <time>2021-08-23T13:11:59Z</time>
      </trkpt>
      <trkpt lat="47.12333" lon="6.14779">
        <ele>538.8</ele>
        <time>2021-08-23T13:12:00Z</time>
      </trkpt>
      <trkpt lat="47.12334" lon="6.14784">
        <ele>538.8</ele>
        <time>2021-08-23T13:12:01Z</time>
      </trkpt>
      <trkpt lat="47.12334" lon="6.14789">
        <ele>538.8</ele>
        <time>2021-08-23T13:12:02Z</time>
      </trkpt>
      <trkpt lat="47.12334" lon="6.14794">
        <ele>538.8</ele>
        <time>2021-08-23T13:12:03Z</time>
      </trkpt>
      <trkpt lat="47.12335" lon="6.14799">
        <ele>539</ele>
        <time>2021-08-23T13:12:04Z</time>
      </trkpt>
      <trkpt lat="47.12336" lon="6.14804">
        <ele>539</ele>
        <time>2021-08-23T13:12:05Z</time>
      </trkpt>
      <trkpt lat="47.12336" lon="6.14808">
        <ele>539</ele>
        <time>2021-08-23T13:12:06Z</time>
      </trkpt>
      <trkpt lat="47.12337" lon="6.14813">
        <ele>539</ele>
        <time>2021-08-23T13:12:07Z</time>
      </trkpt>
      <trkpt lat="47.12337" lon="6.14818">
        <ele>539.2</ele>
        <time>2021-08-23T13:12:08Z</time>
      </trkpt>
      <trkpt lat="47.12338" lon="6.14822">
        <ele>539.2</ele>
        <time>2021-08-23T13:12:09Z</time>
      </trkpt>
      <trkpt lat="47.12338" lon="6.14826">
        <ele>539.4</ele>
        <time>2021-08-23T13:12:10Z</time>
      </trkpt>
      <trkpt lat="47.12338" lon="6.14831">
        <ele>539.4</ele>
        <time>2021-08-23T13:12:11Z</time>
      </trkpt>
      <trkpt lat="47.12339" lon="6.14835">
        <ele>539.6</ele>
        <time>2021-08-23T13:12:12Z</time>
      </trkpt>
      <trkpt lat="47.12339" lon="6.14839">
        <ele>539.6</ele>
        <time>2021-08-23T13:12:13Z</time>
      </trkpt>
      <trkpt lat="47.1234" lon="6.14842">
        <ele>539.8</ele>
        <time>2021-08-23T13:12:14Z</time>
      </trkpt>
      <trkpt lat="47.12341" lon="6.14846">
        <ele>539.8</ele>
        <time>2021-08-23T13:12:15Z</time>
      </trkpt>
      <trkpt lat="47.12342" lon="6.1485">
        <ele>540.2</ele>
        <time>2021-08-23T13:12:16Z</time>
      </trkpt>
      <trkpt lat="47.12342" lon="6.14855">
        <ele>540.4</ele>
        <time>2021-08-23T13:12:17Z</time>
      </trkpt>
      <trkpt lat="47.12343" lon="6.14859">
        <ele>540.6</ele>
        <time>2021-08-23T13:12:18Z</time>
      </trkpt>
      <trkpt lat="47.12344" lon="6.14863">
        <ele>540.8</ele>
        <time>2021-08-23T13:12:19Z</time>
      </trkpt>
      <trkpt lat="47.12345" lon="6.14867">
        <ele>541</ele>
        <time>2021-08-23T13:12:20Z</time>
      </trkpt>
      <trkpt lat="47.12346" lon="6.14871">
        <ele>541.2</ele>
        <time>2021-08-23T13:12:21Z</time>
      </trkpt>
      <trkpt lat="47.12346" lon="6.14876">
        <ele>541.4</ele>
        <time>2021-08-23T13:12:22Z</time>
      </trkpt>
      <trkpt lat="47.12347" lon="6.1488">
        <ele>541.4</ele>
        <time>2021-08-23T13:12:23Z</time>
      </trkpt>
      <trkpt lat="47.12348" lon="6.14885">
        <ele>541.6</ele>
        <time>2021-08-23T13:12:24Z</time>
      </trkpt>
      <trkpt lat="47.12349" lon="6.1489">
        <ele>541.6</ele>
        <time>2021-08-23T13:12:25Z</time>
      </trkpt>
      <trkpt lat="47.1235" lon="6.14894">
        <ele>541.6</ele>
        <time>2021-08-23T13:12:26Z</time>
      </trkpt>
      <trkpt lat="47.12351" lon="6.14899">
        <ele>541.8</ele>
        <time>2021-08-23T13:12:27Z</time>
      </trkpt>
      <trkpt lat="47.12351" lon="6.14904">
        <ele>541.8</ele>
        <time>2021-08-23T13:12:28Z</time>
      </trkpt>
      <trkpt lat="47.12352" lon="6.14909">
        <ele>541.8</ele>
        <time>2021-08-23T13:12:29Z</time>
      </trkpt>
      <trkpt lat="47.12353" lon="6.14914">
        <ele>542</ele>
        <time>2021-08-23T13:12:30Z</time>
      </trkpt>
      <trkpt lat="47.12354" lon="6.14919">
        <ele>542</ele>
        <time>2021-08-23T13:12:31Z</time>
      </trkpt>
      <trkpt lat="47.12355" lon="6.14924">
        <ele>542</ele>
        <time>2021-08-23T13:12:32Z</time>
      </trkpt>
      <trkpt lat="47.12355" lon="6.1493">
        <ele>542.2</ele>
        <time>2021-08-23T13:12:33Z</time>
      </trkpt>
      <trkpt lat="47.12356" lon="6.14935">
        <ele>542.2</ele>
        <time>2021-08-23T13:12:34Z</time>
      </trkpt>
      <trkpt lat="47.12357" lon="6.14942">
        <ele>542.4</ele>
        <time>2021-08-23T13:12:35Z</time>
      </trkpt>
      <trkpt lat="47.12357" lon="6.14946">
        <ele>542.4</ele>
        <time>2021-08-23T13:12:36Z</time>
      </trkpt>
      <trkpt lat="47.12357" lon="6.14952">
        <ele>542.4</ele>
        <time>2021-08-23T13:12:37Z</time>
      </trkpt>
      <trkpt lat="47.12357" lon="6.14958">
        <ele>542.4</ele>
        <time>2021-08-23T13:12:38Z</time>
      </trkpt>
      <trkpt lat="47.12357" lon="6.14965">
        <ele>542.4</ele>
        <time>2021-08-23T13:12:39Z</time>
      </trkpt>
      <trkpt lat="47.12357" lon="6.14971">
        <ele>542.4</ele>
        <time>2021-08-23T13:12:40Z</time>
      </trkpt>
      <trkpt lat="47.12357" lon="6.14978">
        <ele>542.4</ele>
        <time>2021-08-23T13:12:41Z</time>
      </trkpt>
      <trkpt lat="47.12358" lon="6.14998">
        <ele>542.6</ele>
        <time>2021-08-23T13:12:44Z</time>
      </trkpt>
      <trkpt lat="47.12355" lon="6.15055">
        <ele>542.4</ele>
        <time>2021-08-23T13:12:52Z</time>
      </trkpt>
      <trkpt lat="47.12342" lon="6.15106">
        <ele>542.8</ele>
        <time>2021-08-23T13:13:00Z</time>
      </trkpt>
      <trkpt lat="47.12339" lon="6.15113">
        <ele>542.8</ele>
        <time>2021-08-23T13:13:01Z</time>
      </trkpt>
      <trkpt lat="47.1233" lon="6.15136">
        <ele>543.4</ele>
        <time>2021-08-23T13:13:05Z</time>
      </trkpt>
      <trkpt lat="47.12327" lon="6.15141">
        <ele>543.4</ele>
        <time>2021-08-23T13:13:06Z</time>
      </trkpt>
      <trkpt lat="47.12324" lon="6.15147">
        <ele>543.6</ele>
        <time>2021-08-23T13:13:07Z</time>
      </trkpt>
      <trkpt lat="47.12321" lon="6.15152">
        <ele>543.6</ele>
        <time>2021-08-23T13:13:08Z</time>
      </trkpt>
      <trkpt lat="47.12316" lon="6.1516">
        <ele>544</ele>
        <time>2021-08-23T13:13:10Z</time>
      </trkpt>
      <trkpt lat="47.12312" lon="6.15164">
        <ele>544.2</ele>
        <time>2021-08-23T13:13:11Z</time>
      </trkpt>
      <trkpt lat="47.1231" lon="6.15167">
        <ele>544.4</ele>
        <time>2021-08-23T13:13:12Z</time>
      </trkpt>
      <trkpt lat="47.12308" lon="6.1517">
        <ele>544.6</ele>
        <time>2021-08-23T13:13:13Z</time>
      </trkpt>
      <trkpt lat="47.12306" lon="6.15173">
        <ele>544.8</ele>
        <time>2021-08-23T13:13:14Z</time>
      </trkpt>
      <trkpt lat="47.12304" lon="6.15176">
        <ele>545</ele>
        <time>2021-08-23T13:13:15Z</time>
      </trkpt>
      <trkpt lat="47.12302" lon="6.15179">
        <ele>545.2</ele>
        <time>2021-08-23T13:13:16Z</time>
      </trkpt>
      <trkpt lat="47.12299" lon="6.15189">
        <ele>546</ele>
        <time>2021-08-23T13:13:19Z</time>
      </trkpt>
      <trkpt lat="47.12297" lon="6.15193">
        <ele>546.2</ele>
        <time>2021-08-23T13:13:20Z</time>
      </trkpt>
      <trkpt lat="47.12296" lon="6.15197">
        <ele>546.4</ele>
        <time>2021-08-23T13:13:21Z</time>
      </trkpt>
      <trkpt lat="47.12296" lon="6.15201">
        <ele>546.8</ele>
        <time>2021-08-23T13:13:22Z</time>
      </trkpt>
      <trkpt lat="47.12296" lon="6.15205">
        <ele>547</ele>
        <time>2021-08-23T13:13:23Z</time>
      </trkpt>
      <trkpt lat="47.12295" lon="6.1521">
        <ele>547.2</ele>
        <time>2021-08-23T13:13:24Z</time>
      </trkpt>
      <trkpt lat="47.12296" lon="6.15215">
        <ele>547.6</ele>
        <time>2021-08-23T13:13:25Z</time>
      </trkpt>
      <trkpt lat="47.12296" lon="6.15219">
        <ele>547.8</ele>
        <time>2021-08-23T13:13:26Z</time>
      </trkpt>
      <trkpt lat="47.12297" lon="6.15223">
        <ele>548</ele>
        <time>2021-08-23T13:13:27Z</time>
      </trkpt>
      <trkpt lat="47.12298" lon="6.15228">
        <ele>548.2</ele>
        <time>2021-08-23T13:13:28Z</time>
      </trkpt>
      <trkpt lat="47.12298" lon="6.15232">
        <ele>548.4</ele>
        <time>2021-08-23T13:13:29Z</time>
      </trkpt>
      <trkpt lat="47.12299" lon="6.15237">
        <ele>548.4</ele>
        <time>2021-08-23T13:13:30Z</time>
      </trkpt>
      <trkpt lat="47.123" lon="6.15241">
        <ele>548.4</ele>
        <time>2021-08-23T13:13:31Z</time>
      </trkpt>
      <trkpt lat="47.12301" lon="6.15245">
        <ele>548.4</ele>
        <time>2021-08-23T13:13:32Z</time>
      </trkpt>
      <trkpt lat="47.12301" lon="6.1525">
        <ele>548.4</ele>
        <time>2021-08-23T13:13:33Z</time>
      </trkpt>
      <trkpt lat="47.12302" lon="6.15254">
        <ele>548.6</ele>
        <time>2021-08-23T13:13:34Z</time>
      </trkpt>
      <trkpt lat="47.12302" lon="6.1526">
        <ele>548.6</ele>
        <time>2021-08-23T13:13:35Z</time>
      </trkpt>
      <trkpt lat="47.12303" lon="6.15264">
        <ele>548.6</ele>
        <time>2021-08-23T13:13:36Z</time>
      </trkpt>
      <trkpt lat="47.12303" lon="6.15268">
        <ele>548.6</ele>
        <time>2021-08-23T13:13:37Z</time>
      </trkpt>
      <trkpt lat="47.12303" lon="6.15273">
        <ele>548.8</ele>
        <time>2021-08-23T13:13:38Z</time>
      </trkpt>
      <trkpt lat="47.12304" lon="6.15278">
        <ele>548.8</ele>
        <time>2021-08-23T13:13:39Z</time>
      </trkpt>
      <trkpt lat="47.12304" lon="6.15284">
        <ele>548.8</ele>
        <time>2021-08-23T13:13:40Z</time>
      </trkpt>
      <trkpt lat="47.12304" lon="6.15288">
        <ele>548.8</ele>
        <time>2021-08-23T13:13:41Z</time>
      </trkpt>
      <trkpt lat="47.12305" lon="6.15293">
        <ele>549</ele>
        <time>2021-08-23T13:13:42Z</time>
      </trkpt>
      <trkpt lat="47.12305" lon="6.15299">
        <ele>549</ele>
        <time>2021-08-23T13:13:43Z</time>
      </trkpt>
      <trkpt lat="47.12305" lon="6.15304">
        <ele>549.2</ele>
        <time>2021-08-23T13:13:44Z</time>
      </trkpt>
      <trkpt lat="47.12306" lon="6.15309">
        <ele>549.4</ele>
        <time>2021-08-23T13:13:45Z</time>
      </trkpt>
      <trkpt lat="47.12306" lon="6.15313">
        <ele>549.6</ele>
        <time>2021-08-23T13:13:46Z</time>
      </trkpt>
      <trkpt lat="47.12307" lon="6.15318">
        <ele>549.8</ele>
        <time>2021-08-23T13:13:47Z</time>
      </trkpt>
      <trkpt lat="47.12308" lon="6.15325">
        <ele>549.8</ele>
        <time>2021-08-23T13:13:48Z</time>
      </trkpt>
      <trkpt lat="47.12308" lon="6.1533">
        <ele>550</ele>
        <time>2021-08-23T13:13:49Z</time>
      </trkpt>
      <trkpt lat="47.12309" lon="6.15336">
        <ele>550.2</ele>
        <time>2021-08-23T13:13:50Z</time>
      </trkpt>
      <trkpt lat="47.12309" lon="6.1534">
        <ele>550.4</ele>
        <time>2021-08-23T13:13:51Z</time>
      </trkpt>
      <trkpt lat="47.12309" lon="6.15347">
        <ele>550.6</ele>
        <time>2021-08-23T13:13:52Z</time>
      </trkpt>
      <trkpt lat="47.12309" lon="6.15351">
        <ele>550.8</ele>
        <time>2021-08-23T13:13:53Z</time>
      </trkpt>
      <trkpt lat="47.12309" lon="6.15358">
        <ele>551</ele>
        <time>2021-08-23T13:13:54Z</time>
      </trkpt>
      <trkpt lat="47.12309" lon="6.15363">
        <ele>551</ele>
        <time>2021-08-23T13:13:55Z</time>
      </trkpt>
      <trkpt lat="47.12309" lon="6.15368">
        <ele>551.2</ele>
        <time>2021-08-23T13:13:56Z</time>
      </trkpt>
      <trkpt lat="47.12309" lon="6.15375">
        <ele>551.2</ele>
        <time>2021-08-23T13:13:57Z</time>
      </trkpt>
      <trkpt lat="47.12308" lon="6.15381">
        <ele>551.2</ele>
        <time>2021-08-23T13:13:58Z</time>
      </trkpt>
      <trkpt lat="47.12308" lon="6.15385">
        <ele>551.2</ele>
        <time>2021-08-23T13:13:59Z</time>
      </trkpt>
      <trkpt lat="47.12308" lon="6.15392">
        <ele>551.2</ele>
        <time>2021-08-23T13:14:00Z</time>
      </trkpt>
      <trkpt lat="47.12308" lon="6.15398">
        <ele>551.2</ele>
        <time>2021-08-23T13:14:01Z</time>
      </trkpt>
      <trkpt lat="47.12307" lon="6.15405">
        <ele>551.2</ele>
        <time>2021-08-23T13:14:02Z</time>
      </trkpt>
      <trkpt lat="47.12306" lon="6.15412">
        <ele>551.2</ele>
        <time>2021-08-23T13:14:03Z</time>
      </trkpt>
      <trkpt lat="47.12305" lon="6.1542">
        <ele>551.2</ele>
        <time>2021-08-23T13:14:04Z</time>
      </trkpt>
      <trkpt lat="47.12304" lon="6.15428">
        <ele>551.2</ele>
        <time>2021-08-23T13:14:05Z</time>
      </trkpt>
      <trkpt lat="47.12304" lon="6.15439">
        <ele>551</ele>
        <time>2021-08-23T13:14:06Z</time>
      </trkpt>
      <trkpt lat="47.12303" lon="6.15448">
        <ele>550.8</ele>
        <time>2021-08-23T13:14:07Z</time>
      </trkpt>
      <trkpt lat="47.123" lon="6.15488">
        <ele>550</ele>
        <time>2021-08-23T13:14:11Z</time>
      </trkpt>
      <trkpt lat="47.12299" lon="6.15499">
        <ele>549.4</ele>
        <time>2021-08-23T13:14:12Z</time>
      </trkpt>
      <trkpt lat="47.12297" lon="6.15519">
        <ele>548.4</ele>
        <time>2021-08-23T13:14:14Z</time>
      </trkpt>
      <trkpt lat="47.12297" lon="6.1553">
        <ele>548</ele>
        <time>2021-08-23T13:14:15Z</time>
      </trkpt>
      <trkpt lat="47.12299" lon="6.15555">
        <ele>547</ele>
        <time>2021-08-23T13:14:17Z</time>
      </trkpt>
      <trkpt lat="47.12305" lon="6.15585">
        <ele>545.8</ele>
        <time>2021-08-23T13:14:20Z</time>
      </trkpt>
      <trkpt lat="47.12307" lon="6.15594">
        <ele>545.4</ele>
        <time>2021-08-23T13:14:21Z</time>
      </trkpt>
      <trkpt lat="47.12309" lon="6.15601">
        <ele>545.4</ele>
        <time>2021-08-23T13:14:22Z</time>
      </trkpt>
      <trkpt lat="47.1231" lon="6.15607">
        <ele>545.2</ele>
        <time>2021-08-23T13:14:23Z</time>
      </trkpt>
      <trkpt lat="47.12311" lon="6.15614">
        <ele>545</ele>
        <time>2021-08-23T13:14:24Z</time>
      </trkpt>
      <trkpt lat="47.12313" lon="6.15623">
        <ele>545</ele>
        <time>2021-08-23T13:14:25Z</time>
      </trkpt>
      <trkpt lat="47.12314" lon="6.1563">
        <ele>545</ele>
        <time>2021-08-23T13:14:26Z</time>
      </trkpt>
      <trkpt lat="47.12317" lon="6.15643">
        <ele>545</ele>
        <time>2021-08-23T13:14:28Z</time>
      </trkpt>
      <trkpt lat="47.1232" lon="6.15657">
        <ele>545</ele>
        <time>2021-08-23T13:14:30Z</time>
      </trkpt>
      <trkpt lat="47.12322" lon="6.15663">
        <ele>545</ele>
        <time>2021-08-23T13:14:31Z</time>
      </trkpt>
      <trkpt lat="47.12324" lon="6.1567">
        <ele>545</ele>
        <time>2021-08-23T13:14:32Z</time>
      </trkpt>
      <trkpt lat="47.12325" lon="6.15676">
        <ele>545</ele>
        <time>2021-08-23T13:14:33Z</time>
      </trkpt>
      <trkpt lat="47.12327" lon="6.15683">
        <ele>545</ele>
        <time>2021-08-23T13:14:34Z</time>
      </trkpt>
      <trkpt lat="47.1233" lon="6.1569">
        <ele>545.2</ele>
        <time>2021-08-23T13:14:35Z</time>
      </trkpt>
      <trkpt lat="47.12331" lon="6.15695">
        <ele>545.2</ele>
        <time>2021-08-23T13:14:36Z</time>
      </trkpt>
      <trkpt lat="47.12333" lon="6.15702">
        <ele>545.2</ele>
        <time>2021-08-23T13:14:37Z</time>
      </trkpt>
      <trkpt lat="47.12335" lon="6.15709">
        <ele>545.2</ele>
        <time>2021-08-23T13:14:38Z</time>
      </trkpt>
      <trkpt lat="47.12337" lon="6.15715">
        <ele>545.4</ele>
        <time>2021-08-23T13:14:39Z</time>
      </trkpt>
      <trkpt lat="47.1234" lon="6.15726">
        <ele>545.6</ele>
        <time>2021-08-23T13:14:41Z</time>
      </trkpt>
      <trkpt lat="47.12341" lon="6.15732">
        <ele>545.6</ele>
        <time>2021-08-23T13:14:42Z</time>
      </trkpt>
      <trkpt lat="47.12354" lon="6.15769">
        <ele>546.4</ele>
        <time>2021-08-23T13:14:48Z</time>
      </trkpt>
      <trkpt lat="47.1236" lon="6.15786">
        <ele>547</ele>
        <time>2021-08-23T13:14:51Z</time>
      </trkpt>
      <trkpt lat="47.1237" lon="6.1582">
        <ele>547.6</ele>
        <time>2021-08-23T13:14:57Z</time>
      </trkpt>
      <trkpt lat="47.12373" lon="6.15827">
        <ele>547.8</ele>
        <time>2021-08-23T13:14:58Z</time>
      </trkpt>
      <trkpt lat="47.12374" lon="6.15831">
        <ele>547.8</ele>
        <time>2021-08-23T13:14:59Z</time>
      </trkpt>
      <trkpt lat="47.12376" lon="6.15837">
        <ele>547.8</ele>
        <time>2021-08-23T13:15:00Z</time>
      </trkpt>
      <trkpt lat="47.12383" lon="6.15855">
        <ele>548.2</ele>
        <time>2021-08-23T13:15:03Z</time>
      </trkpt>
      <trkpt lat="47.1239" lon="6.15878">
        <ele>548.6</ele>
        <time>2021-08-23T13:15:07Z</time>
      </trkpt>
      <trkpt lat="47.1241" lon="6.15932">
        <ele>548.8</ele>
        <time>2021-08-23T13:15:16Z</time>
      </trkpt>
      <trkpt lat="47.12425" lon="6.15985">
        <ele>548</ele>
        <time>2021-08-23T13:15:24Z</time>
      </trkpt>
      <trkpt lat="47.1243" lon="6.16015">
        <ele>547.6</ele>
        <time>2021-08-23T13:15:28Z</time>
      </trkpt>
      <trkpt lat="47.12429" lon="6.16031">
        <ele>547.2</ele>
        <time>2021-08-23T13:15:30Z</time>
      </trkpt>
      <trkpt lat="47.12426" lon="6.16046">
        <ele>546.8</ele>
        <time>2021-08-23T13:15:32Z</time>
      </trkpt>
      <trkpt lat="47.12417" lon="6.16084">
        <ele>546</ele>
        <time>2021-08-23T13:15:36Z</time>
      </trkpt>
      <trkpt lat="47.12413" lon="6.16104">
        <ele>545.6</ele>
        <time>2021-08-23T13:15:38Z</time>
      </trkpt>
      <trkpt lat="47.12409" lon="6.16126">
        <ele>544.6</ele>
        <time>2021-08-23T13:15:40Z</time>
      </trkpt>
      <trkpt lat="47.12404" lon="6.16151">
        <ele>543.6</ele>
        <time>2021-08-23T13:15:42Z</time>
      </trkpt>
      <trkpt lat="47.12401" lon="6.16164">
        <ele>543</ele>
        <time>2021-08-23T13:15:43Z</time>
      </trkpt>
      <trkpt lat="47.12397" lon="6.16188">
        <ele>542</ele>
        <time>2021-08-23T13:15:45Z</time>
      </trkpt>
      <trkpt lat="47.1239" lon="6.16211">
        <ele>541</ele>
        <time>2021-08-23T13:15:47Z</time>
      </trkpt>
      <trkpt lat="47.12386" lon="6.16222">
        <ele>540.4</ele>
        <time>2021-08-23T13:15:48Z</time>
      </trkpt>
      <trkpt lat="47.12382" lon="6.16233">
        <ele>540.2</ele>
        <time>2021-08-23T13:15:49Z</time>
      </trkpt>
      <trkpt lat="47.12364" lon="6.16278">
        <ele>539.2</ele>
        <time>2021-08-23T13:15:53Z</time>
      </trkpt>
      <trkpt lat="47.12356" lon="6.163">
        <ele>538</ele>
        <time>2021-08-23T13:15:55Z</time>
      </trkpt>
      <trkpt lat="47.12353" lon="6.16313">
        <ele>537.6</ele>
        <time>2021-08-23T13:15:56Z</time>
      </trkpt>
      <trkpt lat="47.12347" lon="6.1634">
        <ele>536.8</ele>
        <time>2021-08-23T13:15:58Z</time>
      </trkpt>
      <trkpt lat="47.12344" lon="6.16364">
        <ele>536.2</ele>
        <time>2021-08-23T13:16:00Z</time>
      </trkpt>
      <trkpt lat="47.12343" lon="6.16376">
        <ele>535.8</ele>
        <time>2021-08-23T13:16:01Z</time>
      </trkpt>
      <trkpt lat="47.12343" lon="6.16388">
        <ele>535.6</ele>
        <time>2021-08-23T13:16:02Z</time>
      </trkpt>
      <trkpt lat="47.12343" lon="6.16399">
        <ele>535.6</ele>
        <time>2021-08-23T13:16:03Z</time>
      </trkpt>
      <trkpt lat="47.12343" lon="6.16408">
        <ele>535.4</ele>
        <time>2021-08-23T13:16:04Z</time>
      </trkpt>
      <trkpt lat="47.12343" lon="6.16418">
        <ele>535.4</ele>
        <time>2021-08-23T13:16:05Z</time>
      </trkpt>
      <trkpt lat="47.12344" lon="6.1643">
        <ele>535.4</ele>
        <time>2021-08-23T13:16:06Z</time>
      </trkpt>
      <trkpt lat="47.12344" lon="6.16439">
        <ele>535.4</ele>
        <time>2021-08-23T13:16:07Z</time>
      </trkpt>
      <trkpt lat="47.12344" lon="6.16448">
        <ele>535.4</ele>
        <time>2021-08-23T13:16:08Z</time>
      </trkpt>
      <trkpt lat="47.12345" lon="6.16456">
        <ele>535.4</ele>
        <time>2021-08-23T13:16:09Z</time>
      </trkpt>
      <trkpt lat="47.12346" lon="6.16463">
        <ele>535.4</ele>
        <time>2021-08-23T13:16:10Z</time>
      </trkpt>
      <trkpt lat="47.12346" lon="6.16471">
        <ele>535.6</ele>
        <time>2021-08-23T13:16:11Z</time>
      </trkpt>
      <trkpt lat="47.12347" lon="6.16479">
        <ele>535.6</ele>
        <time>2021-08-23T13:16:12Z</time>
      </trkpt>
      <trkpt lat="47.12349" lon="6.16494">
        <ele>536</ele>
        <time>2021-08-23T13:16:14Z</time>
      </trkpt>
      <trkpt lat="47.12351" lon="6.16501">
        <ele>536</ele>
        <time>2021-08-23T13:16:15Z</time>
      </trkpt>
      <trkpt lat="47.12352" lon="6.16507">
        <ele>536.2</ele>
        <time>2021-08-23T13:16:16Z</time>
      </trkpt>
      <trkpt lat="47.12353" lon="6.16514">
        <ele>536.4</ele>
        <time>2021-08-23T13:16:17Z</time>
      </trkpt>
      <trkpt lat="47.12354" lon="6.16521">
        <ele>536.6</ele>
        <time>2021-08-23T13:16:18Z</time>
      </trkpt>
      <trkpt lat="47.12358" lon="6.16537">
        <ele>537</ele>
        <time>2021-08-23T13:16:20Z</time>
      </trkpt>
      <trkpt lat="47.12368" lon="6.16583">
        <ele>537.4</ele>
        <time>2021-08-23T13:16:26Z</time>
      </trkpt>
      <trkpt lat="47.12373" lon="6.16609">
        <ele>537.6</ele>
        <time>2021-08-23T13:16:29Z</time>
      </trkpt>
      <trkpt lat="47.12379" lon="6.16637">
        <ele>537.4</ele>
        <time>2021-08-23T13:16:32Z</time>
      </trkpt>
      <trkpt lat="47.12396" lon="6.16703">
        <ele>536.4</ele>
        <time>2021-08-23T13:16:39Z</time>
      </trkpt>
      <trkpt lat="47.12406" lon="6.16743">
        <ele>536</ele>
        <time>2021-08-23T13:16:43Z</time>
      </trkpt>
      <trkpt lat="47.12416" lon="6.16796">
        <ele>535</ele>
        <time>2021-08-23T13:16:48Z</time>
      </trkpt>
      <trkpt lat="47.12418" lon="6.16807">
        <ele>535</ele>
        <time>2021-08-23T13:16:49Z</time>
      </trkpt>
      <trkpt lat="47.12422" lon="6.16857">
        <ele>534</ele>
        <time>2021-08-23T13:16:53Z</time>
      </trkpt>
      <trkpt lat="47.12423" lon="6.16871">
        <ele>533.6</ele>
        <time>2021-08-23T13:16:54Z</time>
      </trkpt>
      <trkpt lat="47.12426" lon="6.16911">
        <ele>532.2</ele>
        <time>2021-08-23T13:16:57Z</time>
      </trkpt>
      <trkpt lat="47.12428" lon="6.16924">
        <ele>531.6</ele>
        <time>2021-08-23T13:16:58Z</time>
      </trkpt>
      <trkpt lat="47.1243" lon="6.16936">
        <ele>531.2</ele>
        <time>2021-08-23T13:16:59Z</time>
      </trkpt>
      <trkpt lat="47.12433" lon="6.16947">
        <ele>530.4</ele>
        <time>2021-08-23T13:17:00Z</time>
      </trkpt>
      <trkpt lat="47.12435" lon="6.16958">
        <ele>529.6</ele>
        <time>2021-08-23T13:17:01Z</time>
      </trkpt>
      <trkpt lat="47.12438" lon="6.16967">
        <ele>529.4</ele>
        <time>2021-08-23T13:17:02Z</time>
      </trkpt>
      <trkpt lat="47.12439" lon="6.16977">
        <ele>529.2</ele>
        <time>2021-08-23T13:17:03Z</time>
      </trkpt>
      <trkpt lat="47.12441" lon="6.16986">
        <ele>529.2</ele>
        <time>2021-08-23T13:17:04Z</time>
      </trkpt>
      <trkpt lat="47.12442" lon="6.16994">
        <ele>529.2</ele>
        <time>2021-08-23T13:17:05Z</time>
      </trkpt>
      <trkpt lat="47.12444" lon="6.17002">
        <ele>529.2</ele>
        <time>2021-08-23T13:17:06Z</time>
      </trkpt>
      <trkpt lat="47.12445" lon="6.1701">
        <ele>529.2</ele>
        <time>2021-08-23T13:17:07Z</time>
      </trkpt>
      <trkpt lat="47.12446" lon="6.17017">
        <ele>529.2</ele>
        <time>2021-08-23T13:17:08Z</time>
      </trkpt>
      <trkpt lat="47.12447" lon="6.17025">
        <ele>529.6</ele>
        <time>2021-08-23T13:17:09Z</time>
      </trkpt>
      <trkpt lat="47.12448" lon="6.17032">
        <ele>529.8</ele>
        <time>2021-08-23T13:17:10Z</time>
      </trkpt>
      <trkpt lat="47.12458" lon="6.17078">
        <ele>530.4</ele>
        <time>2021-08-23T13:17:16Z</time>
      </trkpt>
      <trkpt lat="47.12472" lon="6.17137">
        <ele>530</ele>
        <time>2021-08-23T13:17:23Z</time>
      </trkpt>
      <trkpt lat="47.12488" lon="6.17199">
        <ele>530.2</ele>
        <time>2021-08-23T13:17:30Z</time>
      </trkpt>
      <trkpt lat="47.1249" lon="6.17208">
        <ele>530.2</ele>
        <time>2021-08-23T13:17:31Z</time>
      </trkpt>
      <trkpt lat="47.12492" lon="6.17215">
        <ele>530.2</ele>
        <time>2021-08-23T13:17:32Z</time>
      </trkpt>
      <trkpt lat="47.12493" lon="6.17223">
        <ele>530.2</ele>
        <time>2021-08-23T13:17:33Z</time>
      </trkpt>
      <trkpt lat="47.12495" lon="6.1723">
        <ele>530.4</ele>
        <time>2021-08-23T13:17:34Z</time>
      </trkpt>
      <trkpt lat="47.12496" lon="6.17238">
        <ele>530.6</ele>
        <time>2021-08-23T13:17:35Z</time>
      </trkpt>
      <trkpt lat="47.12498" lon="6.17245">
        <ele>530.6</ele>
        <time>2021-08-23T13:17:36Z</time>
      </trkpt>
      <trkpt lat="47.12499" lon="6.17251">
        <ele>530.8</ele>
        <time>2021-08-23T13:17:37Z</time>
      </trkpt>
      <trkpt lat="47.125" lon="6.17257">
        <ele>531</ele>
        <time>2021-08-23T13:17:38Z</time>
      </trkpt>
      <trkpt lat="47.12501" lon="6.17263">
        <ele>531.4</ele>
        <time>2021-08-23T13:17:39Z</time>
      </trkpt>
      <trkpt lat="47.12503" lon="6.17268">
        <ele>531.6</ele>
        <time>2021-08-23T13:17:40Z</time>
      </trkpt>
      <trkpt lat="47.12504" lon="6.17273">
        <ele>532</ele>
        <time>2021-08-23T13:17:41Z</time>
      </trkpt>
      <trkpt lat="47.12505" lon="6.17278">
        <ele>532.2</ele>
        <time>2021-08-23T13:17:42Z</time>
      </trkpt>
      <trkpt lat="47.12506" lon="6.17282">
        <ele>532.4</ele>
        <time>2021-08-23T13:17:43Z</time>
      </trkpt>
      <trkpt lat="47.12508" lon="6.17285">
        <ele>532.8</ele>
        <time>2021-08-23T13:17:44Z</time>
      </trkpt>
      <trkpt lat="47.12508" lon="6.17287">
        <ele>533</ele>
        <time>2021-08-23T13:17:45Z</time>
      </trkpt>
      <trkpt lat="47.12509" lon="6.1729">
        <ele>533.4</ele>
        <time>2021-08-23T13:17:46Z</time>
      </trkpt>
      <trkpt lat="47.1251" lon="6.17293">
        <ele>533.4</ele>
        <time>2021-08-23T13:17:47Z</time>
      </trkpt>
      <trkpt lat="47.12512" lon="6.17296">
        <ele>533.8</ele>
        <time>2021-08-23T13:17:48Z</time>
      </trkpt>
      <trkpt lat="47.12513" lon="6.17298">
        <ele>534</ele>
        <time>2021-08-23T13:17:49Z</time>
      </trkpt>
      <trkpt lat="47.12513" lon="6.173">
        <ele>534.4</ele>
        <time>2021-08-23T13:17:50Z</time>
      </trkpt>
      <trkpt lat="47.12514" lon="6.17303">
        <ele>534.8</ele>
        <time>2021-08-23T13:17:51Z</time>
      </trkpt>
      <trkpt lat="47.12515" lon="6.17305">
        <ele>535</ele>
        <time>2021-08-23T13:17:52Z</time>
      </trkpt>
      <trkpt lat="47.12517" lon="6.17307">
        <ele>535.2</ele>
        <time>2021-08-23T13:17:53Z</time>
      </trkpt>
      <trkpt lat="47.12518" lon="6.17309">
        <ele>535.6</ele>
        <time>2021-08-23T13:17:54Z</time>
      </trkpt>
      <trkpt lat="47.12519" lon="6.17312">
        <ele>535.8</ele>
        <time>2021-08-23T13:17:55Z</time>
      </trkpt>
      <trkpt lat="47.1252" lon="6.17314">
        <ele>536</ele>
        <time>2021-08-23T13:17:56Z</time>
      </trkpt>
      <trkpt lat="47.12522" lon="6.17317">
        <ele>536.2</ele>
        <time>2021-08-23T13:17:57Z</time>
      </trkpt>
      <trkpt lat="47.12524" lon="6.1732">
        <ele>536.2</ele>
        <time>2021-08-23T13:17:58Z</time>
      </trkpt>
      <trkpt lat="47.12525" lon="6.17324">
        <ele>536.6</ele>
        <time>2021-08-23T13:17:59Z</time>
      </trkpt>
      <trkpt lat="47.12527" lon="6.17327">
        <ele>536.8</ele>
        <time>2021-08-23T13:18:00Z</time>
      </trkpt>
      <trkpt lat="47.12529" lon="6.17331">
        <ele>536.8</ele>
        <time>2021-08-23T13:18:01Z</time>
      </trkpt>
      <trkpt lat="47.12531" lon="6.17334">
        <ele>537</ele>
        <time>2021-08-23T13:18:02Z</time>
      </trkpt>
      <trkpt lat="47.12533" lon="6.1734">
        <ele>537.2</ele>
        <time>2021-08-23T13:18:03Z</time>
      </trkpt>
      <trkpt lat="47.12535" lon="6.17343">
        <ele>537.4</ele>
        <time>2021-08-23T13:18:04Z</time>
      </trkpt>
      <trkpt lat="47.12536" lon="6.17347">
        <ele>537.4</ele>
        <time>2021-08-23T13:18:05Z</time>
      </trkpt>
      <trkpt lat="47.12537" lon="6.1735">
        <ele>537.6</ele>
        <time>2021-08-23T13:18:06Z</time>
      </trkpt>
      <trkpt lat="47.12539" lon="6.17354">
        <ele>537.6</ele>
        <time>2021-08-23T13:18:07Z</time>
      </trkpt>
      <trkpt lat="47.12539" lon="6.17357">
        <ele>538</ele>
        <time>2021-08-23T13:18:08Z</time>
      </trkpt>
      <trkpt lat="47.1254" lon="6.1736">
        <ele>538</ele>
        <time>2021-08-23T13:18:09Z</time>
      </trkpt>
      <trkpt lat="47.12541" lon="6.17363">
        <ele>538.2</ele>
        <time>2021-08-23T13:18:10Z</time>
      </trkpt>
      <trkpt lat="47.12544" lon="6.17368">
        <ele>538.4</ele>
        <time>2021-08-23T13:18:11Z</time>
      </trkpt>
      <trkpt lat="47.12546" lon="6.17372">
        <ele>538.6</ele>
        <time>2021-08-23T13:18:12Z</time>
      </trkpt>
      <trkpt lat="47.12547" lon="6.17376">
        <ele>538.8</ele>
        <time>2021-08-23T13:18:13Z</time>
      </trkpt>
      <trkpt lat="47.12549" lon="6.17381">
        <ele>539</ele>
        <time>2021-08-23T13:18:14Z</time>
      </trkpt>
      <trkpt lat="47.12552" lon="6.17386">
        <ele>539.2</ele>
        <time>2021-08-23T13:18:15Z</time>
      </trkpt>
      <trkpt lat="47.12553" lon="6.17389">
        <ele>539.4</ele>
        <time>2021-08-23T13:18:16Z</time>
      </trkpt>
      <trkpt lat="47.12555" lon="6.17393">
        <ele>539.6</ele>
        <time>2021-08-23T13:18:17Z</time>
      </trkpt>
      <trkpt lat="47.12557" lon="6.17396">
        <ele>539.8</ele>
        <time>2021-08-23T13:18:18Z</time>
      </trkpt>
      <trkpt lat="47.12558" lon="6.17399">
        <ele>539.8</ele>
        <time>2021-08-23T13:18:19Z</time>
      </trkpt>
      <trkpt lat="47.12559" lon="6.17402">
        <ele>540</ele>
        <time>2021-08-23T13:18:20Z</time>
      </trkpt>
      <trkpt lat="47.1256" lon="6.17405">
        <ele>540.2</ele>
        <time>2021-08-23T13:18:21Z</time>
      </trkpt>
      <trkpt lat="47.12562" lon="6.17407">
        <ele>540.4</ele>
        <time>2021-08-23T13:18:22Z</time>
      </trkpt>
      <trkpt lat="47.12563" lon="6.1741">
        <ele>540.6</ele>
        <time>2021-08-23T13:18:23Z</time>
      </trkpt>
      <trkpt lat="47.12563" lon="6.17412">
        <ele>540.8</ele>
        <time>2021-08-23T13:18:24Z</time>
      </trkpt>
      <trkpt lat="47.12564" lon="6.17415">
        <ele>540.8</ele>
        <time>2021-08-23T13:18:25Z</time>
      </trkpt>
      <trkpt lat="47.12565" lon="6.17418">
        <ele>541</ele>
        <time>2021-08-23T13:18:26Z</time>
      </trkpt>
      <trkpt lat="47.12565" lon="6.17421">
        <ele>541.2</ele>
        <time>2021-08-23T13:18:27Z</time>
      </trkpt>
      <trkpt lat="47.12566" lon="6.17425">
        <ele>541.2</ele>
        <time>2021-08-23T13:18:28Z</time>
      </trkpt>
      <trkpt lat="47.12567" lon="6.17428">
        <ele>541.4</ele>
        <time>2021-08-23T13:18:29Z</time>
      </trkpt>
      <trkpt lat="47.12568" lon="6.17432">
        <ele>541.4</ele>
        <time>2021-08-23T13:18:30Z</time>
      </trkpt>
      <trkpt lat="47.12569" lon="6.17436">
        <ele>541.6</ele>
        <time>2021-08-23T13:18:31Z</time>
      </trkpt>
      <trkpt lat="47.1257" lon="6.1744">
        <ele>541.6</ele>
        <time>2021-08-23T13:18:32Z</time>
      </trkpt>
      <trkpt lat="47.12571" lon="6.17445">
        <ele>541.8</ele>
        <time>2021-08-23T13:18:33Z</time>
      </trkpt>
      <trkpt lat="47.12572" lon="6.1745">
        <ele>541.6</ele>
        <time>2021-08-23T13:18:34Z</time>
      </trkpt>
      <trkpt lat="47.12574" lon="6.17456">
        <ele>542</ele>
        <time>2021-08-23T13:18:35Z</time>
      </trkpt>
      <trkpt lat="47.12575" lon="6.17462">
        <ele>542</ele>
        <time>2021-08-23T13:18:36Z</time>
      </trkpt>
      <trkpt lat="47.12576" lon="6.17468">
        <ele>542</ele>
        <time>2021-08-23T13:18:37Z</time>
      </trkpt>
      <trkpt lat="47.12578" lon="6.17473">
        <ele>542</ele>
        <time>2021-08-23T13:18:38Z</time>
      </trkpt>
      <trkpt lat="47.1258" lon="6.17479">
        <ele>541.6</ele>
        <time>2021-08-23T13:18:39Z</time>
      </trkpt>
      <trkpt lat="47.12582" lon="6.17485">
        <ele>541.8</ele>
        <time>2021-08-23T13:18:40Z</time>
      </trkpt>
      <trkpt lat="47.12583" lon="6.17491">
        <ele>541.4</ele>
        <time>2021-08-23T13:18:41Z</time>
      </trkpt>
      <trkpt lat="47.12585" lon="6.17496">
        <ele>541.6</ele>
        <time>2021-08-23T13:18:42Z</time>
      </trkpt>
      <trkpt lat="47.12586" lon="6.17502">
        <ele>541.2</ele>
        <time>2021-08-23T13:18:43Z</time>
      </trkpt>
      <trkpt lat="47.12589" lon="6.17508">
        <ele>541.4</ele>
        <time>2021-08-23T13:18:44Z</time>
      </trkpt>
      <trkpt lat="47.12591" lon="6.17514">
        <ele>541.4</ele>
        <time>2021-08-23T13:18:45Z</time>
      </trkpt>
      <trkpt lat="47.12603" lon="6.17553">
        <ele>540.8</ele>
        <time>2021-08-23T13:18:51Z</time>
      </trkpt>
      <trkpt lat="47.12607" lon="6.17567">
        <ele>540.6</ele>
        <time>2021-08-23T13:18:53Z</time>
      </trkpt>
      <trkpt lat="47.12626" lon="6.17631">
        <ele>539.8</ele>
        <time>2021-08-23T13:19:01Z</time>
      </trkpt>
      <trkpt lat="47.12632" lon="6.17651">
        <ele>539.8</ele>
        <time>2021-08-23T13:19:03Z</time>
      </trkpt>
      <trkpt lat="47.12642" lon="6.17682">
        <ele>539.2</ele>
        <time>2021-08-23T13:19:06Z</time>
      </trkpt>
      <trkpt lat="47.12649" lon="6.17703">
        <ele>538.6</ele>
        <time>2021-08-23T13:19:08Z</time>
      </trkpt>
      <trkpt lat="47.12663" lon="6.17735">
        <ele>537.2</ele>
        <time>2021-08-23T13:19:11Z</time>
      </trkpt>
      <trkpt lat="47.12673" lon="6.17755">
        <ele>536.2</ele>
        <time>2021-08-23T13:19:13Z</time>
      </trkpt>
      <trkpt lat="47.12691" lon="6.17786">
        <ele>534.6</ele>
        <time>2021-08-23T13:19:16Z</time>
      </trkpt>
      <trkpt lat="47.12697" lon="6.17796">
        <ele>533.6</ele>
        <time>2021-08-23T13:19:17Z</time>
      </trkpt>
      <trkpt lat="47.12703" lon="6.17806">
        <ele>533.2</ele>
        <time>2021-08-23T13:19:18Z</time>
      </trkpt>
      <trkpt lat="47.12716" lon="6.17824">
        <ele>532.4</ele>
        <time>2021-08-23T13:19:20Z</time>
      </trkpt>
      <trkpt lat="47.12723" lon="6.17832">
        <ele>531.6</ele>
        <time>2021-08-23T13:19:21Z</time>
      </trkpt>
      <trkpt lat="47.12729" lon="6.1784">
        <ele>531.2</ele>
        <time>2021-08-23T13:19:22Z</time>
      </trkpt>
      <trkpt lat="47.12736" lon="6.17847">
        <ele>530.4</ele>
        <time>2021-08-23T13:19:23Z</time>
      </trkpt>
      <trkpt lat="47.12743" lon="6.17854">
        <ele>530.4</ele>
        <time>2021-08-23T13:19:24Z</time>
      </trkpt>
      <trkpt lat="47.12748" lon="6.1786">
        <ele>530.2</ele>
        <time>2021-08-23T13:19:25Z</time>
      </trkpt>
      <trkpt lat="47.12754" lon="6.17866">
        <ele>530</ele>
        <time>2021-08-23T13:19:26Z</time>
      </trkpt>
      <trkpt lat="47.12759" lon="6.17872">
        <ele>530</ele>
        <time>2021-08-23T13:19:27Z</time>
      </trkpt>
      <trkpt lat="47.12764" lon="6.17878">
        <ele>530</ele>
        <time>2021-08-23T13:19:28Z</time>
      </trkpt>
      <trkpt lat="47.12768" lon="6.17883">
        <ele>530</ele>
        <time>2021-08-23T13:19:29Z</time>
      </trkpt>
      <trkpt lat="47.12773" lon="6.17889">
        <ele>530.2</ele>
        <time>2021-08-23T13:19:30Z</time>
      </trkpt>
      <trkpt lat="47.12777" lon="6.17895">
        <ele>530.2</ele>
        <time>2021-08-23T13:19:31Z</time>
      </trkpt>
      <trkpt lat="47.12782" lon="6.17901">
        <ele>530.4</ele>
        <time>2021-08-23T13:19:32Z</time>
      </trkpt>
      <trkpt lat="47.12785" lon="6.17906">
        <ele>530.6</ele>
        <time>2021-08-23T13:19:33Z</time>
      </trkpt>
      <trkpt lat="47.12789" lon="6.17912">
        <ele>530.6</ele>
        <time>2021-08-23T13:19:34Z</time>
      </trkpt>
      <trkpt lat="47.12793" lon="6.17917">
        <ele>530.8</ele>
        <time>2021-08-23T13:19:35Z</time>
      </trkpt>
      <trkpt lat="47.12802" lon="6.17933">
        <ele>531.4</ele>
        <time>2021-08-23T13:19:38Z</time>
      </trkpt>
      <trkpt lat="47.12805" lon="6.17938">
        <ele>531.6</ele>
        <time>2021-08-23T13:19:39Z</time>
      </trkpt>
      <trkpt lat="47.12807" lon="6.17943">
        <ele>531.6</ele>
        <time>2021-08-23T13:19:40Z</time>
      </trkpt>
      <trkpt lat="47.1281" lon="6.17948">
        <ele>531.8</ele>
        <time>2021-08-23T13:19:41Z</time>
      </trkpt>
      <trkpt lat="47.12812" lon="6.17952">
        <ele>532</ele>
        <time>2021-08-23T13:19:42Z</time>
      </trkpt>
      <trkpt lat="47.12814" lon="6.17953">
        <ele>532.2</ele>
        <time>2021-08-23T13:19:43Z</time>
      </trkpt>
      <trkpt lat="47.12816" lon="6.17951">
        <ele>532.4</ele>
        <time>2021-08-23T13:19:44Z</time>
      </trkpt>
      <trkpt lat="47.12816" lon="6.17948">
        <ele>532.4</ele>
        <time>2021-08-23T13:19:45Z</time>
      </trkpt>
      <trkpt lat="47.12815" lon="6.17945">
        <ele>532.6</ele>
        <time>2021-08-23T13:19:46Z</time>
      </trkpt>
      <trkpt lat="47.12813" lon="6.1794">
        <ele>533</ele>
        <time>2021-08-23T13:19:48Z</time>
      </trkpt>
      <trkpt lat="47.12813" lon="6.17937">
        <ele>533.2</ele>
        <time>2021-08-23T13:19:49Z</time>
      </trkpt>
      <trkpt lat="47.12813" lon="6.17934">
        <ele>533.6</ele>
        <time>2021-08-23T13:19:50Z</time>
      </trkpt>
      <trkpt lat="47.12814" lon="6.17931">
        <ele>533.6</ele>
        <time>2021-08-23T13:19:51Z</time>
      </trkpt>
      <trkpt lat="47.12813" lon="6.17929">
        <ele>534</ele>
        <time>2021-08-23T13:19:52Z</time>
      </trkpt>
      <trkpt lat="47.12813" lon="6.17928">
        <ele>534.2</ele>
        <time>2021-08-23T13:19:54Z</time>
      </trkpt>
      <trkpt lat="47.12813" lon="6.17928">
        <ele>534.2</ele>
        <time>2021-08-23T13:20:12Z</time>
      </trkpt>
      <trkpt lat="47.12813" lon="6.17926">
        <ele>534.2</ele>
        <time>2021-08-23T13:21:16Z</time>
      </trkpt>
      <trkpt lat="47.12813" lon="6.17926">
        <ele>534</ele>
        <time>2021-08-23T13:21:42Z</time>
      </trkpt>
      <trkpt lat="47.12814" lon="6.17927">
        <ele>533.8</ele>
        <time>2021-08-23T13:22:00Z</time>
      </trkpt>
      <trkpt lat="47.12814" lon="6.17928">
        <ele>533.8</ele>
        <time>2021-08-23T13:22:03Z</time>
      </trkpt>
      <trkpt lat="47.12814" lon="6.17928">
        <ele>533.8</ele>
        <time>2021-08-23T13:22:04Z</time>
      </trkpt>
      <trkpt lat="47.12813" lon="6.17937">
        <ele>533.8</ele>
        <time>2021-08-23T13:22:09Z</time>
      </trkpt>
      <trkpt lat="47.12814" lon="6.17939">
        <ele>533.8</ele>
        <time>2021-08-23T13:22:10Z</time>
      </trkpt>
      <trkpt lat="47.12814" lon="6.17941">
        <ele>533.6</ele>
        <time>2021-08-23T13:22:11Z</time>
      </trkpt>
      <trkpt lat="47.12816" lon="6.17955">
        <ele>533.6</ele>
        <time>2021-08-23T13:22:14Z</time>
      </trkpt>
      <trkpt lat="47.12819" lon="6.17963">
        <ele>533.4</ele>
        <time>2021-08-23T13:22:16Z</time>
      </trkpt>
      <trkpt lat="47.1282" lon="6.17965">
        <ele>533.2</ele>
        <time>2021-08-23T13:22:17Z</time>
      </trkpt>
      <trkpt lat="47.12821" lon="6.17968">
        <ele>533.4</ele>
        <time>2021-08-23T13:22:18Z</time>
      </trkpt>
      <trkpt lat="47.12822" lon="6.1797">
        <ele>533.4</ele>
        <time>2021-08-23T13:22:19Z</time>
      </trkpt>
      <trkpt lat="47.12823" lon="6.17972">
        <ele>533.6</ele>
        <time>2021-08-23T13:22:20Z</time>
      </trkpt>
      <trkpt lat="47.12831" lon="6.17986">
        <ele>533.8</ele>
        <time>2021-08-23T13:22:25Z</time>
      </trkpt>
      <trkpt lat="47.12832" lon="6.17988">
        <ele>534.4</ele>
        <time>2021-08-23T13:22:26Z</time>
      </trkpt>
      <trkpt lat="47.12834" lon="6.17991">
        <ele>534.6</ele>
        <time>2021-08-23T13:22:27Z</time>
      </trkpt>
      <trkpt lat="47.12836" lon="6.17994">
        <ele>534.8</ele>
        <time>2021-08-23T13:22:28Z</time>
      </trkpt>
      <trkpt lat="47.12837" lon="6.17996">
        <ele>535</ele>
        <time>2021-08-23T13:22:29Z</time>
      </trkpt>
      <trkpt lat="47.12838" lon="6.17999">
        <ele>535.2</ele>
        <time>2021-08-23T13:22:30Z</time>
      </trkpt>
      <trkpt lat="47.12843" lon="6.18008">
        <ele>536.4</ele>
        <time>2021-08-23T13:22:33Z</time>
      </trkpt>
      <trkpt lat="47.12845" lon="6.1801">
        <ele>536.6</ele>
        <time>2021-08-23T13:22:34Z</time>
      </trkpt>
      <trkpt lat="47.12847" lon="6.18013">
        <ele>536.8</ele>
        <time>2021-08-23T13:22:35Z</time>
      </trkpt>
      <trkpt lat="47.12847" lon="6.18017">
        <ele>537</ele>
        <time>2021-08-23T13:22:36Z</time>
      </trkpt>
      <trkpt lat="47.12848" lon="6.18021">
        <ele>537.2</ele>
        <time>2021-08-23T13:22:37Z</time>
      </trkpt>
      <trkpt lat="47.12849" lon="6.18025">
        <ele>537.4</ele>
        <time>2021-08-23T13:22:38Z</time>
      </trkpt>
      <trkpt lat="47.1285" lon="6.18027">
        <ele>537.4</ele>
        <time>2021-08-23T13:22:39Z</time>
      </trkpt>
      <trkpt lat="47.12851" lon="6.1803">
        <ele>538</ele>
        <time>2021-08-23T13:22:40Z</time>
      </trkpt>
      <trkpt lat="47.12852" lon="6.18033">
        <ele>538.2</ele>
        <time>2021-08-23T13:22:41Z</time>
      </trkpt>
      <trkpt lat="47.12854" lon="6.18037">
        <ele>538.6</ele>
        <time>2021-08-23T13:22:42Z</time>
      </trkpt>
      <trkpt lat="47.12855" lon="6.1804">
        <ele>539.2</ele>
        <time>2021-08-23T13:22:43Z</time>
      </trkpt>
      <trkpt lat="47.12856" lon="6.18044">
        <ele>539.4</ele>
        <time>2021-08-23T13:22:44Z</time>
      </trkpt>
      <trkpt lat="47.12856" lon="6.18048">
        <ele>539.8</ele>
        <time>2021-08-23T13:22:45Z</time>
      </trkpt>
      <trkpt lat="47.12856" lon="6.18052">
        <ele>540</ele>
        <time>2021-08-23T13:22:46Z</time>
      </trkpt>
      <trkpt lat="47.12857" lon="6.18056">
        <ele>540.2</ele>
        <time>2021-08-23T13:22:47Z</time>
      </trkpt>
      <trkpt lat="47.12857" lon="6.18059">
        <ele>540.4</ele>
        <time>2021-08-23T13:22:48Z</time>
      </trkpt>
      <trkpt lat="47.12858" lon="6.18063">
        <ele>540.6</ele>
        <time>2021-08-23T13:22:49Z</time>
      </trkpt>
      <trkpt lat="47.12859" lon="6.18067">
        <ele>540.8</ele>
        <time>2021-08-23T13:22:50Z</time>
      </trkpt>
      <trkpt lat="47.1286" lon="6.1807">
        <ele>541</ele>
        <time>2021-08-23T13:22:51Z</time>
      </trkpt>
      <trkpt lat="47.1286" lon="6.18074">
        <ele>541</ele>
        <time>2021-08-23T13:22:52Z</time>
      </trkpt>
      <trkpt lat="47.12859" lon="6.18078">
        <ele>541.4</ele>
        <time>2021-08-23T13:22:53Z</time>
      </trkpt>
      <trkpt lat="47.12859" lon="6.18082">
        <ele>541.6</ele>
        <time>2021-08-23T13:22:54Z</time>
      </trkpt>
      <trkpt lat="47.12859" lon="6.18085">
        <ele>541.8</ele>
        <time>2021-08-23T13:22:55Z</time>
      </trkpt>
      <trkpt lat="47.12859" lon="6.18089">
        <ele>542</ele>
        <time>2021-08-23T13:22:56Z</time>
      </trkpt>
      <trkpt lat="47.12859" lon="6.18093">
        <ele>542</ele>
        <time>2021-08-23T13:22:57Z</time>
      </trkpt>
      <trkpt lat="47.12859" lon="6.18096">
        <ele>542.4</ele>
        <time>2021-08-23T13:22:58Z</time>
      </trkpt>
      <trkpt lat="47.1286" lon="6.181">
        <ele>542.6</ele>
        <time>2021-08-23T13:22:59Z</time>
      </trkpt>
      <trkpt lat="47.1286" lon="6.18104">
        <ele>542.8</ele>
        <time>2021-08-23T13:23:00Z</time>
      </trkpt>
      <trkpt lat="47.12859" lon="6.18108">
        <ele>542.8</ele>
        <time>2021-08-23T13:23:01Z</time>
      </trkpt>
      <trkpt lat="47.12859" lon="6.18112">
        <ele>543</ele>
        <time>2021-08-23T13:23:02Z</time>
      </trkpt>
      <trkpt lat="47.12859" lon="6.18116">
        <ele>543.2</ele>
        <time>2021-08-23T13:23:03Z</time>
      </trkpt>
      <trkpt lat="47.12859" lon="6.18119">
        <ele>543.2</ele>
        <time>2021-08-23T13:23:04Z</time>
      </trkpt>
      <trkpt lat="47.12859" lon="6.18125">
        <ele>543.4</ele>
        <time>2021-08-23T13:23:05Z</time>
      </trkpt>
      <trkpt lat="47.12858" lon="6.18129">
        <ele>543.6</ele>
        <time>2021-08-23T13:23:06Z</time>
      </trkpt>
      <trkpt lat="47.12858" lon="6.18133">
        <ele>543.8</ele>
        <time>2021-08-23T13:23:07Z</time>
      </trkpt>
      <trkpt lat="47.12859" lon="6.18136">
        <ele>543.8</ele>
        <time>2021-08-23T13:23:08Z</time>
      </trkpt>
      <trkpt lat="47.12858" lon="6.18142">
        <ele>543.8</ele>
        <time>2021-08-23T13:23:09Z</time>
      </trkpt>
      <trkpt lat="47.12859" lon="6.18146">
        <ele>544</ele>
        <time>2021-08-23T13:23:10Z</time>
      </trkpt>
      <trkpt lat="47.1286" lon="6.18151">
        <ele>544</ele>
        <time>2021-08-23T13:23:11Z</time>
      </trkpt>
      <trkpt lat="47.1286" lon="6.18155">
        <ele>544.2</ele>
        <time>2021-08-23T13:23:12Z</time>
      </trkpt>
      <trkpt lat="47.1286" lon="6.1816">
        <ele>544.4</ele>
        <time>2021-08-23T13:23:13Z</time>
      </trkpt>
      <trkpt lat="47.1286" lon="6.18166">
        <ele>544.4</ele>
        <time>2021-08-23T13:23:14Z</time>
      </trkpt>
      <trkpt lat="47.1286" lon="6.18173">
        <ele>544.6</ele>
        <time>2021-08-23T13:23:15Z</time>
      </trkpt>
      <trkpt lat="47.1286" lon="6.18177">
        <ele>544.6</ele>
        <time>2021-08-23T13:23:16Z</time>
      </trkpt>
      <trkpt lat="47.1286" lon="6.18183">
        <ele>544.6</ele>
        <time>2021-08-23T13:23:17Z</time>
      </trkpt>
      <trkpt lat="47.1286" lon="6.18187">
        <ele>544.6</ele>
        <time>2021-08-23T13:23:18Z</time>
      </trkpt>
      <trkpt lat="47.1286" lon="6.18191">
        <ele>544.8</ele>
        <time>2021-08-23T13:23:19Z</time>
      </trkpt>
      <trkpt lat="47.1286" lon="6.18195">
        <ele>544.8</ele>
        <time>2021-08-23T13:23:20Z</time>
      </trkpt>
      <trkpt lat="47.1286" lon="6.18197">
        <ele>544.8</ele>
        <time>2021-08-23T13:23:21Z</time>
      </trkpt>
      <trkpt lat="47.12861" lon="6.182">
        <ele>544.8</ele>
        <time>2021-08-23T13:23:22Z</time>
      </trkpt>
      <trkpt lat="47.12861" lon="6.18203">
        <ele>545</ele>
        <time>2021-08-23T13:23:23Z</time>
      </trkpt>
      <trkpt lat="47.12862" lon="6.18207">
        <ele>545</ele>
        <time>2021-08-23T13:23:24Z</time>
      </trkpt>
      <trkpt lat="47.12863" lon="6.1821">
        <ele>545</ele>
        <time>2021-08-23T13:23:25Z</time>
      </trkpt>
      <trkpt lat="47.12865" lon="6.18214">
        <ele>545.2</ele>
        <time>2021-08-23T13:23:26Z</time>
      </trkpt>
      <trkpt lat="47.12866" lon="6.18216">
        <ele>545.4</ele>
        <time>2021-08-23T13:23:27Z</time>
      </trkpt>
      <trkpt lat="47.12867" lon="6.18219">
        <ele>545.4</ele>
        <time>2021-08-23T13:23:28Z</time>
      </trkpt>
      <trkpt lat="47.12868" lon="6.18222">
        <ele>545.6</ele>
        <time>2021-08-23T13:23:29Z</time>
      </trkpt>
      <trkpt lat="47.1287" lon="6.18224">
        <ele>545.8</ele>
        <time>2021-08-23T13:23:30Z</time>
      </trkpt>
      <trkpt lat="47.12872" lon="6.18227">
        <ele>546</ele>
        <time>2021-08-23T13:23:31Z</time>
      </trkpt>
      <trkpt lat="47.12873" lon="6.1823">
        <ele>546</ele>
        <time>2021-08-23T13:23:32Z</time>
      </trkpt>
      <trkpt lat="47.12874" lon="6.18233">
        <ele>546.2</ele>
        <time>2021-08-23T13:23:33Z</time>
      </trkpt>
      <trkpt lat="47.12874" lon="6.18237">
        <ele>546.2</ele>
        <time>2021-08-23T13:23:34Z</time>
      </trkpt>
      <trkpt lat="47.12875" lon="6.18241">
        <ele>546.2</ele>
        <time>2021-08-23T13:23:35Z</time>
      </trkpt>
      <trkpt lat="47.12876" lon="6.18245">
        <ele>546.2</ele>
        <time>2021-08-23T13:23:36Z</time>
      </trkpt>
      <trkpt lat="47.12877" lon="6.1825">
        <ele>546.2</ele>
        <time>2021-08-23T13:23:37Z</time>
      </trkpt>
      <trkpt lat="47.12879" lon="6.1826">
        <ele>546</ele>
        <time>2021-08-23T13:23:39Z</time>
      </trkpt>
      <trkpt lat="47.12881" lon="6.18273">
        <ele>545.8</ele>
        <time>2021-08-23T13:23:41Z</time>
      </trkpt>
      <trkpt lat="47.12881" lon="6.18289">
        <ele>545.6</ele>
        <time>2021-08-23T13:23:43Z</time>
      </trkpt>
      <trkpt lat="47.12877" lon="6.18338">
        <ele>544</ele>
        <time>2021-08-23T13:23:48Z</time>
      </trkpt>
      <trkpt lat="47.12874" lon="6.18368">
        <ele>542.8</ele>
        <time>2021-08-23T13:23:51Z</time>
      </trkpt>
      <trkpt lat="47.12873" lon="6.18378">
        <ele>542.6</ele>
        <time>2021-08-23T13:23:52Z</time>
      </trkpt>
      <trkpt lat="47.12869" lon="6.18406">
        <ele>542</ele>
        <time>2021-08-23T13:23:55Z</time>
      </trkpt>
      <trkpt lat="47.12867" lon="6.18414">
        <ele>541.6</ele>
        <time>2021-08-23T13:23:56Z</time>
      </trkpt>
      <trkpt lat="47.12865" lon="6.18422">
        <ele>541.6</ele>
        <time>2021-08-23T13:23:57Z</time>
      </trkpt>
      <trkpt lat="47.12863" lon="6.18429">
        <ele>541.6</ele>
        <time>2021-08-23T13:23:58Z</time>
      </trkpt>
      <trkpt lat="47.12861" lon="6.18435">
        <ele>541.4</ele>
        <time>2021-08-23T13:23:59Z</time>
      </trkpt>
      <trkpt lat="47.12859" lon="6.18441">
        <ele>541.4</ele>
        <time>2021-08-23T13:24:00Z</time>
      </trkpt>
      <trkpt lat="47.12856" lon="6.18447">
        <ele>541.4</ele>
        <time>2021-08-23T13:24:01Z</time>
      </trkpt>
      <trkpt lat="47.12853" lon="6.18452">
        <ele>541.4</ele>
        <time>2021-08-23T13:24:02Z</time>
      </trkpt>
      <trkpt lat="47.1285" lon="6.18457">
        <ele>541.6</ele>
        <time>2021-08-23T13:24:03Z</time>
      </trkpt>
      <trkpt lat="47.12847" lon="6.18462">
        <ele>541.8</ele>
        <time>2021-08-23T13:24:04Z</time>
      </trkpt>
      <trkpt lat="47.12844" lon="6.18466">
        <ele>541.8</ele>
        <time>2021-08-23T13:24:05Z</time>
      </trkpt>
      <trkpt lat="47.12842" lon="6.18471">
        <ele>541.8</ele>
        <time>2021-08-23T13:24:06Z</time>
      </trkpt>
      <trkpt lat="47.12839" lon="6.18475">
        <ele>542</ele>
        <time>2021-08-23T13:24:07Z</time>
      </trkpt>
      <trkpt lat="47.12836" lon="6.18478">
        <ele>542</ele>
        <time>2021-08-23T13:24:08Z</time>
      </trkpt>
      <trkpt lat="47.12834" lon="6.18482">
        <ele>542.2</ele>
        <time>2021-08-23T13:24:09Z</time>
      </trkpt>
      <trkpt lat="47.12831" lon="6.18486">
        <ele>542.2</ele>
        <time>2021-08-23T13:24:10Z</time>
      </trkpt>
      <trkpt lat="47.12829" lon="6.1849">
        <ele>542.4</ele>
        <time>2021-08-23T13:24:11Z</time>
      </trkpt>
      <trkpt lat="47.12826" lon="6.18493">
        <ele>542.6</ele>
        <time>2021-08-23T13:24:12Z</time>
      </trkpt>
      <trkpt lat="47.12824" lon="6.18496">
        <ele>542.6</ele>
        <time>2021-08-23T13:24:13Z</time>
      </trkpt>
      <trkpt lat="47.12821" lon="6.185">
        <ele>543</ele>
        <time>2021-08-23T13:24:14Z</time>
      </trkpt>
      <trkpt lat="47.12818" lon="6.18504">
        <ele>543</ele>
        <time>2021-08-23T13:24:15Z</time>
      </trkpt>
      <trkpt lat="47.12815" lon="6.18507">
        <ele>543.4</ele>
        <time>2021-08-23T13:24:16Z</time>
      </trkpt>
      <trkpt lat="47.12813" lon="6.18511">
        <ele>543.4</ele>
        <time>2021-08-23T13:24:17Z</time>
      </trkpt>
      <trkpt lat="47.12811" lon="6.18515">
        <ele>543.8</ele>
        <time>2021-08-23T13:24:18Z</time>
      </trkpt>
      <trkpt lat="47.12809" lon="6.18518">
        <ele>543.8</ele>
        <time>2021-08-23T13:24:19Z</time>
      </trkpt>
      <trkpt lat="47.12806" lon="6.18521">
        <ele>544</ele>
        <time>2021-08-23T13:24:20Z</time>
      </trkpt>
      <trkpt lat="47.12804" lon="6.18524">
        <ele>544.2</ele>
        <time>2021-08-23T13:24:21Z</time>
      </trkpt>
      <trkpt lat="47.12802" lon="6.18528">
        <ele>544.4</ele>
        <time>2021-08-23T13:24:22Z</time>
      </trkpt>
      <trkpt lat="47.12801" lon="6.18531">
        <ele>544.6</ele>
        <time>2021-08-23T13:24:23Z</time>
      </trkpt>
      <trkpt lat="47.12799" lon="6.18534">
        <ele>544.8</ele>
        <time>2021-08-23T13:24:24Z</time>
      </trkpt>
      <trkpt lat="47.12797" lon="6.18537">
        <ele>545</ele>
        <time>2021-08-23T13:24:25Z</time>
      </trkpt>
      <trkpt lat="47.12795" lon="6.18541">
        <ele>545.2</ele>
        <time>2021-08-23T13:24:26Z</time>
      </trkpt>
      <trkpt lat="47.12793" lon="6.18544">
        <ele>545.4</ele>
        <time>2021-08-23T13:24:27Z</time>
      </trkpt>
      <trkpt lat="47.1279" lon="6.18548">
        <ele>545.6</ele>
        <time>2021-08-23T13:24:28Z</time>
      </trkpt>
      <trkpt lat="47.12788" lon="6.18551">
        <ele>545.6</ele>
        <time>2021-08-23T13:24:29Z</time>
      </trkpt>
      <trkpt lat="47.12786" lon="6.18554">
        <ele>545.8</ele>
        <time>2021-08-23T13:24:30Z</time>
      </trkpt>
      <trkpt lat="47.12783" lon="6.18558">
        <ele>545.8</ele>
        <time>2021-08-23T13:24:31Z</time>
      </trkpt>
      <trkpt lat="47.12781" lon="6.18562">
        <ele>546</ele>
        <time>2021-08-23T13:24:32Z</time>
      </trkpt>
      <trkpt lat="47.12779" lon="6.18566">
        <ele>546</ele>
        <time>2021-08-23T13:24:33Z</time>
      </trkpt>
      <trkpt lat="47.12777" lon="6.18569">
        <ele>546</ele>
        <time>2021-08-23T13:24:34Z</time>
      </trkpt>
      <trkpt lat="47.12774" lon="6.18573">
        <ele>546.2</ele>
        <time>2021-08-23T13:24:35Z</time>
      </trkpt>
      <trkpt lat="47.12772" lon="6.18576">
        <ele>546.2</ele>
        <time>2021-08-23T13:24:36Z</time>
      </trkpt>
      <trkpt lat="47.1277" lon="6.18579">
        <ele>546.4</ele>
        <time>2021-08-23T13:24:37Z</time>
      </trkpt>
      <trkpt lat="47.12768" lon="6.18583">
        <ele>546.4</ele>
        <time>2021-08-23T13:24:38Z</time>
      </trkpt>
      <trkpt lat="47.12766" lon="6.18586">
        <ele>546.6</ele>
        <time>2021-08-23T13:24:39Z</time>
      </trkpt>
      <trkpt lat="47.12764" lon="6.1859">
        <ele>546.6</ele>
        <time>2021-08-23T13:24:40Z</time>
      </trkpt>
      <trkpt lat="47.12761" lon="6.18593">
        <ele>546.8</ele>
        <time>2021-08-23T13:24:41Z</time>
      </trkpt>
      <trkpt lat="47.12759" lon="6.18597">
        <ele>546.8</ele>
        <time>2021-08-23T13:24:42Z</time>
      </trkpt>
      <trkpt lat="47.12757" lon="6.18601">
        <ele>546.8</ele>
        <time>2021-08-23T13:24:43Z</time>
      </trkpt>
      <trkpt lat="47.12755" lon="6.18604">
        <ele>547</ele>
        <time>2021-08-23T13:24:44Z</time>
      </trkpt>
      <trkpt lat="47.12753" lon="6.18608">
        <ele>547</ele>
        <time>2021-08-23T13:24:45Z</time>
      </trkpt>
      <trkpt lat="47.12751" lon="6.18612">
        <ele>547</ele>
        <time>2021-08-23T13:24:46Z</time>
      </trkpt>
      <trkpt lat="47.12749" lon="6.18616">
        <ele>547</ele>
        <time>2021-08-23T13:24:47Z</time>
      </trkpt>
      <trkpt lat="47.12746" lon="6.1862">
        <ele>547</ele>
        <time>2021-08-23T13:24:48Z</time>
      </trkpt>
      <trkpt lat="47.12744" lon="6.18624">
        <ele>547</ele>
        <time>2021-08-23T13:24:49Z</time>
      </trkpt>
      <trkpt lat="47.12742" lon="6.18628">
        <ele>547</ele>
        <time>2021-08-23T13:24:50Z</time>
      </trkpt>
      <trkpt lat="47.1274" lon="6.18632">
        <ele>547</ele>
        <time>2021-08-23T13:24:51Z</time>
      </trkpt>
      <trkpt lat="47.12728" lon="6.18652">
        <ele>547.2</ele>
        <time>2021-08-23T13:24:56Z</time>
      </trkpt>
      <trkpt lat="47.12716" lon="6.18676">
        <ele>548</ele>
        <time>2021-08-23T13:25:02Z</time>
      </trkpt>
      <trkpt lat="47.12711" lon="6.18684">
        <ele>548.2</ele>
        <time>2021-08-23T13:25:04Z</time>
      </trkpt>
      <trkpt lat="47.12702" lon="6.187">
        <ele>548.8</ele>
        <time>2021-08-23T13:25:08Z</time>
      </trkpt>
      <trkpt lat="47.12696" lon="6.18712">
        <ele>549.2</ele>
        <time>2021-08-23T13:25:11Z</time>
      </trkpt>
      <trkpt lat="47.12686" lon="6.18731">
        <ele>550.4</ele>
        <time>2021-08-23T13:25:16Z</time>
      </trkpt>
      <trkpt lat="47.12684" lon="6.18735">
        <ele>550.4</ele>
        <time>2021-08-23T13:25:17Z</time>
      </trkpt>
      <trkpt lat="47.12682" lon="6.18739">
        <ele>550.8</ele>
        <time>2021-08-23T13:25:18Z</time>
      </trkpt>
      <trkpt lat="47.1268" lon="6.18742">
        <ele>551</ele>
        <time>2021-08-23T13:25:19Z</time>
      </trkpt>
      <trkpt lat="47.12678" lon="6.18745">
        <ele>551.2</ele>
        <time>2021-08-23T13:25:20Z</time>
      </trkpt>
      <trkpt lat="47.12676" lon="6.18749">
        <ele>551.4</ele>
        <time>2021-08-23T13:25:21Z</time>
      </trkpt>
      <trkpt lat="47.12675" lon="6.18752">
        <ele>551.8</ele>
        <time>2021-08-23T13:25:22Z</time>
      </trkpt>
      <trkpt lat="47.12673" lon="6.18755">
        <ele>552</ele>
        <time>2021-08-23T13:25:23Z</time>
      </trkpt>
      <trkpt lat="47.12671" lon="6.18758">
        <ele>552</ele>
        <time>2021-08-23T13:25:24Z</time>
      </trkpt>
      <trkpt lat="47.12669" lon="6.18762">
        <ele>552.2</ele>
        <time>2021-08-23T13:25:25Z</time>
      </trkpt>
      <trkpt lat="47.12667" lon="6.18765">
        <ele>552.4</ele>
        <time>2021-08-23T13:25:26Z</time>
      </trkpt>
      <trkpt lat="47.12666" lon="6.18768">
        <ele>552.8</ele>
        <time>2021-08-23T13:25:27Z</time>
      </trkpt>
      <trkpt lat="47.12664" lon="6.18772">
        <ele>553</ele>
        <time>2021-08-23T13:25:28Z</time>
      </trkpt>
      <trkpt lat="47.12662" lon="6.18775">
        <ele>553.2</ele>
        <time>2021-08-23T13:25:29Z</time>
      </trkpt>
      <trkpt lat="47.1266" lon="6.18778">
        <ele>553.2</ele>
        <time>2021-08-23T13:25:30Z</time>
      </trkpt>
      <trkpt lat="47.12659" lon="6.18781">
        <ele>553.4</ele>
        <time>2021-08-23T13:25:31Z</time>
      </trkpt>
      <trkpt lat="47.12657" lon="6.18785">
        <ele>553.8</ele>
        <time>2021-08-23T13:25:32Z</time>
      </trkpt>
      <trkpt lat="47.12656" lon="6.18789">
        <ele>553.8</ele>
        <time>2021-08-23T13:25:33Z</time>
      </trkpt>
      <trkpt lat="47.12654" lon="6.18792">
        <ele>554.2</ele>
        <time>2021-08-23T13:25:34Z</time>
      </trkpt>
      <trkpt lat="47.12652" lon="6.18795">
        <ele>554.2</ele>
        <time>2021-08-23T13:25:35Z</time>
      </trkpt>
      <trkpt lat="47.12651" lon="6.18798">
        <ele>554.2</ele>
        <time>2021-08-23T13:25:36Z</time>
      </trkpt>
      <trkpt lat="47.12649" lon="6.18801">
        <ele>554.4</ele>
        <time>2021-08-23T13:25:37Z</time>
      </trkpt>
      <trkpt lat="47.12648" lon="6.18804">
        <ele>554.4</ele>
        <time>2021-08-23T13:25:38Z</time>
      </trkpt>
      <trkpt lat="47.12646" lon="6.18808">
        <ele>554.8</ele>
        <time>2021-08-23T13:25:39Z</time>
      </trkpt>
      <trkpt lat="47.12645" lon="6.18811">
        <ele>555</ele>
        <time>2021-08-23T13:25:40Z</time>
      </trkpt>
      <trkpt lat="47.12643" lon="6.18814">
        <ele>555.2</ele>
        <time>2021-08-23T13:25:41Z</time>
      </trkpt>
      <trkpt lat="47.12642" lon="6.18816">
        <ele>555.2</ele>
        <time>2021-08-23T13:25:42Z</time>
      </trkpt>
      <trkpt lat="47.12641" lon="6.18819">
        <ele>555.4</ele>
        <time>2021-08-23T13:25:43Z</time>
      </trkpt>
      <trkpt lat="47.1264" lon="6.18822">
        <ele>555.6</ele>
        <time>2021-08-23T13:25:44Z</time>
      </trkpt>
      <trkpt lat="47.12639" lon="6.18825">
        <ele>555.6</ele>
        <time>2021-08-23T13:25:45Z</time>
      </trkpt>
      <trkpt lat="47.12637" lon="6.18827">
        <ele>555.8</ele>
        <time>2021-08-23T13:25:46Z</time>
      </trkpt>
      <trkpt lat="47.12636" lon="6.1883">
        <ele>555.8</ele>
        <time>2021-08-23T13:25:47Z</time>
      </trkpt>
      <trkpt lat="47.12634" lon="6.18831">
        <ele>556</ele>
        <time>2021-08-23T13:25:48Z</time>
      </trkpt>
      <trkpt lat="47.12631" lon="6.18832">
        <ele>556.2</ele>
        <time>2021-08-23T13:25:49Z</time>
      </trkpt>
      <trkpt lat="47.1263" lon="6.18832">
        <ele>556.4</ele>
        <time>2021-08-23T13:25:50Z</time>
      </trkpt>
      <trkpt lat="47.12627" lon="6.18832">
        <ele>556.4</ele>
        <time>2021-08-23T13:25:51Z</time>
      </trkpt>
      <trkpt lat="47.12625" lon="6.18833">
        <ele>556.6</ele>
        <time>2021-08-23T13:25:52Z</time>
      </trkpt>
      <trkpt lat="47.12623" lon="6.18835">
        <ele>556.6</ele>
        <time>2021-08-23T13:25:53Z</time>
      </trkpt>
      <trkpt lat="47.12621" lon="6.18838">
        <ele>556.8</ele>
        <time>2021-08-23T13:25:54Z</time>
      </trkpt>
      <trkpt lat="47.1262" lon="6.18841">
        <ele>557</ele>
        <time>2021-08-23T13:25:55Z</time>
      </trkpt>
      <trkpt lat="47.12619" lon="6.18844">
        <ele>557</ele>
        <time>2021-08-23T13:25:56Z</time>
      </trkpt>
      <trkpt lat="47.12618" lon="6.18848">
        <ele>557.2</ele>
        <time>2021-08-23T13:25:57Z</time>
      </trkpt>
      <trkpt lat="47.12617" lon="6.18851">
        <ele>557.2</ele>
        <time>2021-08-23T13:25:58Z</time>
      </trkpt>
      <trkpt lat="47.12615" lon="6.18854">
        <ele>557.4</ele>
        <time>2021-08-23T13:25:59Z</time>
      </trkpt>
      <trkpt lat="47.12614" lon="6.18857">
        <ele>557.4</ele>
        <time>2021-08-23T13:26:00Z</time>
      </trkpt>
      <trkpt lat="47.12612" lon="6.18861">
        <ele>557.6</ele>
        <time>2021-08-23T13:26:01Z</time>
      </trkpt>
      <trkpt lat="47.12611" lon="6.18864">
        <ele>557.8</ele>
        <time>2021-08-23T13:26:02Z</time>
      </trkpt>
      <trkpt lat="47.12609" lon="6.18868">
        <ele>558</ele>
        <time>2021-08-23T13:26:03Z</time>
      </trkpt>
      <trkpt lat="47.12608" lon="6.18871">
        <ele>558.4</ele>
        <time>2021-08-23T13:26:04Z</time>
      </trkpt>
      <trkpt lat="47.12606" lon="6.18874">
        <ele>558.4</ele>
        <time>2021-08-23T13:26:05Z</time>
      </trkpt>
      <trkpt lat="47.12604" lon="6.18877">
        <ele>558.6</ele>
        <time>2021-08-23T13:26:06Z</time>
      </trkpt>
      <trkpt lat="47.12603" lon="6.1888">
        <ele>558.6</ele>
        <time>2021-08-23T13:26:07Z</time>
      </trkpt>
      <trkpt lat="47.12601" lon="6.18883">
        <ele>558.8</ele>
        <time>2021-08-23T13:26:08Z</time>
      </trkpt>
      <trkpt lat="47.126" lon="6.18886">
        <ele>558.8</ele>
        <time>2021-08-23T13:26:09Z</time>
      </trkpt>
      <trkpt lat="47.12598" lon="6.18889">
        <ele>559</ele>
        <time>2021-08-23T13:26:10Z</time>
      </trkpt>
      <trkpt lat="47.12596" lon="6.18892">
        <ele>559.2</ele>
        <time>2021-08-23T13:26:11Z</time>
      </trkpt>
      <trkpt lat="47.12595" lon="6.18896">
        <ele>559.2</ele>
        <time>2021-08-23T13:26:12Z</time>
      </trkpt>
      <trkpt lat="47.12593" lon="6.18899">
        <ele>559.6</ele>
        <time>2021-08-23T13:26:13Z</time>
      </trkpt>
      <trkpt lat="47.12592" lon="6.18901">
        <ele>559.6</ele>
        <time>2021-08-23T13:26:14Z</time>
      </trkpt>
      <trkpt lat="47.1259" lon="6.18904">
        <ele>559.8</ele>
        <time>2021-08-23T13:26:15Z</time>
      </trkpt>
      <trkpt lat="47.12589" lon="6.18907">
        <ele>559.8</ele>
        <time>2021-08-23T13:26:16Z</time>
      </trkpt>
      <trkpt lat="47.12587" lon="6.1891">
        <ele>560</ele>
        <time>2021-08-23T13:26:17Z</time>
      </trkpt>
      <trkpt lat="47.12585" lon="6.18913">
        <ele>560.2</ele>
        <time>2021-08-23T13:26:18Z</time>
      </trkpt>
      <trkpt lat="47.12583" lon="6.18916">
        <ele>560.4</ele>
        <time>2021-08-23T13:26:19Z</time>
      </trkpt>
      <trkpt lat="47.12582" lon="6.18919">
        <ele>560.6</ele>
        <time>2021-08-23T13:26:20Z</time>
      </trkpt>
      <trkpt lat="47.1258" lon="6.18922">
        <ele>560.8</ele>
        <time>2021-08-23T13:26:21Z</time>
      </trkpt>
      <trkpt lat="47.12579" lon="6.18925">
        <ele>561</ele>
        <time>2021-08-23T13:26:22Z</time>
      </trkpt>
      <trkpt lat="47.12577" lon="6.18928">
        <ele>561</ele>
        <time>2021-08-23T13:26:23Z</time>
      </trkpt>
      <trkpt lat="47.12575" lon="6.18931">
        <ele>561.2</ele>
        <time>2021-08-23T13:26:24Z</time>
      </trkpt>
      <trkpt lat="47.12574" lon="6.18934">
        <ele>561.4</ele>
        <time>2021-08-23T13:26:25Z</time>
      </trkpt>
      <trkpt lat="47.12572" lon="6.18937">
        <ele>561.8</ele>
        <time>2021-08-23T13:26:26Z</time>
      </trkpt>
      <trkpt lat="47.1257" lon="6.1894">
        <ele>562.2</ele>
        <time>2021-08-23T13:26:27Z</time>
      </trkpt>
      <trkpt lat="47.12569" lon="6.18943">
        <ele>562.2</ele>
        <time>2021-08-23T13:26:28Z</time>
      </trkpt>
      <trkpt lat="47.12567" lon="6.18946">
        <ele>562.4</ele>
        <time>2021-08-23T13:26:29Z</time>
      </trkpt>
      <trkpt lat="47.12565" lon="6.1895">
        <ele>562.4</ele>
        <time>2021-08-23T13:26:30Z</time>
      </trkpt>
      <trkpt lat="47.12563" lon="6.18953">
        <ele>562.6</ele>
        <time>2021-08-23T13:26:31Z</time>
      </trkpt>
      <trkpt lat="47.12561" lon="6.18956">
        <ele>562.6</ele>
        <time>2021-08-23T13:26:32Z</time>
      </trkpt>
      <trkpt lat="47.12559" lon="6.18959">
        <ele>563</ele>
        <time>2021-08-23T13:26:33Z</time>
      </trkpt>
      <trkpt lat="47.12557" lon="6.18963">
        <ele>563.2</ele>
        <time>2021-08-23T13:26:34Z</time>
      </trkpt>
      <trkpt lat="47.12555" lon="6.18967">
        <ele>563.2</ele>
        <time>2021-08-23T13:26:35Z</time>
      </trkpt>
      <trkpt lat="47.12554" lon="6.1897">
        <ele>563.4</ele>
        <time>2021-08-23T13:26:36Z</time>
      </trkpt>
      <trkpt lat="47.12552" lon="6.18973">
        <ele>563.4</ele>
        <time>2021-08-23T13:26:37Z</time>
      </trkpt>
      <trkpt lat="47.1255" lon="6.18977">
        <ele>563.6</ele>
        <time>2021-08-23T13:26:38Z</time>
      </trkpt>
      <trkpt lat="47.12549" lon="6.1898">
        <ele>563.6</ele>
        <time>2021-08-23T13:26:39Z</time>
      </trkpt>
      <trkpt lat="47.12547" lon="6.18983">
        <ele>564</ele>
        <time>2021-08-23T13:26:40Z</time>
      </trkpt>
      <trkpt lat="47.12545" lon="6.18986">
        <ele>564</ele>
        <time>2021-08-23T13:26:41Z</time>
      </trkpt>
      <trkpt lat="47.12543" lon="6.18989">
        <ele>564.4</ele>
        <time>2021-08-23T13:26:42Z</time>
      </trkpt>
      <trkpt lat="47.12541" lon="6.18993">
        <ele>564.6</ele>
        <time>2021-08-23T13:26:43Z</time>
      </trkpt>
      <trkpt lat="47.1254" lon="6.18996">
        <ele>564.8</ele>
        <time>2021-08-23T13:26:44Z</time>
      </trkpt>
      <trkpt lat="47.12538" lon="6.18999">
        <ele>565</ele>
        <time>2021-08-23T13:26:45Z</time>
      </trkpt>
      <trkpt lat="47.12536" lon="6.19002">
        <ele>565</ele>
        <time>2021-08-23T13:26:46Z</time>
      </trkpt>
      <trkpt lat="47.12534" lon="6.19005">
        <ele>565.4</ele>
        <time>2021-08-23T13:26:47Z</time>
      </trkpt>
      <trkpt lat="47.12532" lon="6.19009">
        <ele>565.4</ele>
        <time>2021-08-23T13:26:48Z</time>
      </trkpt>
      <trkpt lat="47.1253" lon="6.19013">
        <ele>565.6</ele>
        <time>2021-08-23T13:26:49Z</time>
      </trkpt>
      <trkpt lat="47.12529" lon="6.19016">
        <ele>565.8</ele>
        <time>2021-08-23T13:26:50Z</time>
      </trkpt>
      <trkpt lat="47.12527" lon="6.19019">
        <ele>566</ele>
        <time>2021-08-23T13:26:51Z</time>
      </trkpt>
      <trkpt lat="47.12525" lon="6.19022">
        <ele>566</ele>
        <time>2021-08-23T13:26:52Z</time>
      </trkpt>
      <trkpt lat="47.12523" lon="6.19025">
        <ele>566.2</ele>
        <time>2021-08-23T13:26:53Z</time>
      </trkpt>
      <trkpt lat="47.12521" lon="6.19029">
        <ele>566.4</ele>
        <time>2021-08-23T13:26:54Z</time>
      </trkpt>
      <trkpt lat="47.1252" lon="6.19031">
        <ele>566.6</ele>
        <time>2021-08-23T13:26:55Z</time>
      </trkpt>
      <trkpt lat="47.12518" lon="6.19035">
        <ele>566.8</ele>
        <time>2021-08-23T13:26:56Z</time>
      </trkpt>
      <trkpt lat="47.12516" lon="6.19038">
        <ele>567</ele>
        <time>2021-08-23T13:26:57Z</time>
      </trkpt>
      <trkpt lat="47.12515" lon="6.19041">
        <ele>567.2</ele>
        <time>2021-08-23T13:26:58Z</time>
      </trkpt>
      <trkpt lat="47.12513" lon="6.19044">
        <ele>567.4</ele>
        <time>2021-08-23T13:26:59Z</time>
      </trkpt>
      <trkpt lat="47.12511" lon="6.19048">
        <ele>567.4</ele>
        <time>2021-08-23T13:27:00Z</time>
      </trkpt>
      <trkpt lat="47.12509" lon="6.19051">
        <ele>567.6</ele>
        <time>2021-08-23T13:27:01Z</time>
      </trkpt>
      <trkpt lat="47.12508" lon="6.19053">
        <ele>567.8</ele>
        <time>2021-08-23T13:27:02Z</time>
      </trkpt>
      <trkpt lat="47.12506" lon="6.19056">
        <ele>568.2</ele>
        <time>2021-08-23T13:27:03Z</time>
      </trkpt>
      <trkpt lat="47.12504" lon="6.1906">
        <ele>568.4</ele>
        <time>2021-08-23T13:27:04Z</time>
      </trkpt>
      <trkpt lat="47.12502" lon="6.19063">
        <ele>568.8</ele>
        <time>2021-08-23T13:27:05Z</time>
      </trkpt>
      <trkpt lat="47.12501" lon="6.19066">
        <ele>568.8</ele>
        <time>2021-08-23T13:27:06Z</time>
      </trkpt>
      <trkpt lat="47.12499" lon="6.19069">
        <ele>569.2</ele>
        <time>2021-08-23T13:27:07Z</time>
      </trkpt>
      <trkpt lat="47.12497" lon="6.19073">
        <ele>569.4</ele>
        <time>2021-08-23T13:27:08Z</time>
      </trkpt>
      <trkpt lat="47.12495" lon="6.19076">
        <ele>569.4</ele>
        <time>2021-08-23T13:27:09Z</time>
      </trkpt>
      <trkpt lat="47.12493" lon="6.19079">
        <ele>569.4</ele>
        <time>2021-08-23T13:27:10Z</time>
      </trkpt>
      <trkpt lat="47.12492" lon="6.19082">
        <ele>569.6</ele>
        <time>2021-08-23T13:27:11Z</time>
      </trkpt>
      <trkpt lat="47.1249" lon="6.19086">
        <ele>570</ele>
        <time>2021-08-23T13:27:12Z</time>
      </trkpt>
      <trkpt lat="47.12488" lon="6.19088">
        <ele>570</ele>
        <time>2021-08-23T13:27:13Z</time>
      </trkpt>
      <trkpt lat="47.12487" lon="6.19091">
        <ele>570.2</ele>
        <time>2021-08-23T13:27:14Z</time>
      </trkpt>
      <trkpt lat="47.12485" lon="6.19095">
        <ele>570.4</ele>
        <time>2021-08-23T13:27:15Z</time>
      </trkpt>
      <trkpt lat="47.12483" lon="6.19098">
        <ele>570.6</ele>
        <time>2021-08-23T13:27:16Z</time>
      </trkpt>
      <trkpt lat="47.12481" lon="6.19101">
        <ele>571</ele>
        <time>2021-08-23T13:27:17Z</time>
      </trkpt>
      <trkpt lat="47.1248" lon="6.19104">
        <ele>571</ele>
        <time>2021-08-23T13:27:18Z</time>
      </trkpt>
      <trkpt lat="47.12478" lon="6.19107">
        <ele>571.2</ele>
        <time>2021-08-23T13:27:19Z</time>
      </trkpt>
      <trkpt lat="47.12476" lon="6.1911">
        <ele>571.4</ele>
        <time>2021-08-23T13:27:20Z</time>
      </trkpt>
      <trkpt lat="47.12474" lon="6.19113">
        <ele>571.6</ele>
        <time>2021-08-23T13:27:21Z</time>
      </trkpt>
      <trkpt lat="47.12473" lon="6.19116">
        <ele>571.6</ele>
        <time>2021-08-23T13:27:22Z</time>
      </trkpt>
      <trkpt lat="47.12471" lon="6.19119">
        <ele>571.8</ele>
        <time>2021-08-23T13:27:23Z</time>
      </trkpt>
      <trkpt lat="47.1247" lon="6.19121">
        <ele>572</ele>
        <time>2021-08-23T13:27:24Z</time>
      </trkpt>
      <trkpt lat="47.12468" lon="6.19124">
        <ele>572.2</ele>
        <time>2021-08-23T13:27:25Z</time>
      </trkpt>
      <trkpt lat="47.12467" lon="6.19127">
        <ele>572.4</ele>
        <time>2021-08-23T13:27:26Z</time>
      </trkpt>
      <trkpt lat="47.12465" lon="6.19131">
        <ele>572.4</ele>
        <time>2021-08-23T13:27:27Z</time>
      </trkpt>
      <trkpt lat="47.12463" lon="6.19134">
        <ele>572.6</ele>
        <time>2021-08-23T13:27:28Z</time>
      </trkpt>
      <trkpt lat="47.12462" lon="6.19136">
        <ele>572.8</ele>
        <time>2021-08-23T13:27:29Z</time>
      </trkpt>
      <trkpt lat="47.1246" lon="6.19139">
        <ele>573</ele>
        <time>2021-08-23T13:27:30Z</time>
      </trkpt>
      <trkpt lat="47.12459" lon="6.19141">
        <ele>573.4</ele>
        <time>2021-08-23T13:27:31Z</time>
      </trkpt>
      <trkpt lat="47.12457" lon="6.19144">
        <ele>573.4</ele>
        <time>2021-08-23T13:27:32Z</time>
      </trkpt>
      <trkpt lat="47.12456" lon="6.19146">
        <ele>573.6</ele>
        <time>2021-08-23T13:27:33Z</time>
      </trkpt>
      <trkpt lat="47.12455" lon="6.19149">
        <ele>573.8</ele>
        <time>2021-08-23T13:27:34Z</time>
      </trkpt>
      <trkpt lat="47.12453" lon="6.19151">
        <ele>574</ele>
        <time>2021-08-23T13:27:35Z</time>
      </trkpt>
      <trkpt lat="47.12452" lon="6.19154">
        <ele>574</ele>
        <time>2021-08-23T13:27:36Z</time>
      </trkpt>
      <trkpt lat="47.1245" lon="6.19157">
        <ele>574.2</ele>
        <time>2021-08-23T13:27:37Z</time>
      </trkpt>
      <trkpt lat="47.12449" lon="6.19159">
        <ele>574.2</ele>
        <time>2021-08-23T13:27:38Z</time>
      </trkpt>
      <trkpt lat="47.12447" lon="6.19162">
        <ele>574.6</ele>
        <time>2021-08-23T13:27:39Z</time>
      </trkpt>
      <trkpt lat="47.12446" lon="6.19165">
        <ele>574.8</ele>
        <time>2021-08-23T13:27:40Z</time>
      </trkpt>
      <trkpt lat="47.12444" lon="6.19168">
        <ele>575</ele>
        <time>2021-08-23T13:27:41Z</time>
      </trkpt>
      <trkpt lat="47.12442" lon="6.19171">
        <ele>575.2</ele>
        <time>2021-08-23T13:27:42Z</time>
      </trkpt>
      <trkpt lat="47.12441" lon="6.19175">
        <ele>575.2</ele>
        <time>2021-08-23T13:27:43Z</time>
      </trkpt>
      <trkpt lat="47.12439" lon="6.19179">
        <ele>575.4</ele>
        <time>2021-08-23T13:27:44Z</time>
      </trkpt>
      <trkpt lat="47.12437" lon="6.19181">
        <ele>575.4</ele>
        <time>2021-08-23T13:27:45Z</time>
      </trkpt>
      <trkpt lat="47.12436" lon="6.19184">
        <ele>575.6</ele>
        <time>2021-08-23T13:27:46Z</time>
      </trkpt>
      <trkpt lat="47.12434" lon="6.19188">
        <ele>575.8</ele>
        <time>2021-08-23T13:27:47Z</time>
      </trkpt>
      <trkpt lat="47.12433" lon="6.19191">
        <ele>575.8</ele>
        <time>2021-08-23T13:27:48Z</time>
      </trkpt>
      <trkpt lat="47.12431" lon="6.19194">
        <ele>576</ele>
        <time>2021-08-23T13:27:49Z</time>
      </trkpt>
      <trkpt lat="47.12429" lon="6.19197">
        <ele>576.2</ele>
        <time>2021-08-23T13:27:50Z</time>
      </trkpt>
      <trkpt lat="47.12428" lon="6.192">
        <ele>576.2</ele>
        <time>2021-08-23T13:27:51Z</time>
      </trkpt>
      <trkpt lat="47.12426" lon="6.19203">
        <ele>576.4</ele>
        <time>2021-08-23T13:27:52Z</time>
      </trkpt>
      <trkpt lat="47.12425" lon="6.19206">
        <ele>576.6</ele>
        <time>2021-08-23T13:27:53Z</time>
      </trkpt>
      <trkpt lat="47.12424" lon="6.19209">
        <ele>576.8</ele>
        <time>2021-08-23T13:27:54Z</time>
      </trkpt>
      <trkpt lat="47.12422" lon="6.19212">
        <ele>577</ele>
        <time>2021-08-23T13:27:55Z</time>
      </trkpt>
      <trkpt lat="47.12421" lon="6.19215">
        <ele>577</ele>
        <time>2021-08-23T13:27:56Z</time>
      </trkpt>
      <trkpt lat="47.12419" lon="6.19217">
        <ele>577.2</ele>
        <time>2021-08-23T13:27:57Z</time>
      </trkpt>
      <trkpt lat="47.12418" lon="6.19221">
        <ele>577.4</ele>
        <time>2021-08-23T13:27:58Z</time>
      </trkpt>
      <trkpt lat="47.12417" lon="6.19223">
        <ele>577.4</ele>
        <time>2021-08-23T13:27:59Z</time>
      </trkpt>
      <trkpt lat="47.12415" lon="6.19226">
        <ele>577.6</ele>
        <time>2021-08-23T13:28:00Z</time>
      </trkpt>
      <trkpt lat="47.12414" lon="6.19228">
        <ele>577.6</ele>
        <time>2021-08-23T13:28:01Z</time>
      </trkpt>
      <trkpt lat="47.12413" lon="6.19231">
        <ele>577.8</ele>
        <time>2021-08-23T13:28:02Z</time>
      </trkpt>
      <trkpt lat="47.12412" lon="6.19234">
        <ele>577.8</ele>
        <time>2021-08-23T13:28:03Z</time>
      </trkpt>
      <trkpt lat="47.1241" lon="6.19236">
        <ele>577.8</ele>
        <time>2021-08-23T13:28:04Z</time>
      </trkpt>
      <trkpt lat="47.12409" lon="6.19239">
        <ele>577.8</ele>
        <time>2021-08-23T13:28:05Z</time>
      </trkpt>
      <trkpt lat="47.12408" lon="6.19242">
        <ele>578</ele>
        <time>2021-08-23T13:28:06Z</time>
      </trkpt>
      <trkpt lat="47.12406" lon="6.19244">
        <ele>578</ele>
        <time>2021-08-23T13:28:07Z</time>
      </trkpt>
      <trkpt lat="47.12405" lon="6.19247">
        <ele>578</ele>
        <time>2021-08-23T13:28:08Z</time>
      </trkpt>
      <trkpt lat="47.12403" lon="6.19249">
        <ele>578</ele>
        <time>2021-08-23T13:28:09Z</time>
      </trkpt>
      <trkpt lat="47.12402" lon="6.19252">
        <ele>578.2</ele>
        <time>2021-08-23T13:28:10Z</time>
      </trkpt>
      <trkpt lat="47.12399" lon="6.19255">
        <ele>578.2</ele>
        <time>2021-08-23T13:28:11Z</time>
      </trkpt>
      <trkpt lat="47.12397" lon="6.19257">
        <ele>578.2</ele>
        <time>2021-08-23T13:28:12Z</time>
      </trkpt>
      <trkpt lat="47.12395" lon="6.19258">
        <ele>578.2</ele>
        <time>2021-08-23T13:28:13Z</time>
      </trkpt>
      <trkpt lat="47.12392" lon="6.19259">
        <ele>578.2</ele>
        <time>2021-08-23T13:28:14Z</time>
      </trkpt>
      <trkpt lat="47.1239" lon="6.1926">
        <ele>578.2</ele>
        <time>2021-08-23T13:28:15Z</time>
      </trkpt>
      <trkpt lat="47.12388" lon="6.1926">
        <ele>578.4</ele>
        <time>2021-08-23T13:28:16Z</time>
      </trkpt>
      <trkpt lat="47.12378" lon="6.19262">
        <ele>578.8</ele>
        <time>2021-08-23T13:28:20Z</time>
      </trkpt>
      <trkpt lat="47.12376" lon="6.19262">
        <ele>578.8</ele>
        <time>2021-08-23T13:28:21Z</time>
      </trkpt>
      <trkpt lat="47.12374" lon="6.1926">
        <ele>579.2</ele>
        <time>2021-08-23T13:28:22Z</time>
      </trkpt>
      <trkpt lat="47.12372" lon="6.19257">
        <ele>579.4</ele>
        <time>2021-08-23T13:28:23Z</time>
      </trkpt>
      <trkpt lat="47.12371" lon="6.19254">
        <ele>579.6</ele>
        <time>2021-08-23T13:28:24Z</time>
      </trkpt>
      <trkpt lat="47.12371" lon="6.19243">
        <ele>580.2</ele>
        <time>2021-08-23T13:28:27Z</time>
      </trkpt>
      <trkpt lat="47.12371" lon="6.19239">
        <ele>580.6</ele>
        <time>2021-08-23T13:28:28Z</time>
      </trkpt>
      <trkpt lat="47.12371" lon="6.19235">
        <ele>580.8</ele>
        <time>2021-08-23T13:28:29Z</time>
      </trkpt>
      <trkpt lat="47.12371" lon="6.19231">
        <ele>581</ele>
        <time>2021-08-23T13:28:30Z</time>
      </trkpt>
      <trkpt lat="47.12371" lon="6.19227">
        <ele>581.2</ele>
        <time>2021-08-23T13:28:31Z</time>
      </trkpt>
      <trkpt lat="47.12371" lon="6.19223">
        <ele>581.4</ele>
        <time>2021-08-23T13:28:32Z</time>
      </trkpt>
      <trkpt lat="47.1237" lon="6.19219">
        <ele>581.4</ele>
        <time>2021-08-23T13:28:33Z</time>
      </trkpt>
      <trkpt lat="47.12369" lon="6.19215">
        <ele>581.6</ele>
        <time>2021-08-23T13:28:34Z</time>
      </trkpt>
      <trkpt lat="47.12368" lon="6.1921">
        <ele>581.6</ele>
        <time>2021-08-23T13:28:35Z</time>
      </trkpt>
      <trkpt lat="47.12367" lon="6.19207">
        <ele>581.8</ele>
        <time>2021-08-23T13:28:36Z</time>
      </trkpt>
      <trkpt lat="47.12365" lon="6.19203">
        <ele>581.8</ele>
        <time>2021-08-23T13:28:37Z</time>
      </trkpt>
      <trkpt lat="47.12363" lon="6.19199">
        <ele>581.8</ele>
        <time>2021-08-23T13:28:38Z</time>
      </trkpt>
      <trkpt lat="47.12361" lon="6.19195">
        <ele>582</ele>
        <time>2021-08-23T13:28:39Z</time>
      </trkpt>
      <trkpt lat="47.12359" lon="6.19191">
        <ele>582</ele>
        <time>2021-08-23T13:28:40Z</time>
      </trkpt>
      <trkpt lat="47.12358" lon="6.19188">
        <ele>582</ele>
        <time>2021-08-23T13:28:41Z</time>
      </trkpt>
      <trkpt lat="47.12356" lon="6.19185">
        <ele>582</ele>
        <time>2021-08-23T13:28:42Z</time>
      </trkpt>
      <trkpt lat="47.12355" lon="6.19182">
        <ele>582.2</ele>
        <time>2021-08-23T13:28:43Z</time>
      </trkpt>
      <trkpt lat="47.12353" lon="6.1918">
        <ele>582.2</ele>
        <time>2021-08-23T13:28:44Z</time>
      </trkpt>
      <trkpt lat="47.12352" lon="6.19176">
        <ele>582.2</ele>
        <time>2021-08-23T13:28:45Z</time>
      </trkpt>
      <trkpt lat="47.1235" lon="6.19173">
        <ele>582.2</ele>
        <time>2021-08-23T13:28:46Z</time>
      </trkpt>
      <trkpt lat="47.12349" lon="6.19169">
        <ele>582.2</ele>
        <time>2021-08-23T13:28:47Z</time>
      </trkpt>
      <trkpt lat="47.12347" lon="6.19166">
        <ele>582.4</ele>
        <time>2021-08-23T13:28:48Z</time>
      </trkpt>
      <trkpt lat="47.12345" lon="6.19162">
        <ele>582.4</ele>
        <time>2021-08-23T13:28:49Z</time>
      </trkpt>
      <trkpt lat="47.12344" lon="6.19159">
        <ele>582.4</ele>
        <time>2021-08-23T13:28:50Z</time>
      </trkpt>
      <trkpt lat="47.12342" lon="6.19155">
        <ele>582.4</ele>
        <time>2021-08-23T13:28:51Z</time>
      </trkpt>
      <trkpt lat="47.12339" lon="6.19152">
        <ele>582.4</ele>
        <time>2021-08-23T13:28:52Z</time>
      </trkpt>
      <trkpt lat="47.12337" lon="6.19149">
        <ele>582.6</ele>
        <time>2021-08-23T13:28:53Z</time>
      </trkpt>
      <trkpt lat="47.12332" lon="6.19142">
        <ele>582.8</ele>
        <time>2021-08-23T13:28:55Z</time>
      </trkpt>
      <trkpt lat="47.12312" lon="6.19126">
        <ele>583.2</ele>
        <time>2021-08-23T13:29:02Z</time>
      </trkpt>
      <trkpt lat="47.12305" lon="6.19123">
        <ele>583.4</ele>
        <time>2021-08-23T13:29:04Z</time>
      </trkpt>
      <trkpt lat="47.12293" lon="6.19119">
        <ele>583.8</ele>
        <time>2021-08-23T13:29:08Z</time>
      </trkpt>
      <trkpt lat="47.12283" lon="6.19117">
        <ele>584.2</ele>
        <time>2021-08-23T13:29:11Z</time>
      </trkpt>
      <trkpt lat="47.12279" lon="6.19116">
        <ele>584.4</ele>
        <time>2021-08-23T13:29:12Z</time>
      </trkpt>
      <trkpt lat="47.12277" lon="6.19116">
        <ele>585</ele>
        <time>2021-08-23T13:29:13Z</time>
      </trkpt>
      <trkpt lat="47.12273" lon="6.19115">
        <ele>585</ele>
        <time>2021-08-23T13:29:14Z</time>
      </trkpt>
      <trkpt lat="47.12264" lon="6.19115">
        <ele>585.6</ele>
        <time>2021-08-23T13:29:17Z</time>
      </trkpt>
      <trkpt lat="47.12261" lon="6.19115">
        <ele>585.6</ele>
        <time>2021-08-23T13:29:18Z</time>
      </trkpt>
      <trkpt lat="47.12257" lon="6.19115">
        <ele>585.8</ele>
        <time>2021-08-23T13:29:19Z</time>
      </trkpt>
      <trkpt lat="47.12254" lon="6.19115">
        <ele>586.2</ele>
        <time>2021-08-23T13:29:20Z</time>
      </trkpt>
      <trkpt lat="47.12251" lon="6.19114">
        <ele>586.2</ele>
        <time>2021-08-23T13:29:21Z</time>
      </trkpt>
      <trkpt lat="47.12248" lon="6.19114">
        <ele>586.4</ele>
        <time>2021-08-23T13:29:22Z</time>
      </trkpt>
      <trkpt lat="47.12245" lon="6.19113">
        <ele>586.6</ele>
        <time>2021-08-23T13:29:23Z</time>
      </trkpt>
      <trkpt lat="47.12242" lon="6.19111">
        <ele>587</ele>
        <time>2021-08-23T13:29:24Z</time>
      </trkpt>
      <trkpt lat="47.12239" lon="6.19109">
        <ele>587.4</ele>
        <time>2021-08-23T13:29:25Z</time>
      </trkpt>
      <trkpt lat="47.12236" lon="6.19106">
        <ele>587.4</ele>
        <time>2021-08-23T13:29:26Z</time>
      </trkpt>
      <trkpt lat="47.12234" lon="6.19103">
        <ele>587.6</ele>
        <time>2021-08-23T13:29:27Z</time>
      </trkpt>
      <trkpt lat="47.12232" lon="6.191">
        <ele>587.6</ele>
        <time>2021-08-23T13:29:28Z</time>
      </trkpt>
      <trkpt lat="47.12229" lon="6.19095">
        <ele>587.8</ele>
        <time>2021-08-23T13:29:29Z</time>
      </trkpt>
      <trkpt lat="47.12228" lon="6.19092">
        <ele>587.8</ele>
        <time>2021-08-23T13:29:30Z</time>
      </trkpt>
      <trkpt lat="47.12226" lon="6.19087">
        <ele>588</ele>
        <time>2021-08-23T13:29:31Z</time>
      </trkpt>
      <trkpt lat="47.12225" lon="6.19082">
        <ele>588</ele>
        <time>2021-08-23T13:29:32Z</time>
      </trkpt>
      <trkpt lat="47.12224" lon="6.19077">
        <ele>588.2</ele>
        <time>2021-08-23T13:29:33Z</time>
      </trkpt>
      <trkpt lat="47.12222" lon="6.19072">
        <ele>588.4</ele>
        <time>2021-08-23T13:29:34Z</time>
      </trkpt>
      <trkpt lat="47.1222" lon="6.19067">
        <ele>588.4</ele>
        <time>2021-08-23T13:29:35Z</time>
      </trkpt>
      <trkpt lat="47.12218" lon="6.19062">
        <ele>588.6</ele>
        <time>2021-08-23T13:29:36Z</time>
      </trkpt>
      <trkpt lat="47.12216" lon="6.19057">
        <ele>588.6</ele>
        <time>2021-08-23T13:29:37Z</time>
      </trkpt>
      <trkpt lat="47.12214" lon="6.19052">
        <ele>588.6</ele>
        <time>2021-08-23T13:29:38Z</time>
      </trkpt>
      <trkpt lat="47.12212" lon="6.19047">
        <ele>588.6</ele>
        <time>2021-08-23T13:29:39Z</time>
      </trkpt>
      <trkpt lat="47.1221" lon="6.19041">
        <ele>588.6</ele>
        <time>2021-08-23T13:29:40Z</time>
      </trkpt>
      <trkpt lat="47.12208" lon="6.19036">
        <ele>588.6</ele>
        <time>2021-08-23T13:29:41Z</time>
      </trkpt>
      <trkpt lat="47.12206" lon="6.1903">
        <ele>588.6</ele>
        <time>2021-08-23T13:29:42Z</time>
      </trkpt>
      <trkpt lat="47.12203" lon="6.19025">
        <ele>588.6</ele>
        <time>2021-08-23T13:29:43Z</time>
      </trkpt>
      <trkpt lat="47.12201" lon="6.19019">
        <ele>588.8</ele>
        <time>2021-08-23T13:29:44Z</time>
      </trkpt>
      <trkpt lat="47.12199" lon="6.19013">
        <ele>588.6</ele>
        <time>2021-08-23T13:29:45Z</time>
      </trkpt>
      <trkpt lat="47.12197" lon="6.19007">
        <ele>588.4</ele>
        <time>2021-08-23T13:29:46Z</time>
      </trkpt>
      <trkpt lat="47.12194" lon="6.19001">
        <ele>588.4</ele>
        <time>2021-08-23T13:29:47Z</time>
      </trkpt>
      <trkpt lat="47.12192" lon="6.18996">
        <ele>588.4</ele>
        <time>2021-08-23T13:29:48Z</time>
      </trkpt>
      <trkpt lat="47.12189" lon="6.1899">
        <ele>588.4</ele>
        <time>2021-08-23T13:29:49Z</time>
      </trkpt>
      <trkpt lat="47.12175" lon="6.18959">
        <ele>588.4</ele>
        <time>2021-08-23T13:29:55Z</time>
      </trkpt>
      <trkpt lat="47.12159" lon="6.18925">
        <ele>588.6</ele>
        <time>2021-08-23T13:30:01Z</time>
      </trkpt>
      <trkpt lat="47.12147" lon="6.18903">
        <ele>588.6</ele>
        <time>2021-08-23T13:30:05Z</time>
      </trkpt>
      <trkpt lat="47.12116" lon="6.18854">
        <ele>589</ele>
        <time>2021-08-23T13:30:14Z</time>
      </trkpt>
      <trkpt lat="47.12093" lon="6.18828">
        <ele>589.2</ele>
        <time>2021-08-23T13:30:20Z</time>
      </trkpt>
      <trkpt lat="47.1209" lon="6.18824">
        <ele>589.2</ele>
        <time>2021-08-23T13:30:21Z</time>
      </trkpt>
      <trkpt lat="47.12086" lon="6.1882">
        <ele>589.2</ele>
        <time>2021-08-23T13:30:22Z</time>
      </trkpt>
      <trkpt lat="47.12082" lon="6.18817">
        <ele>589.4</ele>
        <time>2021-08-23T13:30:23Z</time>
      </trkpt>
      <trkpt lat="47.12078" lon="6.18814">
        <ele>589.6</ele>
        <time>2021-08-23T13:30:24Z</time>
      </trkpt>
      <trkpt lat="47.12075" lon="6.18811">
        <ele>589.6</ele>
        <time>2021-08-23T13:30:25Z</time>
      </trkpt>
      <trkpt lat="47.1207" lon="6.18807">
        <ele>589.8</ele>
        <time>2021-08-23T13:30:26Z</time>
      </trkpt>
      <trkpt lat="47.12067" lon="6.18805">
        <ele>590</ele>
        <time>2021-08-23T13:30:27Z</time>
      </trkpt>
      <trkpt lat="47.12064" lon="6.18802">
        <ele>590.2</ele>
        <time>2021-08-23T13:30:28Z</time>
      </trkpt>
      <trkpt lat="47.1206" lon="6.18799">
        <ele>590.2</ele>
        <time>2021-08-23T13:30:29Z</time>
      </trkpt>
      <trkpt lat="47.12057" lon="6.18796">
        <ele>590.4</ele>
        <time>2021-08-23T13:30:30Z</time>
      </trkpt>
      <trkpt lat="47.12054" lon="6.18793">
        <ele>590.4</ele>
        <time>2021-08-23T13:30:31Z</time>
      </trkpt>
      <trkpt lat="47.1205" lon="6.18789">
        <ele>590.6</ele>
        <time>2021-08-23T13:30:32Z</time>
      </trkpt>
      <trkpt lat="47.12046" lon="6.18786">
        <ele>590.6</ele>
        <time>2021-08-23T13:30:33Z</time>
      </trkpt>
      <trkpt lat="47.12038" lon="6.1878">
        <ele>590.8</ele>
        <time>2021-08-23T13:30:35Z</time>
      </trkpt>
      <trkpt lat="47.12025" lon="6.18765">
        <ele>590.8</ele>
        <time>2021-08-23T13:30:39Z</time>
      </trkpt>
      <trkpt lat="47.11993" lon="6.18724">
        <ele>590.4</ele>
        <time>2021-08-23T13:30:46Z</time>
      </trkpt>
      <trkpt lat="47.11977" lon="6.18704">
        <ele>590.2</ele>
        <time>2021-08-23T13:30:49Z</time>
      </trkpt>
      <trkpt lat="47.11972" lon="6.18698">
        <ele>590.2</ele>
        <time>2021-08-23T13:30:50Z</time>
      </trkpt>
      <trkpt lat="47.11954" lon="6.18679">
        <ele>590</ele>
        <time>2021-08-23T13:30:53Z</time>
      </trkpt>
      <trkpt lat="47.11903" lon="6.18637">
        <ele>589.8</ele>
        <time>2021-08-23T13:31:01Z</time>
      </trkpt>
      <trkpt lat="47.11877" lon="6.18618">
        <ele>589.8</ele>
        <time>2021-08-23T13:31:05Z</time>
      </trkpt>
      <trkpt lat="47.11869" lon="6.18613">
        <ele>590</ele>
        <time>2021-08-23T13:31:06Z</time>
      </trkpt>
      <trkpt lat="47.11857" lon="6.18607">
        <ele>590</ele>
        <time>2021-08-23T13:31:08Z</time>
      </trkpt>
      <trkpt lat="47.11837" lon="6.18602">
        <ele>590.4</ele>
        <time>2021-08-23T13:31:11Z</time>
      </trkpt>
      <trkpt lat="47.11829" lon="6.186">
        <ele>590.4</ele>
        <time>2021-08-23T13:31:12Z</time>
      </trkpt>
      <trkpt lat="47.11824" lon="6.18598">
        <ele>590.4</ele>
        <time>2021-08-23T13:31:13Z</time>
      </trkpt>
      <trkpt lat="47.11818" lon="6.18596">
        <ele>590.6</ele>
        <time>2021-08-23T13:31:14Z</time>
      </trkpt>
      <trkpt lat="47.11811" lon="6.18594">
        <ele>590.8</ele>
        <time>2021-08-23T13:31:15Z</time>
      </trkpt>
      <trkpt lat="47.11806" lon="6.18593">
        <ele>590.8</ele>
        <time>2021-08-23T13:31:16Z</time>
      </trkpt>
      <trkpt lat="47.118" lon="6.18592">
        <ele>591</ele>
        <time>2021-08-23T13:31:17Z</time>
      </trkpt>
      <trkpt lat="47.11794" lon="6.1859">
        <ele>591.2</ele>
        <time>2021-08-23T13:31:18Z</time>
      </trkpt>
      <trkpt lat="47.11788" lon="6.18588">
        <ele>591.4</ele>
        <time>2021-08-23T13:31:19Z</time>
      </trkpt>
      <trkpt lat="47.11783" lon="6.18585">
        <ele>591.4</ele>
        <time>2021-08-23T13:31:20Z</time>
      </trkpt>
      <trkpt lat="47.11778" lon="6.18582">
        <ele>591.6</ele>
        <time>2021-08-23T13:31:21Z</time>
      </trkpt>
      <trkpt lat="47.11773" lon="6.18578">
        <ele>591.8</ele>
        <time>2021-08-23T13:31:22Z</time>
      </trkpt>
      <trkpt lat="47.11768" lon="6.18574">
        <ele>592</ele>
        <time>2021-08-23T13:31:23Z</time>
      </trkpt>
      <trkpt lat="47.11764" lon="6.1857">
        <ele>592</ele>
        <time>2021-08-23T13:31:24Z</time>
      </trkpt>
      <trkpt lat="47.1176" lon="6.18565">
        <ele>592.2</ele>
        <time>2021-08-23T13:31:25Z</time>
      </trkpt>
      <trkpt lat="47.11756" lon="6.1856">
        <ele>592.2</ele>
        <time>2021-08-23T13:31:26Z</time>
      </trkpt>
      <trkpt lat="47.11751" lon="6.18555">
        <ele>592.4</ele>
        <time>2021-08-23T13:31:27Z</time>
      </trkpt>
      <trkpt lat="47.11746" lon="6.1855">
        <ele>592.4</ele>
        <time>2021-08-23T13:31:28Z</time>
      </trkpt>
      <trkpt lat="47.11711" lon="6.18517">
        <ele>591.8</ele>
        <time>2021-08-23T13:31:34Z</time>
      </trkpt>
      <trkpt lat="47.11703" lon="6.1851">
        <ele>591.8</ele>
        <time>2021-08-23T13:31:35Z</time>
      </trkpt>
      <trkpt lat="47.11675" lon="6.18485">
        <ele>590.8</ele>
        <time>2021-08-23T13:31:39Z</time>
      </trkpt>
      <trkpt lat="47.1166" lon="6.18473">
        <ele>590.2</ele>
        <time>2021-08-23T13:31:41Z</time>
      </trkpt>
      <trkpt lat="47.11654" lon="6.18467">
        <ele>590</ele>
        <time>2021-08-23T13:31:42Z</time>
      </trkpt>
      <trkpt lat="47.11647" lon="6.18462">
        <ele>589.6</ele>
        <time>2021-08-23T13:31:43Z</time>
      </trkpt>
      <trkpt lat="47.1164" lon="6.18455">
        <ele>589.6</ele>
        <time>2021-08-23T13:31:44Z</time>
      </trkpt>
      <trkpt lat="47.11636" lon="6.18449">
        <ele>589.6</ele>
        <time>2021-08-23T13:31:45Z</time>
      </trkpt>
      <trkpt lat="47.11631" lon="6.18442">
        <ele>589.6</ele>
        <time>2021-08-23T13:31:46Z</time>
      </trkpt>
      <trkpt lat="47.11626" lon="6.18435">
        <ele>589.6</ele>
        <time>2021-08-23T13:31:47Z</time>
      </trkpt>
      <trkpt lat="47.11622" lon="6.18428">
        <ele>589.6</ele>
        <time>2021-08-23T13:31:48Z</time>
      </trkpt>
      <trkpt lat="47.11618" lon="6.18421">
        <ele>589.6</ele>
        <time>2021-08-23T13:31:49Z</time>
      </trkpt>
      <trkpt lat="47.11614" lon="6.18414">
        <ele>589.6</ele>
        <time>2021-08-23T13:31:50Z</time>
      </trkpt>
      <trkpt lat="47.1161" lon="6.18407">
        <ele>589.6</ele>
        <time>2021-08-23T13:31:51Z</time>
      </trkpt>
      <trkpt lat="47.11607" lon="6.18401">
        <ele>589.6</ele>
        <time>2021-08-23T13:31:52Z</time>
      </trkpt>
      <trkpt lat="47.11603" lon="6.18395">
        <ele>589.6</ele>
        <time>2021-08-23T13:31:53Z</time>
      </trkpt>
      <trkpt lat="47.116" lon="6.18389">
        <ele>589.6</ele>
        <time>2021-08-23T13:31:54Z</time>
      </trkpt>
      <trkpt lat="47.11596" lon="6.18383">
        <ele>589.6</ele>
        <time>2021-08-23T13:31:55Z</time>
      </trkpt>
      <trkpt lat="47.11593" lon="6.18377">
        <ele>590.2</ele>
        <time>2021-08-23T13:31:56Z</time>
      </trkpt>
      <trkpt lat="47.1159" lon="6.18372">
        <ele>590.2</ele>
        <time>2021-08-23T13:31:57Z</time>
      </trkpt>
      <trkpt lat="47.11587" lon="6.18368">
        <ele>590.4</ele>
        <time>2021-08-23T13:31:58Z</time>
      </trkpt>
      <trkpt lat="47.11586" lon="6.18364">
        <ele>590.4</ele>
        <time>2021-08-23T13:31:59Z</time>
      </trkpt>
      <trkpt lat="47.11585" lon="6.18359">
        <ele>593.2</ele>
        <time>2021-08-23T13:40:59Z</time>
      </trkpt>
      <trkpt lat="47.11584" lon="6.18357">
        <ele>592.6</ele>
        <time>2021-08-23T13:41:00Z</time>
      </trkpt>
      <trkpt lat="47.11583" lon="6.18355">
        <ele>592.2</ele>
        <time>2021-08-23T13:41:01Z</time>
      </trkpt>
      <trkpt lat="47.11583" lon="6.18354">
        <ele>592</ele>
        <time>2021-08-23T13:41:02Z</time>
      </trkpt>
      <trkpt lat="47.11582" lon="6.18352">
        <ele>591.6</ele>
        <time>2021-08-23T13:41:03Z</time>
      </trkpt>
      <trkpt lat="47.11582" lon="6.18351">
        <ele>591.4</ele>
        <time>2021-08-23T13:41:04Z</time>
      </trkpt>
      <trkpt lat="47.1158" lon="6.18347">
        <ele>591.2</ele>
        <time>2021-08-23T13:41:06Z</time>
      </trkpt>
      <trkpt lat="47.11575" lon="6.18331">
        <ele>590.8</ele>
        <time>2021-08-23T13:41:12Z</time>
      </trkpt>
      <trkpt lat="47.11566" lon="6.18312">
        <ele>590.6</ele>
        <time>2021-08-23T13:41:19Z</time>
      </trkpt>
      <trkpt lat="47.11565" lon="6.1831">
        <ele>590.6</ele>
        <time>2021-08-23T13:41:20Z</time>
      </trkpt>
      <trkpt lat="47.11564" lon="6.18308">
        <ele>590.6</ele>
        <time>2021-08-23T13:41:21Z</time>
      </trkpt>
      <trkpt lat="47.11563" lon="6.18305">
        <ele>590.6</ele>
        <time>2021-08-23T13:41:23Z</time>
      </trkpt>
      <trkpt lat="47.11562" lon="6.18303">
        <ele>590.6</ele>
        <time>2021-08-23T13:41:24Z</time>
      </trkpt>
      <trkpt lat="47.11562" lon="6.18302">
        <ele>590.6</ele>
        <time>2021-08-23T13:41:25Z</time>
      </trkpt>
      <trkpt lat="47.11562" lon="6.18301">
        <ele>590.8</ele>
        <time>2021-08-23T13:41:26Z</time>
      </trkpt>
      <trkpt lat="47.11561" lon="6.18299">
        <ele>590.8</ele>
        <time>2021-08-23T13:41:27Z</time>
      </trkpt>
      <trkpt lat="47.11561" lon="6.18297">
        <ele>590.8</ele>
        <time>2021-08-23T13:41:28Z</time>
      </trkpt>
      <trkpt lat="47.1156" lon="6.18294">
        <ele>591</ele>
        <time>2021-08-23T13:41:29Z</time>
      </trkpt>
      <trkpt lat="47.11559" lon="6.18292">
        <ele>591</ele>
        <time>2021-08-23T13:41:30Z</time>
      </trkpt>
      <trkpt lat="47.11558" lon="6.1829">
        <ele>591.2</ele>
        <time>2021-08-23T13:41:31Z</time>
      </trkpt>
      <trkpt lat="47.11557" lon="6.18286">
        <ele>591.2</ele>
        <time>2021-08-23T13:41:33Z</time>
      </trkpt>
      <trkpt lat="47.11553" lon="6.18279">
        <ele>591.4</ele>
        <time>2021-08-23T13:41:37Z</time>
      </trkpt>
      <trkpt lat="47.11542" lon="6.18266">
        <ele>591.8</ele>
        <time>2021-08-23T13:41:44Z</time>
      </trkpt>
      <trkpt lat="47.11536" lon="6.18262">
        <ele>592.2</ele>
        <time>2021-08-23T13:41:47Z</time>
      </trkpt>
      <trkpt lat="47.11533" lon="6.18259">
        <ele>592.4</ele>
        <time>2021-08-23T13:41:49Z</time>
      </trkpt>
      <trkpt lat="47.11531" lon="6.18258">
        <ele>592.4</ele>
        <time>2021-08-23T13:41:50Z</time>
      </trkpt>
      <trkpt lat="47.1153" lon="6.18257">
        <ele>592.6</ele>
        <time>2021-08-23T13:41:51Z</time>
      </trkpt>
      <trkpt lat="47.11528" lon="6.18254">
        <ele>593</ele>
        <time>2021-08-23T13:41:53Z</time>
      </trkpt>
      <trkpt lat="47.11527" lon="6.18252">
        <ele>593.2</ele>
        <time>2021-08-23T13:41:54Z</time>
      </trkpt>
      <trkpt lat="47.11526" lon="6.1825">
        <ele>593.6</ele>
        <time>2021-08-23T13:41:55Z</time>
      </trkpt>
      <trkpt lat="47.11524" lon="6.18249">
        <ele>594</ele>
        <time>2021-08-23T13:41:56Z</time>
      </trkpt>
      <trkpt lat="47.11523" lon="6.18247">
        <ele>594.2</ele>
        <time>2021-08-23T13:41:57Z</time>
      </trkpt>
      <trkpt lat="47.11521" lon="6.18245">
        <ele>594.4</ele>
        <time>2021-08-23T13:41:58Z</time>
      </trkpt>
      <trkpt lat="47.1152" lon="6.18244">
        <ele>594.6</ele>
        <time>2021-08-23T13:41:59Z</time>
      </trkpt>
      <trkpt lat="47.11518" lon="6.18242">
        <ele>594.8</ele>
        <time>2021-08-23T13:42:00Z</time>
      </trkpt>
      <trkpt lat="47.11516" lon="6.1824">
        <ele>595.2</ele>
        <time>2021-08-23T13:42:01Z</time>
      </trkpt>
      <trkpt lat="47.11514" lon="6.18238">
        <ele>595.2</ele>
        <time>2021-08-23T13:42:02Z</time>
      </trkpt>
      <trkpt lat="47.11512" lon="6.18237">
        <ele>595.6</ele>
        <time>2021-08-23T13:42:03Z</time>
      </trkpt>
      <trkpt lat="47.1151" lon="6.18235">
        <ele>595.8</ele>
        <time>2021-08-23T13:42:04Z</time>
      </trkpt>
      <trkpt lat="47.11508" lon="6.18234">
        <ele>596</ele>
        <time>2021-08-23T13:42:05Z</time>
      </trkpt>
      <trkpt lat="47.11506" lon="6.18233">
        <ele>596.2</ele>
        <time>2021-08-23T13:42:06Z</time>
      </trkpt>
      <trkpt lat="47.11504" lon="6.18231">
        <ele>596.2</ele>
        <time>2021-08-23T13:42:07Z</time>
      </trkpt>
      <trkpt lat="47.11503" lon="6.1823">
        <ele>596.4</ele>
        <time>2021-08-23T13:42:08Z</time>
      </trkpt>
      <trkpt lat="47.11501" lon="6.18228">
        <ele>596.8</ele>
        <time>2021-08-23T13:42:09Z</time>
      </trkpt>
      <trkpt lat="47.11499" lon="6.18226">
        <ele>596.8</ele>
        <time>2021-08-23T13:42:10Z</time>
      </trkpt>
      <trkpt lat="47.11497" lon="6.18225">
        <ele>597</ele>
        <time>2021-08-23T13:42:11Z</time>
      </trkpt>
      <trkpt lat="47.11495" lon="6.18224">
        <ele>597</ele>
        <time>2021-08-23T13:42:12Z</time>
      </trkpt>
      <trkpt lat="47.11493" lon="6.18222">
        <ele>597.2</ele>
        <time>2021-08-23T13:42:13Z</time>
      </trkpt>
      <trkpt lat="47.1149" lon="6.1822">
        <ele>597.2</ele>
        <time>2021-08-23T13:42:14Z</time>
      </trkpt>
      <trkpt lat="47.11488" lon="6.18218">
        <ele>597.4</ele>
        <time>2021-08-23T13:42:15Z</time>
      </trkpt>
      <trkpt lat="47.11485" lon="6.18216">
        <ele>597.4</ele>
        <time>2021-08-23T13:42:16Z</time>
      </trkpt>
      <trkpt lat="47.11483" lon="6.18216">
        <ele>597.6</ele>
        <time>2021-08-23T13:42:17Z</time>
      </trkpt>
      <trkpt lat="47.11482" lon="6.18215">
        <ele>598</ele>
        <time>2021-08-23T13:42:18Z</time>
      </trkpt>
      <trkpt lat="47.11481" lon="6.18215">
        <ele>598</ele>
        <time>2021-08-23T13:42:19Z</time>
      </trkpt>
      <trkpt lat="47.11479" lon="6.18214">
        <ele>598.2</ele>
        <time>2021-08-23T13:42:20Z</time>
      </trkpt>
      <trkpt lat="47.11476" lon="6.18212">
        <ele>598.4</ele>
        <time>2021-08-23T13:42:21Z</time>
      </trkpt>
      <trkpt lat="47.11475" lon="6.18211">
        <ele>598.6</ele>
        <time>2021-08-23T13:42:22Z</time>
      </trkpt>
      <trkpt lat="47.11473" lon="6.1821">
        <ele>598.8</ele>
        <time>2021-08-23T13:42:23Z</time>
      </trkpt>
      <trkpt lat="47.11472" lon="6.1821">
        <ele>599</ele>
        <time>2021-08-23T13:42:24Z</time>
      </trkpt>
      <trkpt lat="47.1147" lon="6.18209">
        <ele>599.2</ele>
        <time>2021-08-23T13:42:25Z</time>
      </trkpt>
      <trkpt lat="47.11468" lon="6.18208">
        <ele>599.4</ele>
        <time>2021-08-23T13:42:26Z</time>
      </trkpt>
      <trkpt lat="47.11467" lon="6.18208">
        <ele>599.4</ele>
        <time>2021-08-23T13:42:27Z</time>
      </trkpt>
      <trkpt lat="47.11465" lon="6.18207">
        <ele>599.6</ele>
        <time>2021-08-23T13:42:28Z</time>
      </trkpt>
      <trkpt lat="47.11463" lon="6.18206">
        <ele>599.6</ele>
        <time>2021-08-23T13:42:29Z</time>
      </trkpt>
      <trkpt lat="47.11461" lon="6.18205">
        <ele>599.8</ele>
        <time>2021-08-23T13:42:30Z</time>
      </trkpt>
      <trkpt lat="47.1146" lon="6.18205">
        <ele>600.2</ele>
        <time>2021-08-23T13:42:31Z</time>
      </trkpt>
      <trkpt lat="47.11458" lon="6.18203">
        <ele>600.4</ele>
        <time>2021-08-23T13:42:32Z</time>
      </trkpt>
      <trkpt lat="47.11456" lon="6.18203">
        <ele>600.6</ele>
        <time>2021-08-23T13:42:33Z</time>
      </trkpt>
      <trkpt lat="47.11454" lon="6.18203">
        <ele>600.8</ele>
        <time>2021-08-23T13:42:34Z</time>
      </trkpt>
      <trkpt lat="47.11451" lon="6.18203">
        <ele>601</ele>
        <time>2021-08-23T13:42:35Z</time>
      </trkpt>
      <trkpt lat="47.11449" lon="6.18202">
        <ele>601.2</ele>
        <time>2021-08-23T13:42:36Z</time>
      </trkpt>
      <trkpt lat="47.11447" lon="6.18202">
        <ele>601.2</ele>
        <time>2021-08-23T13:42:37Z</time>
      </trkpt>
      <trkpt lat="47.11445" lon="6.18202">
        <ele>601.4</ele>
        <time>2021-08-23T13:42:38Z</time>
      </trkpt>
      <trkpt lat="47.11443" lon="6.18201">
        <ele>601.4</ele>
        <time>2021-08-23T13:42:39Z</time>
      </trkpt>
      <trkpt lat="47.11442" lon="6.182">
        <ele>601.6</ele>
        <time>2021-08-23T13:42:40Z</time>
      </trkpt>
      <trkpt lat="47.1144" lon="6.18199">
        <ele>601.8</ele>
        <time>2021-08-23T13:42:41Z</time>
      </trkpt>
      <trkpt lat="47.11438" lon="6.18199">
        <ele>601.8</ele>
        <time>2021-08-23T13:42:42Z</time>
      </trkpt>
      <trkpt lat="47.11437" lon="6.18198">
        <ele>601.8</ele>
        <time>2021-08-23T13:42:43Z</time>
      </trkpt>
      <trkpt lat="47.11435" lon="6.18197">
        <ele>601.8</ele>
        <time>2021-08-23T13:42:44Z</time>
      </trkpt>
      <trkpt lat="47.11433" lon="6.18197">
        <ele>602</ele>
        <time>2021-08-23T13:42:45Z</time>
      </trkpt>
      <trkpt lat="47.11432" lon="6.18196">
        <ele>602</ele>
        <time>2021-08-23T13:42:46Z</time>
      </trkpt>
      <trkpt lat="47.1143" lon="6.18196">
        <ele>602.2</ele>
        <time>2021-08-23T13:42:47Z</time>
      </trkpt>
      <trkpt lat="47.1143" lon="6.18196">
        <ele>602.2</ele>
        <time>2021-08-23T13:42:48Z</time>
      </trkpt>
      <trkpt lat="47.11428" lon="6.18196">
        <ele>602.4</ele>
        <time>2021-08-23T13:42:49Z</time>
      </trkpt>
      <trkpt lat="47.11427" lon="6.18195">
        <ele>602.4</ele>
        <time>2021-08-23T13:42:50Z</time>
      </trkpt>
      <trkpt lat="47.11425" lon="6.18195">
        <ele>602.6</ele>
        <time>2021-08-23T13:42:51Z</time>
      </trkpt>
      <trkpt lat="47.11423" lon="6.18194">
        <ele>602.8</ele>
        <time>2021-08-23T13:42:52Z</time>
      </trkpt>
      <trkpt lat="47.11421" lon="6.18194">
        <ele>602.8</ele>
        <time>2021-08-23T13:42:53Z</time>
      </trkpt>
      <trkpt lat="47.11419" lon="6.18194">
        <ele>603</ele>
        <time>2021-08-23T13:42:54Z</time>
      </trkpt>
      <trkpt lat="47.11418" lon="6.18193">
        <ele>603</ele>
        <time>2021-08-23T13:42:55Z</time>
      </trkpt>
      <trkpt lat="47.11416" lon="6.18192">
        <ele>603.2</ele>
        <time>2021-08-23T13:42:56Z</time>
      </trkpt>
      <trkpt lat="47.11414" lon="6.18192">
        <ele>603.2</ele>
        <time>2021-08-23T13:42:57Z</time>
      </trkpt>
      <trkpt lat="47.11413" lon="6.18191">
        <ele>603.2</ele>
        <time>2021-08-23T13:42:58Z</time>
      </trkpt>
      <trkpt lat="47.11411" lon="6.1819">
        <ele>603.4</ele>
        <time>2021-08-23T13:42:59Z</time>
      </trkpt>
      <trkpt lat="47.11409" lon="6.18189">
        <ele>603.4</ele>
        <time>2021-08-23T13:43:00Z</time>
      </trkpt>
      <trkpt lat="47.11407" lon="6.18188">
        <ele>603.6</ele>
        <time>2021-08-23T13:43:01Z</time>
      </trkpt>
      <trkpt lat="47.11405" lon="6.18187">
        <ele>603.8</ele>
        <time>2021-08-23T13:43:02Z</time>
      </trkpt>
      <trkpt lat="47.11403" lon="6.18186">
        <ele>603.8</ele>
        <time>2021-08-23T13:43:03Z</time>
      </trkpt>
      <trkpt lat="47.11401" lon="6.18185">
        <ele>604</ele>
        <time>2021-08-23T13:43:04Z</time>
      </trkpt>
      <trkpt lat="47.11399" lon="6.18183">
        <ele>604.2</ele>
        <time>2021-08-23T13:43:05Z</time>
      </trkpt>
      <trkpt lat="47.11397" lon="6.18183">
        <ele>604.4</ele>
        <time>2021-08-23T13:43:06Z</time>
      </trkpt>
      <trkpt lat="47.11395" lon="6.18182">
        <ele>604.4</ele>
        <time>2021-08-23T13:43:07Z</time>
      </trkpt>
      <trkpt lat="47.11394" lon="6.18181">
        <ele>604.4</ele>
        <time>2021-08-23T13:43:08Z</time>
      </trkpt>
      <trkpt lat="47.11392" lon="6.18181">
        <ele>604.6</ele>
        <time>2021-08-23T13:43:09Z</time>
      </trkpt>
      <trkpt lat="47.11391" lon="6.18181">
        <ele>604.8</ele>
        <time>2021-08-23T13:43:10Z</time>
      </trkpt>
      <trkpt lat="47.11389" lon="6.1818">
        <ele>604.8</ele>
        <time>2021-08-23T13:43:11Z</time>
      </trkpt>
      <trkpt lat="47.11387" lon="6.18179">
        <ele>605</ele>
        <time>2021-08-23T13:43:12Z</time>
      </trkpt>
      <trkpt lat="47.11386" lon="6.18178">
        <ele>605.2</ele>
        <time>2021-08-23T13:43:13Z</time>
      </trkpt>
      <trkpt lat="47.11384" lon="6.18177">
        <ele>605.4</ele>
        <time>2021-08-23T13:43:14Z</time>
      </trkpt>
      <trkpt lat="47.11382" lon="6.18176">
        <ele>605.4</ele>
        <time>2021-08-23T13:43:15Z</time>
      </trkpt>
      <trkpt lat="47.11379" lon="6.18176">
        <ele>605.6</ele>
        <time>2021-08-23T13:43:16Z</time>
      </trkpt>
      <trkpt lat="47.11377" lon="6.18176">
        <ele>605.6</ele>
        <time>2021-08-23T13:43:17Z</time>
      </trkpt>
      <trkpt lat="47.11375" lon="6.18175">
        <ele>605.6</ele>
        <time>2021-08-23T13:43:18Z</time>
      </trkpt>
      <trkpt lat="47.11372" lon="6.18173">
        <ele>605.8</ele>
        <time>2021-08-23T13:43:19Z</time>
      </trkpt>
      <trkpt lat="47.11369" lon="6.18171">
        <ele>605.8</ele>
        <time>2021-08-23T13:43:20Z</time>
      </trkpt>
      <trkpt lat="47.11367" lon="6.1817">
        <ele>605.8</ele>
        <time>2021-08-23T13:43:21Z</time>
      </trkpt>
      <trkpt lat="47.11365" lon="6.18169">
        <ele>606</ele>
        <time>2021-08-23T13:43:22Z</time>
      </trkpt>
      <trkpt lat="47.11362" lon="6.18168">
        <ele>606</ele>
        <time>2021-08-23T13:43:23Z</time>
      </trkpt>
      <trkpt lat="47.11359" lon="6.18166">
        <ele>606</ele>
        <time>2021-08-23T13:43:24Z</time>
      </trkpt>
      <trkpt lat="47.11357" lon="6.18166">
        <ele>606</ele>
        <time>2021-08-23T13:43:25Z</time>
      </trkpt>
      <trkpt lat="47.11354" lon="6.18166">
        <ele>606</ele>
        <time>2021-08-23T13:43:26Z</time>
      </trkpt>
      <trkpt lat="47.11351" lon="6.18165">
        <ele>605.8</ele>
        <time>2021-08-23T13:43:27Z</time>
      </trkpt>
      <trkpt lat="47.11349" lon="6.18164">
        <ele>606.2</ele>
        <time>2021-08-23T13:43:28Z</time>
      </trkpt>
      <trkpt lat="47.11347" lon="6.18164">
        <ele>606</ele>
        <time>2021-08-23T13:43:29Z</time>
      </trkpt>
      <trkpt lat="47.11345" lon="6.18163">
        <ele>606</ele>
        <time>2021-08-23T13:43:30Z</time>
      </trkpt>
      <trkpt lat="47.11343" lon="6.18162">
        <ele>606</ele>
        <time>2021-08-23T13:43:31Z</time>
      </trkpt>
      <trkpt lat="47.1134" lon="6.18161">
        <ele>606.2</ele>
        <time>2021-08-23T13:43:32Z</time>
      </trkpt>
      <trkpt lat="47.11335" lon="6.18158">
        <ele>606.2</ele>
        <time>2021-08-23T13:43:34Z</time>
      </trkpt>
      <trkpt lat="47.1133" lon="6.18156">
        <ele>606.2</ele>
        <time>2021-08-23T13:43:36Z</time>
      </trkpt>
      <trkpt lat="47.11328" lon="6.18154">
        <ele>606.2</ele>
        <time>2021-08-23T13:43:37Z</time>
      </trkpt>
      <trkpt lat="47.11309" lon="6.18144">
        <ele>606.4</ele>
        <time>2021-08-23T13:43:44Z</time>
      </trkpt>
      <trkpt lat="47.11302" lon="6.18144">
        <ele>606.4</ele>
        <time>2021-08-23T13:43:47Z</time>
      </trkpt>
      <trkpt lat="47.113" lon="6.18143">
        <ele>606.4</ele>
        <time>2021-08-23T13:43:48Z</time>
      </trkpt>
      <trkpt lat="47.11299" lon="6.18141">
        <ele>606.4</ele>
        <time>2021-08-23T13:43:49Z</time>
      </trkpt>
      <trkpt lat="47.11297" lon="6.18139">
        <ele>606.2</ele>
        <time>2021-08-23T13:43:50Z</time>
      </trkpt>
      <trkpt lat="47.11296" lon="6.18138">
        <ele>606.2</ele>
        <time>2021-08-23T13:43:51Z</time>
      </trkpt>
      <trkpt lat="47.11294" lon="6.18136">
        <ele>606.2</ele>
        <time>2021-08-23T13:43:52Z</time>
      </trkpt>
      <trkpt lat="47.11292" lon="6.18135">
        <ele>606.2</ele>
        <time>2021-08-23T13:43:53Z</time>
      </trkpt>
      <trkpt lat="47.11291" lon="6.18134">
        <ele>606</ele>
        <time>2021-08-23T13:43:54Z</time>
      </trkpt>
      <trkpt lat="47.11289" lon="6.18133">
        <ele>606</ele>
        <time>2021-08-23T13:43:55Z</time>
      </trkpt>
      <trkpt lat="47.11287" lon="6.18132">
        <ele>606</ele>
        <time>2021-08-23T13:43:56Z</time>
      </trkpt>
      <trkpt lat="47.11285" lon="6.1813">
        <ele>606</ele>
        <time>2021-08-23T13:43:57Z</time>
      </trkpt>
      <trkpt lat="47.11283" lon="6.18129">
        <ele>605.8</ele>
        <time>2021-08-23T13:43:58Z</time>
      </trkpt>
      <trkpt lat="47.1127" lon="6.18123">
        <ele>605.8</ele>
        <time>2021-08-23T13:44:03Z</time>
      </trkpt>
      <trkpt lat="47.11262" lon="6.18123">
        <ele>605.6</ele>
        <time>2021-08-23T13:44:06Z</time>
      </trkpt>
      <trkpt lat="47.11261" lon="6.18123">
        <ele>605.6</ele>
        <time>2021-08-23T13:44:07Z</time>
      </trkpt>
      <trkpt lat="47.11258" lon="6.18123">
        <ele>605.6</ele>
        <time>2021-08-23T13:44:08Z</time>
      </trkpt>
      <trkpt lat="47.11255" lon="6.18123">
        <ele>605.6</ele>
        <time>2021-08-23T13:44:09Z</time>
      </trkpt>
      <trkpt lat="47.11252" lon="6.18122">
        <ele>605.6</ele>
        <time>2021-08-23T13:44:10Z</time>
      </trkpt>
      <trkpt lat="47.11243" lon="6.18118">
        <ele>605.6</ele>
        <time>2021-08-23T13:44:14Z</time>
      </trkpt>
      <trkpt lat="47.11241" lon="6.18118">
        <ele>605.4</ele>
        <time>2021-08-23T13:44:15Z</time>
      </trkpt>
      <trkpt lat="47.11238" lon="6.18117">
        <ele>605.4</ele>
        <time>2021-08-23T13:44:16Z</time>
      </trkpt>
      <trkpt lat="47.11236" lon="6.18117">
        <ele>605.4</ele>
        <time>2021-08-23T13:44:17Z</time>
      </trkpt>
      <trkpt lat="47.11233" lon="6.18119">
        <ele>605.4</ele>
        <time>2021-08-23T13:44:18Z</time>
      </trkpt>
      <trkpt lat="47.1123" lon="6.18119">
        <ele>605.4</ele>
        <time>2021-08-23T13:44:19Z</time>
      </trkpt>
      <trkpt lat="47.11227" lon="6.18119">
        <ele>605.4</ele>
        <time>2021-08-23T13:44:20Z</time>
      </trkpt>
      <trkpt lat="47.11225" lon="6.18118">
        <ele>605.4</ele>
        <time>2021-08-23T13:44:21Z</time>
      </trkpt>
      <trkpt lat="47.11223" lon="6.18118">
        <ele>605.2</ele>
        <time>2021-08-23T13:44:22Z</time>
      </trkpt>
      <trkpt lat="47.11218" lon="6.18117">
        <ele>605</ele>
        <time>2021-08-23T13:44:23Z</time>
      </trkpt>
      <trkpt lat="47.11215" lon="6.18116">
        <ele>605</ele>
        <time>2021-08-23T13:44:24Z</time>
      </trkpt>
      <trkpt lat="47.11208" lon="6.18114">
        <ele>605</ele>
        <time>2021-08-23T13:44:26Z</time>
      </trkpt>
      <trkpt lat="47.11188" lon="6.18106">
        <ele>604.6</ele>
        <time>2021-08-23T13:44:31Z</time>
      </trkpt>
      <trkpt lat="47.11184" lon="6.18104">
        <ele>604.6</ele>
        <time>2021-08-23T13:44:32Z</time>
      </trkpt>
      <trkpt lat="47.11162" lon="6.18089">
        <ele>603.6</ele>
        <time>2021-08-23T13:44:38Z</time>
      </trkpt>
      <trkpt lat="47.11158" lon="6.18087">
        <ele>603.2</ele>
        <time>2021-08-23T13:44:39Z</time>
      </trkpt>
      <trkpt lat="47.11152" lon="6.18083">
        <ele>602.8</ele>
        <time>2021-08-23T13:44:41Z</time>
      </trkpt>
      <trkpt lat="47.11149" lon="6.18081">
        <ele>602.8</ele>
        <time>2021-08-23T13:44:42Z</time>
      </trkpt>
      <trkpt lat="47.11136" lon="6.18074">
        <ele>602.6</ele>
        <time>2021-08-23T13:44:44Z</time>
      </trkpt>
      <trkpt lat="47.11131" lon="6.18074">
        <ele>602.4</ele>
        <time>2021-08-23T13:44:45Z</time>
      </trkpt>
      <trkpt lat="47.11128" lon="6.18073">
        <ele>602.2</ele>
        <time>2021-08-23T13:44:46Z</time>
      </trkpt>
      <trkpt lat="47.11109" lon="6.18061">
        <ele>601.8</ele>
        <time>2021-08-23T13:44:52Z</time>
      </trkpt>
      <trkpt lat="47.11104" lon="6.18057">
        <ele>602</ele>
        <time>2021-08-23T13:44:54Z</time>
      </trkpt>
      <trkpt lat="47.11101" lon="6.18055">
        <ele>602</ele>
        <time>2021-08-23T13:44:55Z</time>
      </trkpt>
      <trkpt lat="47.11099" lon="6.18054">
        <ele>602</ele>
        <time>2021-08-23T13:44:56Z</time>
      </trkpt>
      <trkpt lat="47.11097" lon="6.18053">
        <ele>602</ele>
        <time>2021-08-23T13:44:57Z</time>
      </trkpt>
      <trkpt lat="47.11096" lon="6.18051">
        <ele>602</ele>
        <time>2021-08-23T13:44:58Z</time>
      </trkpt>
      <trkpt lat="47.11094" lon="6.18049">
        <ele>601.8</ele>
        <time>2021-08-23T13:44:59Z</time>
      </trkpt>
      <trkpt lat="47.11091" lon="6.18046">
        <ele>601.8</ele>
        <time>2021-08-23T13:45:00Z</time>
      </trkpt>
      <trkpt lat="47.11089" lon="6.18044">
        <ele>601.6</ele>
        <time>2021-08-23T13:45:01Z</time>
      </trkpt>
      <trkpt lat="47.11083" lon="6.18036">
        <ele>601.6</ele>
        <time>2021-08-23T13:45:04Z</time>
      </trkpt>
      <trkpt lat="47.1108" lon="6.18034">
        <ele>601.6</ele>
        <time>2021-08-23T13:45:05Z</time>
      </trkpt>
      <trkpt lat="47.11076" lon="6.18029">
        <ele>601.4</ele>
        <time>2021-08-23T13:45:07Z</time>
      </trkpt>
      <trkpt lat="47.11074" lon="6.18026">
        <ele>601.2</ele>
        <time>2021-08-23T13:45:08Z</time>
      </trkpt>
      <trkpt lat="47.11067" lon="6.18014">
        <ele>600.8</ele>
        <time>2021-08-23T13:45:11Z</time>
      </trkpt>
      <trkpt lat="47.11046" lon="6.17981">
        <ele>600.4</ele>
        <time>2021-08-23T13:45:18Z</time>
      </trkpt>
      <trkpt lat="47.11034" lon="6.17967">
        <ele>600.2</ele>
        <time>2021-08-23T13:45:21Z</time>
      </trkpt>
      <trkpt lat="47.11026" lon="6.17956">
        <ele>600.2</ele>
        <time>2021-08-23T13:45:24Z</time>
      </trkpt>
      <trkpt lat="47.11025" lon="6.17951">
        <ele>600.2</ele>
        <time>2021-08-23T13:45:25Z</time>
      </trkpt>
      <trkpt lat="47.11022" lon="6.17946">
        <ele>600.2</ele>
        <time>2021-08-23T13:45:26Z</time>
      </trkpt>
      <trkpt lat="47.11021" lon="6.17941">
        <ele>600.2</ele>
        <time>2021-08-23T13:45:27Z</time>
      </trkpt>
      <trkpt lat="47.11018" lon="6.17933">
        <ele>600.2</ele>
        <time>2021-08-23T13:45:28Z</time>
      </trkpt>
      <trkpt lat="47.11015" lon="6.17925">
        <ele>600</ele>
        <time>2021-08-23T13:45:29Z</time>
      </trkpt>
      <trkpt lat="47.11009" lon="6.17906">
        <ele>599.6</ele>
        <time>2021-08-23T13:45:32Z</time>
      </trkpt>
      <trkpt lat="47.11004" lon="6.17895">
        <ele>599.4</ele>
        <time>2021-08-23T13:45:33Z</time>
      </trkpt>
      <trkpt lat="47.10999" lon="6.17888">
        <ele>599</ele>
        <time>2021-08-23T13:45:34Z</time>
      </trkpt>
      <trkpt lat="47.10982" lon="6.1786">
        <ele>598.2</ele>
        <time>2021-08-23T13:45:39Z</time>
      </trkpt>
      <trkpt lat="47.10974" lon="6.17849">
        <ele>598</ele>
        <time>2021-08-23T13:45:41Z</time>
      </trkpt>
      <trkpt lat="47.10971" lon="6.17844">
        <ele>597.8</ele>
        <time>2021-08-23T13:45:42Z</time>
      </trkpt>
      <trkpt lat="47.10963" lon="6.17834">
        <ele>597.4</ele>
        <time>2021-08-23T13:45:44Z</time>
      </trkpt>
      <trkpt lat="47.1096" lon="6.1783">
        <ele>597</ele>
        <time>2021-08-23T13:45:45Z</time>
      </trkpt>
      <trkpt lat="47.10956" lon="6.17825">
        <ele>596.8</ele>
        <time>2021-08-23T13:45:46Z</time>
      </trkpt>
      <trkpt lat="47.10952" lon="6.1782">
        <ele>596.6</ele>
        <time>2021-08-23T13:45:47Z</time>
      </trkpt>
      <trkpt lat="47.10949" lon="6.17815">
        <ele>596.4</ele>
        <time>2021-08-23T13:45:48Z</time>
      </trkpt>
      <trkpt lat="47.10946" lon="6.17811">
        <ele>596.4</ele>
        <time>2021-08-23T13:45:49Z</time>
      </trkpt>
      <trkpt lat="47.10943" lon="6.17805">
        <ele>596.2</ele>
        <time>2021-08-23T13:45:50Z</time>
      </trkpt>
      <trkpt lat="47.1094" lon="6.17801">
        <ele>596.2</ele>
        <time>2021-08-23T13:45:51Z</time>
      </trkpt>
      <trkpt lat="47.10938" lon="6.17795">
        <ele>596</ele>
        <time>2021-08-23T13:45:52Z</time>
      </trkpt>
      <trkpt lat="47.10936" lon="6.1779">
        <ele>596</ele>
        <time>2021-08-23T13:45:53Z</time>
      </trkpt>
      <trkpt lat="47.10933" lon="6.17785">
        <ele>595.8</ele>
        <time>2021-08-23T13:45:54Z</time>
      </trkpt>
      <trkpt lat="47.1093" lon="6.17779">
        <ele>595.8</ele>
        <time>2021-08-23T13:45:55Z</time>
      </trkpt>
      <trkpt lat="47.10927" lon="6.17773">
        <ele>595.6</ele>
        <time>2021-08-23T13:45:56Z</time>
      </trkpt>
      <trkpt lat="47.1092" lon="6.17763">
        <ele>595</ele>
        <time>2021-08-23T13:45:58Z</time>
      </trkpt>
      <trkpt lat="47.10916" lon="6.17758">
        <ele>594.8</ele>
        <time>2021-08-23T13:45:59Z</time>
      </trkpt>
      <trkpt lat="47.10911" lon="6.17754">
        <ele>594.6</ele>
        <time>2021-08-23T13:46:00Z</time>
      </trkpt>
      <trkpt lat="47.10906" lon="6.1775">
        <ele>594.4</ele>
        <time>2021-08-23T13:46:01Z</time>
      </trkpt>
      <trkpt lat="47.10893" lon="6.17738">
        <ele>594.2</ele>
        <time>2021-08-23T13:46:04Z</time>
      </trkpt>
      <trkpt lat="47.10889" lon="6.17733">
        <ele>594</ele>
        <time>2021-08-23T13:46:05Z</time>
      </trkpt>
      <trkpt lat="47.10885" lon="6.17728">
        <ele>593.8</ele>
        <time>2021-08-23T13:46:06Z</time>
      </trkpt>
      <trkpt lat="47.10882" lon="6.17721">
        <ele>593.4</ele>
        <time>2021-08-23T13:46:07Z</time>
      </trkpt>
      <trkpt lat="47.1088" lon="6.17714">
        <ele>593.2</ele>
        <time>2021-08-23T13:46:08Z</time>
      </trkpt>
      <trkpt lat="47.1088" lon="6.17706">
        <ele>593</ele>
        <time>2021-08-23T13:46:09Z</time>
      </trkpt>
      <trkpt lat="47.1088" lon="6.17698">
        <ele>592.8</ele>
        <time>2021-08-23T13:46:10Z</time>
      </trkpt>
      <trkpt lat="47.10881" lon="6.17688">
        <ele>592.6</ele>
        <time>2021-08-23T13:46:11Z</time>
      </trkpt>
      <trkpt lat="47.10882" lon="6.17678">
        <ele>592.4</ele>
        <time>2021-08-23T13:46:12Z</time>
      </trkpt>
      <trkpt lat="47.10883" lon="6.17669">
        <ele>592.2</ele>
        <time>2021-08-23T13:46:13Z</time>
      </trkpt>
      <trkpt lat="47.10882" lon="6.17659">
        <ele>591.6</ele>
        <time>2021-08-23T13:46:14Z</time>
      </trkpt>
      <trkpt lat="47.1088" lon="6.1765">
        <ele>591.4</ele>
        <time>2021-08-23T13:46:15Z</time>
      </trkpt>
      <trkpt lat="47.10879" lon="6.17643">
        <ele>590.6</ele>
        <time>2021-08-23T13:46:16Z</time>
      </trkpt>
      <trkpt lat="47.10877" lon="6.17633">
        <ele>590</ele>
        <time>2021-08-23T13:46:17Z</time>
      </trkpt>
      <trkpt lat="47.10876" lon="6.17624">
        <ele>589.8</ele>
        <time>2021-08-23T13:46:18Z</time>
      </trkpt>
      <trkpt lat="47.10874" lon="6.17615">
        <ele>589.4</ele>
        <time>2021-08-23T13:46:19Z</time>
      </trkpt>
      <trkpt lat="47.10868" lon="6.17588">
        <ele>588.4</ele>
        <time>2021-08-23T13:46:22Z</time>
      </trkpt>
      <trkpt lat="47.10867" lon="6.17579">
        <ele>588</ele>
        <time>2021-08-23T13:46:23Z</time>
      </trkpt>
      <trkpt lat="47.10866" lon="6.17572">
        <ele>588</ele>
        <time>2021-08-23T13:46:24Z</time>
      </trkpt>
      <trkpt lat="47.10865" lon="6.17566">
        <ele>587.8</ele>
        <time>2021-08-23T13:46:25Z</time>
      </trkpt>
      <trkpt lat="47.10864" lon="6.17561">
        <ele>587.8</ele>
        <time>2021-08-23T13:46:26Z</time>
      </trkpt>
      <trkpt lat="47.10864" lon="6.17555">
        <ele>587.4</ele>
        <time>2021-08-23T13:46:27Z</time>
      </trkpt>
      <trkpt lat="47.10864" lon="6.1755">
        <ele>586.8</ele>
        <time>2021-08-23T13:46:28Z</time>
      </trkpt>
      <trkpt lat="47.10863" lon="6.17545">
        <ele>586.8</ele>
        <time>2021-08-23T13:46:29Z</time>
      </trkpt>
      <trkpt lat="47.10864" lon="6.1754">
        <ele>586.4</ele>
        <time>2021-08-23T13:46:30Z</time>
      </trkpt>
      <trkpt lat="47.10865" lon="6.17535">
        <ele>586.4</ele>
        <time>2021-08-23T13:46:31Z</time>
      </trkpt>
      <trkpt lat="47.10865" lon="6.17525">
        <ele>586.4</ele>
        <time>2021-08-23T13:46:33Z</time>
      </trkpt>
      <trkpt lat="47.10863" lon="6.17514">
        <ele>586.4</ele>
        <time>2021-08-23T13:46:35Z</time>
      </trkpt>
      <trkpt lat="47.10862" lon="6.17509">
        <ele>586.4</ele>
        <time>2021-08-23T13:46:36Z</time>
      </trkpt>
      <trkpt lat="47.10861" lon="6.17504">
        <ele>586.4</ele>
        <time>2021-08-23T13:46:37Z</time>
      </trkpt>
      <trkpt lat="47.1086" lon="6.17488">
        <ele>586.4</ele>
        <time>2021-08-23T13:46:40Z</time>
      </trkpt>
      <trkpt lat="47.10863" lon="6.17462">
        <ele>586.8</ele>
        <time>2021-08-23T13:46:45Z</time>
      </trkpt>
      <trkpt lat="47.10866" lon="6.17457">
        <ele>586.8</ele>
        <time>2021-08-23T13:46:46Z</time>
      </trkpt>
      <trkpt lat="47.10867" lon="6.17452">
        <ele>586.8</ele>
        <time>2021-08-23T13:46:47Z</time>
      </trkpt>
      <trkpt lat="47.1087" lon="6.17444">
        <ele>586.8</ele>
        <time>2021-08-23T13:46:49Z</time>
      </trkpt>
      <trkpt lat="47.1087" lon="6.1744">
        <ele>587</ele>
        <time>2021-08-23T13:46:50Z</time>
      </trkpt>
      <trkpt lat="47.10871" lon="6.17437">
        <ele>587</ele>
        <time>2021-08-23T13:46:51Z</time>
      </trkpt>
      <trkpt lat="47.1087" lon="6.17434">
        <ele>587</ele>
        <time>2021-08-23T13:46:52Z</time>
      </trkpt>
      <trkpt lat="47.1087" lon="6.17431">
        <ele>587</ele>
        <time>2021-08-23T13:46:53Z</time>
      </trkpt>
      <trkpt lat="47.1087" lon="6.17428">
        <ele>587</ele>
        <time>2021-08-23T13:46:54Z</time>
      </trkpt>
      <trkpt lat="47.1087" lon="6.17426">
        <ele>587.2</ele>
        <time>2021-08-23T13:46:55Z</time>
      </trkpt>
      <trkpt lat="47.1087" lon="6.17422">
        <ele>587.2</ele>
        <time>2021-08-23T13:46:56Z</time>
      </trkpt>
      <trkpt lat="47.10869" lon="6.17419">
        <ele>587.4</ele>
        <time>2021-08-23T13:46:57Z</time>
      </trkpt>
      <trkpt lat="47.10869" lon="6.17412">
        <ele>587.6</ele>
        <time>2021-08-23T13:46:59Z</time>
      </trkpt>
      <trkpt lat="47.10869" lon="6.17409">
        <ele>587.6</ele>
        <time>2021-08-23T13:47:00Z</time>
      </trkpt>
      <trkpt lat="47.10869" lon="6.17405">
        <ele>587.8</ele>
        <time>2021-08-23T13:47:01Z</time>
      </trkpt>
      <trkpt lat="47.10869" lon="6.17401">
        <ele>588</ele>
        <time>2021-08-23T13:47:02Z</time>
      </trkpt>
      <trkpt lat="47.10871" lon="6.17394">
        <ele>588.2</ele>
        <time>2021-08-23T13:47:04Z</time>
      </trkpt>
      <trkpt lat="47.10872" lon="6.17391">
        <ele>588.4</ele>
        <time>2021-08-23T13:47:05Z</time>
      </trkpt>
      <trkpt lat="47.10872" lon="6.17387">
        <ele>588.4</ele>
        <time>2021-08-23T13:47:06Z</time>
      </trkpt>
      <trkpt lat="47.10873" lon="6.17384">
        <ele>588.4</ele>
        <time>2021-08-23T13:47:07Z</time>
      </trkpt>
      <trkpt lat="47.10874" lon="6.17379">
        <ele>588.6</ele>
        <time>2021-08-23T13:47:08Z</time>
      </trkpt>
      <trkpt lat="47.10876" lon="6.17373">
        <ele>588.6</ele>
        <time>2021-08-23T13:47:09Z</time>
      </trkpt>
      <trkpt lat="47.10877" lon="6.17368">
        <ele>588.6</ele>
        <time>2021-08-23T13:47:10Z</time>
      </trkpt>
      <trkpt lat="47.10878" lon="6.17365">
        <ele>588.6</ele>
        <time>2021-08-23T13:47:12Z</time>
      </trkpt>
      <trkpt lat="47.10878" lon="6.17365">
        <ele>588.4</ele>
        <time>2021-08-23T13:47:13Z</time>
      </trkpt>
      <trkpt lat="47.10878" lon="6.17365">
        <ele>587.8</ele>
        <time>2021-08-23T13:47:26Z</time>
      </trkpt>
      <trkpt lat="47.1088" lon="6.17354">
        <ele>587.8</ele>
        <time>2021-08-23T13:47:31Z</time>
      </trkpt>
      <trkpt lat="47.10881" lon="6.17352">
        <ele>587.8</ele>
        <time>2021-08-23T13:47:32Z</time>
      </trkpt>
      <trkpt lat="47.10882" lon="6.1735">
        <ele>587.8</ele>
        <time>2021-08-23T13:47:33Z</time>
      </trkpt>
      <trkpt lat="47.10883" lon="6.17343">
        <ele>587.6</ele>
        <time>2021-08-23T13:47:35Z</time>
      </trkpt>
      <trkpt lat="47.10884" lon="6.17339">
        <ele>587</ele>
        <time>2021-08-23T13:47:36Z</time>
      </trkpt>
      <trkpt lat="47.10886" lon="6.17334">
        <ele>586.8</ele>
        <time>2021-08-23T13:47:37Z</time>
      </trkpt>
      <trkpt lat="47.10889" lon="6.1732">
        <ele>585.4</ele>
        <time>2021-08-23T13:47:39Z</time>
      </trkpt>
      <trkpt lat="47.1089" lon="6.17312">
        <ele>585</ele>
        <time>2021-08-23T13:47:40Z</time>
      </trkpt>
      <trkpt lat="47.10892" lon="6.17305">
        <ele>584</ele>
        <time>2021-08-23T13:47:41Z</time>
      </trkpt>
      <trkpt lat="47.10894" lon="6.1729">
        <ele>582.4</ele>
        <time>2021-08-23T13:47:43Z</time>
      </trkpt>
      <trkpt lat="47.10896" lon="6.17274">
        <ele>581.4</ele>
        <time>2021-08-23T13:47:45Z</time>
      </trkpt>
      <trkpt lat="47.10898" lon="6.17254">
        <ele>580.4</ele>
        <time>2021-08-23T13:47:47Z</time>
      </trkpt>
      <trkpt lat="47.10899" lon="6.17236">
        <ele>579</ele>
        <time>2021-08-23T13:47:49Z</time>
      </trkpt>
      <trkpt lat="47.10903" lon="6.17224">
        <ele>578</ele>
        <time>2021-08-23T13:47:51Z</time>
      </trkpt>
      <trkpt lat="47.10905" lon="6.1722">
        <ele>577.4</ele>
        <time>2021-08-23T13:47:52Z</time>
      </trkpt>
      <trkpt lat="47.10907" lon="6.17216">
        <ele>576.8</ele>
        <time>2021-08-23T13:47:53Z</time>
      </trkpt>
      <trkpt lat="47.10908" lon="6.1721">
        <ele>576.2</ele>
        <time>2021-08-23T13:47:54Z</time>
      </trkpt>
      <trkpt lat="47.10909" lon="6.17205">
        <ele>575.6</ele>
        <time>2021-08-23T13:47:55Z</time>
      </trkpt>
      <trkpt lat="47.1091" lon="6.17198">
        <ele>575</ele>
        <time>2021-08-23T13:47:56Z</time>
      </trkpt>
      <trkpt lat="47.1091" lon="6.17191">
        <ele>574.2</ele>
        <time>2021-08-23T13:47:57Z</time>
      </trkpt>
      <trkpt lat="47.10912" lon="6.17181">
        <ele>573.4</ele>
        <time>2021-08-23T13:47:59Z</time>
      </trkpt>
      <trkpt lat="47.10913" lon="6.17176">
        <ele>573</ele>
        <time>2021-08-23T13:48:00Z</time>
      </trkpt>
      <trkpt lat="47.10913" lon="6.17169">
        <ele>572.4</ele>
        <time>2021-08-23T13:48:01Z</time>
      </trkpt>
      <trkpt lat="47.10915" lon="6.17166">
        <ele>572</ele>
        <time>2021-08-23T13:48:02Z</time>
      </trkpt>
      <trkpt lat="47.10915" lon="6.17159">
        <ele>571</ele>
        <time>2021-08-23T13:48:04Z</time>
      </trkpt>
      <trkpt lat="47.10917" lon="6.17154">
        <ele>570</ele>
        <time>2021-08-23T13:48:05Z</time>
      </trkpt>
      <trkpt lat="47.10918" lon="6.1715">
        <ele>569.2</ele>
        <time>2021-08-23T13:48:06Z</time>
      </trkpt>
      <trkpt lat="47.10919" lon="6.17145">
        <ele>568.8</ele>
        <time>2021-08-23T13:48:07Z</time>
      </trkpt>
      <trkpt lat="47.10918" lon="6.1714">
        <ele>567.8</ele>
        <time>2021-08-23T13:48:08Z</time>
      </trkpt>
      <trkpt lat="47.10918" lon="6.17136">
        <ele>567.6</ele>
        <time>2021-08-23T13:48:09Z</time>
      </trkpt>
      <trkpt lat="47.10917" lon="6.1713">
        <ele>566.2</ele>
        <time>2021-08-23T13:48:10Z</time>
      </trkpt>
      <trkpt lat="47.10918" lon="6.17125">
        <ele>566</ele>
        <time>2021-08-23T13:48:11Z</time>
      </trkpt>
      <trkpt lat="47.10919" lon="6.17122">
        <ele>565.2</ele>
        <time>2021-08-23T13:48:12Z</time>
      </trkpt>
      <trkpt lat="47.1092" lon="6.17119">
        <ele>564.8</ele>
        <time>2021-08-23T13:48:13Z</time>
      </trkpt>
      <trkpt lat="47.1092" lon="6.17107">
        <ele>563.4</ele>
        <time>2021-08-23T13:48:16Z</time>
      </trkpt>
      <trkpt lat="47.10922" lon="6.17102">
        <ele>562.6</ele>
        <time>2021-08-23T13:48:17Z</time>
      </trkpt>
      <trkpt lat="47.1092" lon="6.17094">
        <ele>562.2</ele>
        <time>2021-08-23T13:48:18Z</time>
      </trkpt>
      <trkpt lat="47.10918" lon="6.17076">
        <ele>560.6</ele>
        <time>2021-08-23T13:48:21Z</time>
      </trkpt>
      <trkpt lat="47.10919" lon="6.17071">
        <ele>560.4</ele>
        <time>2021-08-23T13:48:22Z</time>
      </trkpt>
      <trkpt lat="47.10918" lon="6.17064">
        <ele>559.2</ele>
        <time>2021-08-23T13:48:23Z</time>
      </trkpt>
      <trkpt lat="47.10918" lon="6.17059">
        <ele>558.6</ele>
        <time>2021-08-23T13:48:24Z</time>
      </trkpt>
      <trkpt lat="47.10918" lon="6.17054">
        <ele>558</ele>
        <time>2021-08-23T13:48:25Z</time>
      </trkpt>
      <trkpt lat="47.10916" lon="6.1705">
        <ele>557.6</ele>
        <time>2021-08-23T13:48:26Z</time>
      </trkpt>
      <trkpt lat="47.10916" lon="6.17044">
        <ele>557.2</ele>
        <time>2021-08-23T13:48:27Z</time>
      </trkpt>
      <trkpt lat="47.10914" lon="6.17038">
        <ele>556.4</ele>
        <time>2021-08-23T13:48:28Z</time>
      </trkpt>
      <trkpt lat="47.10914" lon="6.17032">
        <ele>556</ele>
        <time>2021-08-23T13:48:29Z</time>
      </trkpt>
      <trkpt lat="47.10914" lon="6.17027">
        <ele>555.4</ele>
        <time>2021-08-23T13:48:30Z</time>
      </trkpt>
      <trkpt lat="47.10916" lon="6.17023">
        <ele>555.2</ele>
        <time>2021-08-23T13:48:31Z</time>
      </trkpt>
      <trkpt lat="47.10916" lon="6.17021">
        <ele>554.8</ele>
        <time>2021-08-23T13:48:32Z</time>
      </trkpt>
      <trkpt lat="47.10917" lon="6.17019">
        <ele>554.6</ele>
        <time>2021-08-23T13:48:33Z</time>
      </trkpt>
      <trkpt lat="47.10917" lon="6.17015">
        <ele>554.4</ele>
        <time>2021-08-23T13:48:34Z</time>
      </trkpt>
      <trkpt lat="47.10917" lon="6.17012">
        <ele>554.2</ele>
        <time>2021-08-23T13:48:35Z</time>
      </trkpt>
      <trkpt lat="47.10915" lon="6.17006">
        <ele>554</ele>
        <time>2021-08-23T13:48:36Z</time>
      </trkpt>
      <trkpt lat="47.1091" lon="6.16996">
        <ele>553.8</ele>
        <time>2021-08-23T13:48:38Z</time>
      </trkpt>
      <trkpt lat="47.1091" lon="6.16991">
        <ele>553.6</ele>
        <time>2021-08-23T13:48:39Z</time>
      </trkpt>
      <trkpt lat="47.1091" lon="6.16986">
        <ele>553.6</ele>
        <time>2021-08-23T13:48:40Z</time>
      </trkpt>
      <trkpt lat="47.10912" lon="6.16981">
        <ele>553</ele>
        <time>2021-08-23T13:48:41Z</time>
      </trkpt>
      <trkpt lat="47.10915" lon="6.16977">
        <ele>552.6</ele>
        <time>2021-08-23T13:48:43Z</time>
      </trkpt>
      <trkpt lat="47.10914" lon="6.16975">
        <ele>552.4</ele>
        <time>2021-08-23T13:48:44Z</time>
      </trkpt>
      <trkpt lat="47.10914" lon="6.16974">
        <ele>552.2</ele>
        <time>2021-08-23T13:48:45Z</time>
      </trkpt>
      <trkpt lat="47.10913" lon="6.1697">
        <ele>551.6</ele>
        <time>2021-08-23T13:48:46Z</time>
      </trkpt>
      <trkpt lat="47.10912" lon="6.16967">
        <ele>551.4</ele>
        <time>2021-08-23T13:48:47Z</time>
      </trkpt>
      <trkpt lat="47.10914" lon="6.16963">
        <ele>551.2</ele>
        <time>2021-08-23T13:48:48Z</time>
      </trkpt>
      <trkpt lat="47.10915" lon="6.1696">
        <ele>551</ele>
        <time>2021-08-23T13:48:49Z</time>
      </trkpt>
      <trkpt lat="47.10916" lon="6.16955">
        <ele>550.8</ele>
        <time>2021-08-23T13:48:50Z</time>
      </trkpt>
      <trkpt lat="47.10912" lon="6.16944">
        <ele>550.4</ele>
        <time>2021-08-23T13:48:52Z</time>
      </trkpt>
      <trkpt lat="47.10906" lon="6.16934">
        <ele>550</ele>
        <time>2021-08-23T13:48:54Z</time>
      </trkpt>
      <trkpt lat="47.10903" lon="6.16927">
        <ele>550</ele>
        <time>2021-08-23T13:48:55Z</time>
      </trkpt>
      <trkpt lat="47.10898" lon="6.16917">
        <ele>549.2</ele>
        <time>2021-08-23T13:48:57Z</time>
      </trkpt>
      <trkpt lat="47.10896" lon="6.16902">
        <ele>548.6</ele>
        <time>2021-08-23T13:48:59Z</time>
      </trkpt>
      <trkpt lat="47.10895" lon="6.16897">
        <ele>548.4</ele>
        <time>2021-08-23T13:49:00Z</time>
      </trkpt>
      <trkpt lat="47.10894" lon="6.16893">
        <ele>548</ele>
        <time>2021-08-23T13:49:01Z</time>
      </trkpt>
      <trkpt lat="47.10894" lon="6.1689">
        <ele>547.8</ele>
        <time>2021-08-23T13:49:02Z</time>
      </trkpt>
      <trkpt lat="47.10892" lon="6.16882">
        <ele>547.2</ele>
        <time>2021-08-23T13:49:04Z</time>
      </trkpt>
      <trkpt lat="47.1089" lon="6.1688">
        <ele>547</ele>
        <time>2021-08-23T13:49:05Z</time>
      </trkpt>
      <trkpt lat="47.10887" lon="6.16876">
        <ele>546.4</ele>
        <time>2021-08-23T13:49:06Z</time>
      </trkpt>
      <trkpt lat="47.10885" lon="6.16873">
        <ele>546.2</ele>
        <time>2021-08-23T13:49:07Z</time>
      </trkpt>
      <trkpt lat="47.10882" lon="6.1687">
        <ele>545.6</ele>
        <time>2021-08-23T13:49:08Z</time>
      </trkpt>
      <trkpt lat="47.1088" lon="6.16867">
        <ele>545.4</ele>
        <time>2021-08-23T13:49:09Z</time>
      </trkpt>
      <trkpt lat="47.10878" lon="6.16863">
        <ele>544.4</ele>
        <time>2021-08-23T13:49:10Z</time>
      </trkpt>
      <trkpt lat="47.10869" lon="6.16853">
        <ele>543.4</ele>
        <time>2021-08-23T13:49:13Z</time>
      </trkpt>
      <trkpt lat="47.1086" lon="6.16844">
        <ele>542.6</ele>
        <time>2021-08-23T13:49:16Z</time>
      </trkpt>
      <trkpt lat="47.10841" lon="6.16824">
        <ele>542.2</ele>
        <time>2021-08-23T13:49:21Z</time>
      </trkpt>
      <trkpt lat="47.10838" lon="6.16822">
        <ele>542</ele>
        <time>2021-08-23T13:49:22Z</time>
      </trkpt>
      <trkpt lat="47.10835" lon="6.1682">
        <ele>541.6</ele>
        <time>2021-08-23T13:49:23Z</time>
      </trkpt>
      <trkpt lat="47.10832" lon="6.16817">
        <ele>541.4</ele>
        <time>2021-08-23T13:49:24Z</time>
      </trkpt>
      <trkpt lat="47.1083" lon="6.16816">
        <ele>540.8</ele>
        <time>2021-08-23T13:49:25Z</time>
      </trkpt>
      <trkpt lat="47.10828" lon="6.16811">
        <ele>540.6</ele>
        <time>2021-08-23T13:49:26Z</time>
      </trkpt>
      <trkpt lat="47.10827" lon="6.16811">
        <ele>540.4</ele>
        <time>2021-08-23T13:49:27Z</time>
      </trkpt>
      <trkpt lat="47.10827" lon="6.16811">
        <ele>539.8</ele>
        <time>2021-08-23T13:49:29Z</time>
      </trkpt>
      <trkpt lat="47.10827" lon="6.16811">
        <ele>539.6</ele>
        <time>2021-08-23T13:49:30Z</time>
      </trkpt>
      <trkpt lat="47.10827" lon="6.16811">
        <ele>539.2</ele>
        <time>2021-08-23T13:50:06Z</time>
      </trkpt>
      <trkpt lat="47.10825" lon="6.16798">
        <ele>539</ele>
        <time>2021-08-23T13:50:21Z</time>
      </trkpt>
      <trkpt lat="47.10824" lon="6.1677">
        <ele>537.8</ele>
        <time>2021-08-23T13:50:25Z</time>
      </trkpt>
      <trkpt lat="47.10823" lon="6.16765">
        <ele>537</ele>
        <time>2021-08-23T13:50:26Z</time>
      </trkpt>
      <trkpt lat="47.10822" lon="6.1676">
        <ele>536.6</ele>
        <time>2021-08-23T13:50:27Z</time>
      </trkpt>
      <trkpt lat="47.1082" lon="6.16755">
        <ele>536.2</ele>
        <time>2021-08-23T13:50:28Z</time>
      </trkpt>
      <trkpt lat="47.10818" lon="6.1675">
        <ele>536</ele>
        <time>2021-08-23T13:50:29Z</time>
      </trkpt>
      <trkpt lat="47.10816" lon="6.16745">
        <ele>535.4</ele>
        <time>2021-08-23T13:50:30Z</time>
      </trkpt>
      <trkpt lat="47.10812" lon="6.1674">
        <ele>535</ele>
        <time>2021-08-23T13:50:31Z</time>
      </trkpt>
      <trkpt lat="47.10802" lon="6.16729">
        <ele>534.4</ele>
        <time>2021-08-23T13:50:33Z</time>
      </trkpt>
      <trkpt lat="47.10797" lon="6.16725">
        <ele>534</ele>
        <time>2021-08-23T13:50:34Z</time>
      </trkpt>
      <trkpt lat="47.10786" lon="6.16719">
        <ele>532.6</ele>
        <time>2021-08-23T13:50:36Z</time>
      </trkpt>
      <trkpt lat="47.1078" lon="6.16718">
        <ele>531.2</ele>
        <time>2021-08-23T13:50:37Z</time>
      </trkpt>
      <trkpt lat="47.10774" lon="6.16718">
        <ele>530.6</ele>
        <time>2021-08-23T13:50:38Z</time>
      </trkpt>
      <trkpt lat="47.10768" lon="6.16717">
        <ele>529.8</ele>
        <time>2021-08-23T13:50:39Z</time>
      </trkpt>
      <trkpt lat="47.10752" lon="6.16717">
        <ele>528.4</ele>
        <time>2021-08-23T13:50:42Z</time>
      </trkpt>
      <trkpt lat="47.10747" lon="6.16717">
        <ele>527.8</ele>
        <time>2021-08-23T13:50:43Z</time>
      </trkpt>
      <trkpt lat="47.10743" lon="6.16716">
        <ele>527.6</ele>
        <time>2021-08-23T13:50:44Z</time>
      </trkpt>
      <trkpt lat="47.10738" lon="6.16718">
        <ele>526.4</ele>
        <time>2021-08-23T13:50:45Z</time>
      </trkpt>
      <trkpt lat="47.10733" lon="6.16723">
        <ele>525.6</ele>
        <time>2021-08-23T13:50:46Z</time>
      </trkpt>
      <trkpt lat="47.10728" lon="6.16726">
        <ele>524.8</ele>
        <time>2021-08-23T13:50:47Z</time>
      </trkpt>
      <trkpt lat="47.10725" lon="6.16729">
        <ele>523.8</ele>
        <time>2021-08-23T13:50:48Z</time>
      </trkpt>
      <trkpt lat="47.10722" lon="6.16731">
        <ele>523.4</ele>
        <time>2021-08-23T13:50:49Z</time>
      </trkpt>
      <trkpt lat="47.10719" lon="6.16731">
        <ele>522.8</ele>
        <time>2021-08-23T13:50:50Z</time>
      </trkpt>
      <trkpt lat="47.10716" lon="6.1673">
        <ele>522.4</ele>
        <time>2021-08-23T13:50:51Z</time>
      </trkpt>
      <trkpt lat="47.10712" lon="6.1673">
        <ele>521.4</ele>
        <time>2021-08-23T13:50:52Z</time>
      </trkpt>
      <trkpt lat="47.10709" lon="6.16733">
        <ele>521.2</ele>
        <time>2021-08-23T13:50:53Z</time>
      </trkpt>
      <trkpt lat="47.10707" lon="6.16736">
        <ele>520.6</ele>
        <time>2021-08-23T13:50:54Z</time>
      </trkpt>
      <trkpt lat="47.10706" lon="6.16738">
        <ele>520.4</ele>
        <time>2021-08-23T13:50:55Z</time>
      </trkpt>
      <trkpt lat="47.10706" lon="6.16741">
        <ele>520.2</ele>
        <time>2021-08-23T13:50:56Z</time>
      </trkpt>
      <trkpt lat="47.10705" lon="6.16744">
        <ele>520</ele>
        <time>2021-08-23T13:50:57Z</time>
      </trkpt>
      <trkpt lat="47.107" lon="6.16758">
        <ele>519.8</ele>
        <time>2021-08-23T13:51:01Z</time>
      </trkpt>
      <trkpt lat="47.10696" lon="6.16766">
        <ele>519.6</ele>
        <time>2021-08-23T13:51:03Z</time>
      </trkpt>
      <trkpt lat="47.10691" lon="6.16778">
        <ele>519.6</ele>
        <time>2021-08-23T13:51:06Z</time>
      </trkpt>
      <trkpt lat="47.10689" lon="6.16784">
        <ele>519.6</ele>
        <time>2021-08-23T13:51:07Z</time>
      </trkpt>
      <trkpt lat="47.10687" lon="6.16789">
        <ele>519.4</ele>
        <time>2021-08-23T13:51:08Z</time>
      </trkpt>
      <trkpt lat="47.10676" lon="6.16816">
        <ele>519.2</ele>
        <time>2021-08-23T13:51:13Z</time>
      </trkpt>
      <trkpt lat="47.10674" lon="6.16821">
        <ele>519.2</ele>
        <time>2021-08-23T13:51:14Z</time>
      </trkpt>
      <trkpt lat="47.10671" lon="6.16827">
        <ele>519.2</ele>
        <time>2021-08-23T13:51:15Z</time>
      </trkpt>
      <trkpt lat="47.1067" lon="6.16832">
        <ele>519.2</ele>
        <time>2021-08-23T13:51:16Z</time>
      </trkpt>
      <trkpt lat="47.10658" lon="6.16858">
        <ele>518.8</ele>
        <time>2021-08-23T13:51:22Z</time>
      </trkpt>
      <trkpt lat="47.10657" lon="6.16861">
        <ele>518.8</ele>
        <time>2021-08-23T13:51:23Z</time>
      </trkpt>
      <trkpt lat="47.10656" lon="6.16865">
        <ele>518.8</ele>
        <time>2021-08-23T13:51:24Z</time>
      </trkpt>
      <trkpt lat="47.10649" lon="6.16889">
        <ele>518.8</ele>
        <time>2021-08-23T13:51:29Z</time>
      </trkpt>
      <trkpt lat="47.10638" lon="6.16927">
        <ele>520</ele>
        <time>2021-08-23T13:51:37Z</time>
      </trkpt>
      <trkpt lat="47.10635" lon="6.16936">
        <ele>520.2</ele>
        <time>2021-08-23T13:51:39Z</time>
      </trkpt>
      <trkpt lat="47.10627" lon="6.16961">
        <ele>521</ele>
        <time>2021-08-23T13:51:44Z</time>
      </trkpt>
      <trkpt lat="47.10619" lon="6.16983">
        <ele>521.6</ele>
        <time>2021-08-23T13:51:48Z</time>
      </trkpt>
      <trkpt lat="47.10616" lon="6.16989">
        <ele>521.6</ele>
        <time>2021-08-23T13:51:49Z</time>
      </trkpt>
      <trkpt lat="47.106" lon="6.17032">
        <ele>522</ele>
        <time>2021-08-23T13:51:56Z</time>
      </trkpt>
      <trkpt lat="47.10598" lon="6.17037">
        <ele>522</ele>
        <time>2021-08-23T13:51:57Z</time>
      </trkpt>
      <trkpt lat="47.10597" lon="6.17042">
        <ele>522</ele>
        <time>2021-08-23T13:51:58Z</time>
      </trkpt>
      <trkpt lat="47.10595" lon="6.17046">
        <ele>522.2</ele>
        <time>2021-08-23T13:51:59Z</time>
      </trkpt>
      <trkpt lat="47.10594" lon="6.17051">
        <ele>522.2</ele>
        <time>2021-08-23T13:52:00Z</time>
      </trkpt>
      <trkpt lat="47.10592" lon="6.17056">
        <ele>522</ele>
        <time>2021-08-23T13:52:01Z</time>
      </trkpt>
      <trkpt lat="47.10578" lon="6.17087">
        <ele>521.8</ele>
        <time>2021-08-23T13:52:06Z</time>
      </trkpt>
      <trkpt lat="47.10572" lon="6.17101">
        <ele>521.8</ele>
        <time>2021-08-23T13:52:08Z</time>
      </trkpt>
      <trkpt lat="47.1057" lon="6.17108">
        <ele>521.8</ele>
        <time>2021-08-23T13:52:09Z</time>
      </trkpt>
      <trkpt lat="47.10567" lon="6.17114">
        <ele>521.6</ele>
        <time>2021-08-23T13:52:10Z</time>
      </trkpt>
      <trkpt lat="47.10565" lon="6.1712">
        <ele>521.6</ele>
        <time>2021-08-23T13:52:11Z</time>
      </trkpt>
      <trkpt lat="47.10563" lon="6.17126">
        <ele>521.6</ele>
        <time>2021-08-23T13:52:12Z</time>
      </trkpt>
      <trkpt lat="47.10562" lon="6.17131">
        <ele>521.6</ele>
        <time>2021-08-23T13:52:13Z</time>
      </trkpt>
      <trkpt lat="47.1056" lon="6.17137">
        <ele>521.6</ele>
        <time>2021-08-23T13:52:14Z</time>
      </trkpt>
      <trkpt lat="47.10558" lon="6.17143">
        <ele>521.6</ele>
        <time>2021-08-23T13:52:15Z</time>
      </trkpt>
      <trkpt lat="47.10556" lon="6.17148">
        <ele>521.6</ele>
        <time>2021-08-23T13:52:16Z</time>
      </trkpt>
      <trkpt lat="47.10555" lon="6.17153">
        <ele>521.8</ele>
        <time>2021-08-23T13:52:17Z</time>
      </trkpt>
      <trkpt lat="47.10553" lon="6.17157">
        <ele>521.8</ele>
        <time>2021-08-23T13:52:18Z</time>
      </trkpt>
      <trkpt lat="47.10538" lon="6.17194">
        <ele>522.4</ele>
        <time>2021-08-23T13:52:25Z</time>
      </trkpt>
      <trkpt lat="47.10518" lon="6.17233">
        <ele>522.4</ele>
        <time>2021-08-23T13:52:33Z</time>
      </trkpt>
      <trkpt lat="47.10497" lon="6.17278">
        <ele>522.6</ele>
        <time>2021-08-23T13:52:41Z</time>
      </trkpt>
      <trkpt lat="47.10494" lon="6.17283">
        <ele>522.6</ele>
        <time>2021-08-23T13:52:42Z</time>
      </trkpt>
      <trkpt lat="47.10486" lon="6.173">
        <ele>522.8</ele>
        <time>2021-08-23T13:52:45Z</time>
      </trkpt>
      <trkpt lat="47.10481" lon="6.17311">
        <ele>522.8</ele>
        <time>2021-08-23T13:52:47Z</time>
      </trkpt>
      <trkpt lat="47.10478" lon="6.17315">
        <ele>522.8</ele>
        <time>2021-08-23T13:52:48Z</time>
      </trkpt>
      <trkpt lat="47.10476" lon="6.1732">
        <ele>522.8</ele>
        <time>2021-08-23T13:52:49Z</time>
      </trkpt>
      <trkpt lat="47.10465" lon="6.1734">
        <ele>523</ele>
        <time>2021-08-23T13:52:53Z</time>
      </trkpt>
      <trkpt lat="47.10462" lon="6.17344">
        <ele>523.2</ele>
        <time>2021-08-23T13:52:54Z</time>
      </trkpt>
      <trkpt lat="47.10459" lon="6.17349">
        <ele>523.4</ele>
        <time>2021-08-23T13:52:55Z</time>
      </trkpt>
      <trkpt lat="47.10457" lon="6.17353">
        <ele>523.6</ele>
        <time>2021-08-23T13:52:56Z</time>
      </trkpt>
      <trkpt lat="47.10455" lon="6.17358">
        <ele>523.8</ele>
        <time>2021-08-23T13:52:57Z</time>
      </trkpt>
      <trkpt lat="47.10453" lon="6.1736">
        <ele>524</ele>
        <time>2021-08-23T13:52:58Z</time>
      </trkpt>
      <trkpt lat="47.1045" lon="6.17364">
        <ele>524</ele>
        <time>2021-08-23T13:52:59Z</time>
      </trkpt>
      <trkpt lat="47.10449" lon="6.17367">
        <ele>524.2</ele>
        <time>2021-08-23T13:53:00Z</time>
      </trkpt>
      <trkpt lat="47.10447" lon="6.17371">
        <ele>524.4</ele>
        <time>2021-08-23T13:53:01Z</time>
      </trkpt>
      <trkpt lat="47.10444" lon="6.17375">
        <ele>525</ele>
        <time>2021-08-23T13:53:03Z</time>
      </trkpt>
      <trkpt lat="47.10442" lon="6.17378">
        <ele>525.2</ele>
        <time>2021-08-23T13:53:04Z</time>
      </trkpt>
      <trkpt lat="47.10441" lon="6.1738">
        <ele>525.6</ele>
        <time>2021-08-23T13:53:05Z</time>
      </trkpt>
      <trkpt lat="47.10439" lon="6.17382">
        <ele>526.2</ele>
        <time>2021-08-23T13:53:06Z</time>
      </trkpt>
      <trkpt lat="47.10437" lon="6.17386">
        <ele>526.4</ele>
        <time>2021-08-23T13:53:07Z</time>
      </trkpt>
      <trkpt lat="47.10436" lon="6.17388">
        <ele>526.8</ele>
        <time>2021-08-23T13:53:08Z</time>
      </trkpt>
      <trkpt lat="47.10434" lon="6.17391">
        <ele>526.8</ele>
        <time>2021-08-23T13:53:09Z</time>
      </trkpt>
      <trkpt lat="47.10431" lon="6.17395">
        <ele>527.2</ele>
        <time>2021-08-23T13:53:10Z</time>
      </trkpt>
      <trkpt lat="47.1043" lon="6.17397">
        <ele>527.2</ele>
        <time>2021-08-23T13:53:11Z</time>
      </trkpt>
      <trkpt lat="47.10429" lon="6.174">
        <ele>527.4</ele>
        <time>2021-08-23T13:53:12Z</time>
      </trkpt>
      <trkpt lat="47.10428" lon="6.17403">
        <ele>527.4</ele>
        <time>2021-08-23T13:53:13Z</time>
      </trkpt>
      <trkpt lat="47.10426" lon="6.17407">
        <ele>527.8</ele>
        <time>2021-08-23T13:53:14Z</time>
      </trkpt>
      <trkpt lat="47.10425" lon="6.1741">
        <ele>528</ele>
        <time>2021-08-23T13:53:15Z</time>
      </trkpt>
      <trkpt lat="47.10424" lon="6.17413">
        <ele>528.2</ele>
        <time>2021-08-23T13:53:16Z</time>
      </trkpt>
      <trkpt lat="47.10423" lon="6.17416">
        <ele>528.4</ele>
        <time>2021-08-23T13:53:17Z</time>
      </trkpt>
      <trkpt lat="47.10422" lon="6.17419">
        <ele>528.4</ele>
        <time>2021-08-23T13:53:18Z</time>
      </trkpt>
      <trkpt lat="47.10422" lon="6.17422">
        <ele>528.6</ele>
        <time>2021-08-23T13:53:19Z</time>
      </trkpt>
      <trkpt lat="47.10421" lon="6.17426">
        <ele>528.6</ele>
        <time>2021-08-23T13:53:20Z</time>
      </trkpt>
      <trkpt lat="47.10421" lon="6.17428">
        <ele>528.8</ele>
        <time>2021-08-23T13:53:21Z</time>
      </trkpt>
      <trkpt lat="47.1042" lon="6.17432">
        <ele>529</ele>
        <time>2021-08-23T13:53:22Z</time>
      </trkpt>
      <trkpt lat="47.10419" lon="6.17435">
        <ele>529.2</ele>
        <time>2021-08-23T13:53:23Z</time>
      </trkpt>
      <trkpt lat="47.10418" lon="6.17439">
        <ele>529.4</ele>
        <time>2021-08-23T13:53:24Z</time>
      </trkpt>
      <trkpt lat="47.10418" lon="6.17443">
        <ele>529.4</ele>
        <time>2021-08-23T13:53:25Z</time>
      </trkpt>
      <trkpt lat="47.10417" lon="6.17446">
        <ele>529.6</ele>
        <time>2021-08-23T13:53:26Z</time>
      </trkpt>
      <trkpt lat="47.10415" lon="6.17451">
        <ele>529.6</ele>
        <time>2021-08-23T13:53:27Z</time>
      </trkpt>
      <trkpt lat="47.10414" lon="6.17455">
        <ele>529.6</ele>
        <time>2021-08-23T13:53:28Z</time>
      </trkpt>
      <trkpt lat="47.10412" lon="6.17461">
        <ele>529.6</ele>
        <time>2021-08-23T13:53:29Z</time>
      </trkpt>
      <trkpt lat="47.10412" lon="6.17466">
        <ele>529.6</ele>
        <time>2021-08-23T13:53:30Z</time>
      </trkpt>
      <trkpt lat="47.10411" lon="6.17472">
        <ele>529.6</ele>
        <time>2021-08-23T13:53:31Z</time>
      </trkpt>
      <trkpt lat="47.10411" lon="6.17476">
        <ele>529.8</ele>
        <time>2021-08-23T13:53:32Z</time>
      </trkpt>
      <trkpt lat="47.10409" lon="6.17481">
        <ele>529.8</ele>
        <time>2021-08-23T13:53:33Z</time>
      </trkpt>
      <trkpt lat="47.1041" lon="6.17484">
        <ele>530</ele>
        <time>2021-08-23T13:53:34Z</time>
      </trkpt>
      <trkpt lat="47.1041" lon="6.17488">
        <ele>530.2</ele>
        <time>2021-08-23T13:53:35Z</time>
      </trkpt>
      <trkpt lat="47.10411" lon="6.17493">
        <ele>530.4</ele>
        <time>2021-08-23T13:53:36Z</time>
      </trkpt>
      <trkpt lat="47.10412" lon="6.175">
        <ele>530.4</ele>
        <time>2021-08-23T13:53:37Z</time>
      </trkpt>
      <trkpt lat="47.10411" lon="6.17505">
        <ele>530.4</ele>
        <time>2021-08-23T13:53:38Z</time>
      </trkpt>
      <trkpt lat="47.1041" lon="6.17513">
        <ele>530.6</ele>
        <time>2021-08-23T13:53:39Z</time>
      </trkpt>
      <trkpt lat="47.10409" lon="6.17518">
        <ele>530.6</ele>
        <time>2021-08-23T13:53:40Z</time>
      </trkpt>
      <trkpt lat="47.10408" lon="6.17525">
        <ele>530.8</ele>
        <time>2021-08-23T13:53:41Z</time>
      </trkpt>
      <trkpt lat="47.10409" lon="6.1753">
        <ele>530.8</ele>
        <time>2021-08-23T13:53:42Z</time>
      </trkpt>
      <trkpt lat="47.1041" lon="6.17533">
        <ele>530.8</ele>
        <time>2021-08-23T13:53:43Z</time>
      </trkpt>
      <trkpt lat="47.10411" lon="6.17539">
        <ele>530.8</ele>
        <time>2021-08-23T13:53:44Z</time>
      </trkpt>
      <trkpt lat="47.10412" lon="6.17543">
        <ele>530.8</ele>
        <time>2021-08-23T13:53:45Z</time>
      </trkpt>
      <trkpt lat="47.10414" lon="6.17547">
        <ele>530.8</ele>
        <time>2021-08-23T13:53:46Z</time>
      </trkpt>
      <trkpt lat="47.10416" lon="6.17551">
        <ele>530.6</ele>
        <time>2021-08-23T13:53:47Z</time>
      </trkpt>
      <trkpt lat="47.10418" lon="6.17557">
        <ele>530.6</ele>
        <time>2021-08-23T13:53:48Z</time>
      </trkpt>
      <trkpt lat="47.1042" lon="6.17569">
        <ele>530.4</ele>
        <time>2021-08-23T13:53:50Z</time>
      </trkpt>
      <trkpt lat="47.10418" lon="6.17576">
        <ele>530.4</ele>
        <time>2021-08-23T13:53:51Z</time>
      </trkpt>
      <trkpt lat="47.10416" lon="6.17583">
        <ele>530.2</ele>
        <time>2021-08-23T13:53:52Z</time>
      </trkpt>
      <trkpt lat="47.10415" lon="6.17586">
        <ele>529.8</ele>
        <time>2021-08-23T13:53:53Z</time>
      </trkpt>
      <trkpt lat="47.10414" lon="6.17591">
        <ele>529.6</ele>
        <time>2021-08-23T13:53:54Z</time>
      </trkpt>
      <trkpt lat="47.10411" lon="6.17597">
        <ele>529.4</ele>
        <time>2021-08-23T13:53:55Z</time>
      </trkpt>
      <trkpt lat="47.10402" lon="6.17608">
        <ele>529.2</ele>
        <time>2021-08-23T13:53:57Z</time>
      </trkpt>
      <trkpt lat="47.10399" lon="6.17611">
        <ele>529.2</ele>
        <time>2021-08-23T13:53:58Z</time>
      </trkpt>
      <trkpt lat="47.10396" lon="6.17613">
        <ele>529</ele>
        <time>2021-08-23T13:53:59Z</time>
      </trkpt>
      <trkpt lat="47.10382" lon="6.17626">
        <ele>529</ele>
        <time>2021-08-23T13:54:02Z</time>
      </trkpt>
      <trkpt lat="47.10362" lon="6.1764">
        <ele>528</ele>
        <time>2021-08-23T13:54:06Z</time>
      </trkpt>
      <trkpt lat="47.10349" lon="6.17649">
        <ele>527.6</ele>
        <time>2021-08-23T13:54:08Z</time>
      </trkpt>
      <trkpt lat="47.10344" lon="6.17651">
        <ele>527.4</ele>
        <time>2021-08-23T13:54:09Z</time>
      </trkpt>
      <trkpt lat="47.10341" lon="6.17654">
        <ele>527</ele>
        <time>2021-08-23T13:54:10Z</time>
      </trkpt>
      <trkpt lat="47.10338" lon="6.17654">
        <ele>526.6</ele>
        <time>2021-08-23T13:54:11Z</time>
      </trkpt>
      <trkpt lat="47.10335" lon="6.17656">
        <ele>526</ele>
        <time>2021-08-23T13:54:12Z</time>
      </trkpt>
      <trkpt lat="47.10331" lon="6.17657">
        <ele>525.4</ele>
        <time>2021-08-23T13:54:13Z</time>
      </trkpt>
      <trkpt lat="47.10319" lon="6.17658">
        <ele>524.6</ele>
        <time>2021-08-23T13:54:16Z</time>
      </trkpt>
      <trkpt lat="47.10316" lon="6.17657">
        <ele>524.2</ele>
        <time>2021-08-23T13:54:17Z</time>
      </trkpt>
      <trkpt lat="47.10315" lon="6.17656">
        <ele>524</ele>
        <time>2021-08-23T13:54:18Z</time>
      </trkpt>
      <trkpt lat="47.10313" lon="6.17655">
        <ele>523.6</ele>
        <time>2021-08-23T13:54:19Z</time>
      </trkpt>
      <trkpt lat="47.10307" lon="6.17654">
        <ele>523</ele>
        <time>2021-08-23T13:54:21Z</time>
      </trkpt>
      <trkpt lat="47.10299" lon="6.17648">
        <ele>522.4</ele>
        <time>2021-08-23T13:54:24Z</time>
      </trkpt>
      <trkpt lat="47.10292" lon="6.17645">
        <ele>521.8</ele>
        <time>2021-08-23T13:54:26Z</time>
      </trkpt>
      <trkpt lat="47.10282" lon="6.17637">
        <ele>521.2</ele>
        <time>2021-08-23T13:54:29Z</time>
      </trkpt>
      <trkpt lat="47.1028" lon="6.17634">
        <ele>521</ele>
        <time>2021-08-23T13:54:30Z</time>
      </trkpt>
      <trkpt lat="47.10277" lon="6.17631">
        <ele>521</ele>
        <time>2021-08-23T13:54:31Z</time>
      </trkpt>
      <trkpt lat="47.10275" lon="6.17627">
        <ele>520.6</ele>
        <time>2021-08-23T13:54:32Z</time>
      </trkpt>
      <trkpt lat="47.10272" lon="6.17616">
        <ele>520.2</ele>
        <time>2021-08-23T13:54:34Z</time>
      </trkpt>
      <trkpt lat="47.10271" lon="6.17609">
        <ele>520</ele>
        <time>2021-08-23T13:54:35Z</time>
      </trkpt>
      <trkpt lat="47.10271" lon="6.17602">
        <ele>520</ele>
        <time>2021-08-23T13:54:36Z</time>
      </trkpt>
      <trkpt lat="47.10269" lon="6.17585">
        <ele>519.6</ele>
        <time>2021-08-23T13:54:38Z</time>
      </trkpt>
      <trkpt lat="47.10268" lon="6.17576">
        <ele>519.2</ele>
        <time>2021-08-23T13:54:39Z</time>
      </trkpt>
      <trkpt lat="47.10264" lon="6.17558">
        <ele>518</ele>
        <time>2021-08-23T13:54:41Z</time>
      </trkpt>
      <trkpt lat="47.10258" lon="6.17539">
        <ele>516.8</ele>
        <time>2021-08-23T13:54:43Z</time>
      </trkpt>
      <trkpt lat="47.10251" lon="6.17519">
        <ele>515.4</ele>
        <time>2021-08-23T13:54:45Z</time>
      </trkpt>
      <trkpt lat="47.10239" lon="6.17488">
        <ele>514.2</ele>
        <time>2021-08-23T13:54:48Z</time>
      </trkpt>
      <trkpt lat="47.10231" lon="6.17468">
        <ele>512.8</ele>
        <time>2021-08-23T13:54:50Z</time>
      </trkpt>
      <trkpt lat="47.10221" lon="6.17447">
        <ele>511.6</ele>
        <time>2021-08-23T13:54:52Z</time>
      </trkpt>
      <trkpt lat="47.10208" lon="6.17417">
        <ele>510.2</ele>
        <time>2021-08-23T13:54:55Z</time>
      </trkpt>
      <trkpt lat="47.10198" lon="6.17397">
        <ele>509.2</ele>
        <time>2021-08-23T13:54:57Z</time>
      </trkpt>
      <trkpt lat="47.10186" lon="6.17378">
        <ele>508</ele>
        <time>2021-08-23T13:54:59Z</time>
      </trkpt>
      <trkpt lat="47.10174" lon="6.1736">
        <ele>507</ele>
        <time>2021-08-23T13:55:01Z</time>
      </trkpt>
      <trkpt lat="47.10168" lon="6.17352">
        <ele>505.8</ele>
        <time>2021-08-23T13:55:02Z</time>
      </trkpt>
      <trkpt lat="47.10156" lon="6.17336">
        <ele>505.2</ele>
        <time>2021-08-23T13:55:04Z</time>
      </trkpt>
      <trkpt lat="47.1015" lon="6.17328">
        <ele>504.8</ele>
        <time>2021-08-23T13:55:05Z</time>
      </trkpt>
      <trkpt lat="47.10138" lon="6.17313">
        <ele>503.4</ele>
        <time>2021-08-23T13:55:07Z</time>
      </trkpt>
      <trkpt lat="47.10131" lon="6.17306">
        <ele>502.8</ele>
        <time>2021-08-23T13:55:08Z</time>
      </trkpt>
      <trkpt lat="47.10125" lon="6.17299">
        <ele>502.4</ele>
        <time>2021-08-23T13:55:09Z</time>
      </trkpt>
      <trkpt lat="47.10118" lon="6.17292">
        <ele>502.2</ele>
        <time>2021-08-23T13:55:10Z</time>
      </trkpt>
      <trkpt lat="47.10112" lon="6.17284">
        <ele>501.8</ele>
        <time>2021-08-23T13:55:11Z</time>
      </trkpt>
      <trkpt lat="47.10099" lon="6.17269">
        <ele>501</ele>
        <time>2021-08-23T13:55:13Z</time>
      </trkpt>
      <trkpt lat="47.1008" lon="6.17245">
        <ele>499.8</ele>
        <time>2021-08-23T13:55:16Z</time>
      </trkpt>
      <trkpt lat="47.10067" lon="6.1723">
        <ele>498.6</ele>
        <time>2021-08-23T13:55:18Z</time>
      </trkpt>
      <trkpt lat="47.10053" lon="6.17215">
        <ele>497.4</ele>
        <time>2021-08-23T13:55:20Z</time>
      </trkpt>
      <trkpt lat="47.10041" lon="6.17203">
        <ele>496</ele>
        <time>2021-08-23T13:55:22Z</time>
      </trkpt>
      <trkpt lat="47.10036" lon="6.17198">
        <ele>495.6</ele>
        <time>2021-08-23T13:55:23Z</time>
      </trkpt>
      <trkpt lat="47.10031" lon="6.17194">
        <ele>495.2</ele>
        <time>2021-08-23T13:55:24Z</time>
      </trkpt>
      <trkpt lat="47.10027" lon="6.17192">
        <ele>495</ele>
        <time>2021-08-23T13:55:25Z</time>
      </trkpt>
      <trkpt lat="47.10022" lon="6.17191">
        <ele>494.4</ele>
        <time>2021-08-23T13:55:26Z</time>
      </trkpt>
      <trkpt lat="47.10017" lon="6.17191">
        <ele>494.2</ele>
        <time>2021-08-23T13:55:27Z</time>
      </trkpt>
      <trkpt lat="47.10012" lon="6.17191">
        <ele>493.4</ele>
        <time>2021-08-23T13:55:28Z</time>
      </trkpt>
      <trkpt lat="47.10008" lon="6.17192">
        <ele>493.2</ele>
        <time>2021-08-23T13:55:29Z</time>
      </trkpt>
      <trkpt lat="47.10005" lon="6.17192">
        <ele>493</ele>
        <time>2021-08-23T13:55:30Z</time>
      </trkpt>
      <trkpt lat="47.10003" lon="6.17191">
        <ele>493</ele>
        <time>2021-08-23T13:55:31Z</time>
      </trkpt>
      <trkpt lat="47.1" lon="6.1719">
        <ele>492.8</ele>
        <time>2021-08-23T13:55:32Z</time>
      </trkpt>
      <trkpt lat="47.09999" lon="6.17189">
        <ele>492.8</ele>
        <time>2021-08-23T13:55:33Z</time>
      </trkpt>
      <trkpt lat="47.09998" lon="6.17187">
        <ele>492.6</ele>
        <time>2021-08-23T13:55:34Z</time>
      </trkpt>
      <trkpt lat="47.09998" lon="6.17184">
        <ele>492.6</ele>
        <time>2021-08-23T13:55:35Z</time>
      </trkpt>
      <trkpt lat="47.1" lon="6.17181">
        <ele>492.6</ele>
        <time>2021-08-23T13:55:37Z</time>
      </trkpt>
      <trkpt lat="47.10001" lon="6.17179">
        <ele>492.6</ele>
        <time>2021-08-23T13:55:38Z</time>
      </trkpt>
      <trkpt lat="47.10002" lon="6.17177">
        <ele>492.4</ele>
        <time>2021-08-23T13:55:39Z</time>
      </trkpt>
      <trkpt lat="47.10004" lon="6.17177">
        <ele>492.4</ele>
        <time>2021-08-23T13:55:40Z</time>
      </trkpt>
      <trkpt lat="47.10006" lon="6.17177">
        <ele>492.4</ele>
        <time>2021-08-23T13:55:41Z</time>
      </trkpt>
      <trkpt lat="47.10007" lon="6.17177">
        <ele>492.2</ele>
        <time>2021-08-23T13:55:42Z</time>
      </trkpt>
      <trkpt lat="47.10008" lon="6.17178">
        <ele>492.2</ele>
        <time>2021-08-23T13:55:43Z</time>
      </trkpt>
      <trkpt lat="47.10009" lon="6.17179">
        <ele>492</ele>
        <time>2021-08-23T13:55:44Z</time>
      </trkpt>
      <trkpt lat="47.1001" lon="6.17179">
        <ele>491.8</ele>
        <time>2021-08-23T13:55:45Z</time>
      </trkpt>
      <trkpt lat="47.1001" lon="6.1718">
        <ele>491.6</ele>
        <time>2021-08-23T13:55:49Z</time>
      </trkpt>
      <trkpt lat="47.1001" lon="6.1718">
        <ele>491.6</ele>
        <time>2021-08-23T13:55:55Z</time>
      </trkpt>
      <trkpt lat="47.1001" lon="6.1718">
        <ele>492</ele>
        <time>2021-08-23T13:57:15Z</time>
      </trkpt>
      <trkpt lat="47.1001" lon="6.1718">
        <ele>492</ele>
        <time>2021-08-23T13:57:54Z</time>
      </trkpt>
      <trkpt lat="47.1001" lon="6.1718">
        <ele>491.8</ele>
        <time>2021-08-23T13:58:53Z</time>
      </trkpt>
      <trkpt lat="47.10011" lon="6.1718">
        <ele>491.8</ele>
        <time>2021-08-23T13:58:56Z</time>
      </trkpt>
      <trkpt lat="47.10013" lon="6.17181">
        <ele>491.8</ele>
        <time>2021-08-23T13:58:57Z</time>
      </trkpt>
      <trkpt lat="47.10015" lon="6.17182">
        <ele>491.8</ele>
        <time>2021-08-23T13:58:58Z</time>
      </trkpt>
      <trkpt lat="47.10016" lon="6.17183">
        <ele>491.8</ele>
        <time>2021-08-23T13:58:59Z</time>
      </trkpt>
      <trkpt lat="47.1002" lon="6.17185">
        <ele>492</ele>
        <time>2021-08-23T13:59:01Z</time>
      </trkpt>
      <trkpt lat="47.10035" lon="6.17195">
        <ele>492.6</ele>
        <time>2021-08-23T13:59:08Z</time>
      </trkpt>
      <trkpt lat="47.10038" lon="6.17197">
        <ele>492.6</ele>
        <time>2021-08-23T13:59:09Z</time>
      </trkpt>
      <trkpt lat="47.10056" lon="6.17205">
        <ele>492.8</ele>
        <time>2021-08-23T13:59:14Z</time>
      </trkpt>
      <trkpt lat="47.10061" lon="6.17207">
        <ele>492.8</ele>
        <time>2021-08-23T13:59:15Z</time>
      </trkpt>
      <trkpt lat="47.10097" lon="6.17219">
        <ele>492.2</ele>
        <time>2021-08-23T13:59:23Z</time>
      </trkpt>
      <trkpt lat="47.10115" lon="6.17226">
        <ele>491.6</ele>
        <time>2021-08-23T13:59:27Z</time>
      </trkpt>
      <trkpt lat="47.10121" lon="6.17227">
        <ele>491.6</ele>
        <time>2021-08-23T13:59:28Z</time>
      </trkpt>
      <trkpt lat="47.1015" lon="6.17232">
        <ele>490.8</ele>
        <time>2021-08-23T13:59:33Z</time>
      </trkpt>
      <trkpt lat="47.10156" lon="6.17235">
        <ele>490.2</ele>
        <time>2021-08-23T13:59:34Z</time>
      </trkpt>
      <trkpt lat="47.10172" lon="6.17244">
        <ele>488.8</ele>
        <time>2021-08-23T13:59:37Z</time>
      </trkpt>
      <trkpt lat="47.10177" lon="6.17247">
        <ele>488.8</ele>
        <time>2021-08-23T13:59:38Z</time>
      </trkpt>
      <trkpt lat="47.10182" lon="6.17251">
        <ele>488.2</ele>
        <time>2021-08-23T13:59:39Z</time>
      </trkpt>
      <trkpt lat="47.10191" lon="6.17259">
        <ele>487.8</ele>
        <time>2021-08-23T13:59:41Z</time>
      </trkpt>
      <trkpt lat="47.10195" lon="6.17262">
        <ele>487.6</ele>
        <time>2021-08-23T13:59:42Z</time>
      </trkpt>
      <trkpt lat="47.10199" lon="6.17265">
        <ele>487.4</ele>
        <time>2021-08-23T13:59:43Z</time>
      </trkpt>
      <trkpt lat="47.10203" lon="6.17269">
        <ele>487.4</ele>
        <time>2021-08-23T13:59:44Z</time>
      </trkpt>
      <trkpt lat="47.10219" lon="6.17285">
        <ele>487</ele>
        <time>2021-08-23T13:59:48Z</time>
      </trkpt>
      <trkpt lat="47.10222" lon="6.17288">
        <ele>487</ele>
        <time>2021-08-23T13:59:49Z</time>
      </trkpt>
      <trkpt lat="47.10224" lon="6.17291">
        <ele>486.8</ele>
        <time>2021-08-23T13:59:50Z</time>
      </trkpt>
      <trkpt lat="47.10227" lon="6.17294">
        <ele>486.8</ele>
        <time>2021-08-23T13:59:51Z</time>
      </trkpt>
      <trkpt lat="47.1023" lon="6.17296">
        <ele>486.6</ele>
        <time>2021-08-23T13:59:52Z</time>
      </trkpt>
      <trkpt lat="47.10236" lon="6.17303">
        <ele>486</ele>
        <time>2021-08-23T13:59:54Z</time>
      </trkpt>
      <trkpt lat="47.10242" lon="6.17312">
        <ele>485.4</ele>
        <time>2021-08-23T13:59:56Z</time>
      </trkpt>
      <trkpt lat="47.10247" lon="6.17321">
        <ele>485</ele>
        <time>2021-08-23T13:59:58Z</time>
      </trkpt>
      <trkpt lat="47.1025" lon="6.17326">
        <ele>485</ele>
        <time>2021-08-23T13:59:59Z</time>
      </trkpt>
      <trkpt lat="47.10252" lon="6.1733">
        <ele>484.8</ele>
        <time>2021-08-23T14:00:00Z</time>
      </trkpt>
      <trkpt lat="47.10255" lon="6.17334">
        <ele>484.6</ele>
        <time>2021-08-23T14:00:01Z</time>
      </trkpt>
      <trkpt lat="47.10263" lon="6.17339">
        <ele>484.4</ele>
        <time>2021-08-23T14:00:03Z</time>
      </trkpt>
      <trkpt lat="47.10266" lon="6.1734">
        <ele>484.4</ele>
        <time>2021-08-23T14:00:04Z</time>
      </trkpt>
      <trkpt lat="47.1027" lon="6.17338">
        <ele>484.4</ele>
        <time>2021-08-23T14:00:05Z</time>
      </trkpt>
      <trkpt lat="47.10272" lon="6.17336">
        <ele>484.2</ele>
        <time>2021-08-23T14:00:06Z</time>
      </trkpt>
      <trkpt lat="47.10273" lon="6.17333">
        <ele>484</ele>
        <time>2021-08-23T14:00:07Z</time>
      </trkpt>
      <trkpt lat="47.10275" lon="6.17329">
        <ele>484</ele>
        <time>2021-08-23T14:00:08Z</time>
      </trkpt>
      <trkpt lat="47.10276" lon="6.17324">
        <ele>483.8</ele>
        <time>2021-08-23T14:00:09Z</time>
      </trkpt>
      <trkpt lat="47.10278" lon="6.1732">
        <ele>483.6</ele>
        <time>2021-08-23T14:00:10Z</time>
      </trkpt>
      <trkpt lat="47.1028" lon="6.17316">
        <ele>483.4</ele>
        <time>2021-08-23T14:00:11Z</time>
      </trkpt>
      <trkpt lat="47.1028" lon="6.17312">
        <ele>483.4</ele>
        <time>2021-08-23T14:00:12Z</time>
      </trkpt>
      <trkpt lat="47.10281" lon="6.17307">
        <ele>483.2</ele>
        <time>2021-08-23T14:00:13Z</time>
      </trkpt>
      <trkpt lat="47.10284" lon="6.17293">
        <ele>483</ele>
        <time>2021-08-23T14:00:16Z</time>
      </trkpt>
      <trkpt lat="47.10301" lon="6.17248">
        <ele>482.6</ele>
        <time>2021-08-23T14:00:23Z</time>
      </trkpt>
      <trkpt lat="47.10303" lon="6.17242">
        <ele>482.6</ele>
        <time>2021-08-23T14:00:24Z</time>
      </trkpt>
      <trkpt lat="47.10306" lon="6.17236">
        <ele>482.6</ele>
        <time>2021-08-23T14:00:25Z</time>
      </trkpt>
      <trkpt lat="47.10309" lon="6.17229">
        <ele>482.6</ele>
        <time>2021-08-23T14:00:26Z</time>
      </trkpt>
      <trkpt lat="47.10315" lon="6.17217">
        <ele>482.4</ele>
        <time>2021-08-23T14:00:28Z</time>
      </trkpt>
      <trkpt lat="47.10319" lon="6.17204">
        <ele>482.2</ele>
        <time>2021-08-23T14:00:30Z</time>
      </trkpt>
      <trkpt lat="47.10321" lon="6.17199">
        <ele>482.2</ele>
        <time>2021-08-23T14:00:31Z</time>
      </trkpt>
      <trkpt lat="47.10324" lon="6.17195">
        <ele>482.2</ele>
        <time>2021-08-23T14:00:32Z</time>
      </trkpt>
      <trkpt lat="47.10329" lon="6.17192">
        <ele>482</ele>
        <time>2021-08-23T14:00:33Z</time>
      </trkpt>
      <trkpt lat="47.10331" lon="6.1719">
        <ele>482</ele>
        <time>2021-08-23T14:00:34Z</time>
      </trkpt>
      <trkpt lat="47.10333" lon="6.17188">
        <ele>482</ele>
        <time>2021-08-23T14:00:35Z</time>
      </trkpt>
      <trkpt lat="47.10336" lon="6.17184">
        <ele>481.8</ele>
        <time>2021-08-23T14:00:36Z</time>
      </trkpt>
      <trkpt lat="47.10338" lon="6.17181">
        <ele>481.8</ele>
        <time>2021-08-23T14:00:37Z</time>
      </trkpt>
      <trkpt lat="47.10341" lon="6.17176">
        <ele>481.8</ele>
        <time>2021-08-23T14:00:38Z</time>
      </trkpt>
      <trkpt lat="47.10345" lon="6.17169">
        <ele>481.8</ele>
        <time>2021-08-23T14:00:39Z</time>
      </trkpt>
      <trkpt lat="47.10349" lon="6.17166">
        <ele>481.8</ele>
        <time>2021-08-23T14:00:40Z</time>
      </trkpt>
      <trkpt lat="47.10352" lon="6.17164">
        <ele>481.8</ele>
        <time>2021-08-23T14:00:41Z</time>
      </trkpt>
      <trkpt lat="47.10354" lon="6.17162">
        <ele>481.6</ele>
        <time>2021-08-23T14:00:42Z</time>
      </trkpt>
      <trkpt lat="47.10357" lon="6.1716">
        <ele>481.6</ele>
        <time>2021-08-23T14:00:43Z</time>
      </trkpt>
      <trkpt lat="47.10359" lon="6.17157">
        <ele>481.6</ele>
        <time>2021-08-23T14:00:44Z</time>
      </trkpt>
      <trkpt lat="47.10364" lon="6.17154">
        <ele>481.6</ele>
        <time>2021-08-23T14:00:45Z</time>
      </trkpt>
      <trkpt lat="47.10386" lon="6.1714">
        <ele>481.2</ele>
        <time>2021-08-23T14:00:50Z</time>
      </trkpt>
      <trkpt lat="47.1039" lon="6.1714">
        <ele>481</ele>
        <time>2021-08-23T14:00:51Z</time>
      </trkpt>
      <trkpt lat="47.10393" lon="6.1714">
        <ele>480.8</ele>
        <time>2021-08-23T14:00:52Z</time>
      </trkpt>
      <trkpt lat="47.10397" lon="6.17139">
        <ele>480.6</ele>
        <time>2021-08-23T14:00:53Z</time>
      </trkpt>
      <trkpt lat="47.10399" lon="6.17139">
        <ele>480.4</ele>
        <time>2021-08-23T14:00:54Z</time>
      </trkpt>
      <trkpt lat="47.10401" lon="6.1714">
        <ele>480.4</ele>
        <time>2021-08-23T14:00:55Z</time>
      </trkpt>
      <trkpt lat="47.10403" lon="6.17141">
        <ele>480.2</ele>
        <time>2021-08-23T14:00:56Z</time>
      </trkpt>
      <trkpt lat="47.10406" lon="6.17144">
        <ele>480.2</ele>
        <time>2021-08-23T14:00:57Z</time>
      </trkpt>
      <trkpt lat="47.10409" lon="6.17145">
        <ele>480.2</ele>
        <time>2021-08-23T14:00:58Z</time>
      </trkpt>
      <trkpt lat="47.10412" lon="6.17146">
        <ele>480.2</ele>
        <time>2021-08-23T14:00:59Z</time>
      </trkpt>
      <trkpt lat="47.10415" lon="6.17148">
        <ele>480</ele>
        <time>2021-08-23T14:01:00Z</time>
      </trkpt>
      <trkpt lat="47.10419" lon="6.1715">
        <ele>480</ele>
        <time>2021-08-23T14:01:01Z</time>
      </trkpt>
      <trkpt lat="47.10425" lon="6.17153">
        <ele>479.8</ele>
        <time>2021-08-23T14:01:02Z</time>
      </trkpt>
      <trkpt lat="47.10435" lon="6.17153">
        <ele>479.6</ele>
        <time>2021-08-23T14:01:04Z</time>
      </trkpt>
      <trkpt lat="47.1044" lon="6.17151">
        <ele>479.6</ele>
        <time>2021-08-23T14:01:05Z</time>
      </trkpt>
      <trkpt lat="47.10445" lon="6.1715">
        <ele>479.6</ele>
        <time>2021-08-23T14:01:06Z</time>
      </trkpt>
      <trkpt lat="47.10449" lon="6.17149">
        <ele>479.6</ele>
        <time>2021-08-23T14:01:07Z</time>
      </trkpt>
      <trkpt lat="47.10452" lon="6.17149">
        <ele>479.4</ele>
        <time>2021-08-23T14:01:08Z</time>
      </trkpt>
      <trkpt lat="47.1046" lon="6.17146">
        <ele>479.4</ele>
        <time>2021-08-23T14:01:10Z</time>
      </trkpt>
      <trkpt lat="47.10471" lon="6.17132">
        <ele>479.4</ele>
        <time>2021-08-23T14:01:12Z</time>
      </trkpt>
      <trkpt lat="47.10473" lon="6.17125">
        <ele>479.6</ele>
        <time>2021-08-23T14:01:13Z</time>
      </trkpt>
      <trkpt lat="47.10475" lon="6.17114">
        <ele>479.8</ele>
        <time>2021-08-23T14:01:15Z</time>
      </trkpt>
      <trkpt lat="47.10477" lon="6.1711">
        <ele>480</ele>
        <time>2021-08-23T14:01:16Z</time>
      </trkpt>
      <trkpt lat="47.10479" lon="6.17106">
        <ele>480.4</ele>
        <time>2021-08-23T14:01:17Z</time>
      </trkpt>
      <trkpt lat="47.10478" lon="6.171">
        <ele>480.4</ele>
        <time>2021-08-23T14:01:18Z</time>
      </trkpt>
      <trkpt lat="47.10477" lon="6.17096">
        <ele>480.4</ele>
        <time>2021-08-23T14:01:19Z</time>
      </trkpt>
      <trkpt lat="47.10475" lon="6.17088">
        <ele>480.6</ele>
        <time>2021-08-23T14:01:20Z</time>
      </trkpt>
      <trkpt lat="47.10474" lon="6.17081">
        <ele>480.6</ele>
        <time>2021-08-23T14:01:21Z</time>
      </trkpt>
      <trkpt lat="47.10475" lon="6.17072">
        <ele>480.6</ele>
        <time>2021-08-23T14:01:22Z</time>
      </trkpt>
      <trkpt lat="47.10476" lon="6.17063">
        <ele>480.4</ele>
        <time>2021-08-23T14:01:23Z</time>
      </trkpt>
      <trkpt lat="47.10478" lon="6.17056">
        <ele>480.2</ele>
        <time>2021-08-23T14:01:24Z</time>
      </trkpt>
      <trkpt lat="47.10481" lon="6.1705">
        <ele>480</ele>
        <time>2021-08-23T14:01:25Z</time>
      </trkpt>
      <trkpt lat="47.10483" lon="6.17045">
        <ele>479.2</ele>
        <time>2021-08-23T14:01:26Z</time>
      </trkpt>
      <trkpt lat="47.10484" lon="6.17042">
        <ele>478.8</ele>
        <time>2021-08-23T14:01:27Z</time>
      </trkpt>
      <trkpt lat="47.10486" lon="6.17037">
        <ele>478.4</ele>
        <time>2021-08-23T14:01:28Z</time>
      </trkpt>
      <trkpt lat="47.10488" lon="6.17033">
        <ele>477.8</ele>
        <time>2021-08-23T14:01:29Z</time>
      </trkpt>
      <trkpt lat="47.10489" lon="6.17028">
        <ele>477.6</ele>
        <time>2021-08-23T14:01:30Z</time>
      </trkpt>
      <trkpt lat="47.10488" lon="6.17023">
        <ele>477.2</ele>
        <time>2021-08-23T14:01:31Z</time>
      </trkpt>
      <trkpt lat="47.10488" lon="6.17019">
        <ele>477.2</ele>
        <time>2021-08-23T14:01:32Z</time>
      </trkpt>
      <trkpt lat="47.10488" lon="6.17015">
        <ele>477</ele>
        <time>2021-08-23T14:01:33Z</time>
      </trkpt>
      <trkpt lat="47.10488" lon="6.1701">
        <ele>477</ele>
        <time>2021-08-23T14:01:34Z</time>
      </trkpt>
      <trkpt lat="47.10488" lon="6.17006">
        <ele>476.8</ele>
        <time>2021-08-23T14:01:35Z</time>
      </trkpt>
      <trkpt lat="47.10491" lon="6.16996">
        <ele>476.8</ele>
        <time>2021-08-23T14:01:37Z</time>
      </trkpt>
      <trkpt lat="47.10492" lon="6.16993">
        <ele>476.6</ele>
        <time>2021-08-23T14:01:38Z</time>
      </trkpt>
      <trkpt lat="47.10493" lon="6.16988">
        <ele>476.6</ele>
        <time>2021-08-23T14:01:39Z</time>
      </trkpt>
      <trkpt lat="47.10494" lon="6.16985">
        <ele>476.6</ele>
        <time>2021-08-23T14:01:40Z</time>
      </trkpt>
      <trkpt lat="47.10495" lon="6.16981">
        <ele>476.6</ele>
        <time>2021-08-23T14:01:41Z</time>
      </trkpt>
      <trkpt lat="47.10495" lon="6.16977">
        <ele>476.6</ele>
        <time>2021-08-23T14:01:42Z</time>
      </trkpt>
      <trkpt lat="47.10496" lon="6.16974">
        <ele>476.6</ele>
        <time>2021-08-23T14:01:43Z</time>
      </trkpt>
      <trkpt lat="47.10497" lon="6.16969">
        <ele>476.6</ele>
        <time>2021-08-23T14:01:44Z</time>
      </trkpt>
      <trkpt lat="47.10502" lon="6.16955">
        <ele>476.6</ele>
        <time>2021-08-23T14:01:47Z</time>
      </trkpt>
      <trkpt lat="47.10504" lon="6.16952">
        <ele>476.8</ele>
        <time>2021-08-23T14:01:48Z</time>
      </trkpt>
      <trkpt lat="47.10508" lon="6.16945">
        <ele>476.8</ele>
        <time>2021-08-23T14:01:50Z</time>
      </trkpt>
      <trkpt lat="47.10515" lon="6.16933">
        <ele>477.2</ele>
        <time>2021-08-23T14:01:54Z</time>
      </trkpt>
      <trkpt lat="47.10516" lon="6.16929">
        <ele>477.2</ele>
        <time>2021-08-23T14:01:55Z</time>
      </trkpt>
      <trkpt lat="47.10518" lon="6.16921">
        <ele>477.4</ele>
        <time>2021-08-23T14:01:57Z</time>
      </trkpt>
      <trkpt lat="47.10519" lon="6.16917">
        <ele>477.4</ele>
        <time>2021-08-23T14:01:58Z</time>
      </trkpt>
      <trkpt lat="47.1052" lon="6.16914">
        <ele>477.4</ele>
        <time>2021-08-23T14:01:59Z</time>
      </trkpt>
      <trkpt lat="47.10521" lon="6.16911">
        <ele>477.4</ele>
        <time>2021-08-23T14:02:00Z</time>
      </trkpt>
      <trkpt lat="47.10522" lon="6.16908">
        <ele>477.4</ele>
        <time>2021-08-23T14:02:01Z</time>
      </trkpt>
      <trkpt lat="47.10523" lon="6.16905">
        <ele>477.4</ele>
        <time>2021-08-23T14:02:02Z</time>
      </trkpt>
      <trkpt lat="47.10524" lon="6.16903">
        <ele>477.4</ele>
        <time>2021-08-23T14:02:03Z</time>
      </trkpt>
      <trkpt lat="47.10524" lon="6.16901">
        <ele>477.4</ele>
        <time>2021-08-23T14:02:04Z</time>
      </trkpt>
      <trkpt lat="47.10525" lon="6.16898">
        <ele>477.4</ele>
        <time>2021-08-23T14:02:05Z</time>
      </trkpt>
      <trkpt lat="47.1053" lon="6.16882">
        <ele>477</ele>
        <time>2021-08-23T14:02:10Z</time>
      </trkpt>
      <trkpt lat="47.10536" lon="6.16865">
        <ele>476.6</ele>
        <time>2021-08-23T14:02:14Z</time>
      </trkpt>
      <trkpt lat="47.10537" lon="6.16861">
        <ele>476.6</ele>
        <time>2021-08-23T14:02:15Z</time>
      </trkpt>
      <trkpt lat="47.10538" lon="6.16856">
        <ele>476.4</ele>
        <time>2021-08-23T14:02:16Z</time>
      </trkpt>
      <trkpt lat="47.10551" lon="6.16814">
        <ele>476.8</ele>
        <time>2021-08-23T14:02:25Z</time>
      </trkpt>
      <trkpt lat="47.10561" lon="6.16785">
        <ele>477</ele>
        <time>2021-08-23T14:02:32Z</time>
      </trkpt>
      <trkpt lat="47.10562" lon="6.16782">
        <ele>477</ele>
        <time>2021-08-23T14:02:33Z</time>
      </trkpt>
      <trkpt lat="47.10563" lon="6.16778">
        <ele>477</ele>
        <time>2021-08-23T14:02:34Z</time>
      </trkpt>
      <trkpt lat="47.10565" lon="6.16774">
        <ele>477</ele>
        <time>2021-08-23T14:02:35Z</time>
      </trkpt>
      <trkpt lat="47.10566" lon="6.16771">
        <ele>477</ele>
        <time>2021-08-23T14:02:36Z</time>
      </trkpt>
      <trkpt lat="47.10568" lon="6.16768">
        <ele>477</ele>
        <time>2021-08-23T14:02:37Z</time>
      </trkpt>
      <trkpt lat="47.10569" lon="6.16765">
        <ele>477</ele>
        <time>2021-08-23T14:02:38Z</time>
      </trkpt>
      <trkpt lat="47.10579" lon="6.1675">
        <ele>476.8</ele>
        <time>2021-08-23T14:02:42Z</time>
      </trkpt>
      <trkpt lat="47.10581" lon="6.16747">
        <ele>476.8</ele>
        <time>2021-08-23T14:02:43Z</time>
      </trkpt>
      <trkpt lat="47.10582" lon="6.16744">
        <ele>476.6</ele>
        <time>2021-08-23T14:02:44Z</time>
      </trkpt>
      <trkpt lat="47.10583" lon="6.16741">
        <ele>476.6</ele>
        <time>2021-08-23T14:02:45Z</time>
      </trkpt>
      <trkpt lat="47.10584" lon="6.16738">
        <ele>476.6</ele>
        <time>2021-08-23T14:02:46Z</time>
      </trkpt>
      <trkpt lat="47.10585" lon="6.16735">
        <ele>476.6</ele>
        <time>2021-08-23T14:02:47Z</time>
      </trkpt>
      <trkpt lat="47.10587" lon="6.16732">
        <ele>476.6</ele>
        <time>2021-08-23T14:02:48Z</time>
      </trkpt>
      <trkpt lat="47.10588" lon="6.16728">
        <ele>476.8</ele>
        <time>2021-08-23T14:02:49Z</time>
      </trkpt>
      <trkpt lat="47.10589" lon="6.16725">
        <ele>476.8</ele>
        <time>2021-08-23T14:02:50Z</time>
      </trkpt>
      <trkpt lat="47.1059" lon="6.16721">
        <ele>476.8</ele>
        <time>2021-08-23T14:02:51Z</time>
      </trkpt>
      <trkpt lat="47.10592" lon="6.16717">
        <ele>477</ele>
        <time>2021-08-23T14:02:52Z</time>
      </trkpt>
      <trkpt lat="47.10599" lon="6.16693">
        <ele>478</ele>
        <time>2021-08-23T14:02:59Z</time>
      </trkpt>
      <trkpt lat="47.106" lon="6.1669">
        <ele>478.4</ele>
        <time>2021-08-23T14:03:00Z</time>
      </trkpt>
      <trkpt lat="47.10607" lon="6.1667">
        <ele>479</ele>
        <time>2021-08-23T14:03:05Z</time>
      </trkpt>
      <trkpt lat="47.10611" lon="6.16661">
        <ele>479.2</ele>
        <time>2021-08-23T14:03:07Z</time>
      </trkpt>
      <trkpt lat="47.10613" lon="6.16657">
        <ele>479.2</ele>
        <time>2021-08-23T14:03:08Z</time>
      </trkpt>
      <trkpt lat="47.10615" lon="6.16653">
        <ele>479.2</ele>
        <time>2021-08-23T14:03:09Z</time>
      </trkpt>
      <trkpt lat="47.10616" lon="6.16648">
        <ele>479.2</ele>
        <time>2021-08-23T14:03:10Z</time>
      </trkpt>
      <trkpt lat="47.10618" lon="6.16645">
        <ele>479.2</ele>
        <time>2021-08-23T14:03:11Z</time>
      </trkpt>
      <trkpt lat="47.1062" lon="6.16635">
        <ele>479</ele>
        <time>2021-08-23T14:03:13Z</time>
      </trkpt>
      <trkpt lat="47.10622" lon="6.16622">
        <ele>478.8</ele>
        <time>2021-08-23T14:03:15Z</time>
      </trkpt>
      <trkpt lat="47.10624" lon="6.16607">
        <ele>478.2</ele>
        <time>2021-08-23T14:03:17Z</time>
      </trkpt>
      <trkpt lat="47.10624" lon="6.166">
        <ele>478</ele>
        <time>2021-08-23T14:03:18Z</time>
      </trkpt>
      <trkpt lat="47.10625" lon="6.16593">
        <ele>477.8</ele>
        <time>2021-08-23T14:03:19Z</time>
      </trkpt>
      <trkpt lat="47.10626" lon="6.16579">
        <ele>477.2</ele>
        <time>2021-08-23T14:03:21Z</time>
      </trkpt>
      <trkpt lat="47.10627" lon="6.16573">
        <ele>477</ele>
        <time>2021-08-23T14:03:22Z</time>
      </trkpt>
      <trkpt lat="47.10628" lon="6.16567">
        <ele>477</ele>
        <time>2021-08-23T14:03:23Z</time>
      </trkpt>
      <trkpt lat="47.10628" lon="6.16563">
        <ele>477</ele>
        <time>2021-08-23T14:03:24Z</time>
      </trkpt>
      <trkpt lat="47.10629" lon="6.16558">
        <ele>476.8</ele>
        <time>2021-08-23T14:03:25Z</time>
      </trkpt>
      <trkpt lat="47.1063" lon="6.16554">
        <ele>476.8</ele>
        <time>2021-08-23T14:03:26Z</time>
      </trkpt>
      <trkpt lat="47.10631" lon="6.1655">
        <ele>477</ele>
        <time>2021-08-23T14:03:27Z</time>
      </trkpt>
      <trkpt lat="47.10631" lon="6.16545">
        <ele>477</ele>
        <time>2021-08-23T14:03:28Z</time>
      </trkpt>
      <trkpt lat="47.10632" lon="6.16541">
        <ele>477.2</ele>
        <time>2021-08-23T14:03:29Z</time>
      </trkpt>
      <trkpt lat="47.10636" lon="6.16518">
        <ele>477.4</ele>
        <time>2021-08-23T14:03:33Z</time>
      </trkpt>
      <trkpt lat="47.10641" lon="6.16508">
        <ele>477.6</ele>
        <time>2021-08-23T14:03:35Z</time>
      </trkpt>
      <trkpt lat="47.10644" lon="6.16504">
        <ele>477.6</ele>
        <time>2021-08-23T14:03:36Z</time>
      </trkpt>
      <trkpt lat="47.10648" lon="6.165">
        <ele>477.6</ele>
        <time>2021-08-23T14:03:37Z</time>
      </trkpt>
      <trkpt lat="47.1065" lon="6.16497">
        <ele>477.6</ele>
        <time>2021-08-23T14:03:38Z</time>
      </trkpt>
      <trkpt lat="47.10651" lon="6.16495">
        <ele>477.6</ele>
        <time>2021-08-23T14:03:39Z</time>
      </trkpt>
      <trkpt lat="47.10651" lon="6.16492">
        <ele>477.6</ele>
        <time>2021-08-23T14:03:40Z</time>
      </trkpt>
      <trkpt lat="47.1065" lon="6.16489">
        <ele>477.6</ele>
        <time>2021-08-23T14:03:41Z</time>
      </trkpt>
      <trkpt lat="47.10649" lon="6.16485">
        <ele>477.6</ele>
        <time>2021-08-23T14:03:42Z</time>
      </trkpt>
      <trkpt lat="47.10649" lon="6.16481">
        <ele>477.6</ele>
        <time>2021-08-23T14:03:43Z</time>
      </trkpt>
      <trkpt lat="47.10644" lon="6.16465">
        <ele>477.4</ele>
        <time>2021-08-23T14:03:46Z</time>
      </trkpt>
      <trkpt lat="47.10642" lon="6.16432">
        <ele>476.8</ele>
        <time>2021-08-23T14:03:53Z</time>
      </trkpt>
      <trkpt lat="47.10643" lon="6.16427">
        <ele>476.6</ele>
        <time>2021-08-23T14:03:54Z</time>
      </trkpt>
      <trkpt lat="47.10645" lon="6.16422">
        <ele>476.6</ele>
        <time>2021-08-23T14:03:55Z</time>
      </trkpt>
      <trkpt lat="47.10647" lon="6.16418">
        <ele>476.6</ele>
        <time>2021-08-23T14:03:56Z</time>
      </trkpt>
      <trkpt lat="47.10649" lon="6.16414">
        <ele>476.6</ele>
        <time>2021-08-23T14:03:57Z</time>
      </trkpt>
      <trkpt lat="47.10651" lon="6.16411">
        <ele>476.8</ele>
        <time>2021-08-23T14:03:58Z</time>
      </trkpt>
      <trkpt lat="47.10652" lon="6.16407">
        <ele>476.6</ele>
        <time>2021-08-23T14:03:59Z</time>
      </trkpt>
      <trkpt lat="47.10653" lon="6.16404">
        <ele>476.8</ele>
        <time>2021-08-23T14:04:00Z</time>
      </trkpt>
      <trkpt lat="47.1066" lon="6.16376">
        <ele>477.4</ele>
        <time>2021-08-23T14:04:06Z</time>
      </trkpt>
      <trkpt lat="47.10661" lon="6.16372">
        <ele>477.4</ele>
        <time>2021-08-23T14:04:07Z</time>
      </trkpt>
      <trkpt lat="47.10661" lon="6.16369">
        <ele>477.8</ele>
        <time>2021-08-23T14:04:08Z</time>
      </trkpt>
      <trkpt lat="47.10662" lon="6.16361">
        <ele>478.2</ele>
        <time>2021-08-23T14:04:10Z</time>
      </trkpt>
      <trkpt lat="47.10663" lon="6.16358">
        <ele>478.2</ele>
        <time>2021-08-23T14:04:11Z</time>
      </trkpt>
      <trkpt lat="47.10664" lon="6.16355">
        <ele>478.2</ele>
        <time>2021-08-23T14:04:12Z</time>
      </trkpt>
      <trkpt lat="47.10664" lon="6.16352">
        <ele>478.2</ele>
        <time>2021-08-23T14:04:13Z</time>
      </trkpt>
      <trkpt lat="47.10665" lon="6.16348">
        <ele>478.4</ele>
        <time>2021-08-23T14:04:14Z</time>
      </trkpt>
      <trkpt lat="47.10667" lon="6.16326">
        <ele>478.6</ele>
        <time>2021-08-23T14:04:19Z</time>
      </trkpt>
      <trkpt lat="47.10668" lon="6.16305">
        <ele>478</ele>
        <time>2021-08-23T14:04:25Z</time>
      </trkpt>
      <trkpt lat="47.10669" lon="6.16301">
        <ele>478</ele>
        <time>2021-08-23T14:04:26Z</time>
      </trkpt>
      <trkpt lat="47.1067" lon="6.16298">
        <ele>478</ele>
        <time>2021-08-23T14:04:27Z</time>
      </trkpt>
      <trkpt lat="47.10671" lon="6.16296">
        <ele>477.8</ele>
        <time>2021-08-23T14:04:28Z</time>
      </trkpt>
      <trkpt lat="47.10672" lon="6.16294">
        <ele>477.8</ele>
        <time>2021-08-23T14:04:29Z</time>
      </trkpt>
      <trkpt lat="47.10672" lon="6.16293">
        <ele>477.6</ele>
        <time>2021-08-23T14:04:30Z</time>
      </trkpt>
      <trkpt lat="47.10672" lon="6.16292">
        <ele>477.6</ele>
        <time>2021-08-23T14:04:31Z</time>
      </trkpt>
      <trkpt lat="47.10672" lon="6.16292">
        <ele>477.6</ele>
        <time>2021-08-23T14:04:32Z</time>
      </trkpt>
      <trkpt lat="47.10673" lon="6.16292">
        <ele>477.4</ele>
        <time>2021-08-23T14:04:37Z</time>
      </trkpt>
      <trkpt lat="47.10673" lon="6.16292">
        <ele>476.8</ele>
        <time>2021-08-23T14:04:48Z</time>
      </trkpt>
      <trkpt lat="47.10673" lon="6.16292">
        <ele>476.8</ele>
        <time>2021-08-23T14:04:52Z</time>
      </trkpt>
      <trkpt lat="47.10673" lon="6.16292">
        <ele>477.2</ele>
        <time>2021-08-23T14:05:11Z</time>
      </trkpt>
      <trkpt lat="47.10677" lon="6.16283">
        <ele>477.4</ele>
        <time>2021-08-23T14:05:41Z</time>
      </trkpt>
      <trkpt lat="47.10679" lon="6.16279">
        <ele>477.4</ele>
        <time>2021-08-23T14:05:43Z</time>
      </trkpt>
      <trkpt lat="47.1068" lon="6.16278">
        <ele>477.4</ele>
        <time>2021-08-23T14:05:44Z</time>
      </trkpt>
      <trkpt lat="47.10682" lon="6.16279">
        <ele>477.6</ele>
        <time>2021-08-23T14:05:45Z</time>
      </trkpt>
      <trkpt lat="47.10684" lon="6.1628">
        <ele>477.6</ele>
        <time>2021-08-23T14:05:46Z</time>
      </trkpt>
      <trkpt lat="47.10687" lon="6.1629">
        <ele>477.6</ele>
        <time>2021-08-23T14:05:49Z</time>
      </trkpt>
      <trkpt lat="47.10697" lon="6.16312">
        <ele>477.4</ele>
        <time>2021-08-23T14:05:56Z</time>
      </trkpt>
      <trkpt lat="47.10704" lon="6.16322">
        <ele>477.4</ele>
        <time>2021-08-23T14:06:00Z</time>
      </trkpt>
      <trkpt lat="47.10705" lon="6.16324">
        <ele>477.4</ele>
        <time>2021-08-23T14:06:01Z</time>
      </trkpt>
      <trkpt lat="47.10707" lon="6.16326">
        <ele>477.4</ele>
        <time>2021-08-23T14:06:02Z</time>
      </trkpt>
      <trkpt lat="47.10709" lon="6.16329">
        <ele>477.2</ele>
        <time>2021-08-23T14:06:03Z</time>
      </trkpt>
      <trkpt lat="47.10718" lon="6.16339">
        <ele>477.2</ele>
        <time>2021-08-23T14:06:07Z</time>
      </trkpt>
      <trkpt lat="47.1072" lon="6.16342">
        <ele>477.2</ele>
        <time>2021-08-23T14:06:08Z</time>
      </trkpt>
      <trkpt lat="47.10721" lon="6.16344">
        <ele>477.4</ele>
        <time>2021-08-23T14:06:09Z</time>
      </trkpt>
      <trkpt lat="47.10723" lon="6.16346">
        <ele>477.4</ele>
        <time>2021-08-23T14:06:10Z</time>
      </trkpt>
      <trkpt lat="47.10725" lon="6.1635">
        <ele>478</ele>
        <time>2021-08-23T14:06:12Z</time>
      </trkpt>
      <trkpt lat="47.10726" lon="6.16352">
        <ele>478</ele>
        <time>2021-08-23T14:06:13Z</time>
      </trkpt>
      <trkpt lat="47.10727" lon="6.16355">
        <ele>478.2</ele>
        <time>2021-08-23T14:06:14Z</time>
      </trkpt>
      <trkpt lat="47.10729" lon="6.16357">
        <ele>478.6</ele>
        <time>2021-08-23T14:06:16Z</time>
      </trkpt>
      <trkpt lat="47.10732" lon="6.16358">
        <ele>478.8</ele>
        <time>2021-08-23T14:06:17Z</time>
      </trkpt>
      <trkpt lat="47.10734" lon="6.16358">
        <ele>479</ele>
        <time>2021-08-23T14:06:18Z</time>
      </trkpt>
      <trkpt lat="47.10737" lon="6.16358">
        <ele>479</ele>
        <time>2021-08-23T14:06:19Z</time>
      </trkpt>
      <trkpt lat="47.10739" lon="6.16357">
        <ele>479.2</ele>
        <time>2021-08-23T14:06:20Z</time>
      </trkpt>
      <trkpt lat="47.1075" lon="6.16354">
        <ele>479</ele>
        <time>2021-08-23T14:06:23Z</time>
      </trkpt>
      <trkpt lat="47.10764" lon="6.16352">
        <ele>478.6</ele>
        <time>2021-08-23T14:06:26Z</time>
      </trkpt>
      <trkpt lat="47.10774" lon="6.16353">
        <ele>478.4</ele>
        <time>2021-08-23T14:06:28Z</time>
      </trkpt>
      <trkpt lat="47.1078" lon="6.16354">
        <ele>478</ele>
        <time>2021-08-23T14:06:29Z</time>
      </trkpt>
      <trkpt lat="47.10803" lon="6.16363">
        <ele>476.8</ele>
        <time>2021-08-23T14:06:33Z</time>
      </trkpt>
      <trkpt lat="47.10821" lon="6.16376">
        <ele>475.8</ele>
        <time>2021-08-23T14:06:36Z</time>
      </trkpt>
      <trkpt lat="47.10827" lon="6.1638">
        <ele>475.6</ele>
        <time>2021-08-23T14:06:37Z</time>
      </trkpt>
      <trkpt lat="47.10837" lon="6.1639">
        <ele>475</ele>
        <time>2021-08-23T14:06:39Z</time>
      </trkpt>
      <trkpt lat="47.10847" lon="6.164">
        <ele>474.6</ele>
        <time>2021-08-23T14:06:41Z</time>
      </trkpt>
      <trkpt lat="47.10852" lon="6.16404">
        <ele>474.6</ele>
        <time>2021-08-23T14:06:42Z</time>
      </trkpt>
      <trkpt lat="47.10857" lon="6.16408">
        <ele>474.2</ele>
        <time>2021-08-23T14:06:43Z</time>
      </trkpt>
      <trkpt lat="47.10861" lon="6.16413">
        <ele>474.2</ele>
        <time>2021-08-23T14:06:44Z</time>
      </trkpt>
      <trkpt lat="47.10864" lon="6.16418">
        <ele>473.8</ele>
        <time>2021-08-23T14:06:45Z</time>
      </trkpt>
      <trkpt lat="47.10867" lon="6.16422">
        <ele>473.6</ele>
        <time>2021-08-23T14:06:46Z</time>
      </trkpt>
      <trkpt lat="47.1087" lon="6.16427">
        <ele>473.4</ele>
        <time>2021-08-23T14:06:47Z</time>
      </trkpt>
      <trkpt lat="47.10873" lon="6.16431">
        <ele>473.2</ele>
        <time>2021-08-23T14:06:48Z</time>
      </trkpt>
      <trkpt lat="47.10876" lon="6.16435">
        <ele>473.2</ele>
        <time>2021-08-23T14:06:49Z</time>
      </trkpt>
      <trkpt lat="47.10895" lon="6.16463">
        <ele>473</ele>
        <time>2021-08-23T14:06:55Z</time>
      </trkpt>
      <trkpt lat="47.10901" lon="6.16472">
        <ele>473.2</ele>
        <time>2021-08-23T14:06:57Z</time>
      </trkpt>
      <trkpt lat="47.10903" lon="6.16475">
        <ele>473.2</ele>
        <time>2021-08-23T14:06:58Z</time>
      </trkpt>
      <trkpt lat="47.10906" lon="6.16478">
        <ele>473.2</ele>
        <time>2021-08-23T14:06:59Z</time>
      </trkpt>
      <trkpt lat="47.10921" lon="6.16496">
        <ele>473.4</ele>
        <time>2021-08-23T14:07:04Z</time>
      </trkpt>
      <trkpt lat="47.10944" lon="6.16523">
        <ele>473.4</ele>
        <time>2021-08-23T14:07:10Z</time>
      </trkpt>
      <trkpt lat="47.10956" lon="6.16539">
        <ele>473.4</ele>
        <time>2021-08-23T14:07:13Z</time>
      </trkpt>
      <trkpt lat="47.1096" lon="6.16544">
        <ele>473.2</ele>
        <time>2021-08-23T14:07:14Z</time>
      </trkpt>
      <trkpt lat="47.10963" lon="6.16549">
        <ele>473.2</ele>
        <time>2021-08-23T14:07:15Z</time>
      </trkpt>
      <trkpt lat="47.10967" lon="6.16554">
        <ele>473.2</ele>
        <time>2021-08-23T14:07:16Z</time>
      </trkpt>
      <trkpt lat="47.1097" lon="6.16558">
        <ele>473</ele>
        <time>2021-08-23T14:07:17Z</time>
      </trkpt>
      <trkpt lat="47.11003" lon="6.16601">
        <ele>472.8</ele>
        <time>2021-08-23T14:07:25Z</time>
      </trkpt>
      <trkpt lat="47.11018" lon="6.16625">
        <ele>472.6</ele>
        <time>2021-08-23T14:07:29Z</time>
      </trkpt>
      <trkpt lat="47.11021" lon="6.1663">
        <ele>472.6</ele>
        <time>2021-08-23T14:07:30Z</time>
      </trkpt>
      <trkpt lat="47.11024" lon="6.16634">
        <ele>472.6</ele>
        <time>2021-08-23T14:07:31Z</time>
      </trkpt>
      <trkpt lat="47.11027" lon="6.16639">
        <ele>472.8</ele>
        <time>2021-08-23T14:07:32Z</time>
      </trkpt>
      <trkpt lat="47.1103" lon="6.16643">
        <ele>472.8</ele>
        <time>2021-08-23T14:07:33Z</time>
      </trkpt>
      <trkpt lat="47.11036" lon="6.16653">
        <ele>473.2</ele>
        <time>2021-08-23T14:07:35Z</time>
      </trkpt>
      <trkpt lat="47.11039" lon="6.16657">
        <ele>473.2</ele>
        <time>2021-08-23T14:07:36Z</time>
      </trkpt>
      <trkpt lat="47.11041" lon="6.16662">
        <ele>473.2</ele>
        <time>2021-08-23T14:07:37Z</time>
      </trkpt>
      <trkpt lat="47.11045" lon="6.16666">
        <ele>473.4</ele>
        <time>2021-08-23T14:07:38Z</time>
      </trkpt>
      <trkpt lat="47.11047" lon="6.16671">
        <ele>473.4</ele>
        <time>2021-08-23T14:07:39Z</time>
      </trkpt>
      <trkpt lat="47.1105" lon="6.16675">
        <ele>473.6</ele>
        <time>2021-08-23T14:07:40Z</time>
      </trkpt>
      <trkpt lat="47.11052" lon="6.16678">
        <ele>473.6</ele>
        <time>2021-08-23T14:07:41Z</time>
      </trkpt>
      <trkpt lat="47.11054" lon="6.16681">
        <ele>473.8</ele>
        <time>2021-08-23T14:07:42Z</time>
      </trkpt>
      <trkpt lat="47.11055" lon="6.16683">
        <ele>473.8</ele>
        <time>2021-08-23T14:07:43Z</time>
      </trkpt>
      <trkpt lat="47.11056" lon="6.16685">
        <ele>473.8</ele>
        <time>2021-08-23T14:07:44Z</time>
      </trkpt>
      <trkpt lat="47.11058" lon="6.16687">
        <ele>474</ele>
        <time>2021-08-23T14:07:45Z</time>
      </trkpt>
      <trkpt lat="47.11074" lon="6.16705">
        <ele>474.2</ele>
        <time>2021-08-23T14:07:49Z</time>
      </trkpt>
      <trkpt lat="47.11078" lon="6.16711">
        <ele>474.2</ele>
        <time>2021-08-23T14:07:50Z</time>
      </trkpt>
      <trkpt lat="47.11089" lon="6.16724">
        <ele>473.8</ele>
        <time>2021-08-23T14:07:52Z</time>
      </trkpt>
      <trkpt lat="47.11094" lon="6.1673">
        <ele>472.4</ele>
        <time>2021-08-23T14:07:53Z</time>
      </trkpt>
      <trkpt lat="47.11104" lon="6.16745">
        <ele>471.2</ele>
        <time>2021-08-23T14:07:55Z</time>
      </trkpt>
      <trkpt lat="47.11112" lon="6.16761">
        <ele>470.4</ele>
        <time>2021-08-23T14:07:57Z</time>
      </trkpt>
      <trkpt lat="47.11116" lon="6.16767">
        <ele>470</ele>
        <time>2021-08-23T14:07:58Z</time>
      </trkpt>
      <trkpt lat="47.11121" lon="6.16773">
        <ele>469.4</ele>
        <time>2021-08-23T14:07:59Z</time>
      </trkpt>
      <trkpt lat="47.11125" lon="6.16776">
        <ele>468.8</ele>
        <time>2021-08-23T14:08:00Z</time>
      </trkpt>
      <trkpt lat="47.1113" lon="6.16778">
        <ele>468.6</ele>
        <time>2021-08-23T14:08:01Z</time>
      </trkpt>
      <trkpt lat="47.11135" lon="6.16777">
        <ele>468</ele>
        <time>2021-08-23T14:08:02Z</time>
      </trkpt>
      <trkpt lat="47.11139" lon="6.16775">
        <ele>467.8</ele>
        <time>2021-08-23T14:08:03Z</time>
      </trkpt>
      <trkpt lat="47.11142" lon="6.1677">
        <ele>467.2</ele>
        <time>2021-08-23T14:08:04Z</time>
      </trkpt>
      <trkpt lat="47.11144" lon="6.16753">
        <ele>466.4</ele>
        <time>2021-08-23T14:08:06Z</time>
      </trkpt>
      <trkpt lat="47.11138" lon="6.16727">
        <ele>465.2</ele>
        <time>2021-08-23T14:08:09Z</time>
      </trkpt>
      <trkpt lat="47.11135" lon="6.16717">
        <ele>465</ele>
        <time>2021-08-23T14:08:10Z</time>
      </trkpt>
      <trkpt lat="47.11132" lon="6.16707">
        <ele>463.8</ele>
        <time>2021-08-23T14:08:11Z</time>
      </trkpt>
      <trkpt lat="47.11126" lon="6.16689">
        <ele>462.8</ele>
        <time>2021-08-23T14:08:13Z</time>
      </trkpt>
      <trkpt lat="47.11123" lon="6.16681">
        <ele>462.6</ele>
        <time>2021-08-23T14:08:14Z</time>
      </trkpt>
      <trkpt lat="47.11119" lon="6.16673">
        <ele>462</ele>
        <time>2021-08-23T14:08:15Z</time>
      </trkpt>
      <trkpt lat="47.11109" lon="6.16656">
        <ele>460.6</ele>
        <time>2021-08-23T14:08:17Z</time>
      </trkpt>
      <trkpt lat="47.11098" lon="6.16637">
        <ele>459.4</ele>
        <time>2021-08-23T14:08:19Z</time>
      </trkpt>
      <trkpt lat="47.1108" lon="6.16606">
        <ele>457.8</ele>
        <time>2021-08-23T14:08:22Z</time>
      </trkpt>
      <trkpt lat="47.11066" lon="6.16584">
        <ele>456.2</ele>
        <time>2021-08-23T14:08:24Z</time>
      </trkpt>
      <trkpt lat="47.11051" lon="6.16562">
        <ele>454.6</ele>
        <time>2021-08-23T14:08:26Z</time>
      </trkpt>
      <trkpt lat="47.11044" lon="6.1655">
        <ele>453.2</ele>
        <time>2021-08-23T14:08:27Z</time>
      </trkpt>
      <trkpt lat="47.11037" lon="6.16539">
        <ele>452.8</ele>
        <time>2021-08-23T14:08:28Z</time>
      </trkpt>
      <trkpt lat="47.11029" lon="6.16527">
        <ele>451.4</ele>
        <time>2021-08-23T14:08:29Z</time>
      </trkpt>
      <trkpt lat="47.11014" lon="6.16503">
        <ele>449.8</ele>
        <time>2021-08-23T14:08:31Z</time>
      </trkpt>
      <trkpt lat="47.10999" lon="6.16478">
        <ele>447.4</ele>
        <time>2021-08-23T14:08:33Z</time>
      </trkpt>
      <trkpt lat="47.10991" lon="6.16465">
        <ele>446.8</ele>
        <time>2021-08-23T14:08:34Z</time>
      </trkpt>
      <trkpt lat="47.10984" lon="6.16452">
        <ele>445.8</ele>
        <time>2021-08-23T14:08:35Z</time>
      </trkpt>
      <trkpt lat="47.10976" lon="6.1644">
        <ele>444.8</ele>
        <time>2021-08-23T14:08:36Z</time>
      </trkpt>
      <trkpt lat="47.10968" lon="6.16428">
        <ele>444.2</ele>
        <time>2021-08-23T14:08:37Z</time>
      </trkpt>
      <trkpt lat="47.1096" lon="6.16415">
        <ele>442.8</ele>
        <time>2021-08-23T14:08:38Z</time>
      </trkpt>
      <trkpt lat="47.10953" lon="6.16401">
        <ele>442.2</ele>
        <time>2021-08-23T14:08:39Z</time>
      </trkpt>
      <trkpt lat="47.10945" lon="6.16388">
        <ele>441</ele>
        <time>2021-08-23T14:08:40Z</time>
      </trkpt>
      <trkpt lat="47.1093" lon="6.16366">
        <ele>438.8</ele>
        <time>2021-08-23T14:08:42Z</time>
      </trkpt>
      <trkpt lat="47.10924" lon="6.16356">
        <ele>438.4</ele>
        <time>2021-08-23T14:08:43Z</time>
      </trkpt>
      <trkpt lat="47.10919" lon="6.16348">
        <ele>437</ele>
        <time>2021-08-23T14:08:44Z</time>
      </trkpt>
      <trkpt lat="47.10915" lon="6.1634">
        <ele>435.8</ele>
        <time>2021-08-23T14:08:45Z</time>
      </trkpt>
      <trkpt lat="47.10909" lon="6.16333">
        <ele>435.2</ele>
        <time>2021-08-23T14:08:46Z</time>
      </trkpt>
      <trkpt lat="47.10905" lon="6.16326">
        <ele>434.4</ele>
        <time>2021-08-23T14:08:47Z</time>
      </trkpt>
      <trkpt lat="47.10902" lon="6.1632">
        <ele>434.2</ele>
        <time>2021-08-23T14:08:48Z</time>
      </trkpt>
      <trkpt lat="47.10902" lon="6.16315">
        <ele>433.4</ele>
        <time>2021-08-23T14:08:49Z</time>
      </trkpt>
      <trkpt lat="47.10904" lon="6.16309">
        <ele>432.8</ele>
        <time>2021-08-23T14:08:50Z</time>
      </trkpt>
      <trkpt lat="47.10907" lon="6.16309">
        <ele>432.2</ele>
        <time>2021-08-23T14:08:51Z</time>
      </trkpt>
      <trkpt lat="47.1091" lon="6.16309">
        <ele>431.8</ele>
        <time>2021-08-23T14:08:52Z</time>
      </trkpt>
      <trkpt lat="47.10912" lon="6.1631">
        <ele>431.4</ele>
        <time>2021-08-23T14:08:53Z</time>
      </trkpt>
      <trkpt lat="47.10914" lon="6.16313">
        <ele>431</ele>
        <time>2021-08-23T14:08:54Z</time>
      </trkpt>
      <trkpt lat="47.10926" lon="6.16326">
        <ele>430</ele>
        <time>2021-08-23T14:08:57Z</time>
      </trkpt>
      <trkpt lat="47.10932" lon="6.16332">
        <ele>429.4</ele>
        <time>2021-08-23T14:08:58Z</time>
      </trkpt>
      <trkpt lat="47.10938" lon="6.16338">
        <ele>429.2</ele>
        <time>2021-08-23T14:08:59Z</time>
      </trkpt>
      <trkpt lat="47.10953" lon="6.16349">
        <ele>428.4</ele>
        <time>2021-08-23T14:09:01Z</time>
      </trkpt>
      <trkpt lat="47.1096" lon="6.16356">
        <ele>427</ele>
        <time>2021-08-23T14:09:02Z</time>
      </trkpt>
      <trkpt lat="47.10977" lon="6.16368">
        <ele>425.6</ele>
        <time>2021-08-23T14:09:04Z</time>
      </trkpt>
      <trkpt lat="47.10986" lon="6.16374">
        <ele>424.4</ele>
        <time>2021-08-23T14:09:05Z</time>
      </trkpt>
      <trkpt lat="47.10996" lon="6.1638">
        <ele>423.6</ele>
        <time>2021-08-23T14:09:06Z</time>
      </trkpt>
      <trkpt lat="47.11006" lon="6.16387">
        <ele>422.8</ele>
        <time>2021-08-23T14:09:07Z</time>
      </trkpt>
      <trkpt lat="47.11028" lon="6.16401">
        <ele>421</ele>
        <time>2021-08-23T14:09:09Z</time>
      </trkpt>
      <trkpt lat="47.11039" lon="6.16409">
        <ele>420.4</ele>
        <time>2021-08-23T14:09:10Z</time>
      </trkpt>
      <trkpt lat="47.11049" lon="6.16417">
        <ele>418.6</ele>
        <time>2021-08-23T14:09:11Z</time>
      </trkpt>
      <trkpt lat="47.1106" lon="6.16424">
        <ele>417.2</ele>
        <time>2021-08-23T14:09:12Z</time>
      </trkpt>
      <trkpt lat="47.11083" lon="6.16438">
        <ele>415.4</ele>
        <time>2021-08-23T14:09:14Z</time>
      </trkpt>
      <trkpt lat="47.11095" lon="6.16446">
        <ele>414.8</ele>
        <time>2021-08-23T14:09:15Z</time>
      </trkpt>
      <trkpt lat="47.11107" lon="6.16455">
        <ele>413.6</ele>
        <time>2021-08-23T14:09:16Z</time>
      </trkpt>
      <trkpt lat="47.11129" lon="6.16475">
        <ele>410.8</ele>
        <time>2021-08-23T14:09:18Z</time>
      </trkpt>
      <trkpt lat="47.1114" lon="6.16485">
        <ele>410</ele>
        <time>2021-08-23T14:09:19Z</time>
      </trkpt>
      <trkpt lat="47.11152" lon="6.16498">
        <ele>408.4</ele>
        <time>2021-08-23T14:09:20Z</time>
      </trkpt>
      <trkpt lat="47.11159" lon="6.16508">
        <ele>407</ele>
        <time>2021-08-23T14:09:21Z</time>
      </trkpt>
      <trkpt lat="47.11167" lon="6.16519">
        <ele>406</ele>
        <time>2021-08-23T14:09:22Z</time>
      </trkpt>
      <trkpt lat="47.11175" lon="6.16531">
        <ele>404</ele>
        <time>2021-08-23T14:09:23Z</time>
      </trkpt>
      <trkpt lat="47.11184" lon="6.16542">
        <ele>403.4</ele>
        <time>2021-08-23T14:09:24Z</time>
      </trkpt>
      <trkpt lat="47.11191" lon="6.16554">
        <ele>402.8</ele>
        <time>2021-08-23T14:09:25Z</time>
      </trkpt>
      <trkpt lat="47.11199" lon="6.16565">
        <ele>402.6</ele>
        <time>2021-08-23T14:09:26Z</time>
      </trkpt>
      <trkpt lat="47.11206" lon="6.16574">
        <ele>402.6</ele>
        <time>2021-08-23T14:09:27Z</time>
      </trkpt>
      <trkpt lat="47.11213" lon="6.16584">
        <ele>402.4</ele>
        <time>2021-08-23T14:09:28Z</time>
      </trkpt>
      <trkpt lat="47.11219" lon="6.16594">
        <ele>402.4</ele>
        <time>2021-08-23T14:09:29Z</time>
      </trkpt>
      <trkpt lat="47.11226" lon="6.16605">
        <ele>402.4</ele>
        <time>2021-08-23T14:09:30Z</time>
      </trkpt>
      <trkpt lat="47.11231" lon="6.16613">
        <ele>402.2</ele>
        <time>2021-08-23T14:09:31Z</time>
      </trkpt>
      <trkpt lat="47.11236" lon="6.16622">
        <ele>402.2</ele>
        <time>2021-08-23T14:09:32Z</time>
      </trkpt>
      <trkpt lat="47.1124" lon="6.1663">
        <ele>402</ele>
        <time>2021-08-23T14:09:33Z</time>
      </trkpt>
      <trkpt lat="47.11244" lon="6.16637">
        <ele>402</ele>
        <time>2021-08-23T14:09:34Z</time>
      </trkpt>
      <trkpt lat="47.11247" lon="6.16643">
        <ele>401.8</ele>
        <time>2021-08-23T14:09:35Z</time>
      </trkpt>
      <trkpt lat="47.1125" lon="6.16648">
        <ele>401.4</ele>
        <time>2021-08-23T14:09:36Z</time>
      </trkpt>
      <trkpt lat="47.11253" lon="6.16651">
        <ele>401.4</ele>
        <time>2021-08-23T14:09:37Z</time>
      </trkpt>
      <trkpt lat="47.11255" lon="6.16653">
        <ele>401.4</ele>
        <time>2021-08-23T14:09:38Z</time>
      </trkpt>
      <trkpt lat="47.11257" lon="6.16654">
        <ele>401.2</ele>
        <time>2021-08-23T14:09:39Z</time>
      </trkpt>
      <trkpt lat="47.11258" lon="6.16653">
        <ele>401.2</ele>
        <time>2021-08-23T14:09:40Z</time>
      </trkpt>
      <trkpt lat="47.11259" lon="6.16651">
        <ele>401</ele>
        <time>2021-08-23T14:09:41Z</time>
      </trkpt>
      <trkpt lat="47.1126" lon="6.16649">
        <ele>400.8</ele>
        <time>2021-08-23T14:09:42Z</time>
      </trkpt>
      <trkpt lat="47.11259" lon="6.16645">
        <ele>400.6</ele>
        <time>2021-08-23T14:09:43Z</time>
      </trkpt>
      <trkpt lat="47.11257" lon="6.16635">
        <ele>400.4</ele>
        <time>2021-08-23T14:09:45Z</time>
      </trkpt>
      <trkpt lat="47.11256" lon="6.16631">
        <ele>400.2</ele>
        <time>2021-08-23T14:09:46Z</time>
      </trkpt>
      <trkpt lat="47.11255" lon="6.16625">
        <ele>400.2</ele>
        <time>2021-08-23T14:09:47Z</time>
      </trkpt>
      <trkpt lat="47.11253" lon="6.16619">
        <ele>400</ele>
        <time>2021-08-23T14:09:48Z</time>
      </trkpt>
      <trkpt lat="47.11245" lon="6.16597">
        <ele>399.6</ele>
        <time>2021-08-23T14:09:51Z</time>
      </trkpt>
      <trkpt lat="47.11238" lon="6.16582">
        <ele>399.2</ele>
        <time>2021-08-23T14:09:53Z</time>
      </trkpt>
      <trkpt lat="47.11225" lon="6.16555">
        <ele>398.2</ele>
        <time>2021-08-23T14:09:56Z</time>
      </trkpt>
      <trkpt lat="47.11221" lon="6.16548">
        <ele>398</ele>
        <time>2021-08-23T14:09:57Z</time>
      </trkpt>
      <trkpt lat="47.112" lon="6.16508">
        <ele>396.6</ele>
        <time>2021-08-23T14:10:01Z</time>
      </trkpt>
      <trkpt lat="47.11183" lon="6.16475">
        <ele>395.4</ele>
        <time>2021-08-23T14:10:04Z</time>
      </trkpt>
      <trkpt lat="47.1117" lon="6.16449">
        <ele>394</ele>
        <time>2021-08-23T14:10:06Z</time>
      </trkpt>
      <trkpt lat="47.11165" lon="6.16439">
        <ele>393.6</ele>
        <time>2021-08-23T14:10:07Z</time>
      </trkpt>
      <trkpt lat="47.11153" lon="6.16414">
        <ele>392.8</ele>
        <time>2021-08-23T14:10:09Z</time>
      </trkpt>
      <trkpt lat="47.1114" lon="6.16387">
        <ele>391.6</ele>
        <time>2021-08-23T14:10:11Z</time>
      </trkpt>
      <trkpt lat="47.11127" lon="6.1636">
        <ele>390.8</ele>
        <time>2021-08-23T14:10:13Z</time>
      </trkpt>
      <trkpt lat="47.1112" lon="6.16347">
        <ele>390</ele>
        <time>2021-08-23T14:10:14Z</time>
      </trkpt>
      <trkpt lat="47.11113" lon="6.16333">
        <ele>389.6</ele>
        <time>2021-08-23T14:10:15Z</time>
      </trkpt>
      <trkpt lat="47.11106" lon="6.16319">
        <ele>388.8</ele>
        <time>2021-08-23T14:10:16Z</time>
      </trkpt>
      <trkpt lat="47.11093" lon="6.16291">
        <ele>387.6</ele>
        <time>2021-08-23T14:10:18Z</time>
      </trkpt>
      <trkpt lat="47.11078" lon="6.1626">
        <ele>386.4</ele>
        <time>2021-08-23T14:10:20Z</time>
      </trkpt>
      <trkpt lat="47.11072" lon="6.16248">
        <ele>385.8</ele>
        <time>2021-08-23T14:10:21Z</time>
      </trkpt>
      <trkpt lat="47.11064" lon="6.16234">
        <ele>385.4</ele>
        <time>2021-08-23T14:10:22Z</time>
      </trkpt>
      <trkpt lat="47.11048" lon="6.16205">
        <ele>384.4</ele>
        <time>2021-08-23T14:10:24Z</time>
      </trkpt>
      <trkpt lat="47.1103" lon="6.16176">
        <ele>382.8</ele>
        <time>2021-08-23T14:10:26Z</time>
      </trkpt>
      <trkpt lat="47.11021" lon="6.16161">
        <ele>382.6</ele>
        <time>2021-08-23T14:10:27Z</time>
      </trkpt>
      <trkpt lat="47.11013" lon="6.16147">
        <ele>381.8</ele>
        <time>2021-08-23T14:10:28Z</time>
      </trkpt>
      <trkpt lat="47.10996" lon="6.16118">
        <ele>380.4</ele>
        <time>2021-08-23T14:10:30Z</time>
      </trkpt>
      <trkpt lat="47.10979" lon="6.16091">
        <ele>378.8</ele>
        <time>2021-08-23T14:10:32Z</time>
      </trkpt>
      <trkpt lat="47.10961" lon="6.16065">
        <ele>377.4</ele>
        <time>2021-08-23T14:10:34Z</time>
      </trkpt>
      <trkpt lat="47.10943" lon="6.1604">
        <ele>376</ele>
        <time>2021-08-23T14:10:36Z</time>
      </trkpt>
      <trkpt lat="47.10934" lon="6.16028">
        <ele>375.2</ele>
        <time>2021-08-23T14:10:37Z</time>
      </trkpt>
      <trkpt lat="47.10926" lon="6.16015">
        <ele>374.8</ele>
        <time>2021-08-23T14:10:38Z</time>
      </trkpt>
      <trkpt lat="47.10906" lon="6.15987">
        <ele>373.4</ele>
        <time>2021-08-23T14:10:40Z</time>
      </trkpt>
      <trkpt lat="47.10889" lon="6.15964">
        <ele>372.4</ele>
        <time>2021-08-23T14:10:42Z</time>
      </trkpt>
      <trkpt lat="47.1087" lon="6.15937">
        <ele>370.8</ele>
        <time>2021-08-23T14:10:44Z</time>
      </trkpt>
      <trkpt lat="47.10852" lon="6.15915">
        <ele>369.8</ele>
        <time>2021-08-23T14:10:46Z</time>
      </trkpt>
      <trkpt lat="47.10843" lon="6.15907">
        <ele>369.2</ele>
        <time>2021-08-23T14:10:47Z</time>
      </trkpt>
      <trkpt lat="47.10833" lon="6.15898">
        <ele>368.4</ele>
        <time>2021-08-23T14:10:48Z</time>
      </trkpt>
      <trkpt lat="47.10808" lon="6.15884">
        <ele>367</ele>
        <time>2021-08-23T14:10:50Z</time>
      </trkpt>
      <trkpt lat="47.10786" lon="6.1588">
        <ele>365.8</ele>
        <time>2021-08-23T14:10:52Z</time>
      </trkpt>
      <trkpt lat="47.1075" lon="6.15875">
        <ele>364.6</ele>
        <time>2021-08-23T14:10:54Z</time>
      </trkpt>
      <trkpt lat="47.10738" lon="6.15873">
        <ele>363.4</ele>
        <time>2021-08-23T14:10:56Z</time>
      </trkpt>
      <trkpt lat="47.10715" lon="6.15868">
        <ele>362</ele>
        <time>2021-08-23T14:10:58Z</time>
      </trkpt>
      <trkpt lat="47.10693" lon="6.15864">
        <ele>360.6</ele>
        <time>2021-08-23T14:11:00Z</time>
      </trkpt>
      <trkpt lat="47.10681" lon="6.15862">
        <ele>359.8</ele>
        <time>2021-08-23T14:11:01Z</time>
      </trkpt>
      <trkpt lat="47.10659" lon="6.15861">
        <ele>358.8</ele>
        <time>2021-08-23T14:11:02Z</time>
      </trkpt>
      <trkpt lat="47.10659" lon="6.15861">
        <ele>358.4</ele>
        <time>2021-08-23T14:11:03Z</time>
      </trkpt>
      <trkpt lat="47.10638" lon="6.15863">
        <ele>357.8</ele>
        <time>2021-08-23T14:11:04Z</time>
      </trkpt>
      <trkpt lat="47.10638" lon="6.15863">
        <ele>357.2</ele>
        <time>2021-08-23T14:11:05Z</time>
      </trkpt>
      <trkpt lat="47.10616" lon="6.15865">
        <ele>356.4</ele>
        <time>2021-08-23T14:11:06Z</time>
      </trkpt>
      <trkpt lat="47.10616" lon="6.15865">
        <ele>356</ele>
        <time>2021-08-23T14:11:07Z</time>
      </trkpt>
      <trkpt lat="47.10595" lon="6.15868">
        <ele>355.4</ele>
        <time>2021-08-23T14:11:09Z</time>
      </trkpt>
      <trkpt lat="47.10574" lon="6.15868">
        <ele>354.8</ele>
        <time>2021-08-23T14:11:10Z</time>
      </trkpt>
      <trkpt lat="47.10574" lon="6.15868">
        <ele>354</ele>
        <time>2021-08-23T14:11:11Z</time>
      </trkpt>
      <trkpt lat="47.10553" lon="6.15865">
        <ele>353.2</ele>
        <time>2021-08-23T14:11:13Z</time>
      </trkpt>
      <trkpt lat="47.10533" lon="6.15858">
        <ele>351.4</ele>
        <time>2021-08-23T14:11:15Z</time>
      </trkpt>
      <trkpt lat="47.10518" lon="6.15849">
        <ele>351</ele>
        <time>2021-08-23T14:11:16Z</time>
      </trkpt>
      <trkpt lat="47.10512" lon="6.15846">
        <ele>350.4</ele>
        <time>2021-08-23T14:11:17Z</time>
      </trkpt>
      <trkpt lat="47.10512" lon="6.15846">
        <ele>350.2</ele>
        <time>2021-08-23T14:11:18Z</time>
      </trkpt>
      <trkpt lat="47.10503" lon="6.15842">
        <ele>349.4</ele>
        <time>2021-08-23T14:11:19Z</time>
      </trkpt>
      <trkpt lat="47.105" lon="6.15841">
        <ele>349</ele>
        <time>2021-08-23T14:11:20Z</time>
      </trkpt>
      <trkpt lat="47.10498" lon="6.1584">
        <ele>348.6</ele>
        <time>2021-08-23T14:11:21Z</time>
      </trkpt>
      <trkpt lat="47.10496" lon="6.15841">
        <ele>348</ele>
        <time>2021-08-23T14:11:22Z</time>
      </trkpt>
      <trkpt lat="47.10495" lon="6.15842">
        <ele>347.8</ele>
        <time>2021-08-23T14:11:23Z</time>
      </trkpt>
      <trkpt lat="47.10495" lon="6.15842">
        <ele>347.6</ele>
        <time>2021-08-23T14:11:24Z</time>
      </trkpt>
      <trkpt lat="47.10495" lon="6.15842">
        <ele>347.4</ele>
        <time>2021-08-23T14:11:25Z</time>
      </trkpt>
      <trkpt lat="47.10491" lon="6.15847">
        <ele>347.2</ele>
        <time>2021-08-23T14:11:30Z</time>
      </trkpt>
      <trkpt lat="47.1049" lon="6.15852">
        <ele>347.2</ele>
        <time>2021-08-23T14:11:31Z</time>
      </trkpt>
      <trkpt lat="47.10492" lon="6.15873">
        <ele>347</ele>
        <time>2021-08-23T14:11:35Z</time>
      </trkpt>
      <trkpt lat="47.10492" lon="6.1588">
        <ele>347</ele>
        <time>2021-08-23T14:11:36Z</time>
      </trkpt>
      <trkpt lat="47.10493" lon="6.15893">
        <ele>346.8</ele>
        <time>2021-08-23T14:11:38Z</time>
      </trkpt>
      <trkpt lat="47.10493" lon="6.15914">
        <ele>346.6</ele>
        <time>2021-08-23T14:11:41Z</time>
      </trkpt>
      <trkpt lat="47.10493" lon="6.15929">
        <ele>346.6</ele>
        <time>2021-08-23T14:11:43Z</time>
      </trkpt>
      <trkpt lat="47.10487" lon="6.15977">
        <ele>346.6</ele>
        <time>2021-08-23T14:11:50Z</time>
      </trkpt>
      <trkpt lat="47.10485" lon="6.15991">
        <ele>346.6</ele>
        <time>2021-08-23T14:11:52Z</time>
      </trkpt>
      <trkpt lat="47.1047" lon="6.16061">
        <ele>346.8</ele>
        <time>2021-08-23T14:12:01Z</time>
      </trkpt>
      <trkpt lat="47.10453" lon="6.16142">
        <ele>347</ele>
        <time>2021-08-23T14:12:11Z</time>
      </trkpt>
      <trkpt lat="47.1044" lon="6.16201">
        <ele>347.2</ele>
        <time>2021-08-23T14:12:18Z</time>
      </trkpt>
      <trkpt lat="47.10429" lon="6.1626">
        <ele>347.8</ele>
        <time>2021-08-23T14:12:25Z</time>
      </trkpt>
      <trkpt lat="47.10427" lon="6.16266">
        <ele>347.8</ele>
        <time>2021-08-23T14:12:26Z</time>
      </trkpt>
      <trkpt lat="47.10424" lon="6.16271">
        <ele>347.8</ele>
        <time>2021-08-23T14:12:27Z</time>
      </trkpt>
      <trkpt lat="47.10421" lon="6.16276">
        <ele>347.8</ele>
        <time>2021-08-23T14:12:28Z</time>
      </trkpt>
      <trkpt lat="47.10421" lon="6.16276">
        <ele>348</ele>
        <time>2021-08-23T14:12:29Z</time>
      </trkpt>
      <trkpt lat="47.10414" lon="6.16286">
        <ele>348</ele>
        <time>2021-08-23T14:12:30Z</time>
      </trkpt>
      <trkpt lat="47.10414" lon="6.16286">
        <ele>348</ele>
        <time>2021-08-23T14:12:31Z</time>
      </trkpt>
      <trkpt lat="47.10409" lon="6.16297">
        <ele>348</ele>
        <time>2021-08-23T14:12:32Z</time>
      </trkpt>
      <trkpt lat="47.10407" lon="6.16302">
        <ele>348</ele>
        <time>2021-08-23T14:12:33Z</time>
      </trkpt>
      <trkpt lat="47.10407" lon="6.16302">
        <ele>348</ele>
        <time>2021-08-23T14:12:34Z</time>
      </trkpt>
      <trkpt lat="47.10402" lon="6.16311">
        <ele>348</ele>
        <time>2021-08-23T14:12:35Z</time>
      </trkpt>
      <trkpt lat="47.104" lon="6.16315">
        <ele>348</ele>
        <time>2021-08-23T14:12:36Z</time>
      </trkpt>
      <trkpt lat="47.10399" lon="6.16319">
        <ele>348</ele>
        <time>2021-08-23T14:12:37Z</time>
      </trkpt>
      <trkpt lat="47.10397" lon="6.16322">
        <ele>348</ele>
        <time>2021-08-23T14:12:38Z</time>
      </trkpt>
      <trkpt lat="47.10397" lon="6.16322">
        <ele>348</ele>
        <time>2021-08-23T14:12:39Z</time>
      </trkpt>
      <trkpt lat="47.10396" lon="6.16325">
        <ele>348</ele>
        <time>2021-08-23T14:12:40Z</time>
      </trkpt>
      <trkpt lat="47.10396" lon="6.16325">
        <ele>348</ele>
        <time>2021-08-23T14:12:41Z</time>
      </trkpt>
      <trkpt lat="47.10396" lon="6.16325">
        <ele>348.4</ele>
        <time>2021-08-23T14:12:50Z</time>
      </trkpt>
      <trkpt lat="47.10396" lon="6.16325">
        <ele>348.4</ele>
        <time>2021-08-23T14:12:53Z</time>
      </trkpt>
    </trkseg>
  </trk>
</gpx>